<?xml version="1.0" encoding="UTF-8" standalone="yes"?>
<gpx
 xmlns="http://www.topografix.com/GPX/1/1"
 creator="OziExplorer Version 396 - http://www.oziexplorer.com"
 version="1.1"
 xmlns:xsi="http://www.w3.org/2001/XMLSchema-instance"
 xsi:schemaLocation="http://www.topografix.com/GPX/1/1 http://www.topografix.com/GPX/1/1/gpx.xsd">
<metadata>
 <time>2026-08-30T15:03:38Z</time>
 <bounds minlat="38.681918" minlon="22.036825" maxlat="38.703676" maxlon="22.176210"/>
</metadata>
<wpt lat="38.6993320" lon="22.1762100">
 <ele>1006.000000</ele>
 <time>2023-03-11T14:57:04.003Z</time>
 <name>Mousounitsa</name>
 <sym>Waypoint</sym>
</wpt>
<wpt lat="38.6994610" lon="22.1698920">
 <ele>1159.000000</ele>
 <time>2024-04-07T14:00:18.996Z</time>
 <name>Dexameni</name>
 <sym>Waypoint</sym>
</wpt>
<wpt lat="38.7031330" lon="22.1605160">
 <ele>1490.000122</ele>
 <time>2023-03-11T09:38:33.999Z</time>
 <name>chapel</name>
 <sym>Waypoint</sym>
</wpt>
<wpt lat="38.6927950" lon="22.1326740">
 <ele>1911.000000</ele>
 <time>2025-09-19T09:40:08.996Z</time>
 <name>refuge eooa</name>
 <sym>Waypoint</sym>
</wpt>
<wpt lat="38.6869510" lon="22.1301490">
 <ele>1998.878418</ele>
 <time>2025-09-19T09:41:02.996Z</time>
 <name>refuge poa</name>
 <sym>Waypoint</sym>
</wpt>
<wpt lat="38.6860800" lon="22.1060500">
 <ele>2257.043945</ele>
 <time>2026-07-10T18:49:16.997Z</time>
 <name>Soufles col</name>
 <sym>Waypoint</sym>
</wpt>
<wpt lat="38.6906550" lon="22.0958430">
 <ele>1742.000000</ele>
 <time>2026-08-04T14:53:59.004Z</time>
 <name>fountain</name>
 <sym>Waypoint</sym>
</wpt>
<wpt lat="38.6903100" lon="22.0720210">
 <ele>1484.000000</ele>
 <time>2024-06-01T13:35:52.002Z</time>
 <name>trail</name>
 <sym>Waypoint</sym>
</wpt>
<wpt lat="38.6979530" lon="22.0449850">
 <ele>1046.073608</ele>
 <time>2024-09-06T05:07:52.000Z</time>
 <name>river</name>
 <sym>Waypoint</sym>
</wpt>
<wpt lat="38.6994460" lon="22.0368250">
 <ele>1096.060791</ele>
 <time>2022-08-05T14:31:08.000Z</time>
 <name>Artotina</name>
 <sym>Waypoint</sym>
</wpt>
<trk>
 <name>mousounitsa_meterizia</name>
 <desc>6_ Athanasios Diakos - Soufles-Arto</desc>
<trkseg>
<trkpt lat="38.6988740" lon="22.1754040">
<ele>1015.288818</ele>
<time>2026-08-30T12:16:36.378Z</time>
</trkpt>
<trkpt lat="38.6988790" lon="22.1753790">
<ele>1015.593628</ele>
<time>2026-08-30T12:16:36.378Z</time>
</trkpt>
<trkpt lat="38.6988820" lon="22.1753560">
<ele>1015.898376</ele>
<time>2026-08-30T12:16:36.378Z</time>
</trkpt>
<trkpt lat="38.6988770" lon="22.1753240">
<ele>1016.203186</ele>
<time>2026-08-30T12:16:36.378Z</time>
</trkpt>
<trkpt lat="38.6988790" lon="22.1752960">
<ele>1016.812805</ele>
<time>2026-08-30T12:16:36.378Z</time>
</trkpt>
<trkpt lat="38.6988810" lon="22.1752670">
<ele>1017.117615</ele>
<time>2026-08-30T12:16:36.378Z</time>
</trkpt>
<trkpt lat="38.6988760" lon="22.1752390">
<ele>1017.727173</ele>
<time>2026-08-30T12:16:36.378Z</time>
</trkpt>
<trkpt lat="38.6988690" lon="22.1752090">
<ele>1018.336792</ele>
<time>2026-08-30T12:16:36.378Z</time>
</trkpt>
<trkpt lat="38.6988710" lon="22.1751810">
<ele>1018.946411</ele>
<time>2026-08-30T12:16:36.378Z</time>
</trkpt>
<trkpt lat="38.6988760" lon="22.1751490">
<ele>1019.251221</ele>
<time>2026-08-30T12:16:36.378Z</time>
</trkpt>
<trkpt lat="38.6988760" lon="22.1751170">
<ele>1019.860779</ele>
<time>2026-08-30T12:16:36.378Z</time>
</trkpt>
<trkpt lat="38.6988770" lon="22.1750890">
<ele>1020.470398</ele>
<time>2026-08-30T12:16:36.378Z</time>
</trkpt>
<trkpt lat="38.6988790" lon="22.1750640">
<ele>1020.775208</ele>
<time>2026-08-30T12:16:36.378Z</time>
</trkpt>
<trkpt lat="38.6988860" lon="22.1750340">
<ele>1021.384827</ele>
<time>2026-08-30T12:16:36.378Z</time>
</trkpt>
<trkpt lat="38.6988870" lon="22.1750060">
<ele>1021.994385</ele>
<time>2026-08-30T12:16:36.378Z</time>
</trkpt>
<trkpt lat="38.6988920" lon="22.1749820">
<ele>1022.604004</ele>
<time>2026-08-30T12:16:36.378Z</time>
</trkpt>
<trkpt lat="38.6988940" lon="22.1749540">
<ele>1023.518372</ele>
<time>2026-08-30T12:16:36.378Z</time>
</trkpt>
<trkpt lat="38.6988810" lon="22.1748420">
<ele>1026.566406</ele>
<time>2026-08-30T12:16:36.378Z</time>
</trkpt>
<trkpt lat="38.6988810" lon="22.1748190">
<ele>1027.176025</ele>
<time>2026-08-30T12:16:36.378Z</time>
</trkpt>
<trkpt lat="38.6988740" lon="22.1747910">
<ele>1028.090454</ele>
<time>2026-08-30T12:16:36.378Z</time>
</trkpt>
<trkpt lat="38.6988690" lon="22.1747610">
<ele>1028.699951</ele>
<time>2026-08-30T12:16:36.378Z</time>
</trkpt>
<trkpt lat="38.6988610" lon="22.1747340">
<ele>1029.614380</ele>
<time>2026-08-30T12:16:36.378Z</time>
</trkpt>
<trkpt lat="38.6988510" lon="22.1747140">
<ele>1030.223999</ele>
<time>2026-08-30T12:16:36.378Z</time>
</trkpt>
<trkpt lat="38.6988420" lon="22.1746890">
<ele>1031.138428</ele>
<time>2026-08-30T12:16:36.378Z</time>
</trkpt>
<trkpt lat="38.6988240" lon="22.1746660">
<ele>1031.748047</ele>
<time>2026-08-30T12:16:36.378Z</time>
</trkpt>
<trkpt lat="38.6988010" lon="22.1746470">
<ele>1032.357544</ele>
<time>2026-08-30T12:16:36.378Z</time>
</trkpt>
<trkpt lat="38.6987820" lon="22.1746470">
<ele>1032.052856</ele>
<time>2026-08-30T12:16:36.378Z</time>
</trkpt>
<trkpt lat="38.6987620" lon="22.1746520">
<ele>1032.052856</ele>
<time>2026-08-30T12:16:36.378Z</time>
</trkpt>
<trkpt lat="38.6987440" lon="22.1746590">
<ele>1031.748047</ele>
<time>2026-08-30T12:16:36.378Z</time>
</trkpt>
<trkpt lat="38.6987340" lon="22.1746790">
<ele>1030.833618</ele>
<time>2026-08-30T12:16:36.378Z</time>
</trkpt>
<trkpt lat="38.6987160" lon="22.1746960">
<ele>1030.223999</ele>
<time>2026-08-30T12:16:36.378Z</time>
</trkpt>
<trkpt lat="38.6986970" lon="22.1747140">
<ele>1029.614380</ele>
<time>2026-08-30T12:16:36.378Z</time>
</trkpt>
<trkpt lat="38.6986740" lon="22.1747220">
<ele>1029.309570</ele>
<time>2026-08-30T12:16:36.378Z</time>
</trkpt>
<trkpt lat="38.6986760" lon="22.1746910">
<ele>1030.223999</ele>
<time>2026-08-30T12:16:36.378Z</time>
</trkpt>
<trkpt lat="38.6986820" lon="22.1746660">
<ele>1031.138428</ele>
<time>2026-08-30T12:16:36.378Z</time>
</trkpt>
<trkpt lat="38.6986870" lon="22.1746370">
<ele>1032.052856</ele>
<time>2026-08-30T12:16:36.378Z</time>
</trkpt>
<trkpt lat="38.6986870" lon="22.1746110">
<ele>1032.967163</ele>
<time>2026-08-30T12:16:36.378Z</time>
</trkpt>
<trkpt lat="38.6986910" lon="22.1745870">
<ele>1033.881592</ele>
<time>2026-08-30T12:16:36.378Z</time>
</trkpt>
<trkpt lat="38.6986970" lon="22.1745540">
<ele>1034.796021</ele>
<time>2026-08-30T12:16:36.378Z</time>
</trkpt>
<trkpt lat="38.6986990" lon="22.1745270">
<ele>1036.015259</ele>
<time>2026-08-30T12:16:36.378Z</time>
</trkpt>
<trkpt lat="38.6986940" lon="22.1745020">
<ele>1036.624756</ele>
<time>2026-08-30T12:16:36.378Z</time>
</trkpt>
<trkpt lat="38.6986920" lon="22.1744740">
<ele>1037.539185</ele>
<time>2026-08-30T12:16:36.378Z</time>
</trkpt>
<trkpt lat="38.6986870" lon="22.1744490">
<ele>1038.453613</ele>
<time>2026-08-30T12:16:36.378Z</time>
</trkpt>
<trkpt lat="38.6986710" lon="22.1744310">
<ele>1038.758423</ele>
<time>2026-08-30T12:16:36.378Z</time>
</trkpt>
<trkpt lat="38.6985790" lon="22.1744570">
<ele>1037.843994</ele>
<time>2026-08-30T12:16:36.378Z</time>
</trkpt>
<trkpt lat="38.6985960" lon="22.1743370">
<ele>1041.196777</ele>
<time>2026-08-30T12:16:36.378Z</time>
</trkpt>
<trkpt lat="38.6985910" lon="22.1742190">
<ele>1044.549561</ele>
<time>2026-08-30T12:16:36.378Z</time>
</trkpt>
<trkpt lat="38.6985740" lon="22.1741010">
<ele>1047.292847</ele>
<time>2026-08-30T12:16:36.378Z</time>
</trkpt>
<trkpt lat="38.6985740" lon="22.1739810">
<ele>1049.731201</ele>
<time>2026-08-30T12:16:36.378Z</time>
</trkpt>
<trkpt lat="38.6986020" lon="22.1738690">
<ele>1052.474365</ele>
<time>2026-08-30T12:16:36.378Z</time>
</trkpt>
<trkpt lat="38.6986460" lon="22.1737670">
<ele>1054.912842</ele>
<time>2026-08-30T12:16:36.378Z</time>
</trkpt>
<trkpt lat="38.6986620" lon="22.1736540">
<ele>1057.656006</ele>
<time>2026-08-30T12:16:36.378Z</time>
</trkpt>
<trkpt lat="38.6985960" lon="22.1735570">
<ele>1059.484741</ele>
<time>2026-08-30T12:16:36.378Z</time>
</trkpt>
<trkpt lat="38.6985770" lon="22.1734370">
<ele>1062.532837</ele>
<time>2026-08-30T12:16:36.378Z</time>
</trkpt>
<trkpt lat="38.6984910" lon="22.1733990">
<ele>1063.751953</ele>
<time>2026-08-30T12:16:36.378Z</time>
</trkpt>
<trkpt lat="38.6984240" lon="22.1733120">
<ele>1066.495239</ele>
<time>2026-08-30T12:16:36.378Z</time>
</trkpt>
<trkpt lat="38.6984260" lon="22.1732040">
<ele>1070.152832</ele>
<time>2026-08-30T12:16:36.378Z</time>
</trkpt>
<trkpt lat="38.6984310" lon="22.1731990">
<ele>1070.457642</ele>
<time>2026-08-30T12:16:36.378Z</time>
</trkpt>
<trkpt lat="38.6984390" lon="22.1731870">
<ele>1071.067261</ele>
<time>2026-08-30T12:16:36.378Z</time>
</trkpt>
<trkpt lat="38.6984560" lon="22.1731710">
<ele>1071.676758</ele>
<time>2026-08-30T12:16:36.378Z</time>
</trkpt>
<trkpt lat="38.6984560" lon="22.1731700">
<ele>1071.676758</ele>
<time>2026-08-30T12:16:36.378Z</time>
</trkpt>
<trkpt lat="38.6984520" lon="22.1731470">
<ele>1072.591187</ele>
<time>2026-08-30T12:16:36.378Z</time>
</trkpt>
<trkpt lat="38.6984570" lon="22.1731220">
<ele>1073.505615</ele>
<time>2026-08-30T12:16:36.378Z</time>
</trkpt>
<trkpt lat="38.6984620" lon="22.1730920">
<ele>1074.724854</ele>
<time>2026-08-30T12:16:36.378Z</time>
</trkpt>
<trkpt lat="38.6984620" lon="22.1730670">
<ele>1075.639160</ele>
<time>2026-08-30T12:16:36.378Z</time>
</trkpt>
<trkpt lat="38.6984390" lon="22.1730590">
<ele>1075.639160</ele>
<time>2026-08-30T12:16:36.378Z</time>
</trkpt>
<trkpt lat="38.6984170" lon="22.1730540">
<ele>1075.639160</ele>
<time>2026-08-30T12:16:36.378Z</time>
</trkpt>
<trkpt lat="38.6984010" lon="22.1730390">
<ele>1076.248779</ele>
<time>2026-08-30T12:16:36.378Z</time>
</trkpt>
<trkpt lat="38.6984810" lon="22.1729860">
<ele>1078.687256</ele>
<time>2026-08-30T12:16:36.378Z</time>
</trkpt>
<trkpt lat="38.6985410" lon="22.1728890">
<ele>1083.259155</ele>
<time>2026-08-30T12:16:36.378Z</time>
</trkpt>
<trkpt lat="38.6985520" lon="22.1727620">
<ele>1088.745605</ele>
<time>2026-08-30T12:16:36.378Z</time>
</trkpt>
<trkpt lat="38.6985170" lon="22.1727220">
<ele>1089.355225</ele>
<time>2026-08-30T12:16:36.378Z</time>
</trkpt>
<trkpt lat="38.6985960" lon="22.1726420">
<ele>1093.317627</ele>
<time>2026-08-30T12:16:36.378Z</time>
</trkpt>
<trkpt lat="38.6985970" lon="22.1725460">
<ele>1096.365601</ele>
<time>2026-08-30T12:16:36.378Z</time>
</trkpt>
<trkpt lat="38.6985860" lon="22.1725210">
<ele>1096.975220</ele>
<time>2026-08-30T12:16:36.378Z</time>
</trkpt>
<trkpt lat="38.6985810" lon="22.1724970">
<ele>1097.889648</ele>
<time>2026-08-30T12:16:36.378Z</time>
</trkpt>
<trkpt lat="38.6985940" lon="22.1724770">
<ele>1098.499146</ele>
<time>2026-08-30T12:16:36.378Z</time>
</trkpt>
<trkpt lat="38.6986010" lon="22.1724520">
<ele>1099.108765</ele>
<time>2026-08-30T12:16:36.378Z</time>
</trkpt>
<trkpt lat="38.6986170" lon="22.1724340">
<ele>1100.023193</ele>
<time>2026-08-30T12:16:36.378Z</time>
</trkpt>
<trkpt lat="38.6986020" lon="22.1723190">
<ele>1103.071167</ele>
<time>2026-08-30T12:16:36.378Z</time>
</trkpt>
<trkpt lat="38.6985520" lon="22.1722220">
<ele>1104.290405</ele>
<time>2026-08-30T12:16:36.378Z</time>
</trkpt>
<trkpt lat="38.6986060" lon="22.1721260">
<ele>1107.643188</ele>
<time>2026-08-30T12:16:36.378Z</time>
</trkpt>
<trkpt lat="38.6986410" lon="22.1720140">
<ele>1110.386353</ele>
<time>2026-08-30T12:16:36.378Z</time>
</trkpt>
<trkpt lat="38.6987260" lon="22.1719620">
<ele>1113.129639</ele>
<time>2026-08-30T12:16:36.378Z</time>
</trkpt>
<trkpt lat="38.6987460" lon="22.1718390">
<ele>1117.701660</ele>
<time>2026-08-30T12:16:36.378Z</time>
</trkpt>
<trkpt lat="38.6987130" lon="22.1718030">
<ele>1118.311157</ele>
<time>2026-08-30T12:16:36.378Z</time>
</trkpt>
<trkpt lat="38.6987240" lon="22.1717860">
<ele>1118.920776</ele>
<time>2026-08-30T12:16:36.378Z</time>
</trkpt>
<trkpt lat="38.6987310" lon="22.1716710">
<ele>1123.187988</ele>
<time>2026-08-30T12:16:36.378Z</time>
</trkpt>
<trkpt lat="38.6986970" lon="22.1715540">
<ele>1126.540771</ele>
<time>2026-08-30T12:16:36.378Z</time>
</trkpt>
<trkpt lat="38.6987870" lon="22.1715160">
<ele>1131.417603</ele>
<time>2026-08-30T12:16:36.378Z</time>
</trkpt>
<trkpt lat="38.6988870" lon="22.1715260">
<ele>1134.465576</ele>
<time>2026-08-30T12:16:36.378Z</time>
</trkpt>
<trkpt lat="38.6989360" lon="22.1714260">
<ele>1140.561646</ele>
<time>2026-08-30T12:16:36.378Z</time>
</trkpt>
<trkpt lat="38.6989470" lon="22.1713040">
<ele>1146.657593</ele>
<time>2026-08-30T12:16:36.378Z</time>
</trkpt>
<trkpt lat="38.6989860" lon="22.1711960">
<ele>1152.753540</ele>
<time>2026-08-30T12:16:36.378Z</time>
</trkpt>
<trkpt lat="38.6990740" lon="22.1711640">
<ele>1157.325562</ele>
<time>2026-08-30T12:16:36.378Z</time>
</trkpt>
<trkpt lat="38.6991620" lon="22.1711170">
<ele>1162.507202</ele>
<time>2026-08-30T12:16:36.378Z</time>
</trkpt>
<trkpt lat="38.6992060" lon="22.1710110">
<ele>1164.640747</ele>
<time>2026-08-30T12:16:36.378Z</time>
</trkpt>
<trkpt lat="38.6992390" lon="22.1708940">
<ele>1166.774414</ele>
<time>2026-08-30T12:16:36.378Z</time>
</trkpt>
<trkpt lat="38.6992570" lon="22.1707740">
<ele>1169.212769</ele>
<time>2026-08-30T12:16:36.378Z</time>
</trkpt>
<trkpt lat="38.6992570" lon="22.1706510">
<ele>1171.346436</ele>
<time>2026-08-30T12:16:36.378Z</time>
</trkpt>
<trkpt lat="38.6992420" lon="22.1705270">
<ele>1173.175171</ele>
<time>2026-08-30T12:16:36.378Z</time>
</trkpt>
<trkpt lat="38.6991540" lon="22.1704860">
<ele>1172.565552</ele>
<time>2026-08-30T12:16:36.378Z</time>
</trkpt>
<trkpt lat="38.6991470" lon="22.1703710">
<ele>1173.784790</ele>
<time>2026-08-30T12:16:36.378Z</time>
</trkpt>
<trkpt lat="38.6991240" lon="22.1702520">
<ele>1174.699219</ele>
<time>2026-08-30T12:16:36.378Z</time>
</trkpt>
<trkpt lat="38.6991870" lon="22.1701540">
<ele>1178.052002</ele>
<time>2026-08-30T12:16:36.378Z</time>
</trkpt>
<trkpt lat="38.6992820" lon="22.1701560">
<ele>1180.795166</ele>
<time>2026-08-30T12:16:36.378Z</time>
</trkpt>
<trkpt lat="38.6993720" lon="22.1701290">
<ele>1184.452759</ele>
<time>2026-08-30T12:16:36.378Z</time>
</trkpt>
<trkpt lat="38.6994590" lon="22.1700890">
<ele>1188.110352</ele>
<time>2026-08-30T12:16:36.378Z</time>
</trkpt>
<trkpt lat="38.6995420" lon="22.1700320">
<ele>1192.682373</ele>
<time>2026-08-30T12:16:36.378Z</time>
</trkpt>
<trkpt lat="38.6995790" lon="22.1699140">
<ele>1196.644775</ele>
<time>2026-08-30T12:16:36.378Z</time>
</trkpt>
<trkpt lat="38.6995240" lon="22.1698190">
<ele>1196.644775</ele>
<time>2026-08-30T12:16:36.378Z</time>
</trkpt>
<trkpt lat="38.6995310" lon="22.1696920">
<ele>1198.778442</ele>
<time>2026-08-30T12:16:36.378Z</time>
</trkpt>
<trkpt lat="38.6995460" lon="22.1695670">
<ele>1199.387939</ele>
<time>2026-08-30T12:16:36.378Z</time>
</trkpt>
<trkpt lat="38.6995940" lon="22.1694660">
<ele>1201.826416</ele>
<time>2026-08-30T12:16:36.378Z</time>
</trkpt>
<trkpt lat="38.6996490" lon="22.1693610">
<ele>1205.788818</ele>
<time>2026-08-30T12:16:36.378Z</time>
</trkpt>
<trkpt lat="38.6996470" lon="22.1692370">
<ele>1207.312744</ele>
<time>2026-08-30T12:16:36.378Z</time>
</trkpt>
<trkpt lat="38.6997040" lon="22.1691460">
<ele>1212.189575</ele>
<time>2026-08-30T12:16:36.378Z</time>
</trkpt>
<trkpt lat="38.6997870" lon="22.1690860">
<ele>1216.456787</ele>
<time>2026-08-30T12:16:36.378Z</time>
</trkpt>
<trkpt lat="38.6998670" lon="22.1690340">
<ele>1219.809570</ele>
<time>2026-08-30T12:16:36.378Z</time>
</trkpt>
<trkpt lat="38.6999320" lon="22.1689540">
<ele>1223.467163</ele>
<time>2026-08-30T12:16:36.378Z</time>
</trkpt>
<trkpt lat="38.6999960" lon="22.1688660">
<ele>1227.124756</ele>
<time>2026-08-30T12:16:36.378Z</time>
</trkpt>
<trkpt lat="38.7000440" lon="22.1687610">
<ele>1228.953613</ele>
<time>2026-08-30T12:16:36.378Z</time>
</trkpt>
<trkpt lat="38.7000840" lon="22.1686510">
<ele>1231.087158</ele>
<time>2026-08-30T12:16:36.378Z</time>
</trkpt>
<trkpt lat="38.7001210" lon="22.1685420">
<ele>1233.525635</ele>
<time>2026-08-30T12:16:36.378Z</time>
</trkpt>
<trkpt lat="38.7002060" lon="22.1685860">
<ele>1234.439941</ele>
<time>2026-08-30T12:16:36.378Z</time>
</trkpt>
<trkpt lat="38.7002920" lon="22.1685540">
<ele>1236.878418</ele>
<time>2026-08-30T12:16:36.378Z</time>
</trkpt>
<trkpt lat="38.7003270" lon="22.1684440">
<ele>1240.840820</ele>
<time>2026-08-30T12:16:36.378Z</time>
</trkpt>
<trkpt lat="38.7004240" lon="22.1684260">
<ele>1244.193604</ele>
<time>2026-08-30T12:16:36.378Z</time>
</trkpt>
<trkpt lat="38.7004590" lon="22.1683070">
<ele>1248.460815</ele>
<time>2026-08-30T12:16:36.378Z</time>
</trkpt>
<trkpt lat="38.7005320" lon="22.1682270">
<ele>1253.032837</ele>
<time>2026-08-30T12:16:36.378Z</time>
</trkpt>
<trkpt lat="38.7005260" lon="22.1680940">
<ele>1255.776001</ele>
<time>2026-08-30T12:16:36.378Z</time>
</trkpt>
<trkpt lat="38.7004520" lon="22.1680260">
<ele>1253.947144</ele>
<time>2026-08-30T12:16:36.378Z</time>
</trkpt>
<trkpt lat="38.7005260" lon="22.1679140">
<ele>1256.080811</ele>
<time>2026-08-30T12:16:36.378Z</time>
</trkpt>
<trkpt lat="38.7006040" lon="22.1678210">
<ele>1256.995239</ele>
<time>2026-08-30T12:16:36.378Z</time>
</trkpt>
<trkpt lat="38.7006790" lon="22.1677460">
<ele>1258.214355</ele>
<time>2026-08-30T12:16:36.378Z</time>
</trkpt>
<trkpt lat="38.7007470" lon="22.1676660">
<ele>1260.043213</ele>
<time>2026-08-30T12:16:36.378Z</time>
</trkpt>
<trkpt lat="38.7008140" lon="22.1675770">
<ele>1261.871948</ele>
<time>2026-08-30T12:16:36.378Z</time>
</trkpt>
<trkpt lat="38.7008790" lon="22.1674910">
<ele>1264.920044</ele>
<time>2026-08-30T12:16:36.378Z</time>
</trkpt>
<trkpt lat="38.7008710" lon="22.1673720">
<ele>1266.748779</ele>
<time>2026-08-30T12:16:36.378Z</time>
</trkpt>
<trkpt lat="38.7008740" lon="22.1672540">
<ele>1269.187256</ele>
<time>2026-08-30T12:16:36.378Z</time>
</trkpt>
<trkpt lat="38.7008690" lon="22.1671340">
<ele>1271.625610</ele>
<time>2026-08-30T12:16:36.378Z</time>
</trkpt>
<trkpt lat="38.7007940" lon="22.1670440">
<ele>1270.711182</ele>
<time>2026-08-30T12:16:36.378Z</time>
</trkpt>
<trkpt lat="38.7007060" lon="22.1670120">
<ele>1267.968018</ele>
<time>2026-08-30T12:16:36.378Z</time>
</trkpt>
<trkpt lat="38.7007160" lon="22.1668860">
<ele>1271.320801</ele>
<time>2026-08-30T12:16:36.378Z</time>
</trkpt>
<trkpt lat="38.7006690" lon="22.1667790">
<ele>1271.320801</ele>
<time>2026-08-30T12:16:36.378Z</time>
</trkpt>
<trkpt lat="38.7006440" lon="22.1666540">
<ele>1272.844849</ele>
<time>2026-08-30T12:16:36.378Z</time>
</trkpt>
<trkpt lat="38.7006420" lon="22.1665270">
<ele>1275.283203</ele>
<time>2026-08-30T12:16:36.378Z</time>
</trkpt>
<trkpt lat="38.7006560" lon="22.1664120">
<ele>1278.331177</ele>
<time>2026-08-30T12:16:36.378Z</time>
</trkpt>
<trkpt lat="38.7007090" lon="22.1663160">
<ele>1282.598389</ele>
<time>2026-08-30T12:16:36.378Z</time>
</trkpt>
<trkpt lat="38.7007140" lon="22.1662740">
<ele>1283.208008</ele>
<time>2026-08-30T12:16:36.378Z</time>
</trkpt>
<trkpt lat="38.7007110" lon="22.1662440">
<ele>1283.208008</ele>
<time>2026-08-30T12:16:36.378Z</time>
</trkpt>
<trkpt lat="38.7007140" lon="22.1661270">
<ele>1284.427246</ele>
<time>2026-08-30T12:16:36.378Z</time>
</trkpt>
<trkpt lat="38.7007290" lon="22.1660110">
<ele>1285.951172</ele>
<time>2026-08-30T12:16:36.378Z</time>
</trkpt>
<trkpt lat="38.7007040" lon="22.1658920">
<ele>1285.951172</ele>
<time>2026-08-30T12:16:36.378Z</time>
</trkpt>
<trkpt lat="38.7007020" lon="22.1657670">
<ele>1287.780029</ele>
<time>2026-08-30T12:16:36.383Z</time>
</trkpt>
<trkpt lat="38.7006660" lon="22.1656610">
<ele>1288.694458</ele>
<time>2026-08-30T12:16:36.383Z</time>
</trkpt>
<trkpt lat="38.7007560" lon="22.1656490">
<ele>1292.352051</ele>
<time>2026-08-30T12:16:36.383Z</time>
</trkpt>
<trkpt lat="38.7008060" lon="22.1655470">
<ele>1296.314453</ele>
<time>2026-08-30T12:16:36.383Z</time>
</trkpt>
<trkpt lat="38.7007870" lon="22.1654120">
<ele>1298.447998</ele>
<time>2026-08-30T12:16:36.383Z</time>
</trkpt>
<trkpt lat="38.7007840" lon="22.1653610">
<ele>1299.057617</ele>
<time>2026-08-30T12:16:36.383Z</time>
</trkpt>
<trkpt lat="38.7007810" lon="22.1652370">
<ele>1301.495972</ele>
<time>2026-08-30T12:16:36.383Z</time>
</trkpt>
<trkpt lat="38.7008160" lon="22.1651190">
<ele>1306.067993</ele>
<time>2026-08-30T12:16:36.383Z</time>
</trkpt>
<trkpt lat="38.7008810" lon="22.1650340">
<ele>1310.944824</ele>
<time>2026-08-30T12:16:36.383Z</time>
</trkpt>
<trkpt lat="38.7009470" lon="22.1649390">
<ele>1314.907227</ele>
<time>2026-08-30T12:16:36.383Z</time>
</trkpt>
<trkpt lat="38.7009990" lon="22.1648240">
<ele>1317.955200</ele>
<time>2026-08-30T12:16:36.383Z</time>
</trkpt>
<trkpt lat="38.7010990" lon="22.1648340">
<ele>1320.698364</ele>
<time>2026-08-30T12:16:36.383Z</time>
</trkpt>
<trkpt lat="38.7011760" lon="22.1649210">
<ele>1322.832031</ele>
<time>2026-08-30T12:16:36.383Z</time>
</trkpt>
<trkpt lat="38.7012520" lon="22.1648490">
<ele>1325.270386</ele>
<time>2026-08-30T12:16:36.383Z</time>
</trkpt>
<trkpt lat="38.7012990" lon="22.1647370">
<ele>1326.794434</ele>
<time>2026-08-30T12:16:36.383Z</time>
</trkpt>
<trkpt lat="38.7012640" lon="22.1646310">
<ele>1325.880005</ele>
<time>2026-08-30T12:16:36.383Z</time>
</trkpt>
<trkpt lat="38.7013570" lon="22.1646620">
<ele>1328.318359</ele>
<time>2026-08-30T12:16:36.383Z</time>
</trkpt>
<trkpt lat="38.7013740" lon="22.1647890">
<ele>1328.927979</ele>
<time>2026-08-30T12:16:36.383Z</time>
</trkpt>
<trkpt lat="38.7013960" lon="22.1649010">
<ele>1329.842407</ele>
<time>2026-08-30T12:16:36.383Z</time>
</trkpt>
<trkpt lat="38.7014860" lon="22.1648860">
<ele>1332.585571</ele>
<time>2026-08-30T12:16:36.383Z</time>
</trkpt>
<trkpt lat="38.7015310" lon="22.1647810">
<ele>1333.804810</ele>
<time>2026-08-30T12:16:36.383Z</time>
</trkpt>
<trkpt lat="38.7016290" lon="22.1647810">
<ele>1336.852783</ele>
<time>2026-08-30T12:16:36.383Z</time>
</trkpt>
<trkpt lat="38.7016320" lon="22.1649040">
<ele>1336.852783</ele>
<time>2026-08-30T12:16:36.383Z</time>
</trkpt>
<trkpt lat="38.7017170" lon="22.1649610">
<ele>1340.205566</ele>
<time>2026-08-30T12:16:36.383Z</time>
</trkpt>
<trkpt lat="38.7017990" lon="22.1649020">
<ele>1344.167969</ele>
<time>2026-08-30T12:16:36.383Z</time>
</trkpt>
<trkpt lat="38.7018640" lon="22.1648040">
<ele>1347.520752</ele>
<time>2026-08-30T12:16:36.383Z</time>
</trkpt>
<trkpt lat="38.7018790" lon="22.1646890">
<ele>1348.739990</ele>
<time>2026-08-30T12:16:36.383Z</time>
</trkpt>
<trkpt lat="38.7019340" lon="22.1647810">
<ele>1351.178345</ele>
<time>2026-08-30T12:16:36.383Z</time>
</trkpt>
<trkpt lat="38.7019670" lon="22.1647790">
<ele>1352.702393</ele>
<time>2026-08-30T12:16:36.383Z</time>
</trkpt>
<trkpt lat="38.7019870" lon="22.1647720">
<ele>1353.616821</ele>
<time>2026-08-30T12:16:36.383Z</time>
</trkpt>
<trkpt lat="38.7020260" lon="22.1647940">
<ele>1355.140747</ele>
<time>2026-08-30T12:16:36.383Z</time>
</trkpt>
<trkpt lat="38.7020260" lon="22.1648170">
<ele>1355.140747</ele>
<time>2026-08-30T12:16:36.383Z</time>
</trkpt>
<trkpt lat="38.7020670" lon="22.1649290">
<ele>1355.750366</ele>
<time>2026-08-30T12:16:36.383Z</time>
</trkpt>
<trkpt lat="38.7021210" lon="22.1650260">
<ele>1357.274414</ele>
<time>2026-08-30T12:16:36.383Z</time>
</trkpt>
<trkpt lat="38.7021820" lon="22.1651160">
<ele>1358.493652</ele>
<time>2026-08-30T12:16:36.383Z</time>
</trkpt>
<trkpt lat="38.7022390" lon="22.1652110">
<ele>1358.798340</ele>
<time>2026-08-30T12:16:36.383Z</time>
</trkpt>
<trkpt lat="38.7023110" lon="22.1652810">
<ele>1359.407959</ele>
<time>2026-08-30T12:16:36.383Z</time>
</trkpt>
<trkpt lat="38.7023860" lon="22.1653560">
<ele>1361.236816</ele>
<time>2026-08-30T12:16:36.383Z</time>
</trkpt>
<trkpt lat="38.7024420" lon="22.1654490">
<ele>1362.151245</ele>
<time>2026-08-30T12:16:36.383Z</time>
</trkpt>
<trkpt lat="38.7025320" lon="22.1654470">
<ele>1364.589600</ele>
<time>2026-08-30T12:16:36.383Z</time>
</trkpt>
<trkpt lat="38.7026340" lon="22.1654360">
<ele>1367.027954</ele>
<time>2026-08-30T12:16:36.383Z</time>
</trkpt>
<trkpt lat="38.7027070" lon="22.1653590">
<ele>1370.380859</ele>
<time>2026-08-30T12:16:36.383Z</time>
</trkpt>
<trkpt lat="38.7027810" lon="22.1652670">
<ele>1374.343140</ele>
<time>2026-08-30T12:16:36.383Z</time>
</trkpt>
<trkpt lat="38.7028560" lon="22.1651570">
<ele>1375.867188</ele>
<time>2026-08-30T12:16:36.383Z</time>
</trkpt>
<trkpt lat="38.7028740" lon="22.1651420">
<ele>1376.171997</ele>
<time>2026-08-30T12:16:36.383Z</time>
</trkpt>
<trkpt lat="38.7029020" lon="22.1650320">
<ele>1378.305542</ele>
<time>2026-08-30T12:16:36.383Z</time>
</trkpt>
<trkpt lat="38.7028440" lon="22.1649390">
<ele>1379.829590</ele>
<time>2026-08-30T12:16:36.385Z</time>
</trkpt>
<trkpt lat="38.7027840" lon="22.1648410">
<ele>1380.744019</ele>
<time>2026-08-30T12:16:36.385Z</time>
</trkpt>
<trkpt lat="38.7027710" lon="22.1647020">
<ele>1381.658447</ele>
<time>2026-08-30T12:16:36.385Z</time>
</trkpt>
<trkpt lat="38.7027090" lon="22.1646140">
<ele>1380.439209</ele>
<time>2026-08-30T12:16:36.385Z</time>
</trkpt>
<trkpt lat="38.7027170" lon="22.1644970">
<ele>1380.744019</ele>
<time>2026-08-30T12:16:36.385Z</time>
</trkpt>
<trkpt lat="38.7027520" lon="22.1643820">
<ele>1381.353638</ele>
<time>2026-08-30T12:16:36.385Z</time>
</trkpt>
<trkpt lat="38.7026890" lon="22.1642990">
<ele>1379.829590</ele>
<time>2026-08-30T12:16:36.385Z</time>
</trkpt>
<trkpt lat="38.7027090" lon="22.1641860">
<ele>1380.439209</ele>
<time>2026-08-30T12:16:36.385Z</time>
</trkpt>
<trkpt lat="38.7027690" lon="22.1640890">
<ele>1382.267944</ele>
<time>2026-08-30T12:16:36.385Z</time>
</trkpt>
<trkpt lat="38.7028370" lon="22.1639820">
<ele>1385.011230</ele>
<time>2026-08-30T12:16:36.385Z</time>
</trkpt>
<trkpt lat="38.7028940" lon="22.1638890">
<ele>1387.449585</ele>
<time>2026-08-30T12:16:36.385Z</time>
</trkpt>
<trkpt lat="38.7029810" lon="22.1638440">
<ele>1390.192749</ele>
<time>2026-08-30T12:16:36.385Z</time>
</trkpt>
<trkpt lat="38.7030470" lon="22.1639210">
<ele>1391.411987</ele>
<time>2026-08-30T12:16:36.385Z</time>
</trkpt>
<trkpt lat="38.7031120" lon="22.1638310">
<ele>1392.936035</ele>
<time>2026-08-30T12:16:36.385Z</time>
</trkpt>
<trkpt lat="38.7032040" lon="22.1638510">
<ele>1392.631226</ele>
<time>2026-08-30T12:16:36.385Z</time>
</trkpt>
<trkpt lat="38.7032970" lon="22.1638670">
<ele>1392.631226</ele>
<time>2026-08-30T12:16:36.385Z</time>
</trkpt>
<trkpt lat="38.7033790" lon="22.1639270">
<ele>1389.887939</ele>
<time>2026-08-30T12:16:36.385Z</time>
</trkpt>
<trkpt lat="38.7034220" lon="22.1638210">
<ele>1391.107178</ele>
<time>2026-08-30T12:16:36.388Z</time>
</trkpt>
<trkpt lat="38.7034060" lon="22.1638010">
<ele>1392.021606</ele>
<time>2026-08-30T12:16:36.388Z</time>
</trkpt>
<trkpt lat="38.7034110" lon="22.1637740">
<ele>1392.631226</ele>
<time>2026-08-30T12:16:36.388Z</time>
</trkpt>
<trkpt lat="38.7034140" lon="22.1637510">
<ele>1393.240845</ele>
<time>2026-08-30T12:16:36.388Z</time>
</trkpt>
<trkpt lat="38.7034070" lon="22.1637290">
<ele>1394.155151</ele>
<time>2026-08-30T12:16:36.388Z</time>
</trkpt>
<trkpt lat="38.7033990" lon="22.1637060">
<ele>1394.764771</ele>
<time>2026-08-30T12:16:36.388Z</time>
</trkpt>
<trkpt lat="38.7033890" lon="22.1636860">
<ele>1395.679199</ele>
<time>2026-08-30T12:16:36.388Z</time>
</trkpt>
<trkpt lat="38.7033760" lon="22.1636540">
<ele>1396.898438</ele>
<time>2026-08-30T12:16:36.388Z</time>
</trkpt>
<trkpt lat="38.7033740" lon="22.1636260">
<ele>1397.812744</ele>
<time>2026-08-30T12:16:36.388Z</time>
</trkpt>
<trkpt lat="38.7033640" lon="22.1635990">
<ele>1398.727173</ele>
<time>2026-08-30T12:16:36.388Z</time>
</trkpt>
<trkpt lat="38.7033620" lon="22.1635740">
<ele>1399.641602</ele>
<time>2026-08-30T12:16:36.388Z</time>
</trkpt>
<trkpt lat="38.7033590" lon="22.1635510">
<ele>1400.251221</ele>
<time>2026-08-30T12:16:36.388Z</time>
</trkpt>
<trkpt lat="38.7033510" lon="22.1635240">
<ele>1401.165649</ele>
<time>2026-08-30T12:16:36.388Z</time>
</trkpt>
<trkpt lat="38.7033440" lon="22.1634940">
<ele>1402.079956</ele>
<time>2026-08-30T12:16:36.388Z</time>
</trkpt>
<trkpt lat="38.7033340" lon="22.1634670">
<ele>1402.994385</ele>
<time>2026-08-30T12:16:36.388Z</time>
</trkpt>
<trkpt lat="38.7033210" lon="22.1634440">
<ele>1403.604004</ele>
<time>2026-08-30T12:16:36.388Z</time>
</trkpt>
<trkpt lat="38.7033190" lon="22.1634120">
<ele>1404.518433</ele>
<time>2026-08-30T12:16:36.388Z</time>
</trkpt>
<trkpt lat="38.7033240" lon="22.1633860">
<ele>1405.128052</ele>
<time>2026-08-30T12:16:36.388Z</time>
</trkpt>
<trkpt lat="38.7033560" lon="22.1633090">
<ele>1407.566406</ele>
<time>2026-08-30T12:16:36.388Z</time>
</trkpt>
<trkpt lat="38.7033710" lon="22.1632820">
<ele>1408.176025</ele>
<time>2026-08-30T12:16:36.388Z</time>
</trkpt>
<trkpt lat="38.7033770" lon="22.1632610">
<ele>1408.785645</ele>
<time>2026-08-30T12:16:36.388Z</time>
</trkpt>
<trkpt lat="38.7033840" lon="22.1632320">
<ele>1409.395142</ele>
<time>2026-08-30T12:16:36.388Z</time>
</trkpt>
<trkpt lat="38.7033960" lon="22.1632060">
<ele>1410.309570</ele>
<time>2026-08-30T12:16:36.388Z</time>
</trkpt>
<trkpt lat="38.7034040" lon="22.1631840">
<ele>1410.919189</ele>
<time>2026-08-30T12:16:36.388Z</time>
</trkpt>
<trkpt lat="38.7034120" lon="22.1631620">
<ele>1411.528809</ele>
<time>2026-08-30T12:16:36.388Z</time>
</trkpt>
<trkpt lat="38.7034160" lon="22.1631370">
<ele>1412.443237</ele>
<time>2026-08-30T12:16:36.388Z</time>
</trkpt>
<trkpt lat="38.7033910" lon="22.1631370">
<ele>1412.443237</ele>
<time>2026-08-30T12:16:36.388Z</time>
</trkpt>
<trkpt lat="38.7033790" lon="22.1631120">
<ele>1412.748047</ele>
<time>2026-08-30T12:16:36.388Z</time>
</trkpt>
<trkpt lat="38.7033640" lon="22.1630960">
<ele>1413.052856</ele>
<time>2026-08-30T12:16:36.388Z</time>
</trkpt>
<trkpt lat="38.7033470" lon="22.1630790">
<ele>1413.357544</ele>
<time>2026-08-30T12:16:36.388Z</time>
</trkpt>
<trkpt lat="38.7033360" lon="22.1630540">
<ele>1413.967163</ele>
<time>2026-08-30T12:16:36.388Z</time>
</trkpt>
<trkpt lat="38.7033220" lon="22.1630360">
<ele>1414.271973</ele>
<time>2026-08-30T12:16:36.388Z</time>
</trkpt>
<trkpt lat="38.7033120" lon="22.1630120">
<ele>1414.576782</ele>
<time>2026-08-30T12:16:36.388Z</time>
</trkpt>
<trkpt lat="38.7033090" lon="22.1629840">
<ele>1415.491211</ele>
<time>2026-08-30T12:16:36.388Z</time>
</trkpt>
<trkpt lat="38.7033070" lon="22.1629570">
<ele>1416.405640</ele>
<time>2026-08-30T12:16:36.388Z</time>
</trkpt>
<trkpt lat="38.7033040" lon="22.1629260">
<ele>1417.015259</ele>
<time>2026-08-30T12:16:36.388Z</time>
</trkpt>
<trkpt lat="38.7033010" lon="22.1629010">
<ele>1417.929565</ele>
<time>2026-08-30T12:16:36.388Z</time>
</trkpt>
<trkpt lat="38.7032890" lon="22.1628810">
<ele>1417.929565</ele>
<time>2026-08-30T12:16:36.388Z</time>
</trkpt>
<trkpt lat="38.7032810" lon="22.1628590">
<ele>1418.539185</ele>
<time>2026-08-30T12:16:36.388Z</time>
</trkpt>
<trkpt lat="38.7032810" lon="22.1628290">
<ele>1419.148804</ele>
<time>2026-08-30T12:16:36.388Z</time>
</trkpt>
<trkpt lat="38.7032810" lon="22.1628010">
<ele>1420.063232</ele>
<time>2026-08-30T12:16:36.388Z</time>
</trkpt>
<trkpt lat="38.7032810" lon="22.1627710">
<ele>1420.977539</ele>
<time>2026-08-30T12:16:36.388Z</time>
</trkpt>
<trkpt lat="38.7032670" lon="22.1627460">
<ele>1421.282349</ele>
<time>2026-08-30T12:16:36.388Z</time>
</trkpt>
<trkpt lat="38.7032820" lon="22.1627320">
<ele>1422.196777</ele>
<time>2026-08-30T12:16:36.388Z</time>
</trkpt>
<trkpt lat="38.7033020" lon="22.1627410">
<ele>1422.806396</ele>
<time>2026-08-30T12:16:36.388Z</time>
</trkpt>
<trkpt lat="38.7033220" lon="22.1627520">
<ele>1423.111206</ele>
<time>2026-08-30T12:16:36.388Z</time>
</trkpt>
<trkpt lat="38.7033440" lon="22.1627640">
<ele>1423.416016</ele>
<time>2026-08-30T12:16:36.388Z</time>
</trkpt>
<trkpt lat="38.7033620" lon="22.1627520">
<ele>1424.330444</ele>
<time>2026-08-30T12:16:36.388Z</time>
</trkpt>
<trkpt lat="38.7033810" lon="22.1627390">
<ele>1424.939941</ele>
<time>2026-08-30T12:16:36.388Z</time>
</trkpt>
<trkpt lat="38.7034040" lon="22.1627210">
<ele>1425.854370</ele>
<time>2026-08-30T12:16:36.388Z</time>
</trkpt>
<trkpt lat="38.7034270" lon="22.1627040">
<ele>1426.463989</ele>
<time>2026-08-30T12:16:36.388Z</time>
</trkpt>
<trkpt lat="38.7034440" lon="22.1626820">
<ele>1427.378418</ele>
<time>2026-08-30T12:16:36.388Z</time>
</trkpt>
<trkpt lat="38.7034560" lon="22.1626660">
<ele>1428.292847</ele>
<time>2026-08-30T12:16:36.388Z</time>
</trkpt>
<trkpt lat="38.7034660" lon="22.1626390">
<ele>1429.207153</ele>
<time>2026-08-30T12:16:36.388Z</time>
</trkpt>
<trkpt lat="38.7034770" lon="22.1626140">
<ele>1430.121582</ele>
<time>2026-08-30T12:16:36.388Z</time>
</trkpt>
<trkpt lat="38.7034840" lon="22.1625910">
<ele>1430.731201</ele>
<time>2026-08-30T12:16:36.388Z</time>
</trkpt>
<trkpt lat="38.7034960" lon="22.1625720">
<ele>1431.645630</ele>
<time>2026-08-30T12:16:36.388Z</time>
</trkpt>
<trkpt lat="38.7035110" lon="22.1625520">
<ele>1432.255249</ele>
<time>2026-08-30T12:16:36.388Z</time>
</trkpt>
<trkpt lat="38.7035260" lon="22.1625370">
<ele>1433.169556</ele>
<time>2026-08-30T12:16:36.388Z</time>
</trkpt>
<trkpt lat="38.7035490" lon="22.1625210">
<ele>1434.083984</ele>
<time>2026-08-30T12:16:36.388Z</time>
</trkpt>
<trkpt lat="38.7036070" lon="22.1624220">
<ele>1438.046387</ele>
<time>2026-08-30T12:16:36.388Z</time>
</trkpt>
<trkpt lat="38.7036240" lon="22.1622940">
<ele>1441.094360</ele>
<time>2026-08-30T12:16:36.388Z</time>
</trkpt>
<trkpt lat="38.7036760" lon="22.1621990">
<ele>1442.618408</ele>
<time>2026-08-30T12:16:36.388Z</time>
</trkpt>
<trkpt lat="38.7036760" lon="22.1621140">
<ele>1444.751953</ele>
<time>2026-08-30T12:16:36.388Z</time>
</trkpt>
<trkpt lat="38.7036690" lon="22.1620870">
<ele>1445.666382</ele>
<time>2026-08-30T12:16:36.388Z</time>
</trkpt>
<trkpt lat="38.7036620" lon="22.1620610">
<ele>1446.276001</ele>
<time>2026-08-30T12:16:36.388Z</time>
</trkpt>
<trkpt lat="38.7036470" lon="22.1620420">
<ele>1447.190430</ele>
<time>2026-08-30T12:16:36.388Z</time>
</trkpt>
<trkpt lat="38.7036340" lon="22.1620170">
<ele>1447.800049</ele>
<time>2026-08-30T12:16:36.388Z</time>
</trkpt>
<trkpt lat="38.7036270" lon="22.1619860">
<ele>1448.714355</ele>
<time>2026-08-30T12:16:36.388Z</time>
</trkpt>
<trkpt lat="38.7036270" lon="22.1619540">
<ele>1449.628784</ele>
<time>2026-08-30T12:16:36.388Z</time>
</trkpt>
<trkpt lat="38.7036260" lon="22.1619210">
<ele>1450.848022</ele>
<time>2026-08-30T12:16:36.388Z</time>
</trkpt>
<trkpt lat="38.7036190" lon="22.1618920">
<ele>1452.371948</ele>
<time>2026-08-30T12:16:36.388Z</time>
</trkpt>
<trkpt lat="38.7036240" lon="22.1618590">
<ele>1453.895996</ele>
<time>2026-08-30T12:16:36.388Z</time>
</trkpt>
<trkpt lat="38.7036210" lon="22.1618340">
<ele>1455.115234</ele>
<time>2026-08-30T12:16:36.388Z</time>
</trkpt>
<trkpt lat="38.7036070" lon="22.1618170">
<ele>1455.724854</ele>
<time>2026-08-30T12:16:36.388Z</time>
</trkpt>
<trkpt lat="38.7035960" lon="22.1617910">
<ele>1456.639160</ele>
<time>2026-08-30T12:16:36.388Z</time>
</trkpt>
<trkpt lat="38.7035970" lon="22.1617560">
<ele>1458.163208</ele>
<time>2026-08-30T12:16:36.388Z</time>
</trkpt>
<trkpt lat="38.7035990" lon="22.1617320">
<ele>1459.382446</ele>
<time>2026-08-30T12:16:36.388Z</time>
</trkpt>
<trkpt lat="38.7035990" lon="22.1616970">
<ele>1460.906372</ele>
<time>2026-08-30T12:16:36.388Z</time>
</trkpt>
<trkpt lat="38.7035990" lon="22.1616660">
<ele>1462.430420</ele>
<time>2026-08-30T12:16:36.388Z</time>
</trkpt>
<trkpt lat="38.7036070" lon="22.1616440">
<ele>1463.040039</ele>
<time>2026-08-30T12:16:36.388Z</time>
</trkpt>
<trkpt lat="38.7035960" lon="22.1616190">
<ele>1463.040039</ele>
<time>2026-08-30T12:16:36.388Z</time>
</trkpt>
<trkpt lat="38.7035770" lon="22.1616220">
<ele>1461.820801</ele>
<time>2026-08-30T12:16:36.388Z</time>
</trkpt>
<trkpt lat="38.7035540" lon="22.1616310">
<ele>1460.601563</ele>
<time>2026-08-30T12:16:36.390Z</time>
</trkpt>
<trkpt lat="38.7035320" lon="22.1616360">
<ele>1459.382446</ele>
<time>2026-08-30T12:16:36.390Z</time>
</trkpt>
<trkpt lat="38.7035010" lon="22.1616310">
<ele>1457.553589</ele>
<time>2026-08-30T12:16:36.390Z</time>
</trkpt>
<trkpt lat="38.7034740" lon="22.1616240">
<ele>1456.334351</ele>
<time>2026-08-30T12:16:36.390Z</time>
</trkpt>
<trkpt lat="38.7034540" lon="22.1616140">
<ele>1455.724854</ele>
<time>2026-08-30T12:16:36.390Z</time>
</trkpt>
<trkpt lat="38.7034390" lon="22.1615940">
<ele>1455.115234</ele>
<time>2026-08-30T12:16:36.390Z</time>
</trkpt>
<trkpt lat="38.7034310" lon="22.1615670">
<ele>1455.420044</ele>
<time>2026-08-30T12:16:36.390Z</time>
</trkpt>
<trkpt lat="38.7034220" lon="22.1615360">
<ele>1455.724854</ele>
<time>2026-08-30T12:16:36.390Z</time>
</trkpt>
<trkpt lat="38.7034170" lon="22.1615070">
<ele>1456.029541</ele>
<time>2026-08-30T12:16:36.390Z</time>
</trkpt>
<trkpt lat="38.7034140" lon="22.1614770">
<ele>1456.639160</ele>
<time>2026-08-30T12:16:36.390Z</time>
</trkpt>
<trkpt lat="38.7034070" lon="22.1614470">
<ele>1456.943970</ele>
<time>2026-08-30T12:16:36.390Z</time>
</trkpt>
<trkpt lat="38.7033920" lon="22.1614260">
<ele>1456.639160</ele>
<time>2026-08-30T12:16:36.390Z</time>
</trkpt>
<trkpt lat="38.7033920" lon="22.1614010">
<ele>1457.248779</ele>
<time>2026-08-30T12:16:36.390Z</time>
</trkpt>
<trkpt lat="38.7033890" lon="22.1613640">
<ele>1457.858398</ele>
<time>2026-08-30T12:16:36.390Z</time>
</trkpt>
<trkpt lat="38.7033790" lon="22.1613340">
<ele>1457.858398</ele>
<time>2026-08-30T12:16:36.390Z</time>
</trkpt>
<trkpt lat="38.7033920" lon="22.1613060">
<ele>1458.772827</ele>
<time>2026-08-30T12:16:36.390Z</time>
</trkpt>
<trkpt lat="38.7034110" lon="22.1613010">
<ele>1459.687256</ele>
<time>2026-08-30T12:16:36.390Z</time>
</trkpt>
<trkpt lat="38.7034160" lon="22.1612760">
<ele>1460.296753</ele>
<time>2026-08-30T12:16:36.390Z</time>
</trkpt>
<trkpt lat="38.7034210" lon="22.1612510">
<ele>1460.906372</ele>
<time>2026-08-30T12:16:36.390Z</time>
</trkpt>
<trkpt lat="38.7034260" lon="22.1612240">
<ele>1461.515991</ele>
<time>2026-08-30T12:16:36.390Z</time>
</trkpt>
<trkpt lat="38.7034290" lon="22.1611990">
<ele>1461.820801</ele>
<time>2026-08-30T12:16:36.390Z</time>
</trkpt>
<trkpt lat="38.7034370" lon="22.1611740">
<ele>1462.430420</ele>
<time>2026-08-30T12:16:36.390Z</time>
</trkpt>
<trkpt lat="38.7034370" lon="22.1611470">
<ele>1463.040039</ele>
<time>2026-08-30T12:16:36.390Z</time>
</trkpt>
<trkpt lat="38.7034340" lon="22.1611210">
<ele>1463.040039</ele>
<time>2026-08-30T12:16:36.390Z</time>
</trkpt>
<trkpt lat="38.7034270" lon="22.1611060">
<ele>1463.040039</ele>
<time>2026-08-30T12:16:36.390Z</time>
</trkpt>
<trkpt lat="38.7034210" lon="22.1610810">
<ele>1463.344849</ele>
<time>2026-08-30T12:16:36.390Z</time>
</trkpt>
<trkpt lat="38.7034290" lon="22.1610190">
<ele>1464.259155</ele>
<time>2026-08-30T12:16:36.390Z</time>
</trkpt>
<trkpt lat="38.7034000" lon="22.1609060">
<ele>1465.478394</ele>
<time>2026-08-30T12:16:36.390Z</time>
</trkpt>
<trkpt lat="38.7033360" lon="22.1608470">
<ele>1465.783203</ele>
<time>2026-08-30T12:16:36.390Z</time>
</trkpt>
<trkpt lat="38.7032860" lon="22.1607860">
<ele>1465.173584</ele>
<time>2026-08-30T12:16:36.390Z</time>
</trkpt>
<trkpt lat="38.7031750" lon="22.1606610">
<ele>1464.259155</ele>
<time>2026-08-30T12:16:36.390Z</time>
</trkpt>
<trkpt lat="38.7030350" lon="22.1604650">
<ele>1465.478394</ele>
<time>2026-08-30T12:16:36.390Z</time>
</trkpt>
<trkpt lat="38.7029510" lon="22.1603100">
<ele>1467.916748</ele>
<time>2026-08-30T12:16:36.390Z</time>
</trkpt>
<trkpt lat="38.7029160" lon="22.1601650">
<ele>1470.964844</ele>
<time>2026-08-30T12:16:36.390Z</time>
</trkpt>
<trkpt lat="38.7027680" lon="22.1600650">
<ele>1471.574341</ele>
<time>2026-08-30T12:16:36.390Z</time>
</trkpt>
<trkpt lat="38.7026840" lon="22.1599510">
<ele>1472.793579</ele>
<time>2026-08-30T12:16:36.390Z</time>
</trkpt>
<trkpt lat="38.7025980" lon="22.1598440">
<ele>1473.708008</ele>
<time>2026-08-30T12:16:36.390Z</time>
</trkpt>
<trkpt lat="38.7025940" lon="22.1595710">
<ele>1478.889648</ele>
<time>2026-08-30T12:16:36.390Z</time>
</trkpt>
<trkpt lat="38.7026180" lon="22.1593690">
<ele>1481.023193</ele>
<time>2026-08-30T12:16:36.390Z</time>
</trkpt>
<trkpt lat="38.7026350" lon="22.1593020">
<ele>1481.023193</ele>
<time>2026-08-30T12:16:36.390Z</time>
</trkpt>
<trkpt lat="38.7026630" lon="22.1592610">
<ele>1481.023193</ele>
<time>2026-08-30T12:16:36.390Z</time>
</trkpt>
<trkpt lat="38.7027420" lon="22.1591850">
<ele>1481.023193</ele>
<time>2026-08-30T12:16:36.390Z</time>
</trkpt>
<trkpt lat="38.7028370" lon="22.1590720">
<ele>1479.803955</ele>
<time>2026-08-30T12:16:36.390Z</time>
</trkpt>
<trkpt lat="38.7029080" lon="22.1589890">
<ele>1478.889648</ele>
<time>2026-08-30T12:16:36.390Z</time>
</trkpt>
<trkpt lat="38.7029410" lon="22.1589160">
<ele>1478.889648</ele>
<time>2026-08-30T12:16:36.390Z</time>
</trkpt>
<trkpt lat="38.7029540" lon="22.1588220">
<ele>1478.280029</ele>
<time>2026-08-30T12:16:36.390Z</time>
</trkpt>
<trkpt lat="38.7029480" lon="22.1587020">
<ele>1477.670410</ele>
<time>2026-08-30T12:16:36.390Z</time>
</trkpt>
<trkpt lat="38.7029120" lon="22.1585860">
<ele>1477.060791</ele>
<time>2026-08-30T12:16:36.390Z</time>
</trkpt>
<trkpt lat="38.7028560" lon="22.1584870">
<ele>1474.622437</ele>
<time>2026-08-30T12:16:36.390Z</time>
</trkpt>
<trkpt lat="38.7027510" lon="22.1583720">
<ele>1470.355225</ele>
<time>2026-08-30T12:16:36.390Z</time>
</trkpt>
<trkpt lat="38.7026280" lon="22.1582620">
<ele>1464.868774</ele>
<time>2026-08-30T12:16:36.390Z</time>
</trkpt>
<trkpt lat="38.7024580" lon="22.1581140">
<ele>1458.468018</ele>
<time>2026-08-30T12:16:36.390Z</time>
</trkpt>
<trkpt lat="38.7022970" lon="22.1579690">
<ele>1455.724854</ele>
<time>2026-08-30T12:16:36.390Z</time>
</trkpt>
<trkpt lat="38.7021780" lon="22.1578430">
<ele>1455.420044</ele>
<time>2026-08-30T12:16:36.390Z</time>
</trkpt>
<trkpt lat="38.7021110" lon="22.1577550">
<ele>1456.029541</ele>
<time>2026-08-30T12:16:36.390Z</time>
</trkpt>
<trkpt lat="38.7020430" lon="22.1576880">
<ele>1456.639160</ele>
<time>2026-08-30T12:16:36.390Z</time>
</trkpt>
<trkpt lat="38.7019470" lon="22.1576320">
<ele>1456.943970</ele>
<time>2026-08-30T12:16:36.390Z</time>
</trkpt>
<trkpt lat="38.7017760" lon="22.1575590">
<ele>1455.115234</ele>
<time>2026-08-30T12:16:36.390Z</time>
</trkpt>
<trkpt lat="38.7016900" lon="22.1575160">
<ele>1454.200806</ele>
<time>2026-08-30T12:16:36.390Z</time>
</trkpt>
<trkpt lat="38.7016140" lon="22.1574620">
<ele>1452.676758</ele>
<time>2026-08-30T12:16:36.390Z</time>
</trkpt>
<trkpt lat="38.7015720" lon="22.1574090">
<ele>1451.762451</ele>
<time>2026-08-30T12:16:36.390Z</time>
</trkpt>
<trkpt lat="38.7015490" lon="22.1572720">
<ele>1450.848022</ele>
<time>2026-08-30T12:16:36.390Z</time>
</trkpt>
<trkpt lat="38.7015140" lon="22.1570310">
<ele>1449.933594</ele>
<time>2026-08-30T12:16:36.390Z</time>
</trkpt>
<trkpt lat="38.7014930" lon="22.1568700">
<ele>1449.323975</ele>
<time>2026-08-30T12:16:36.390Z</time>
</trkpt>
<trkpt lat="38.7014940" lon="22.1568360">
<ele>1449.019165</ele>
<time>2026-08-30T12:16:36.390Z</time>
</trkpt>
<trkpt lat="38.7014970" lon="22.1567200">
<ele>1448.714355</ele>
<time>2026-08-30T12:16:36.390Z</time>
</trkpt>
<trkpt lat="38.7015010" lon="22.1566490">
<ele>1448.409546</ele>
<time>2026-08-30T12:16:36.390Z</time>
</trkpt>
<trkpt lat="38.7015090" lon="22.1564790">
<ele>1449.323975</ele>
<time>2026-08-30T12:16:36.390Z</time>
</trkpt>
<trkpt lat="38.7014950" lon="22.1564160">
<ele>1449.323975</ele>
<time>2026-08-30T12:16:36.392Z</time>
</trkpt>
<trkpt lat="38.7014700" lon="22.1562910">
<ele>1449.323975</ele>
<time>2026-08-30T12:16:36.392Z</time>
</trkpt>
<trkpt lat="38.7013870" lon="22.1561970">
<ele>1448.409546</ele>
<time>2026-08-30T12:16:36.392Z</time>
</trkpt>
<trkpt lat="38.7012910" lon="22.1557090">
<ele>1451.152832</ele>
<time>2026-08-30T12:16:36.392Z</time>
</trkpt>
<trkpt lat="38.7012740" lon="22.1555100">
<ele>1455.420044</ele>
<time>2026-08-30T12:16:36.392Z</time>
</trkpt>
<trkpt lat="38.7012550" lon="22.1553120">
<ele>1461.211182</ele>
<time>2026-08-30T12:16:36.392Z</time>
</trkpt>
<trkpt lat="38.7011480" lon="22.1552310">
<ele>1459.991943</ele>
<time>2026-08-30T12:16:36.392Z</time>
</trkpt>
<trkpt lat="38.7011460" lon="22.1551630">
<ele>1462.430420</ele>
<time>2026-08-30T12:16:36.392Z</time>
</trkpt>
<trkpt lat="38.7012090" lon="22.1551160">
<ele>1466.392822</ele>
<time>2026-08-30T12:16:36.392Z</time>
</trkpt>
<trkpt lat="38.7012620" lon="22.1550610">
<ele>1470.050415</ele>
<time>2026-08-30T12:16:36.392Z</time>
</trkpt>
<trkpt lat="38.7012960" lon="22.1549930">
<ele>1474.012817</ele>
<time>2026-08-30T12:16:36.392Z</time>
</trkpt>
<trkpt lat="38.7013270" lon="22.1548550">
<ele>1479.499146</ele>
<time>2026-08-30T12:16:36.392Z</time>
</trkpt>
<trkpt lat="38.7013620" lon="22.1547430">
<ele>1484.375977</ele>
<time>2026-08-30T12:16:36.392Z</time>
</trkpt>
<trkpt lat="38.7014440" lon="22.1547970">
<ele>1483.461548</ele>
<time>2026-08-30T12:16:36.392Z</time>
</trkpt>
<trkpt lat="38.7014930" lon="22.1547110">
<ele>1485.900024</ele>
<time>2026-08-30T12:16:36.392Z</time>
</trkpt>
<trkpt lat="38.7014950" lon="22.1546210">
<ele>1487.423950</ele>
<time>2026-08-30T12:16:36.392Z</time>
</trkpt>
<trkpt lat="38.7014250" lon="22.1545070">
<ele>1489.252808</ele>
<time>2026-08-30T12:16:36.392Z</time>
</trkpt>
<trkpt lat="38.7014000" lon="22.1543520">
<ele>1491.691162</ele>
<time>2026-08-30T12:16:36.392Z</time>
</trkpt>
<trkpt lat="38.7013230" lon="22.1542300">
<ele>1493.215210</ele>
<time>2026-08-30T12:16:36.392Z</time>
</trkpt>
<trkpt lat="38.7012100" lon="22.1540760">
<ele>1495.653564</ele>
<time>2026-08-30T12:16:36.392Z</time>
</trkpt>
<trkpt lat="38.7011790" lon="22.1538640">
<ele>1502.054443</ele>
<time>2026-08-30T12:16:36.392Z</time>
</trkpt>
<trkpt lat="38.7011790" lon="22.1537530">
<ele>1506.321655</ele>
<time>2026-08-30T12:16:36.392Z</time>
</trkpt>
<trkpt lat="38.7011110" lon="22.1536530">
<ele>1509.369629</ele>
<time>2026-08-30T12:16:36.392Z</time>
</trkpt>
<trkpt lat="38.7010440" lon="22.1535910">
<ele>1512.112793</ele>
<time>2026-08-30T12:16:36.392Z</time>
</trkpt>
<trkpt lat="38.7010370" lon="22.1535060">
<ele>1514.855957</ele>
<time>2026-08-30T12:16:36.392Z</time>
</trkpt>
<trkpt lat="38.7010510" lon="22.1534360">
<ele>1516.989624</ele>
<time>2026-08-30T12:16:36.392Z</time>
</trkpt>
<trkpt lat="38.7010530" lon="22.1533050">
<ele>1521.256836</ele>
<time>2026-08-30T12:16:36.392Z</time>
</trkpt>
<trkpt lat="38.7010520" lon="22.1532290">
<ele>1524.000000</ele>
<time>2026-08-30T12:16:36.392Z</time>
</trkpt>
<trkpt lat="38.7010330" lon="22.1531710">
<ele>1526.133545</ele>
<time>2026-08-30T12:16:36.392Z</time>
</trkpt>
<trkpt lat="38.7010280" lon="22.1531170">
<ele>1527.657593</ele>
<time>2026-08-30T12:16:36.392Z</time>
</trkpt>
<trkpt lat="38.7009900" lon="22.1530750">
<ele>1529.486450</ele>
<time>2026-08-30T12:16:36.392Z</time>
</trkpt>
<trkpt lat="38.7009630" lon="22.1530250">
<ele>1532.229614</ele>
<time>2026-08-30T12:16:36.392Z</time>
</trkpt>
<trkpt lat="38.7010010" lon="22.1529190">
<ele>1537.715942</ele>
<time>2026-08-30T12:16:36.392Z</time>
</trkpt>
<trkpt lat="38.7009640" lon="22.1528400">
<ele>1541.678345</ele>
<time>2026-08-30T12:16:36.392Z</time>
</trkpt>
<trkpt lat="38.7010280" lon="22.1527850">
<ele>1545.031250</ele>
<time>2026-08-30T12:16:36.392Z</time>
</trkpt>
<trkpt lat="38.7010230" lon="22.1527140">
<ele>1548.079224</ele>
<time>2026-08-30T12:16:36.392Z</time>
</trkpt>
<trkpt lat="38.7010330" lon="22.1526520">
<ele>1550.822388</ele>
<time>2026-08-30T12:16:36.392Z</time>
</trkpt>
<trkpt lat="38.7010470" lon="22.1525560">
<ele>1554.784790</ele>
<time>2026-08-30T12:16:36.392Z</time>
</trkpt>
<trkpt lat="38.7009830" lon="22.1525400">
<ele>1555.699219</ele>
<time>2026-08-30T12:16:36.392Z</time>
</trkpt>
<trkpt lat="38.7009180" lon="22.1525000">
<ele>1557.832764</ele>
<time>2026-08-30T12:16:36.392Z</time>
</trkpt>
<trkpt lat="38.7008890" lon="22.1524150">
<ele>1561.185547</ele>
<time>2026-08-30T12:16:36.392Z</time>
</trkpt>
<trkpt lat="38.7008760" lon="22.1523400">
<ele>1564.538452</ele>
<time>2026-08-30T12:16:36.392Z</time>
</trkpt>
<trkpt lat="38.7008640" lon="22.1522380">
<ele>1568.805542</ele>
<time>2026-08-30T12:16:36.392Z</time>
</trkpt>
<trkpt lat="38.7008640" lon="22.1521520">
<ele>1571.853638</ele>
<time>2026-08-30T12:16:36.392Z</time>
</trkpt>
<trkpt lat="38.7008090" lon="22.1520560">
<ele>1574.291992</ele>
<time>2026-08-30T12:16:36.392Z</time>
</trkpt>
<trkpt lat="38.7007510" lon="22.1519810">
<ele>1574.291992</ele>
<time>2026-08-30T12:16:36.392Z</time>
</trkpt>
<trkpt lat="38.7006710" lon="22.1518790">
<ele>1573.682373</ele>
<time>2026-08-30T12:16:36.392Z</time>
</trkpt>
<trkpt lat="38.7006040" lon="22.1516910">
<ele>1577.949585</ele>
<time>2026-08-30T12:16:36.392Z</time>
</trkpt>
<trkpt lat="38.7005460" lon="22.1516050">
<ele>1579.778442</ele>
<time>2026-08-30T12:16:36.392Z</time>
</trkpt>
<trkpt lat="38.7004200" lon="22.1515190">
<ele>1579.778442</ele>
<time>2026-08-30T12:16:36.392Z</time>
</trkpt>
<trkpt lat="38.7004220" lon="22.1514630">
<ele>1582.216797</ele>
<time>2026-08-30T12:16:36.394Z</time>
</trkpt>
<trkpt lat="38.7004210" lon="22.1514180">
<ele>1584.350342</ele>
<time>2026-08-30T12:16:36.394Z</time>
</trkpt>
<trkpt lat="38.7003980" lon="22.1513990">
<ele>1584.655151</ele>
<time>2026-08-30T12:16:36.394Z</time>
</trkpt>
<trkpt lat="38.7004090" lon="22.1513370">
<ele>1586.179199</ele>
<time>2026-08-30T12:16:36.394Z</time>
</trkpt>
<trkpt lat="38.7004200" lon="22.1512430">
<ele>1588.008057</ele>
<time>2026-08-30T12:16:36.394Z</time>
</trkpt>
<trkpt lat="38.7004430" lon="22.1510250">
<ele>1589.531982</ele>
<time>2026-08-30T12:16:36.394Z</time>
</trkpt>
<trkpt lat="38.7004650" lon="22.1508860">
<ele>1588.312744</ele>
<time>2026-08-30T12:16:36.394Z</time>
</trkpt>
<trkpt lat="38.7004520" lon="22.1507200">
<ele>1587.398438</ele>
<time>2026-08-30T12:16:36.394Z</time>
</trkpt>
<trkpt lat="38.7004950" lon="22.1505590">
<ele>1586.179199</ele>
<time>2026-08-30T12:16:36.394Z</time>
</trkpt>
<trkpt lat="38.7004700" lon="22.1504850">
<ele>1586.179199</ele>
<time>2026-08-30T12:16:36.394Z</time>
</trkpt>
<trkpt lat="38.7004100" lon="22.1503840">
<ele>1587.398438</ele>
<time>2026-08-30T12:16:36.394Z</time>
</trkpt>
<trkpt lat="38.7002690" lon="22.1502170">
<ele>1591.970459</ele>
<time>2026-08-30T12:16:36.394Z</time>
</trkpt>
<trkpt lat="38.7001370" lon="22.1499550">
<ele>1603.552856</ele>
<time>2026-08-30T12:16:36.394Z</time>
</trkpt>
<trkpt lat="38.7001060" lon="22.1498090">
<ele>1606.905640</ele>
<time>2026-08-30T12:16:36.394Z</time>
</trkpt>
<trkpt lat="38.7000910" lon="22.1496880">
<ele>1608.124756</ele>
<time>2026-08-30T12:16:36.394Z</time>
</trkpt>
<trkpt lat="38.7000170" lon="22.1495420">
<ele>1610.563232</ele>
<time>2026-08-30T12:16:36.394Z</time>
</trkpt>
<trkpt lat="38.6999550" lon="22.1493220">
<ele>1607.515259</ele>
<time>2026-08-30T12:16:36.394Z</time>
</trkpt>
<trkpt lat="38.6999040" lon="22.1491730">
<ele>1603.552856</ele>
<time>2026-08-30T12:16:36.394Z</time>
</trkpt>
<trkpt lat="38.6997970" lon="22.1489840">
<ele>1605.686401</ele>
<time>2026-08-30T12:16:36.394Z</time>
</trkpt>
<trkpt lat="38.6997080" lon="22.1488840">
<ele>1610.258423</ele>
<time>2026-08-30T12:16:36.394Z</time>
</trkpt>
<trkpt lat="38.6996280" lon="22.1487700">
<ele>1620.316772</ele>
<time>2026-08-30T12:16:36.394Z</time>
</trkpt>
<trkpt lat="38.6995610" lon="22.1486730">
<ele>1626.717651</ele>
<time>2026-08-30T12:16:36.394Z</time>
</trkpt>
<trkpt lat="38.6995020" lon="22.1485350">
<ele>1630.375244</ele>
<time>2026-08-30T12:16:36.394Z</time>
</trkpt>
<trkpt lat="38.6994710" lon="22.1484430">
<ele>1630.984741</ele>
<time>2026-08-30T12:16:36.394Z</time>
</trkpt>
<trkpt lat="38.6994710" lon="22.1483050">
<ele>1630.375244</ele>
<time>2026-08-30T12:16:36.394Z</time>
</trkpt>
<trkpt lat="38.6994560" lon="22.1481450">
<ele>1628.851196</ele>
<time>2026-08-30T12:16:36.394Z</time>
</trkpt>
<trkpt lat="38.6994640" lon="22.1480630">
<ele>1627.936768</ele>
<time>2026-08-30T12:16:36.394Z</time>
</trkpt>
<trkpt lat="38.6995190" lon="22.1479700">
<ele>1628.241577</ele>
<time>2026-08-30T12:16:36.394Z</time>
</trkpt>
<trkpt lat="38.6995950" lon="22.1479140">
<ele>1627.936768</ele>
<time>2026-08-30T12:16:36.394Z</time>
</trkpt>
<trkpt lat="38.6997340" lon="22.1478200">
<ele>1627.022461</ele>
<time>2026-08-30T12:16:36.394Z</time>
</trkpt>
<trkpt lat="38.6998010" lon="22.1477580">
<ele>1625.498413</ele>
<time>2026-08-30T12:16:36.394Z</time>
</trkpt>
<trkpt lat="38.6998630" lon="22.1476890">
<ele>1625.193604</ele>
<time>2026-08-30T12:16:36.394Z</time>
</trkpt>
<trkpt lat="38.6999870" lon="22.1475240">
<ele>1625.803223</ele>
<time>2026-08-30T12:16:36.394Z</time>
</trkpt>
<trkpt lat="38.7003530" lon="22.1471020">
<ele>1628.851196</ele>
<time>2026-08-30T12:16:36.394Z</time>
</trkpt>
<trkpt lat="38.7004550" lon="22.1470030">
<ele>1627.631958</ele>
<time>2026-08-30T12:16:36.394Z</time>
</trkpt>
<trkpt lat="38.7004970" lon="22.1469570">
<ele>1627.022461</ele>
<time>2026-08-30T12:16:36.394Z</time>
</trkpt>
<trkpt lat="38.7005340" lon="22.1469040">
<ele>1625.803223</ele>
<time>2026-08-30T12:16:36.394Z</time>
</trkpt>
<trkpt lat="38.7005490" lon="22.1468250">
<ele>1625.193604</ele>
<time>2026-08-30T12:16:36.394Z</time>
</trkpt>
<trkpt lat="38.7005430" lon="22.1467550">
<ele>1625.498413</ele>
<time>2026-08-30T12:16:36.394Z</time>
</trkpt>
<trkpt lat="38.7004820" lon="22.1465830">
<ele>1626.717651</ele>
<time>2026-08-30T12:16:36.394Z</time>
</trkpt>
<trkpt lat="38.7003940" lon="22.1463900">
<ele>1627.936768</ele>
<time>2026-08-30T12:16:36.394Z</time>
</trkpt>
<trkpt lat="38.7002940" lon="22.1462400">
<ele>1630.984741</ele>
<time>2026-08-30T12:16:36.394Z</time>
</trkpt>
<trkpt lat="38.7001930" lon="22.1461040">
<ele>1635.556763</ele>
<time>2026-08-30T12:16:36.394Z</time>
</trkpt>
<trkpt lat="38.7000420" lon="22.1459320">
<ele>1643.176758</ele>
<time>2026-08-30T12:16:36.394Z</time>
</trkpt>
<trkpt lat="38.6998880" lon="22.1458080">
<ele>1648.358398</ele>
<time>2026-08-30T12:16:36.394Z</time>
</trkpt>
<trkpt lat="38.6997160" lon="22.1457140">
<ele>1650.796753</ele>
<time>2026-08-30T12:16:36.394Z</time>
</trkpt>
<trkpt lat="38.6995100" lon="22.1456880">
<ele>1651.101563</ele>
<time>2026-08-30T12:16:36.394Z</time>
</trkpt>
<trkpt lat="38.6992430" lon="22.1456330">
<ele>1652.320801</ele>
<time>2026-08-30T12:16:36.394Z</time>
</trkpt>
<trkpt lat="38.6990920" lon="22.1456190">
<ele>1656.588013</ele>
<time>2026-08-30T12:16:36.394Z</time>
</trkpt>
<trkpt lat="38.6990340" lon="22.1456080">
<ele>1659.331177</ele>
<time>2026-08-30T12:16:36.394Z</time>
</trkpt>
<trkpt lat="38.6989460" lon="22.1455760">
<ele>1663.293579</ele>
<time>2026-08-30T12:16:36.394Z</time>
</trkpt>
<trkpt lat="38.6988560" lon="22.1454800">
<ele>1669.389648</ele>
<time>2026-08-30T12:16:36.394Z</time>
</trkpt>
<trkpt lat="38.6988000" lon="22.1453140">
<ele>1675.790405</ele>
<time>2026-08-30T12:16:36.394Z</time>
</trkpt>
<trkpt lat="38.6987820" lon="22.1451830">
<ele>1676.095215</ele>
<time>2026-08-30T12:16:36.394Z</time>
</trkpt>
<trkpt lat="38.6987770" lon="22.1450620">
<ele>1674.571167</ele>
<time>2026-08-30T12:16:36.394Z</time>
</trkpt>
<trkpt lat="38.6987750" lon="22.1449010">
<ele>1674.571167</ele>
<time>2026-08-30T12:16:36.394Z</time>
</trkpt>
<trkpt lat="38.6987740" lon="22.1447530">
<ele>1675.790405</ele>
<time>2026-08-30T12:16:36.394Z</time>
</trkpt>
<trkpt lat="38.6987900" lon="22.1445360">
<ele>1676.095215</ele>
<time>2026-08-30T12:16:36.394Z</time>
</trkpt>
<trkpt lat="38.6988060" lon="22.1442620">
<ele>1676.704834</ele>
<time>2026-08-30T12:16:36.394Z</time>
</trkpt>
<trkpt lat="38.6988220" lon="22.1439870">
<ele>1675.790405</ele>
<time>2026-08-30T12:16:36.394Z</time>
</trkpt>
<trkpt lat="38.6988050" lon="22.1437230">
<ele>1673.352051</ele>
<time>2026-08-30T12:16:36.394Z</time>
</trkpt>
<trkpt lat="38.6987440" lon="22.1434670">
<ele>1673.961548</ele>
<time>2026-08-30T12:16:36.394Z</time>
</trkpt>
<trkpt lat="38.6986710" lon="22.1432010">
<ele>1676.400024</ele>
<time>2026-08-30T12:16:36.394Z</time>
</trkpt>
<trkpt lat="38.6986250" lon="22.1428780">
<ele>1675.790405</ele>
<time>2026-08-30T12:16:36.394Z</time>
</trkpt>
<trkpt lat="38.6986010" lon="22.1426800">
<ele>1677.923950</ele>
<time>2026-08-30T12:16:36.394Z</time>
</trkpt>
<trkpt lat="38.6985700" lon="22.1423810">
<ele>1684.934448</ele>
<time>2026-08-30T12:16:36.394Z</time>
</trkpt>
<trkpt lat="38.6985420" lon="22.1421890">
<ele>1689.201660</ele>
<time>2026-08-30T12:16:36.394Z</time>
</trkpt>
<trkpt lat="38.6985210" lon="22.1420220">
<ele>1686.153564</ele>
<time>2026-08-30T12:16:36.394Z</time>
</trkpt>
<trkpt lat="38.6985070" lon="22.1419000">
<ele>1685.543945</ele>
<time>2026-08-30T12:16:36.394Z</time>
</trkpt>
<trkpt lat="38.6985070" lon="22.1417540">
<ele>1685.848755</ele>
<time>2026-08-30T12:16:36.394Z</time>
</trkpt>
<trkpt lat="38.6983340" lon="22.1416960">
<ele>1691.335205</ele>
<time>2026-08-30T12:16:36.394Z</time>
</trkpt>
<trkpt lat="38.6982640" lon="22.1414560">
<ele>1698.040771</ele>
<time>2026-08-30T12:16:36.394Z</time>
</trkpt>
<trkpt lat="38.6981680" lon="22.1413700">
<ele>1700.174438</ele>
<time>2026-08-30T12:16:36.394Z</time>
</trkpt>
<trkpt lat="38.6981300" lon="22.1412570">
<ele>1704.746460</ele>
<time>2026-08-30T12:16:36.394Z</time>
</trkpt>
<trkpt lat="38.6981340" lon="22.1411230">
<ele>1709.318359</ele>
<time>2026-08-30T12:16:36.394Z</time>
</trkpt>
<trkpt lat="38.6981890" lon="22.1410750">
<ele>1709.927979</ele>
<time>2026-08-30T12:16:36.394Z</time>
</trkpt>
<trkpt lat="38.6981510" lon="22.1409510">
<ele>1712.975952</ele>
<time>2026-08-30T12:16:36.394Z</time>
</trkpt>
<trkpt lat="38.6981840" lon="22.1408710">
<ele>1713.890381</ele>
<time>2026-08-30T12:16:36.394Z</time>
</trkpt>
<trkpt lat="38.6981510" lon="22.1408280">
<ele>1715.414429</ele>
<time>2026-08-30T12:16:36.394Z</time>
</trkpt>
<trkpt lat="38.6981300" lon="22.1407470">
<ele>1717.243164</ele>
<time>2026-08-30T12:16:36.394Z</time>
</trkpt>
<trkpt lat="38.6980880" lon="22.1406080">
<ele>1719.986450</ele>
<time>2026-08-30T12:16:36.394Z</time>
</trkpt>
<trkpt lat="38.6980460" lon="22.1404580">
<ele>1723.644043</ele>
<time>2026-08-30T12:16:36.394Z</time>
</trkpt>
<trkpt lat="38.6980500" lon="22.1403020">
<ele>1727.301636</ele>
<time>2026-08-30T12:16:36.396Z</time>
</trkpt>
<trkpt lat="38.6981010" lon="22.1401900">
<ele>1730.349609</ele>
<time>2026-08-30T12:16:36.396Z</time>
</trkpt>
<trkpt lat="38.6980960" lon="22.1401310">
<ele>1732.178345</ele>
<time>2026-08-30T12:16:36.396Z</time>
</trkpt>
<trkpt lat="38.6979500" lon="22.1400820">
<ele>1732.787964</ele>
<time>2026-08-30T12:16:36.396Z</time>
</trkpt>
<trkpt lat="38.6978450" lon="22.1400660">
<ele>1732.787964</ele>
<time>2026-08-30T12:16:36.396Z</time>
</trkpt>
<trkpt lat="38.6977110" lon="22.1400550">
<ele>1733.092773</ele>
<time>2026-08-30T12:16:36.396Z</time>
</trkpt>
<trkpt lat="38.6976020" lon="22.1399700">
<ele>1734.616821</ele>
<time>2026-08-30T12:16:36.396Z</time>
</trkpt>
<trkpt lat="38.6974890" lon="22.1399000">
<ele>1736.445557</ele>
<time>2026-08-30T12:16:36.396Z</time>
</trkpt>
<trkpt lat="38.6973890" lon="22.1398940">
<ele>1738.884033</ele>
<time>2026-08-30T12:16:36.396Z</time>
</trkpt>
<trkpt lat="38.6973090" lon="22.1398460">
<ele>1742.846436</ele>
<time>2026-08-30T12:16:36.396Z</time>
</trkpt>
<trkpt lat="38.6972760" lon="22.1397710">
<ele>1746.808838</ele>
<time>2026-08-30T12:16:36.396Z</time>
</trkpt>
<trkpt lat="38.6972380" lon="22.1396210">
<ele>1754.124023</ele>
<time>2026-08-30T12:16:36.396Z</time>
</trkpt>
<trkpt lat="38.6971800" lon="22.1395190">
<ele>1758.391235</ele>
<time>2026-08-30T12:16:36.396Z</time>
</trkpt>
<trkpt lat="38.6971040" lon="22.1394390">
<ele>1761.134399</ele>
<time>2026-08-30T12:16:36.396Z</time>
</trkpt>
<trkpt lat="38.6970330" lon="22.1393580">
<ele>1761.744019</ele>
<time>2026-08-30T12:16:36.396Z</time>
</trkpt>
<trkpt lat="38.6970080" lon="22.1392350">
<ele>1762.353638</ele>
<time>2026-08-30T12:16:36.396Z</time>
</trkpt>
<trkpt lat="38.6970290" lon="22.1391060">
<ele>1763.267944</ele>
<time>2026-08-30T12:16:36.396Z</time>
</trkpt>
<trkpt lat="38.6969870" lon="22.1389340">
<ele>1764.487183</ele>
<time>2026-08-30T12:16:36.396Z</time>
</trkpt>
<trkpt lat="38.6969200" lon="22.1387630">
<ele>1767.230347</ele>
<time>2026-08-30T12:16:36.396Z</time>
</trkpt>
<trkpt lat="38.6968530" lon="22.1385960">
<ele>1769.364014</ele>
<time>2026-08-30T12:16:36.396Z</time>
</trkpt>
<trkpt lat="38.6967940" lon="22.1385050">
<ele>1769.973633</ele>
<time>2026-08-30T12:16:36.396Z</time>
</trkpt>
<trkpt lat="38.6967150" lon="22.1383760">
<ele>1770.583252</ele>
<time>2026-08-30T12:16:36.396Z</time>
</trkpt>
<trkpt lat="38.6966600" lon="22.1381890">
<ele>1772.107178</ele>
<time>2026-08-30T12:16:36.396Z</time>
</trkpt>
<trkpt lat="38.6965890" lon="22.1380650">
<ele>1773.326416</ele>
<time>2026-08-30T12:16:36.396Z</time>
</trkpt>
<trkpt lat="38.6965350" lon="22.1379360">
<ele>1774.850342</ele>
<time>2026-08-30T12:16:36.396Z</time>
</trkpt>
<trkpt lat="38.6964800" lon="22.1378610">
<ele>1776.679199</ele>
<time>2026-08-30T12:16:36.396Z</time>
</trkpt>
<trkpt lat="38.6964590" lon="22.1377430">
<ele>1779.422363</ele>
<time>2026-08-30T12:16:36.396Z</time>
</trkpt>
<trkpt lat="38.6965180" lon="22.1375770">
<ele>1782.470459</ele>
<time>2026-08-30T12:16:36.396Z</time>
</trkpt>
<trkpt lat="38.6965100" lon="22.1374700">
<ele>1785.518433</ele>
<time>2026-08-30T12:16:36.396Z</time>
</trkpt>
<trkpt lat="38.6965260" lon="22.1373140">
<ele>1789.176025</ele>
<time>2026-08-30T12:16:36.396Z</time>
</trkpt>
<trkpt lat="38.6965180" lon="22.1372070">
<ele>1791.614380</ele>
<time>2026-08-30T12:16:36.396Z</time>
</trkpt>
<trkpt lat="38.6964430" lon="22.1371690">
<ele>1791.614380</ele>
<time>2026-08-30T12:16:36.396Z</time>
</trkpt>
<trkpt lat="38.6964010" lon="22.1371100">
<ele>1791.919189</ele>
<time>2026-08-30T12:16:36.396Z</time>
</trkpt>
<trkpt lat="38.6963380" lon="22.1370410">
<ele>1792.833618</ele>
<time>2026-08-30T12:16:36.396Z</time>
</trkpt>
<trkpt lat="38.6962840" lon="22.1370190">
<ele>1793.443237</ele>
<time>2026-08-30T12:16:36.396Z</time>
</trkpt>
<trkpt lat="38.6961620" lon="22.1368960">
<ele>1794.967163</ele>
<time>2026-08-30T12:16:36.396Z</time>
</trkpt>
<trkpt lat="38.6960990" lon="22.1368100">
<ele>1795.881592</ele>
<time>2026-08-30T12:16:36.396Z</time>
</trkpt>
<trkpt lat="38.6960410" lon="22.1367240">
<ele>1796.796021</ele>
<time>2026-08-30T12:16:36.396Z</time>
</trkpt>
<trkpt lat="38.6959820" lon="22.1366600">
<ele>1797.405640</ele>
<time>2026-08-30T12:16:36.398Z</time>
</trkpt>
<trkpt lat="38.6959030" lon="22.1365690">
<ele>1795.881592</ele>
<time>2026-08-30T12:16:36.398Z</time>
</trkpt>
<trkpt lat="38.6957480" lon="22.1365150">
<ele>1800.148804</ele>
<time>2026-08-30T12:16:36.398Z</time>
</trkpt>
<trkpt lat="38.6956300" lon="22.1364450">
<ele>1805.635254</ele>
<time>2026-08-30T12:16:36.398Z</time>
</trkpt>
<trkpt lat="38.6955090" lon="22.1363590">
<ele>1812.036011</ele>
<time>2026-08-30T12:16:36.398Z</time>
</trkpt>
<trkpt lat="38.6954300" lon="22.1363110">
<ele>1816.303223</ele>
<time>2026-08-30T12:16:36.398Z</time>
</trkpt>
<trkpt lat="38.6953330" lon="22.1362520">
<ele>1823.008789</ele>
<time>2026-08-30T12:16:36.398Z</time>
</trkpt>
<trkpt lat="38.6952490" lon="22.1362520">
<ele>1827.276001</ele>
<time>2026-08-30T12:16:36.398Z</time>
</trkpt>
<trkpt lat="38.6951870" lon="22.1361980">
<ele>1830.628784</ele>
<time>2026-08-30T12:16:36.398Z</time>
</trkpt>
<trkpt lat="38.6950610" lon="22.1360860">
<ele>1837.334351</ele>
<time>2026-08-30T12:16:36.398Z</time>
</trkpt>
<trkpt lat="38.6949480" lon="22.1359140">
<ele>1840.687256</ele>
<time>2026-08-30T12:16:36.398Z</time>
</trkpt>
<trkpt lat="38.6948520" lon="22.1358440">
<ele>1838.553589</ele>
<time>2026-08-30T12:16:36.398Z</time>
</trkpt>
<trkpt lat="38.6947810" lon="22.1357640">
<ele>1835.505615</ele>
<time>2026-08-30T12:16:36.398Z</time>
</trkpt>
<trkpt lat="38.6946970" lon="22.1357100">
<ele>1832.762451</ele>
<time>2026-08-30T12:16:36.398Z</time>
</trkpt>
<trkpt lat="38.6945960" lon="22.1356510">
<ele>1831.848022</ele>
<time>2026-08-30T12:16:36.398Z</time>
</trkpt>
<trkpt lat="38.6945170" lon="22.1355760">
<ele>1830.628784</ele>
<time>2026-08-30T12:16:36.398Z</time>
</trkpt>
<trkpt lat="38.6944330" lon="22.1355600">
<ele>1830.323975</ele>
<time>2026-08-30T12:16:36.398Z</time>
</trkpt>
<trkpt lat="38.6943580" lon="22.1354900">
<ele>1832.152832</ele>
<time>2026-08-30T12:16:36.398Z</time>
</trkpt>
<trkpt lat="38.6942150" lon="22.1353510">
<ele>1837.029541</ele>
<time>2026-08-30T12:16:36.398Z</time>
</trkpt>
<trkpt lat="38.6940810" lon="22.1352920">
<ele>1842.211182</ele>
<time>2026-08-30T12:16:36.398Z</time>
</trkpt>
<trkpt lat="38.6939810" lon="22.1351900">
<ele>1848.307251</ele>
<time>2026-08-30T12:16:36.398Z</time>
</trkpt>
<trkpt lat="38.6939050" lon="22.1351420">
<ele>1851.964844</ele>
<time>2026-08-30T12:16:36.398Z</time>
</trkpt>
<trkpt lat="38.6937920" lon="22.1350070">
<ele>1858.975220</ele>
<time>2026-08-30T12:16:36.398Z</time>
</trkpt>
<trkpt lat="38.6937170" lon="22.1349000">
<ele>1864.766357</ele>
<time>2026-08-30T12:16:36.398Z</time>
</trkpt>
<trkpt lat="38.6936420" lon="22.1347880">
<ele>1870.862427</ele>
<time>2026-08-30T12:16:36.398Z</time>
</trkpt>
<trkpt lat="38.6935910" lon="22.1347710">
<ele>1872.386353</ele>
<time>2026-08-30T12:16:36.398Z</time>
</trkpt>
<trkpt lat="38.6935040" lon="22.1347500">
<ele>1871.167236</ele>
<time>2026-08-30T12:16:36.398Z</time>
</trkpt>
<trkpt lat="38.6934410" lon="22.1346530">
<ele>1871.472046</ele>
<time>2026-08-30T12:16:36.398Z</time>
</trkpt>
<trkpt lat="38.6933650" lon="22.1345890">
<ele>1871.776855</ele>
<time>2026-08-30T12:16:36.398Z</time>
</trkpt>
<trkpt lat="38.6932270" lon="22.1345460">
<ele>1874.215210</ele>
<time>2026-08-30T12:16:36.398Z</time>
</trkpt>
<trkpt lat="38.6930640" lon="22.1344230">
<ele>1877.263184</ele>
<time>2026-08-30T12:16:36.398Z</time>
</trkpt>
<trkpt lat="38.6929220" lon="22.1342030">
<ele>1886.407227</ele>
<time>2026-08-30T12:16:36.398Z</time>
</trkpt>
<trkpt lat="38.6928550" lon="22.1340740">
<ele>1890.674438</ele>
<time>2026-08-30T12:16:36.398Z</time>
</trkpt>
<trkpt lat="38.6928000" lon="22.1339510">
<ele>1893.722412</ele>
<time>2026-08-30T12:16:36.398Z</time>
</trkpt>
<trkpt lat="38.6927290" lon="22.1338600">
<ele>1895.855957</ele>
<time>2026-08-30T12:16:36.398Z</time>
</trkpt>
<trkpt lat="38.6926540" lon="22.1338220">
<ele>1897.075195</ele>
<time>2026-08-30T12:16:36.398Z</time>
</trkpt>
<trkpt lat="38.6926240" lon="22.1337520">
<ele>1898.904053</ele>
<time>2026-08-30T12:16:36.398Z</time>
</trkpt>
<trkpt lat="38.6926160" lon="22.1336660">
<ele>1901.037598</ele>
<time>2026-08-30T12:16:36.398Z</time>
</trkpt>
<trkpt lat="38.6925740" lon="22.1336400">
<ele>1902.256836</ele>
<time>2026-08-30T12:16:36.398Z</time>
</trkpt>
<trkpt lat="38.6925740" lon="22.1335540">
<ele>1904.695190</ele>
<time>2026-08-30T12:16:36.398Z</time>
</trkpt>
<trkpt lat="38.6926160" lon="22.1334570">
<ele>1907.133545</ele>
<time>2026-08-30T12:16:36.398Z</time>
</trkpt>
<trkpt lat="38.6926370" lon="22.1333930">
<ele>1908.657593</ele>
<time>2026-08-30T12:16:36.398Z</time>
</trkpt>
<trkpt lat="38.6926120" lon="22.1333020">
<ele>1911.400757</ele>
<time>2026-08-30T12:16:36.398Z</time>
</trkpt>
<trkpt lat="38.6925210" lon="22.1332020">
<ele>1914.448853</ele>
<time>2026-08-30T12:16:36.398Z</time>
</trkpt>
<trkpt lat="38.6923720" lon="22.1330890">
<ele>1916.277588</ele>
<time>2026-08-30T12:16:36.398Z</time>
</trkpt>
<trkpt lat="38.6922630" lon="22.1329790">
<ele>1917.192017</ele>
<time>2026-08-30T12:16:36.398Z</time>
</trkpt>
<trkpt lat="38.6922210" lon="22.1329020">
<ele>1918.106445</ele>
<time>2026-08-30T12:16:36.398Z</time>
</trkpt>
<trkpt lat="38.6921990" lon="22.1328360">
<ele>1919.020752</ele>
<time>2026-08-30T12:16:36.398Z</time>
</trkpt>
<trkpt lat="38.6921820" lon="22.1327860">
<ele>1919.630371</ele>
<time>2026-08-30T12:16:36.398Z</time>
</trkpt>
<trkpt lat="38.6921310" lon="22.1326490">
<ele>1919.935181</ele>
<time>2026-08-30T12:16:36.398Z</time>
</trkpt>
<trkpt lat="38.6920900" lon="22.1325420">
<ele>1920.544800</ele>
<time>2026-08-30T12:16:36.398Z</time>
</trkpt>
<trkpt lat="38.6920290" lon="22.1324670">
<ele>1921.154419</ele>
<time>2026-08-30T12:16:36.398Z</time>
</trkpt>
<trkpt lat="38.6918610" lon="22.1323650">
<ele>1922.373657</ele>
<time>2026-08-30T12:16:36.398Z</time>
</trkpt>
<trkpt lat="38.6916640" lon="22.1322400">
<ele>1922.983154</ele>
<time>2026-08-30T12:16:36.398Z</time>
</trkpt>
<trkpt lat="38.6914540" lon="22.1321300">
<ele>1923.287964</ele>
<time>2026-08-30T12:16:36.398Z</time>
</trkpt>
<trkpt lat="38.6912920" lon="22.1320510">
<ele>1922.678345</ele>
<time>2026-08-30T12:16:36.398Z</time>
</trkpt>
<trkpt lat="38.6911880" lon="22.1320090">
<ele>1922.373657</ele>
<time>2026-08-30T12:16:36.398Z</time>
</trkpt>
<trkpt lat="38.6910690" lon="22.1319770">
<ele>1922.068848</ele>
<time>2026-08-30T12:16:36.398Z</time>
</trkpt>
<trkpt lat="38.6909340" lon="22.1319390">
<ele>1921.154419</ele>
<time>2026-08-30T12:16:36.398Z</time>
</trkpt>
<trkpt lat="38.6907620" lon="22.1318760">
<ele>1921.154419</ele>
<time>2026-08-30T12:16:36.398Z</time>
</trkpt>
<trkpt lat="38.6906300" lon="22.1318240">
<ele>1922.983154</ele>
<time>2026-08-30T12:16:36.398Z</time>
</trkpt>
<trkpt lat="38.6905140" lon="22.1317500">
<ele>1926.031250</ele>
<time>2026-08-30T12:16:36.398Z</time>
</trkpt>
<trkpt lat="38.6904420" lon="22.1316910">
<ele>1927.859985</ele>
<time>2026-08-30T12:16:36.400Z</time>
</trkpt>
<trkpt lat="38.6903730" lon="22.1316030">
<ele>1930.298340</ele>
<time>2026-08-30T12:16:36.400Z</time>
</trkpt>
<trkpt lat="38.6903000" lon="22.1314610">
<ele>1933.651245</ele>
<time>2026-08-30T12:16:36.400Z</time>
</trkpt>
<trkpt lat="38.6902180" lon="22.1313320">
<ele>1934.870361</ele>
<time>2026-08-30T12:16:36.400Z</time>
</trkpt>
<trkpt lat="38.6901710" lon="22.1312720">
<ele>1934.870361</ele>
<time>2026-08-30T12:16:36.400Z</time>
</trkpt>
<trkpt lat="38.6901180" lon="22.1312290">
<ele>1935.175171</ele>
<time>2026-08-30T12:16:36.400Z</time>
</trkpt>
<trkpt lat="38.6900470" lon="22.1312290">
<ele>1935.175171</ele>
<time>2026-08-30T12:16:36.400Z</time>
</trkpt>
<trkpt lat="38.6899810" lon="22.1312510">
<ele>1934.870361</ele>
<time>2026-08-30T12:16:36.400Z</time>
</trkpt>
<trkpt lat="38.6898990" lon="22.1312880">
<ele>1934.870361</ele>
<time>2026-08-30T12:16:36.400Z</time>
</trkpt>
<trkpt lat="38.6898380" lon="22.1313180">
<ele>1935.175171</ele>
<time>2026-08-30T12:16:36.400Z</time>
</trkpt>
<trkpt lat="38.6897900" lon="22.1313330">
<ele>1935.175171</ele>
<time>2026-08-30T12:16:36.400Z</time>
</trkpt>
<trkpt lat="38.6897100" lon="22.1313550">
<ele>1935.784790</ele>
<time>2026-08-30T12:16:36.400Z</time>
</trkpt>
<trkpt lat="38.6896340" lon="22.1313620">
<ele>1936.394409</ele>
<time>2026-08-30T12:16:36.400Z</time>
</trkpt>
<trkpt lat="38.6895660" lon="22.1313490">
<ele>1937.004028</ele>
<time>2026-08-30T12:16:36.400Z</time>
</trkpt>
<trkpt lat="38.6894840" lon="22.1313300">
<ele>1937.613647</ele>
<time>2026-08-30T12:16:36.400Z</time>
</trkpt>
<trkpt lat="38.6893790" lon="22.1312670">
<ele>1938.832764</ele>
<time>2026-08-30T12:16:36.400Z</time>
</trkpt>
<trkpt lat="38.6892600" lon="22.1311880">
<ele>1941.271240</ele>
<time>2026-08-30T12:16:36.400Z</time>
</trkpt>
<trkpt lat="38.6892030" lon="22.1311350">
<ele>1942.795166</ele>
<time>2026-08-30T12:16:36.400Z</time>
</trkpt>
<trkpt lat="38.6891610" lon="22.1310840">
<ele>1945.233643</ele>
<time>2026-08-30T12:16:36.400Z</time>
</trkpt>
<trkpt lat="38.6891280" lon="22.1309680">
<ele>1950.415161</ele>
<time>2026-08-30T12:16:36.400Z</time>
</trkpt>
<trkpt lat="38.6890950" lon="22.1308980">
<ele>1953.463257</ele>
<time>2026-08-30T12:16:36.400Z</time>
</trkpt>
<trkpt lat="38.6890360" lon="22.1308450">
<ele>1956.511230</ele>
<time>2026-08-30T12:16:36.400Z</time>
</trkpt>
<trkpt lat="38.6890150" lon="22.1307910">
<ele>1955.901611</ele>
<time>2026-08-30T12:16:36.400Z</time>
</trkpt>
<trkpt lat="38.6889480" lon="22.1307430">
<ele>1955.901611</ele>
<time>2026-08-30T12:16:36.400Z</time>
</trkpt>
<trkpt lat="38.6888350" lon="22.1307110">
<ele>1957.120850</ele>
<time>2026-08-30T12:16:36.400Z</time>
</trkpt>
<trkpt lat="38.6887430" lon="22.1307050">
<ele>1958.949585</ele>
<time>2026-08-30T12:16:36.400Z</time>
</trkpt>
<trkpt lat="38.6886460" lon="22.1307020">
<ele>1960.778442</ele>
<time>2026-08-30T12:16:36.400Z</time>
</trkpt>
<trkpt lat="38.6885380" lon="22.1306300">
<ele>1962.302368</ele>
<time>2026-08-30T12:16:36.400Z</time>
</trkpt>
<trkpt lat="38.6884120" lon="22.1306090">
<ele>1965.959961</ele>
<time>2026-08-30T12:16:36.400Z</time>
</trkpt>
<trkpt lat="38.6883320" lon="22.1305520">
<ele>1968.093628</ele>
<time>2026-08-30T12:16:36.400Z</time>
</trkpt>
<trkpt lat="38.6882650" lon="22.1304690">
<ele>1969.008057</ele>
<time>2026-08-30T12:16:36.400Z</time>
</trkpt>
<trkpt lat="38.6881650" lon="22.1304160">
<ele>1971.141602</ele>
<time>2026-08-30T12:16:36.400Z</time>
</trkpt>
<trkpt lat="38.6880730" lon="22.1304260">
<ele>1973.579956</ele>
<time>2026-08-30T12:16:36.400Z</time>
</trkpt>
<trkpt lat="38.6880060" lon="22.1303830">
<ele>1974.494385</ele>
<time>2026-08-30T12:16:36.400Z</time>
</trkpt>
<trkpt lat="38.6878970" lon="22.1303460">
<ele>1976.323242</ele>
<time>2026-08-30T12:16:36.400Z</time>
</trkpt>
<trkpt lat="38.6878260" lon="22.1303080">
<ele>1977.237549</ele>
<time>2026-08-30T12:16:36.400Z</time>
</trkpt>
<trkpt lat="38.6877210" lon="22.1302650">
<ele>1980.285645</ele>
<time>2026-08-30T12:16:36.400Z</time>
</trkpt>
<trkpt lat="38.6876210" lon="22.1302710">
<ele>1984.552856</ele>
<time>2026-08-30T12:16:36.402Z</time>
</trkpt>
<trkpt lat="38.6874660" lon="22.1303080">
<ele>1990.953613</ele>
<time>2026-08-30T12:16:36.402Z</time>
</trkpt>
<trkpt lat="38.6873650" lon="22.1302920">
<ele>1994.001587</ele>
<time>2026-08-30T12:16:36.402Z</time>
</trkpt>
<trkpt lat="38.6872860" lon="22.1302440">
<ele>1995.525635</ele>
<time>2026-08-30T12:16:36.402Z</time>
</trkpt>
<trkpt lat="38.6871890" lon="22.1302440">
<ele>1997.659180</ele>
<time>2026-08-30T12:16:36.402Z</time>
</trkpt>
<trkpt lat="38.6870850" lon="22.1302710">
<ele>1998.878418</ele>
<time>2026-08-30T12:16:36.402Z</time>
</trkpt>
<trkpt lat="38.6869850" lon="22.1304150">
<ele>1998.878418</ele>
<time>2026-08-30T12:16:36.402Z</time>
</trkpt>
<trkpt lat="38.6868910" lon="22.1304140">
<ele>1999.792847</ele>
<time>2026-08-30T12:16:36.402Z</time>
</trkpt>
<trkpt lat="38.6868270" lon="22.1304200">
<ele>2001.011963</ele>
<time>2026-08-30T12:16:36.402Z</time>
</trkpt>
<trkpt lat="38.6867750" lon="22.1303030">
<ele>2002.840820</ele>
<time>2026-08-30T12:16:36.402Z</time>
</trkpt>
<trkpt lat="38.6866750" lon="22.1303960">
<ele>2003.450439</ele>
<time>2026-08-30T12:16:36.402Z</time>
</trkpt>
<trkpt lat="38.6865600" lon="22.1305600">
<ele>2000.707153</ele>
<time>2026-08-30T12:16:36.402Z</time>
</trkpt>
<trkpt lat="38.6864490" lon="22.1307180">
<ele>1997.354370</ele>
<time>2026-08-30T12:16:36.402Z</time>
</trkpt>
<trkpt lat="38.6863890" lon="22.1307990">
<ele>1996.439941</ele>
<time>2026-08-30T12:16:36.402Z</time>
</trkpt>
<trkpt lat="38.6863030" lon="22.1308580">
<ele>1996.439941</ele>
<time>2026-08-30T12:16:36.402Z</time>
</trkpt>
<trkpt lat="38.6862090" lon="22.1309220">
<ele>1996.744751</ele>
<time>2026-08-30T12:16:36.402Z</time>
</trkpt>
<trkpt lat="38.6861520" lon="22.1309970">
<ele>1997.049561</ele>
<time>2026-08-30T12:16:36.402Z</time>
</trkpt>
<trkpt lat="38.6861400" lon="22.1310610">
<ele>1996.744751</ele>
<time>2026-08-30T12:16:36.402Z</time>
</trkpt>
<trkpt lat="38.6861330" lon="22.1311180">
<ele>1996.744751</ele>
<time>2026-08-30T12:16:36.402Z</time>
</trkpt>
<trkpt lat="38.6860980" lon="22.1311500">
<ele>1997.659180</ele>
<time>2026-08-30T12:16:36.402Z</time>
</trkpt>
<trkpt lat="38.6860620" lon="22.1311560">
<ele>1998.878418</ele>
<time>2026-08-30T12:16:36.402Z</time>
</trkpt>
<trkpt lat="38.6859890" lon="22.1311370">
<ele>2001.621582</ele>
<time>2026-08-30T12:16:36.402Z</time>
</trkpt>
<trkpt lat="38.6858920" lon="22.1311150">
<ele>2004.974365</ele>
<time>2026-08-30T12:16:36.402Z</time>
</trkpt>
<trkpt lat="38.6857670" lon="22.1311100">
<ele>2009.241577</ele>
<time>2026-08-30T12:16:36.402Z</time>
</trkpt>
<trkpt lat="38.6856350" lon="22.1311130">
<ele>2013.508789</ele>
<time>2026-08-30T12:16:36.402Z</time>
</trkpt>
<trkpt lat="38.6855050" lon="22.1310970">
<ele>2015.642456</ele>
<time>2026-08-30T12:16:36.402Z</time>
</trkpt>
<trkpt lat="38.6852770" lon="22.1310460">
<ele>2014.118408</ele>
<time>2026-08-30T12:16:36.402Z</time>
</trkpt>
<trkpt lat="38.6852310" lon="22.1310270">
<ele>2013.508789</ele>
<time>2026-08-30T12:16:36.402Z</time>
</trkpt>
<trkpt lat="38.6851830" lon="22.1309650">
<ele>2012.594360</ele>
<time>2026-08-30T12:16:36.402Z</time>
</trkpt>
<trkpt lat="38.6851220" lon="22.1308820">
<ele>2011.070435</ele>
<time>2026-08-30T12:16:36.402Z</time>
</trkpt>
<trkpt lat="38.6850240" lon="22.1308090">
<ele>2009.851196</ele>
<time>2026-08-30T12:16:36.402Z</time>
</trkpt>
<trkpt lat="38.6848500" lon="22.1306780">
<ele>2008.022461</ele>
<time>2026-08-30T12:16:36.402Z</time>
</trkpt>
<trkpt lat="38.6847240" lon="22.1305890">
<ele>2006.498413</ele>
<time>2026-08-30T12:16:36.402Z</time>
</trkpt>
<trkpt lat="38.6846510" lon="22.1305540">
<ele>2005.888794</ele>
<time>2026-08-30T12:16:36.402Z</time>
</trkpt>
<trkpt lat="38.6845800" lon="22.1305520">
<ele>2005.888794</ele>
<time>2026-08-30T12:16:36.402Z</time>
</trkpt>
<trkpt lat="38.6844920" lon="22.1305680">
<ele>2006.193604</ele>
<time>2026-08-30T12:16:36.402Z</time>
</trkpt>
<trkpt lat="38.6843850" lon="22.1306000">
<ele>2006.498413</ele>
<time>2026-08-30T12:16:36.402Z</time>
</trkpt>
<trkpt lat="38.6842550" lon="22.1306460">
<ele>2006.803223</ele>
<time>2026-08-30T12:16:36.402Z</time>
</trkpt>
<trkpt lat="38.6841690" lon="22.1306750">
<ele>2007.412842</ele>
<time>2026-08-30T12:16:36.402Z</time>
</trkpt>
<trkpt lat="38.6840980" lon="22.1306860">
<ele>2008.022461</ele>
<time>2026-08-30T12:16:36.402Z</time>
</trkpt>
<trkpt lat="38.6840060" lon="22.1306970">
<ele>2008.936768</ele>
<time>2026-08-30T12:16:36.402Z</time>
</trkpt>
<trkpt lat="38.6838930" lon="22.1306990">
<ele>2009.546387</ele>
<time>2026-08-30T12:16:36.402Z</time>
</trkpt>
<trkpt lat="38.6838090" lon="22.1307180">
<ele>2011.680054</ele>
<time>2026-08-30T12:16:36.402Z</time>
</trkpt>
<trkpt lat="38.6837380" lon="22.1307420">
<ele>2014.118408</ele>
<time>2026-08-30T12:16:36.402Z</time>
</trkpt>
<trkpt lat="38.6836770" lon="22.1307610">
<ele>2015.947144</ele>
<time>2026-08-30T12:16:36.402Z</time>
</trkpt>
<trkpt lat="38.6836300" lon="22.1307850">
<ele>2017.471191</ele>
<time>2026-08-30T12:16:36.402Z</time>
</trkpt>
<trkpt lat="38.6835790" lon="22.1307850">
<ele>2018.995239</ele>
<time>2026-08-30T12:16:36.402Z</time>
</trkpt>
<trkpt lat="38.6835560" lon="22.1307410">
<ele>2018.995239</ele>
<time>2026-08-30T12:16:36.402Z</time>
</trkpt>
<trkpt lat="38.6835270" lon="22.1306850">
<ele>2018.995239</ele>
<time>2026-08-30T12:16:36.402Z</time>
</trkpt>
<trkpt lat="38.6834760" lon="22.1306680">
<ele>2021.128784</ele>
<time>2026-08-30T12:16:36.402Z</time>
</trkpt>
<trkpt lat="38.6834210" lon="22.1306400">
<ele>2022.957642</ele>
<time>2026-08-30T12:16:36.402Z</time>
</trkpt>
<trkpt lat="38.6833680" lon="22.1306070">
<ele>2025.091187</ele>
<time>2026-08-30T12:16:36.402Z</time>
</trkpt>
<trkpt lat="38.6832970" lon="22.1305630">
<ele>2026.005615</ele>
<time>2026-08-30T12:16:36.402Z</time>
</trkpt>
<trkpt lat="38.6832490" lon="22.1305320">
<ele>2024.786377</ele>
<time>2026-08-30T12:16:36.402Z</time>
</trkpt>
<trkpt lat="38.6831920" lon="22.1304760">
<ele>2023.567261</ele>
<time>2026-08-30T12:16:36.402Z</time>
</trkpt>
<trkpt lat="38.6831240" lon="22.1304470">
<ele>2023.262451</ele>
<time>2026-08-30T12:16:36.402Z</time>
</trkpt>
<trkpt lat="38.6830520" lon="22.1304160">
<ele>2023.567261</ele>
<time>2026-08-30T12:16:36.402Z</time>
</trkpt>
<trkpt lat="38.6830290" lon="22.1303720">
<ele>2023.567261</ele>
<time>2026-08-30T12:16:36.402Z</time>
</trkpt>
<trkpt lat="38.6830340" lon="22.1303260">
<ele>2023.262451</ele>
<time>2026-08-30T12:16:36.402Z</time>
</trkpt>
<trkpt lat="38.6830850" lon="22.1302840">
<ele>2022.348022</ele>
<time>2026-08-30T12:16:36.402Z</time>
</trkpt>
<trkpt lat="38.6831500" lon="22.1302260">
<ele>2019.604858</ele>
<time>2026-08-30T12:16:36.402Z</time>
</trkpt>
<trkpt lat="38.6831930" lon="22.1301690">
<ele>2016.861572</ele>
<time>2026-08-30T12:16:36.402Z</time>
</trkpt>
<trkpt lat="38.6831940" lon="22.1300960">
<ele>2014.728027</ele>
<time>2026-08-30T12:16:36.402Z</time>
</trkpt>
<trkpt lat="38.6831500" lon="22.1299870">
<ele>2012.594360</ele>
<time>2026-08-30T12:16:36.404Z</time>
</trkpt>
<trkpt lat="38.6831140" lon="22.1299190">
<ele>2011.984741</ele>
<time>2026-08-30T12:16:36.404Z</time>
</trkpt>
<trkpt lat="38.6830180" lon="22.1298410">
<ele>2014.728027</ele>
<time>2026-08-30T12:16:36.404Z</time>
</trkpt>
<trkpt lat="38.6829550" lon="22.1297960">
<ele>2017.471191</ele>
<time>2026-08-30T12:16:36.404Z</time>
</trkpt>
<trkpt lat="38.6829130" lon="22.1297150">
<ele>2018.995239</ele>
<time>2026-08-30T12:16:36.404Z</time>
</trkpt>
<trkpt lat="38.6828710" lon="22.1296180">
<ele>2019.909546</ele>
<time>2026-08-30T12:16:36.404Z</time>
</trkpt>
<trkpt lat="38.6828230" lon="22.1294740">
<ele>2020.823975</ele>
<time>2026-08-30T12:16:36.404Z</time>
</trkpt>
<trkpt lat="38.6827980" lon="22.1293320">
<ele>2022.043213</ele>
<time>2026-08-30T12:16:36.404Z</time>
</trkpt>
<trkpt lat="38.6827900" lon="22.1292290">
<ele>2021.738403</ele>
<time>2026-08-30T12:16:36.404Z</time>
</trkpt>
<trkpt lat="38.6827750" lon="22.1289530">
<ele>2022.043213</ele>
<time>2026-08-30T12:16:36.404Z</time>
</trkpt>
<trkpt lat="38.6826630" lon="22.1288440">
<ele>2021.128784</ele>
<time>2026-08-30T12:16:36.404Z</time>
</trkpt>
<trkpt lat="38.6827050" lon="22.1287880">
<ele>2020.519165</ele>
<time>2026-08-30T12:16:36.404Z</time>
</trkpt>
<trkpt lat="38.6827460" lon="22.1287000">
<ele>2019.604858</ele>
<time>2026-08-30T12:16:36.404Z</time>
</trkpt>
<trkpt lat="38.6827700" lon="22.1286220">
<ele>2018.995239</ele>
<time>2026-08-30T12:16:36.404Z</time>
</trkpt>
<trkpt lat="38.6828420" lon="22.1284520">
<ele>2021.738403</ele>
<time>2026-08-30T12:16:36.404Z</time>
</trkpt>
<trkpt lat="38.6829050" lon="22.1283540">
<ele>2023.871948</ele>
<time>2026-08-30T12:16:36.404Z</time>
</trkpt>
<trkpt lat="38.6828920" lon="22.1282130">
<ele>2025.395996</ele>
<time>2026-08-30T12:16:36.404Z</time>
</trkpt>
<trkpt lat="38.6828110" lon="22.1280740">
<ele>2025.395996</ele>
<time>2026-08-30T12:16:36.404Z</time>
</trkpt>
<trkpt lat="38.6827000" lon="22.1278390">
<ele>2026.920044</ele>
<time>2026-08-30T12:16:36.404Z</time>
</trkpt>
<trkpt lat="38.6826400" lon="22.1276770">
<ele>2028.139160</ele>
<time>2026-08-30T12:16:36.404Z</time>
</trkpt>
<trkpt lat="38.6825520" lon="22.1275010">
<ele>2028.443970</ele>
<time>2026-08-30T12:16:36.404Z</time>
</trkpt>
<trkpt lat="38.6825040" lon="22.1274250">
<ele>2027.224854</ele>
<time>2026-08-30T12:16:36.404Z</time>
</trkpt>
<trkpt lat="38.6824770" lon="22.1273300">
<ele>2026.005615</ele>
<time>2026-08-30T12:16:36.404Z</time>
</trkpt>
<trkpt lat="38.6824680" lon="22.1271880">
<ele>2025.700806</ele>
<time>2026-08-30T12:16:36.404Z</time>
</trkpt>
<trkpt lat="38.6824960" lon="22.1271470">
<ele>2027.224854</ele>
<time>2026-08-30T12:16:36.404Z</time>
</trkpt>
<trkpt lat="38.6824990" lon="22.1271010">
<ele>2027.529541</ele>
<time>2026-08-30T12:16:36.404Z</time>
</trkpt>
<trkpt lat="38.6824760" lon="22.1270100">
<ele>2026.615234</ele>
<time>2026-08-30T12:16:36.404Z</time>
</trkpt>
<trkpt lat="38.6824980" lon="22.1268270">
<ele>2027.224854</ele>
<time>2026-08-30T12:16:36.404Z</time>
</trkpt>
<trkpt lat="38.6825070" lon="22.1266900">
<ele>2026.005615</ele>
<time>2026-08-30T12:16:36.404Z</time>
</trkpt>
<trkpt lat="38.6825320" lon="22.1265070">
<ele>2026.615234</ele>
<time>2026-08-30T12:16:36.404Z</time>
</trkpt>
<trkpt lat="38.6825690" lon="22.1263690">
<ele>2026.920044</ele>
<time>2026-08-30T12:16:36.404Z</time>
</trkpt>
<trkpt lat="38.6825920" lon="22.1262320">
<ele>2026.005615</ele>
<time>2026-08-30T12:16:36.404Z</time>
</trkpt>
<trkpt lat="38.6826820" lon="22.1260470">
<ele>2025.700806</ele>
<time>2026-08-30T12:16:36.404Z</time>
</trkpt>
<trkpt lat="38.6827090" lon="22.1259500">
<ele>2026.310425</ele>
<time>2026-08-30T12:16:36.404Z</time>
</trkpt>
<trkpt lat="38.6827610" lon="22.1258440">
<ele>2028.443970</ele>
<time>2026-08-30T12:16:36.404Z</time>
</trkpt>
<trkpt lat="38.6828160" lon="22.1256970">
<ele>2030.272827</ele>
<time>2026-08-30T12:16:36.404Z</time>
</trkpt>
<trkpt lat="38.6828390" lon="22.1255820">
<ele>2031.491943</ele>
<time>2026-08-30T12:16:36.404Z</time>
</trkpt>
<trkpt lat="38.6828360" lon="22.1253630">
<ele>2029.968018</ele>
<time>2026-08-30T12:16:36.404Z</time>
</trkpt>
<trkpt lat="38.6828220" lon="22.1251490">
<ele>2028.139160</ele>
<time>2026-08-30T12:16:36.404Z</time>
</trkpt>
<trkpt lat="38.6828190" lon="22.1249940">
<ele>2026.615234</ele>
<time>2026-08-30T12:16:36.404Z</time>
</trkpt>
<trkpt lat="38.6828190" lon="22.1247930">
<ele>2027.834351</ele>
<time>2026-08-30T12:16:36.404Z</time>
</trkpt>
<trkpt lat="38.6827950" lon="22.1246160">
<ele>2029.358398</ele>
<time>2026-08-30T12:16:36.404Z</time>
</trkpt>
<trkpt lat="38.6828110" lon="22.1244650">
<ele>2031.187256</ele>
<time>2026-08-30T12:16:36.404Z</time>
</trkpt>
<trkpt lat="38.6828120" lon="22.1243550">
<ele>2031.796753</ele>
<time>2026-08-30T12:16:36.404Z</time>
</trkpt>
<trkpt lat="38.6827960" lon="22.1242100">
<ele>2032.101563</ele>
<time>2026-08-30T12:16:36.404Z</time>
</trkpt>
<trkpt lat="38.6827360" lon="22.1240240">
<ele>2030.272827</ele>
<time>2026-08-30T12:16:36.404Z</time>
</trkpt>
<trkpt lat="38.6827020" lon="22.1239340">
<ele>2029.663208</ele>
<time>2026-08-30T12:16:36.404Z</time>
</trkpt>
<trkpt lat="38.6826560" lon="22.1237570">
<ele>2028.139160</ele>
<time>2026-08-30T12:16:36.404Z</time>
</trkpt>
<trkpt lat="38.6825930" lon="22.1235850">
<ele>2026.920044</ele>
<time>2026-08-30T12:16:36.404Z</time>
</trkpt>
<trkpt lat="38.6825650" lon="22.1234540">
<ele>2026.920044</ele>
<time>2026-08-30T12:16:36.404Z</time>
</trkpt>
<trkpt lat="38.6825300" lon="22.1232400">
<ele>2027.529541</ele>
<time>2026-08-30T12:16:36.404Z</time>
</trkpt>
<trkpt lat="38.6825170" lon="22.1230950">
<ele>2027.834351</ele>
<time>2026-08-30T12:16:36.404Z</time>
</trkpt>
<trkpt lat="38.6825100" lon="22.1229120">
<ele>2026.920044</ele>
<time>2026-08-30T12:16:36.404Z</time>
</trkpt>
<trkpt lat="38.6825390" lon="22.1227020">
<ele>2025.700806</ele>
<time>2026-08-30T12:16:36.404Z</time>
</trkpt>
<trkpt lat="38.6825630" lon="22.1226230">
<ele>2025.395996</ele>
<time>2026-08-30T12:16:36.404Z</time>
</trkpt>
<trkpt lat="38.6825720" lon="22.1225050">
<ele>2024.786377</ele>
<time>2026-08-30T12:16:36.404Z</time>
</trkpt>
<trkpt lat="38.6825450" lon="22.1224140">
<ele>2025.395996</ele>
<time>2026-08-30T12:16:36.404Z</time>
</trkpt>
<trkpt lat="38.6825180" lon="22.1223050">
<ele>2026.310425</ele>
<time>2026-08-30T12:16:36.404Z</time>
</trkpt>
<trkpt lat="38.6824970" lon="22.1220690">
<ele>2026.310425</ele>
<time>2026-08-30T12:16:36.404Z</time>
</trkpt>
<trkpt lat="38.6824790" lon="22.1218410">
<ele>2025.395996</ele>
<time>2026-08-30T12:16:36.404Z</time>
</trkpt>
<trkpt lat="38.6824350" lon="22.1215590">
<ele>2025.395996</ele>
<time>2026-08-30T12:16:36.404Z</time>
</trkpt>
<trkpt lat="38.6823850" lon="22.1213460">
<ele>2026.615234</ele>
<time>2026-08-30T12:16:36.404Z</time>
</trkpt>
<trkpt lat="38.6823400" lon="22.1212150">
<ele>2027.529541</ele>
<time>2026-08-30T12:16:36.404Z</time>
</trkpt>
<trkpt lat="38.6823050" lon="22.1210330">
<ele>2028.748779</ele>
<time>2026-08-30T12:16:36.404Z</time>
</trkpt>
<trkpt lat="38.6822760" lon="22.1208110">
<ele>2029.663208</ele>
<time>2026-08-30T12:16:36.404Z</time>
</trkpt>
<trkpt lat="38.6822560" lon="22.1206790">
<ele>2029.663208</ele>
<time>2026-08-30T12:16:36.404Z</time>
</trkpt>
<trkpt lat="38.6822280" lon="22.1204740">
<ele>2029.358398</ele>
<time>2026-08-30T12:16:36.404Z</time>
</trkpt>
<trkpt lat="38.6822060" lon="22.1201970">
<ele>2029.968018</ele>
<time>2026-08-30T12:16:36.404Z</time>
</trkpt>
<trkpt lat="38.6821910" lon="22.1199820">
<ele>2030.882446</ele>
<time>2026-08-30T12:16:36.404Z</time>
</trkpt>
<trkpt lat="38.6821800" lon="22.1197320">
<ele>2031.491943</ele>
<time>2026-08-30T12:16:36.404Z</time>
</trkpt>
<trkpt lat="38.6821770" lon="22.1195540">
<ele>2028.748779</ele>
<time>2026-08-30T12:16:36.404Z</time>
</trkpt>
<trkpt lat="38.6821750" lon="22.1195220">
<ele>2028.443970</ele>
<time>2026-08-30T12:16:36.404Z</time>
</trkpt>
<trkpt lat="38.6821830" lon="22.1194240">
<ele>2026.615234</ele>
<time>2026-08-30T12:16:36.404Z</time>
</trkpt>
<trkpt lat="38.6821960" lon="22.1191760">
<ele>2019.300049</ele>
<time>2026-08-30T12:16:36.406Z</time>
</trkpt>
<trkpt lat="38.6821840" lon="22.1191620">
<ele>2018.995239</ele>
<time>2026-08-30T12:16:36.406Z</time>
</trkpt>
<trkpt lat="38.6821880" lon="22.1191250">
<ele>2018.385620</ele>
<time>2026-08-30T12:16:36.406Z</time>
</trkpt>
<trkpt lat="38.6821760" lon="22.1190430">
<ele>2016.861572</ele>
<time>2026-08-30T12:16:36.406Z</time>
</trkpt>
<trkpt lat="38.6821540" lon="22.1190030">
<ele>2016.251953</ele>
<time>2026-08-30T12:16:36.406Z</time>
</trkpt>
<trkpt lat="38.6821070" lon="22.1189850">
<ele>2016.251953</ele>
<time>2026-08-30T12:16:36.406Z</time>
</trkpt>
<trkpt lat="38.6820400" lon="22.1190470">
<ele>2017.776001</ele>
<time>2026-08-30T12:16:36.406Z</time>
</trkpt>
<trkpt lat="38.6819800" lon="22.1190890">
<ele>2018.690430</ele>
<time>2026-08-30T12:16:36.406Z</time>
</trkpt>
<trkpt lat="38.6819200" lon="22.1190950">
<ele>2018.080811</ele>
<time>2026-08-30T12:16:36.406Z</time>
</trkpt>
<trkpt lat="38.6819180" lon="22.1189860">
<ele>2016.556763</ele>
<time>2026-08-30T12:16:36.406Z</time>
</trkpt>
<trkpt lat="38.6819620" lon="22.1188620">
<ele>2015.337646</ele>
<time>2026-08-30T12:16:36.406Z</time>
</trkpt>
<trkpt lat="38.6819960" lon="22.1187330">
<ele>2012.289551</ele>
<time>2026-08-30T12:16:36.406Z</time>
</trkpt>
<trkpt lat="38.6820310" lon="22.1186540">
<ele>2009.851196</ele>
<time>2026-08-30T12:16:36.406Z</time>
</trkpt>
<trkpt lat="38.6820790" lon="22.1185800">
<ele>2008.022461</ele>
<time>2026-08-30T12:16:36.406Z</time>
</trkpt>
<trkpt lat="38.6821290" lon="22.1185380">
<ele>2006.803223</ele>
<time>2026-08-30T12:16:36.406Z</time>
</trkpt>
<trkpt lat="38.6821630" lon="22.1184460">
<ele>2004.974365</ele>
<time>2026-08-30T12:16:36.406Z</time>
</trkpt>
<trkpt lat="38.6821760" lon="22.1183720">
<ele>2003.450439</ele>
<time>2026-08-30T12:16:36.406Z</time>
</trkpt>
<trkpt lat="38.6822250" lon="22.1182980">
<ele>2002.231201</ele>
<time>2026-08-30T12:16:36.406Z</time>
</trkpt>
<trkpt lat="38.6822710" lon="22.1182330">
<ele>1999.792847</ele>
<time>2026-08-30T12:16:36.406Z</time>
</trkpt>
<trkpt lat="38.6822690" lon="22.1181460">
<ele>1997.659180</ele>
<time>2026-08-30T12:16:36.406Z</time>
</trkpt>
<trkpt lat="38.6822580" lon="22.1180920">
<ele>1996.439941</ele>
<time>2026-08-30T12:16:36.406Z</time>
</trkpt>
<trkpt lat="38.6822520" lon="22.1179960">
<ele>1994.611206</ele>
<time>2026-08-30T12:16:36.406Z</time>
</trkpt>
<trkpt lat="38.6822440" lon="22.1179420">
<ele>1993.696777</ele>
<time>2026-08-30T12:16:36.406Z</time>
</trkpt>
<trkpt lat="38.6822290" lon="22.1178920">
<ele>1993.087158</ele>
<time>2026-08-30T12:16:36.406Z</time>
</trkpt>
<trkpt lat="38.6822170" lon="22.1178100">
<ele>1991.563232</ele>
<time>2026-08-30T12:16:36.406Z</time>
</trkpt>
<trkpt lat="38.6822230" lon="22.1177230">
<ele>1990.953613</ele>
<time>2026-08-30T12:16:36.406Z</time>
</trkpt>
<trkpt lat="38.6822150" lon="22.1176820">
<ele>1990.953613</ele>
<time>2026-08-30T12:16:36.406Z</time>
</trkpt>
<trkpt lat="38.6821500" lon="22.1176480">
<ele>1989.734375</ele>
<time>2026-08-30T12:16:36.406Z</time>
</trkpt>
<trkpt lat="38.6821240" lon="22.1176060">
<ele>1988.819946</ele>
<time>2026-08-30T12:16:36.406Z</time>
</trkpt>
<trkpt lat="38.6821420" lon="22.1175520">
<ele>1989.124756</ele>
<time>2026-08-30T12:16:36.406Z</time>
</trkpt>
<trkpt lat="38.6821440" lon="22.1174970">
<ele>1988.819946</ele>
<time>2026-08-30T12:16:36.406Z</time>
</trkpt>
<trkpt lat="38.6821610" lon="22.1174510">
<ele>1989.734375</ele>
<time>2026-08-30T12:16:36.406Z</time>
</trkpt>
<trkpt lat="38.6821780" lon="22.1173960">
<ele>1990.648804</ele>
<time>2026-08-30T12:16:36.406Z</time>
</trkpt>
<trkpt lat="38.6822250" lon="22.1173900">
<ele>1991.563232</ele>
<time>2026-08-30T12:16:36.406Z</time>
</trkpt>
</trkseg>
<trkseg>
<trkpt lat="38.6822550" lon="22.1173830">
<ele>1981.504761</ele>
<time>2026-07-10T19:56:02.000Z</time>
</trkpt>
<trkpt lat="38.6822550" lon="22.1173850">
<ele>1981.199951</ele>
<time>2026-07-10T19:55:48.996Z</time>
</trkpt>
<trkpt lat="38.6822490" lon="22.1173880">
<ele>1980.895142</ele>
<time>2026-07-10T19:55:48.003Z</time>
</trkpt>
<trkpt lat="38.6822850" lon="22.1173680">
<ele>1977.237549</ele>
<time>2026-07-10T19:55:26.999Z</time>
</trkpt>
<trkpt lat="38.6823650" lon="22.1174300">
<ele>1971.751221</ele>
<time>2026-07-10T19:55:13.002Z</time>
</trkpt>
<trkpt lat="38.6824160" lon="22.1174510">
<ele>1969.617554</ele>
<time>2026-07-10T19:55:02.004Z</time>
</trkpt>
<trkpt lat="38.6824240" lon="22.1174480">
<ele>1969.922363</ele>
<time>2026-07-10T19:55:01.001Z</time>
</trkpt>
<trkpt lat="38.6824560" lon="22.1174680">
<ele>1970.836792</ele>
<time>2026-07-10T19:54:58.003Z</time>
</trkpt>
<trkpt lat="38.6824690" lon="22.1174950">
<ele>1971.141602</ele>
<time>2026-07-10T19:54:55.999Z</time>
</trkpt>
<trkpt lat="38.6825800" lon="22.1175310">
<ele>1970.227173</ele>
<time>2026-07-10T19:54:31.997Z</time>
</trkpt>
<trkpt lat="38.6825780" lon="22.1175300">
<ele>1970.227173</ele>
<time>2026-07-10T19:54:31.003Z</time>
</trkpt>
<trkpt lat="38.6826600" lon="22.1175310">
<ele>1967.788818</ele>
<time>2026-07-10T19:54:18.000Z</time>
</trkpt>
<trkpt lat="38.6827300" lon="22.1175110">
<ele>1965.045654</ele>
<time>2026-07-10T19:54:08.997Z</time>
</trkpt>
<trkpt lat="38.6827580" lon="22.1175160">
<ele>1963.826416</ele>
<time>2026-07-10T19:54:05.999Z</time>
</trkpt>
<trkpt lat="38.6827530" lon="22.1175230">
<ele>1965.350342</ele>
<time>2026-07-10T19:54:04.997Z</time>
</trkpt>
<trkpt lat="38.6827860" lon="22.1175780">
<ele>1967.788818</ele>
<time>2026-07-10T19:53:52.996Z</time>
</trkpt>
<trkpt lat="38.6828290" lon="22.1176000">
<ele>1966.264771</ele>
<time>2026-07-10T19:53:44.002Z</time>
</trkpt>
<trkpt lat="38.6828880" lon="22.1176480">
<ele>1965.350342</ele>
<time>2026-07-10T19:53:32.001Z</time>
</trkpt>
<trkpt lat="38.6828950" lon="22.1176510">
<ele>1965.350342</ele>
<time>2026-07-10T19:53:30.998Z</time>
</trkpt>
<trkpt lat="38.6829680" lon="22.1176880">
<ele>1962.911987</ele>
<time>2026-07-10T19:53:10.997Z</time>
</trkpt>
<trkpt lat="38.6830460" lon="22.1177510">
<ele>1960.473633</ele>
<time>2026-07-10T19:52:55.004Z</time>
</trkpt>
<trkpt lat="38.6830510" lon="22.1177560">
<ele>1960.473633</ele>
<time>2026-07-10T19:52:54.002Z</time>
</trkpt>
<trkpt lat="38.6830760" lon="22.1177710">
<ele>1959.864014</ele>
<time>2026-07-10T19:52:48.999Z</time>
</trkpt>
<trkpt lat="38.6831760" lon="22.1177580">
<ele>1955.596802</ele>
<time>2026-07-10T19:52:23.002Z</time>
</trkpt>
<trkpt lat="38.6831750" lon="22.1177280">
<ele>1954.987183</ele>
<time>2026-07-10T19:52:17.999Z</time>
</trkpt>
<trkpt lat="38.6831930" lon="22.1176950">
<ele>1953.767944</ele>
<time>2026-07-10T19:52:12.003Z</time>
</trkpt>
<trkpt lat="38.6831960" lon="22.1176880">
<ele>1953.463257</ele>
<time>2026-07-10T19:52:11.001Z</time>
</trkpt>
<trkpt lat="38.6832300" lon="22.1175700">
<ele>1950.110352</ele>
<time>2026-07-10T19:51:49.997Z</time>
</trkpt>
<trkpt lat="38.6832900" lon="22.1174980">
<ele>1946.757568</ele>
<time>2026-07-10T19:51:34.998Z</time>
</trkpt>
<trkpt lat="38.6832980" lon="22.1174960">
<ele>1946.452759</ele>
<time>2026-07-10T19:51:34.004Z</time>
</trkpt>
<trkpt lat="38.6833550" lon="22.1174800">
<ele>1943.404785</ele>
<time>2026-07-10T19:51:25.001Z</time>
</trkpt>
<trkpt lat="38.6834080" lon="22.1174750">
<ele>1940.356812</ele>
<time>2026-07-10T19:51:14.003Z</time>
</trkpt>
<trkpt lat="38.6834580" lon="22.1174860">
<ele>1939.137573</ele>
<time>2026-07-10T19:50:59.997Z</time>
</trkpt>
<trkpt lat="38.6834900" lon="22.1174750">
<ele>1939.137573</ele>
<time>2026-07-10T19:50:55.003Z</time>
</trkpt>
<trkpt lat="38.6834980" lon="22.1174730">
<ele>1938.832764</ele>
<time>2026-07-10T19:50:54.001Z</time>
</trkpt>
<trkpt lat="38.6835280" lon="22.1174650">
<ele>1938.832764</ele>
<time>2026-07-10T19:50:50.001Z</time>
</trkpt>
<trkpt lat="38.6835450" lon="22.1174440">
<ele>1937.308838</ele>
<time>2026-07-10T19:50:47.003Z</time>
</trkpt>
<trkpt lat="38.6835930" lon="22.1174210">
<ele>1936.089600</ele>
<time>2026-07-10T19:50:40.004Z</time>
</trkpt>
<trkpt lat="38.6836160" lon="22.1173710">
<ele>1934.870361</ele>
<time>2026-07-10T19:50:32.004Z</time>
</trkpt>
<trkpt lat="38.6836450" lon="22.1173580">
<ele>1934.870361</ele>
<time>2026-07-10T19:50:28.003Z</time>
</trkpt>
<trkpt lat="38.6836510" lon="22.1173560">
<ele>1934.565552</ele>
<time>2026-07-10T19:50:27.001Z</time>
</trkpt>
<trkpt lat="38.6836810" lon="22.1173460">
<ele>1934.260742</ele>
<time>2026-07-10T19:50:20.996Z</time>
</trkpt>
<trkpt lat="38.6837280" lon="22.1173460">
<ele>1932.432007</ele>
<time>2026-07-10T19:50:09.997Z</time>
</trkpt>
<trkpt lat="38.6837500" lon="22.1173350">
<ele>1931.517578</ele>
<time>2026-07-10T19:50:05.004Z</time>
</trkpt>
<trkpt lat="38.6838200" lon="22.1173610">
<ele>1927.555176</ele>
<time>2026-07-10T19:49:52.000Z</time>
</trkpt>
<trkpt lat="38.6838130" lon="22.1173510">
<ele>1927.555176</ele>
<time>2026-07-10T19:49:50.998Z</time>
</trkpt>
<trkpt lat="38.6838130" lon="22.1173480">
<ele>1927.250366</ele>
<time>2026-07-10T19:49:49.996Z</time>
</trkpt>
<trkpt lat="38.6838900" lon="22.1173500">
<ele>1928.469604</ele>
<time>2026-07-10T19:49:38.997Z</time>
</trkpt>
<trkpt lat="38.6839030" lon="22.1173230">
<ele>1926.031250</ele>
<time>2026-07-10T19:49:34.003Z</time>
</trkpt>
<trkpt lat="38.6838830" lon="22.1172280">
<ele>1921.154419</ele>
<time>2026-07-10T19:49:22.002Z</time>
</trkpt>
<trkpt lat="38.6838850" lon="22.1172210">
<ele>1920.849609</ele>
<time>2026-07-10T19:49:21.000Z</time>
</trkpt>
<trkpt lat="38.6838530" lon="22.1171830">
<ele>1919.020752</ele>
<time>2026-07-10T19:49:14.002Z</time>
</trkpt>
<trkpt lat="38.6838140" lon="22.1170980">
<ele>1917.801636</ele>
<time>2026-07-10T19:49:03.996Z</time>
</trkpt>
<trkpt lat="38.6837960" lon="22.1170910">
<ele>1920.544800</ele>
<time>2026-07-10T19:48:40.003Z</time>
</trkpt>
</trkseg>
<trkseg>
<trkpt lat="38.6837460" lon="22.1170750">
<ele>1913.839233</ele>
<time>2026-07-10T19:43:39.003Z</time>
</trkpt>
<trkpt lat="38.6837200" lon="22.1170840">
<ele>1914.144043</ele>
<time>2026-07-10T19:43:35.996Z</time>
</trkpt>
<trkpt lat="38.6836980" lon="22.1170780">
<ele>1912.010376</ele>
<time>2026-07-10T19:43:31.996Z</time>
</trkpt>
<trkpt lat="38.6837510" lon="22.1170580">
<ele>1912.315186</ele>
<time>2026-07-10T19:43:28.998Z</time>
</trkpt>
<trkpt lat="38.6837660" lon="22.1170350">
<ele>1912.924805</ele>
<time>2026-07-10T19:43:19.001Z</time>
</trkpt>
<trkpt lat="38.6837680" lon="22.1170300">
<ele>1912.619995</ele>
<time>2026-07-10T19:43:17.999Z</time>
</trkpt>
<trkpt lat="38.6837910" lon="22.1169710">
<ele>1914.448853</ele>
<time>2026-07-10T19:43:09.998Z</time>
</trkpt>
<trkpt lat="38.6837750" lon="22.1169110">
<ele>1916.887207</ele>
<time>2026-07-10T19:42:53.997Z</time>
</trkpt>
<trkpt lat="38.6837880" lon="22.1168210">
<ele>1918.715942</ele>
<time>2026-07-10T19:42:44.001Z</time>
</trkpt>
<trkpt lat="38.6837910" lon="22.1168100">
<ele>1918.715942</ele>
<time>2026-07-10T19:42:42.998Z</time>
</trkpt>
<trkpt lat="38.6838460" lon="22.1166790">
<ele>1919.020752</ele>
<time>2026-07-10T19:42:30.004Z</time>
</trkpt>
<trkpt lat="38.6838550" lon="22.1166080">
<ele>1919.630371</ele>
<time>2026-07-10T19:42:22.997Z</time>
</trkpt>
<trkpt lat="38.6838580" lon="22.1165950">
<ele>1919.630371</ele>
<time>2026-07-10T19:42:22.003Z</time>
</trkpt>
<trkpt lat="38.6838730" lon="22.1163860">
<ele>1921.459229</ele>
<time>2026-07-10T19:42:05.000Z</time>
</trkpt>
<trkpt lat="38.6838710" lon="22.1163760">
<ele>1921.764038</ele>
<time>2026-07-10T19:42:03.997Z</time>
</trkpt>
<trkpt lat="38.6838960" lon="22.1162750">
<ele>1921.459229</ele>
<time>2026-07-10T19:41:54.001Z</time>
</trkpt>
<trkpt lat="38.6838980" lon="22.1162160">
<ele>1921.764038</ele>
<time>2026-07-10T19:41:48.998Z</time>
</trkpt>
<trkpt lat="38.6839300" lon="22.1161590">
<ele>1921.154419</ele>
<time>2026-07-10T19:41:35.002Z</time>
</trkpt>
<trkpt lat="38.6839310" lon="22.1161500">
<ele>1920.849609</ele>
<time>2026-07-10T19:41:33.999Z</time>
</trkpt>
<trkpt lat="38.6839310" lon="22.1160480">
<ele>1921.764038</ele>
<time>2026-07-10T19:41:24.003Z</time>
</trkpt>
<trkpt lat="38.6839510" lon="22.1159940">
<ele>1921.154419</ele>
<time>2026-07-10T19:41:17.998Z</time>
</trkpt>
<trkpt lat="38.6839860" lon="22.1159460">
<ele>1921.764038</ele>
<time>2026-07-10T19:41:13.998Z</time>
</trkpt>
<trkpt lat="38.6839880" lon="22.1159340">
<ele>1921.764038</ele>
<time>2026-07-10T19:41:13.004Z</time>
</trkpt>
<trkpt lat="38.6840460" lon="22.1157300">
<ele>1918.106445</ele>
<time>2026-07-10T19:40:34.997Z</time>
</trkpt>
<trkpt lat="38.6840450" lon="22.1157110">
<ele>1917.801636</ele>
<time>2026-07-10T19:40:34.003Z</time>
</trkpt>
<trkpt lat="38.6840500" lon="22.1156600">
<ele>1916.887207</ele>
<time>2026-07-10T19:40:30.003Z</time>
</trkpt>
<trkpt lat="38.6840860" lon="22.1155440">
<ele>1915.972778</ele>
<time>2026-07-10T19:40:15.004Z</time>
</trkpt>
<trkpt lat="38.6841230" lon="22.1155010">
<ele>1917.192017</ele>
<time>2026-07-10T19:40:10.001Z</time>
</trkpt>
<trkpt lat="38.6841290" lon="22.1154930">
<ele>1917.192017</ele>
<time>2026-07-10T19:40:08.999Z</time>
</trkpt>
<trkpt lat="38.6841850" lon="22.1154200">
<ele>1918.715942</ele>
<time>2026-07-10T19:39:59.996Z</time>
</trkpt>
<trkpt lat="38.6842180" lon="22.1153010">
<ele>1920.849609</ele>
<time>2026-07-10T19:39:45.999Z</time>
</trkpt>
<trkpt lat="38.6842200" lon="22.1152890">
<ele>1920.849609</ele>
<time>2026-07-10T19:39:44.997Z</time>
</trkpt>
<trkpt lat="38.6842260" lon="22.1151950">
<ele>1923.592773</ele>
<time>2026-07-10T19:39:31.000Z</time>
</trkpt>
<trkpt lat="38.6842790" lon="22.1151330">
<ele>1925.726440</ele>
<time>2026-07-10T19:39:17.997Z</time>
</trkpt>
<trkpt lat="38.6842960" lon="22.1150980">
<ele>1926.336060</ele>
<time>2026-07-10T19:39:13.003Z</time>
</trkpt>
<trkpt lat="38.6842980" lon="22.1150910">
<ele>1926.640747</ele>
<time>2026-07-10T19:39:12.001Z</time>
</trkpt>
<trkpt lat="38.6843100" lon="22.1150230">
<ele>1928.774414</ele>
<time>2026-07-10T19:39:04.000Z</time>
</trkpt>
<trkpt lat="38.6843030" lon="22.1149560">
<ele>1931.517578</ele>
<time>2026-07-10T19:38:51.999Z</time>
</trkpt>
<trkpt lat="38.6843110" lon="22.1149250">
<ele>1932.127197</ele>
<time>2026-07-10T19:38:42.996Z</time>
</trkpt>
<trkpt lat="38.6843310" lon="22.1149030">
<ele>1932.127197</ele>
<time>2026-07-10T19:38:39.998Z</time>
</trkpt>
<trkpt lat="38.6843360" lon="22.1148680">
<ele>1933.346436</ele>
<time>2026-07-10T19:38:37.000Z</time>
</trkpt>
<trkpt lat="38.6843330" lon="22.1148600">
<ele>1933.651245</ele>
<time>2026-07-10T19:38:35.998Z</time>
</trkpt>
<trkpt lat="38.6843600" lon="22.1147680">
<ele>1936.089600</ele>
<time>2026-07-10T19:38:24.999Z</time>
</trkpt>
<trkpt lat="38.6843210" lon="22.1147030">
<ele>1935.784790</ele>
<time>2026-07-10T19:38:18.001Z</time>
</trkpt>
<trkpt lat="38.6843350" lon="22.1146750">
<ele>1938.832764</ele>
<time>2026-07-10T19:38:04.004Z</time>
</trkpt>
<trkpt lat="38.6843260" lon="22.1146660">
<ele>1938.527954</ele>
<time>2026-07-10T19:38:03.002Z</time>
</trkpt>
<trkpt lat="38.6843180" lon="22.1146530">
<ele>1938.223145</ele>
<time>2026-07-10T19:38:02.000Z</time>
</trkpt>
<trkpt lat="38.6843150" lon="22.1146380">
<ele>1938.223145</ele>
<time>2026-07-10T19:38:00.997Z</time>
</trkpt>
<trkpt lat="38.6843310" lon="22.1145880">
<ele>1939.137573</ele>
<time>2026-07-10T19:37:51.001Z</time>
</trkpt>
<trkpt lat="38.6844010" lon="22.1144610">
<ele>1941.271240</ele>
<time>2026-07-10T19:37:37.998Z</time>
</trkpt>
<trkpt lat="38.6844050" lon="22.1144580">
<ele>1941.576050</ele>
<time>2026-07-10T19:37:37.004Z</time>
</trkpt>
<trkpt lat="38.6844130" lon="22.1144210">
<ele>1942.795166</ele>
<time>2026-07-10T19:37:33.997Z</time>
</trkpt>
<trkpt lat="38.6844380" lon="22.1143880">
<ele>1943.709595</ele>
<time>2026-07-10T19:37:20.001Z</time>
</trkpt>
<trkpt lat="38.6844560" lon="22.1143160">
<ele>1944.928833</ele>
<time>2026-07-10T19:37:13.996Z</time>
</trkpt>
<trkpt lat="38.6844800" lon="22.1142890">
<ele>1945.538452</ele>
<time>2026-07-10T19:37:10.998Z</time>
</trkpt>
<trkpt lat="38.6844850" lon="22.1142810">
<ele>1945.843140</ele>
<time>2026-07-10T19:37:10.004Z</time>
</trkpt>
<trkpt lat="38.6845060" lon="22.1142200">
<ele>1946.147949</ele>
<time>2026-07-10T19:37:05.002Z</time>
</trkpt>
<trkpt lat="38.6845110" lon="22.1141660">
<ele>1946.147949</ele>
<time>2026-07-10T19:37:01.001Z</time>
</trkpt>
<trkpt lat="38.6845310" lon="22.1141460">
<ele>1945.233643</ele>
<time>2026-07-10T19:36:55.999Z</time>
</trkpt>
<trkpt lat="38.6845600" lon="22.1141710">
<ele>1945.538452</ele>
<time>2026-07-10T19:36:54.003Z</time>
</trkpt>
<trkpt lat="38.6845730" lon="22.1141680">
<ele>1945.538452</ele>
<time>2026-07-10T19:36:53.001Z</time>
</trkpt>
<trkpt lat="38.6845880" lon="22.1141510">
<ele>1945.538452</ele>
<time>2026-07-10T19:36:51.998Z</time>
</trkpt>
<trkpt lat="38.6846350" lon="22.1140930">
<ele>1946.147949</ele>
<time>2026-07-10T19:36:46.996Z</time>
</trkpt>
<trkpt lat="38.6846840" lon="22.1140760">
<ele>1947.062378</ele>
<time>2026-07-10T19:36:43.004Z</time>
</trkpt>
<trkpt lat="38.6847400" lon="22.1140810">
<ele>1949.500854</ele>
<time>2026-07-10T19:36:12.997Z</time>
</trkpt>
<trkpt lat="38.6847480" lon="22.1140700">
<ele>1949.196045</ele>
<time>2026-07-10T19:36:12.004Z</time>
</trkpt>
<trkpt lat="38.6847710" lon="22.1140340">
<ele>1947.976807</ele>
<time>2026-07-10T19:36:07.001Z</time>
</trkpt>
<trkpt lat="38.6848050" lon="22.1140080">
<ele>1946.452759</ele>
<time>2026-07-10T19:36:03.001Z</time>
</trkpt>
<trkpt lat="38.6848160" lon="22.1139780">
<ele>1945.538452</ele>
<time>2026-07-10T19:36:00.003Z</time>
</trkpt>
<trkpt lat="38.6848950" lon="22.1139480">
<ele>1946.147949</ele>
<time>2026-07-10T19:35:51.000Z</time>
</trkpt>
<trkpt lat="38.6849130" lon="22.1139460">
<ele>1946.147949</ele>
<time>2026-07-10T19:35:49.998Z</time>
</trkpt>
<trkpt lat="38.6849410" lon="22.1139550">
<ele>1945.538452</ele>
<time>2026-07-10T19:35:48.002Z</time>
</trkpt>
<trkpt lat="38.6849500" lon="22.1139780">
<ele>1944.624023</ele>
<time>2026-07-10T19:35:41.004Z</time>
</trkpt>
<trkpt lat="38.6849250" lon="22.1139810">
<ele>1945.843140</ele>
<time>2026-07-10T19:35:38.999Z</time>
</trkpt>
<trkpt lat="38.6849110" lon="22.1139550">
<ele>1944.624023</ele>
<time>2026-07-10T19:35:30.998Z</time>
</trkpt>
<trkpt lat="38.6849330" lon="22.1139350">
<ele>1942.490356</ele>
<time>2026-07-10T19:35:21.002Z</time>
</trkpt>
<trkpt lat="38.6849810" lon="22.1139650">
<ele>1940.661621</ele>
<time>2026-07-10T19:35:14.004Z</time>
</trkpt>
<trkpt lat="38.6849880" lon="22.1139650">
<ele>1940.966431</ele>
<time>2026-07-10T19:35:13.001Z</time>
</trkpt>
<trkpt lat="38.6850800" lon="22.1139830">
<ele>1944.928833</ele>
<time>2026-07-10T19:34:55.998Z</time>
</trkpt>
<trkpt lat="38.6851340" lon="22.1140110">
<ele>1945.233643</ele>
<time>2026-07-10T19:34:47.004Z</time>
</trkpt>
<trkpt lat="38.6851400" lon="22.1140150">
<ele>1945.233643</ele>
<time>2026-07-10T19:34:46.001Z</time>
</trkpt>
<trkpt lat="38.6852130" lon="22.1140340">
<ele>1944.319214</ele>
<time>2026-07-10T19:34:34.000Z</time>
</trkpt>
<trkpt lat="38.6852580" lon="22.1140250">
<ele>1944.928833</ele>
<time>2026-07-10T19:34:28.998Z</time>
</trkpt>
<trkpt lat="38.6853030" lon="22.1140360">
<ele>1944.014404</ele>
<time>2026-07-10T19:34:20.997Z</time>
</trkpt>
<trkpt lat="38.6853080" lon="22.1140380">
<ele>1944.014404</ele>
<time>2026-07-10T19:34:20.004Z</time>
</trkpt>
<trkpt lat="38.6853560" lon="22.1140550">
<ele>1943.099976</ele>
<time>2026-07-10T19:34:07.000Z</time>
</trkpt>
<trkpt lat="38.6854750" lon="22.1140330">
<ele>1946.147949</ele>
<time>2026-07-10T19:33:45.003Z</time>
</trkpt>
<trkpt lat="38.6854860" lon="22.1140400">
<ele>1946.147949</ele>
<time>2026-07-10T19:33:44.001Z</time>
</trkpt>
<trkpt lat="38.6855340" lon="22.1140730">
<ele>1945.843140</ele>
<time>2026-07-10T19:33:38.998Z</time>
</trkpt>
<trkpt lat="38.6855530" lon="22.1140750">
<ele>1945.538452</ele>
<time>2026-07-10T19:33:36.000Z</time>
</trkpt>
<trkpt lat="38.6855750" lon="22.1140610">
<ele>1944.928833</ele>
<time>2026-07-10T19:33:30.997Z</time>
</trkpt>
<trkpt lat="38.6856600" lon="22.1140630">
<ele>1943.709595</ele>
<time>2026-07-10T19:33:22.003Z</time>
</trkpt>
<trkpt lat="38.6856730" lon="22.1140610">
<ele>1943.709595</ele>
<time>2026-07-10T19:33:21.001Z</time>
</trkpt>
<trkpt lat="38.6857360" lon="22.1140640">
<ele>1943.099976</ele>
<time>2026-07-10T19:33:17.001Z</time>
</trkpt>
<trkpt lat="38.6857460" lon="22.1140460">
<ele>1944.319214</ele>
<time>2026-07-10T19:33:13.000Z</time>
</trkpt>
<trkpt lat="38.6857050" lon="22.1140110">
<ele>1946.452759</ele>
<time>2026-07-10T19:33:10.996Z</time>
</trkpt>
<trkpt lat="38.6857140" lon="22.1139730">
<ele>1947.671997</ele>
<time>2026-07-10T19:33:05.000Z</time>
</trkpt>
<trkpt lat="38.6857140" lon="22.1139650">
<ele>1947.976807</ele>
<time>2026-07-10T19:33:03.997Z</time>
</trkpt>
<trkpt lat="38.6857100" lon="22.1139290">
<ele>1950.415161</ele>
<time>2026-07-10T19:32:55.997Z</time>
</trkpt>
<trkpt lat="38.6857400" lon="22.1138130">
<ele>1951.939209</ele>
<time>2026-07-10T19:32:43.996Z</time>
</trkpt>
<trkpt lat="38.6857810" lon="22.1137630">
<ele>1948.281616</ele>
<time>2026-07-10T19:32:32.997Z</time>
</trkpt>
<trkpt lat="38.6857950" lon="22.1137530">
<ele>1948.586426</ele>
<time>2026-07-10T19:32:32.004Z</time>
</trkpt>
<trkpt lat="38.6858130" lon="22.1137410">
<ele>1948.586426</ele>
<time>2026-07-10T19:32:31.001Z</time>
</trkpt>
<trkpt lat="38.6858380" lon="22.1136950">
<ele>1950.110352</ele>
<time>2026-07-10T19:32:27.001Z</time>
</trkpt>
<trkpt lat="38.6858410" lon="22.1136650">
<ele>1950.719971</ele>
<time>2026-07-10T19:32:24.996Z</time>
</trkpt>
<trkpt lat="38.6858250" lon="22.1136210">
<ele>1951.329590</ele>
<time>2026-07-10T19:32:21.998Z</time>
</trkpt>
<trkpt lat="38.6858260" lon="22.1135980">
<ele>1951.634399</ele>
<time>2026-07-10T19:32:20.996Z</time>
</trkpt>
<trkpt lat="38.6858430" lon="22.1135730">
<ele>1951.939209</ele>
<time>2026-07-10T19:32:17.998Z</time>
</trkpt>
<trkpt lat="38.6858480" lon="22.1135680">
<ele>1952.244019</ele>
<time>2026-07-10T19:32:16.996Z</time>
</trkpt>
<trkpt lat="38.6858730" lon="22.1135450">
<ele>1952.244019</ele>
<time>2026-07-10T19:32:15.000Z</time>
</trkpt>
<trkpt lat="38.6859260" lon="22.1135560">
<ele>1953.158447</ele>
<time>2026-07-10T19:32:09.997Z</time>
</trkpt>
<trkpt lat="38.6859700" lon="22.1135460">
<ele>1955.901611</ele>
<time>2026-07-10T19:32:02.999Z</time>
</trkpt>
<trkpt lat="38.6859980" lon="22.1135510">
<ele>1956.816040</ele>
<time>2026-07-10T19:31:57.996Z</time>
</trkpt>
<trkpt lat="38.6860060" lon="22.1135530">
<ele>1957.120850</ele>
<time>2026-07-10T19:31:57.003Z</time>
</trkpt>
<trkpt lat="38.6860600" lon="22.1135310">
<ele>1957.425659</ele>
<time>2026-07-10T19:31:49.002Z</time>
</trkpt>
<trkpt lat="38.6861050" lon="22.1135460">
<ele>1957.425659</ele>
<time>2026-07-10T19:31:41.002Z</time>
</trkpt>
<trkpt lat="38.6861190" lon="22.1135200">
<ele>1956.816040</ele>
<time>2026-07-10T19:31:37.001Z</time>
</trkpt>
<trkpt lat="38.6861360" lon="22.1135180">
<ele>1957.425659</ele>
<time>2026-07-10T19:31:31.999Z</time>
</trkpt>
<trkpt lat="38.6861480" lon="22.1134830">
<ele>1957.730347</ele>
<time>2026-07-10T19:31:26.996Z</time>
</trkpt>
<trkpt lat="38.6861500" lon="22.1134780">
<ele>1957.730347</ele>
<time>2026-07-10T19:31:26.003Z</time>
</trkpt>
<trkpt lat="38.6861680" lon="22.1133730">
<ele>1960.168823</ele>
<time>2026-07-10T19:31:18.002Z</time>
</trkpt>
<trkpt lat="38.6861900" lon="22.1133230">
<ele>1959.864014</ele>
<time>2026-07-10T19:31:11.997Z</time>
</trkpt>
<trkpt lat="38.6862110" lon="22.1132980">
<ele>1960.473633</ele>
<time>2026-07-10T19:31:08.999Z</time>
</trkpt>
<trkpt lat="38.6862180" lon="22.1132900">
<ele>1960.473633</ele>
<time>2026-07-10T19:31:07.997Z</time>
</trkpt>
<trkpt lat="38.6862450" lon="22.1132290">
<ele>1961.387939</ele>
<time>2026-07-10T19:31:02.001Z</time>
</trkpt>
<trkpt lat="38.6862360" lon="22.1131450">
<ele>1961.692749</ele>
<time>2026-07-10T19:30:55.002Z</time>
</trkpt>
<trkpt lat="38.6862050" lon="22.1131100">
<ele>1961.692749</ele>
<time>2026-07-10T19:30:35.001Z</time>
</trkpt>
<trkpt lat="38.6862010" lon="22.1131160">
<ele>1962.607178</ele>
<time>2026-07-10T19:30:33.998Z</time>
</trkpt>
<trkpt lat="38.6862010" lon="22.1131250">
<ele>1962.607178</ele>
<time>2026-07-10T19:30:32.996Z</time>
</trkpt>
<trkpt lat="38.6862090" lon="22.1131330">
<ele>1962.911987</ele>
<time>2026-07-10T19:30:32.003Z</time>
</trkpt>
<trkpt lat="38.6862030" lon="22.1131630">
<ele>1962.607178</ele>
<time>2026-07-10T19:30:17.004Z</time>
</trkpt>
<trkpt lat="38.6862250" lon="22.1130310">
<ele>1967.484009</ele>
<time>2026-07-10T19:30:02.998Z</time>
</trkpt>
<trkpt lat="38.6862210" lon="22.1130030">
<ele>1969.008057</ele>
<time>2026-07-10T19:29:58.004Z</time>
</trkpt>
<trkpt lat="38.6862210" lon="22.1129950">
<ele>1969.008057</ele>
<time>2026-07-10T19:29:57.002Z</time>
</trkpt>
<trkpt lat="38.6862060" lon="22.1129650">
<ele>1970.227173</ele>
<time>2026-07-10T19:29:51.999Z</time>
</trkpt>
<trkpt lat="38.6862080" lon="22.1129010">
<ele>1973.579956</ele>
<time>2026-07-10T19:29:43.999Z</time>
</trkpt>
<trkpt lat="38.6862180" lon="22.1128690">
<ele>1973.275146</ele>
<time>2026-07-10T19:29:39.998Z</time>
</trkpt>
<trkpt lat="38.6862130" lon="22.1128500">
<ele>1973.579956</ele>
<time>2026-07-10T19:29:38.003Z</time>
</trkpt>
<trkpt lat="38.6861900" lon="22.1128360">
<ele>1975.104004</ele>
<time>2026-07-10T19:29:33.000Z</time>
</trkpt>
<trkpt lat="38.6861950" lon="22.1127850">
<ele>1974.494385</ele>
<time>2026-07-10T19:29:27.997Z</time>
</trkpt>
<trkpt lat="38.6861960" lon="22.1127750">
<ele>1975.104004</ele>
<time>2026-07-10T19:29:27.004Z</time>
</trkpt>
<trkpt lat="38.6862450" lon="22.1127330">
<ele>1975.104004</ele>
<time>2026-07-10T19:29:23.004Z</time>
</trkpt>
<trkpt lat="38.6862660" lon="22.1126800">
<ele>1977.847168</ele>
<time>2026-07-10T19:29:15.003Z</time>
</trkpt>
<trkpt lat="38.6863150" lon="22.1126760">
<ele>1979.980835</ele>
<time>2026-07-10T19:29:07.002Z</time>
</trkpt>
<trkpt lat="38.6863200" lon="22.1126730">
<ele>1980.285645</ele>
<time>2026-07-10T19:29:06.000Z</time>
</trkpt>
<trkpt lat="38.6863410" lon="22.1126460">
<ele>1981.809570</ele>
<time>2026-07-10T19:28:59.002Z</time>
</trkpt>
<trkpt lat="38.6863410" lon="22.1126200">
<ele>1983.028809</ele>
<time>2026-07-10T19:28:55.001Z</time>
</trkpt>
<trkpt lat="38.6863580" lon="22.1125980">
<ele>1983.028809</ele>
<time>2026-07-10T19:28:52.997Z</time>
</trkpt>
<trkpt lat="38.6863780" lon="22.1125900">
<ele>1983.333618</ele>
<time>2026-07-10T19:28:51.001Z</time>
</trkpt>
<trkpt lat="38.6863910" lon="22.1125610">
<ele>1982.723999</ele>
<time>2026-07-10T19:28:47.001Z</time>
</trkpt>
<trkpt lat="38.6864130" lon="22.1125540">
<ele>1984.248047</ele>
<time>2026-07-10T19:28:44.003Z</time>
</trkpt>
<trkpt lat="38.6864180" lon="22.1125240">
<ele>1986.381592</ele>
<time>2026-07-10T19:28:35.000Z</time>
</trkpt>
<trkpt lat="38.6864340" lon="22.1125150">
<ele>1987.296021</ele>
<time>2026-07-10T19:28:33.997Z</time>
</trkpt>
<trkpt lat="38.6864450" lon="22.1125030">
<ele>1987.905640</ele>
<time>2026-07-10T19:28:33.004Z</time>
</trkpt>
<trkpt lat="38.6865410" lon="22.1124330">
<ele>1991.258423</ele>
<time>2026-07-10T19:28:21.003Z</time>
</trkpt>
<trkpt lat="38.6865430" lon="22.1123660">
<ele>1992.477539</ele>
<time>2026-07-10T19:28:13.996Z</time>
</trkpt>
<trkpt lat="38.6865430" lon="22.1123580">
<ele>1992.782349</ele>
<time>2026-07-10T19:28:13.002Z</time>
</trkpt>
<trkpt lat="38.6865310" lon="22.1123210">
<ele>1994.001587</ele>
<time>2026-07-10T19:28:06.997Z</time>
</trkpt>
<trkpt lat="38.6865350" lon="22.1122560">
<ele>1997.049561</ele>
<time>2026-07-10T19:27:54.996Z</time>
</trkpt>
<trkpt lat="38.6865680" lon="22.1122160">
<ele>1998.573608</ele>
<time>2026-07-10T19:27:49.000Z</time>
</trkpt>
<trkpt lat="38.6865910" lon="22.1122110">
<ele>1997.963989</ele>
<time>2026-07-10T19:27:47.998Z</time>
</trkpt>
<trkpt lat="38.6866010" lon="22.1121830">
<ele>1998.878418</ele>
<time>2026-07-10T19:27:43.998Z</time>
</trkpt>
<trkpt lat="38.6866000" lon="22.1121760">
<ele>1998.878418</ele>
<time>2026-07-10T19:27:43.004Z</time>
</trkpt>
<trkpt lat="38.6866160" lon="22.1120810">
<ele>2001.926392</ele>
<time>2026-07-10T19:27:30.001Z</time>
</trkpt>
<trkpt lat="38.6865980" lon="22.1120250">
<ele>2004.974365</ele>
<time>2026-07-10T19:27:16.998Z</time>
</trkpt>
<trkpt lat="38.6866140" lon="22.1120010">
<ele>2006.193604</ele>
<time>2026-07-10T19:27:12.004Z</time>
</trkpt>
<trkpt lat="38.6866210" lon="22.1119560">
<ele>2008.022461</ele>
<time>2026-07-10T19:27:04.003Z</time>
</trkpt>
<trkpt lat="38.6866300" lon="22.1119480">
<ele>2008.022461</ele>
<time>2026-07-10T19:27:03.001Z</time>
</trkpt>
<trkpt lat="38.6866160" lon="22.1119110">
<ele>2008.936768</ele>
<time>2026-07-10T19:26:59.001Z</time>
</trkpt>
<trkpt lat="38.6866080" lon="22.1118250">
<ele>2009.851196</ele>
<time>2026-07-10T19:26:48.002Z</time>
</trkpt>
<trkpt lat="38.6865950" lon="22.1118010">
<ele>2009.851196</ele>
<time>2026-07-10T19:26:45.004Z</time>
</trkpt>
<trkpt lat="38.6866180" lon="22.1117440">
<ele>2011.375244</ele>
<time>2026-07-10T19:26:36.001Z</time>
</trkpt>
<trkpt lat="38.6866250" lon="22.1117380">
<ele>2011.984741</ele>
<time>2026-07-10T19:26:34.999Z</time>
</trkpt>
<trkpt lat="38.6866360" lon="22.1117280">
<ele>2012.594360</ele>
<time>2026-07-10T19:26:33.996Z</time>
</trkpt>
<trkpt lat="38.6866450" lon="22.1116350">
<ele>2016.556763</ele>
<time>2026-07-10T19:26:18.004Z</time>
</trkpt>
<trkpt lat="38.6866590" lon="22.1116080">
<ele>2017.471191</ele>
<time>2026-07-10T19:26:14.004Z</time>
</trkpt>
<trkpt lat="38.6866430" lon="22.1115840">
<ele>2019.300049</ele>
<time>2026-07-10T19:26:06.996Z</time>
</trkpt>
<trkpt lat="38.6866500" lon="22.1115210">
<ele>2021.433594</ele>
<time>2026-07-10T19:25:55.998Z</time>
</trkpt>
<trkpt lat="38.6866460" lon="22.1115130">
<ele>2021.433594</ele>
<time>2026-07-10T19:25:55.004Z</time>
</trkpt>
<trkpt lat="38.6866260" lon="22.1114830">
<ele>2022.652832</ele>
<time>2026-07-10T19:25:50.002Z</time>
</trkpt>
<trkpt lat="38.6866710" lon="22.1114490">
<ele>2023.262451</ele>
<time>2026-07-10T19:25:43.997Z</time>
</trkpt>
<trkpt lat="38.6866780" lon="22.1114230">
<ele>2023.871948</ele>
<time>2026-07-10T19:25:39.003Z</time>
</trkpt>
<trkpt lat="38.6867250" lon="22.1114040">
<ele>2025.395996</ele>
<time>2026-07-10T19:25:31.996Z</time>
</trkpt>
<trkpt lat="38.6867350" lon="22.1113860">
<ele>2025.091187</ele>
<time>2026-07-10T19:25:20.004Z</time>
</trkpt>
<trkpt lat="38.6867300" lon="22.1113830">
<ele>2025.091187</ele>
<time>2026-07-10T19:25:19.001Z</time>
</trkpt>
<trkpt lat="38.6867400" lon="22.1113200">
<ele>2027.224854</ele>
<time>2026-07-10T19:25:08.003Z</time>
</trkpt>
<trkpt lat="38.6867760" lon="22.1113030">
<ele>2028.443970</ele>
<time>2026-07-10T19:25:04.002Z</time>
</trkpt>
<trkpt lat="38.6868150" lon="22.1113210">
<ele>2030.577637</ele>
<time>2026-07-10T19:24:57.997Z</time>
</trkpt>
<trkpt lat="38.6868060" lon="22.1112850">
<ele>2032.101563</ele>
<time>2026-07-10T19:24:53.997Z</time>
</trkpt>
<trkpt lat="38.6867980" lon="22.1112780">
<ele>2032.406372</ele>
<time>2026-07-10T19:24:53.004Z</time>
</trkpt>
<trkpt lat="38.6867710" lon="22.1112530">
<ele>2035.149658</ele>
<time>2026-07-10T19:24:45.003Z</time>
</trkpt>
<trkpt lat="38.6867510" lon="22.1112610">
<ele>2037.283203</ele>
<time>2026-07-10T19:24:37.002Z</time>
</trkpt>
<trkpt lat="38.6867260" lon="22.1111950">
<ele>2037.588013</ele>
<time>2026-07-10T19:24:23.999Z</time>
</trkpt>
<trkpt lat="38.6867030" lon="22.1111780">
<ele>2037.588013</ele>
<time>2026-07-10T19:23:44.998Z</time>
</trkpt>
<trkpt lat="38.6866850" lon="22.1111810">
<ele>2039.112061</ele>
<time>2026-07-10T19:23:28.003Z</time>
</trkpt>
<trkpt lat="38.6866830" lon="22.1111780">
<ele>2039.416748</ele>
<time>2026-07-10T19:23:27.001Z</time>
</trkpt>
<trkpt lat="38.6867150" lon="22.1110930">
<ele>2040.940796</ele>
<time>2026-07-10T19:23:11.000Z</time>
</trkpt>
<trkpt lat="38.6867330" lon="22.1110980">
<ele>2041.855225</ele>
<time>2026-07-10T19:23:01.997Z</time>
</trkpt>
<trkpt lat="38.6867580" lon="22.1110860">
<ele>2043.683960</ele>
<time>2026-07-10T19:22:54.998Z</time>
</trkpt>
<trkpt lat="38.6867800" lon="22.1110710">
<ele>2047.036743</ele>
<time>2026-07-10T19:22:46.998Z</time>
</trkpt>
<trkpt lat="38.6867910" lon="22.1110460">
<ele>2048.256104</ele>
<time>2026-07-10T19:22:42.004Z</time>
</trkpt>
<trkpt lat="38.6867890" lon="22.1110410">
<ele>2048.560791</ele>
<time>2026-07-10T19:22:41.002Z</time>
</trkpt>
<trkpt lat="38.6867610" lon="22.1109780">
<ele>2050.999268</ele>
<time>2026-07-10T19:22:30.003Z</time>
</trkpt>
<trkpt lat="38.6867010" lon="22.1109430">
<ele>2052.523193</ele>
<time>2026-07-10T19:22:18.002Z</time>
</trkpt>
<trkpt lat="38.6866660" lon="22.1109000">
<ele>2056.485596</ele>
<time>2026-07-10T19:21:37.999Z</time>
</trkpt>
<trkpt lat="38.6866610" lon="22.1108940">
<ele>2056.790283</ele>
<time>2026-07-10T19:21:36.996Z</time>
</trkpt>
<trkpt lat="38.6866360" lon="22.1108680">
<ele>2058.619141</ele>
<time>2026-07-10T19:21:31.000Z</time>
</trkpt>
<trkpt lat="38.6865630" lon="22.1108400">
<ele>2062.886475</ele>
<time>2026-07-10T19:21:13.997Z</time>
</trkpt>
<trkpt lat="38.6865460" lon="22.1108150">
<ele>2063.496094</ele>
<time>2026-07-10T19:21:05.003Z</time>
</trkpt>
<trkpt lat="38.6865230" lon="22.1108060">
<ele>2064.410400</ele>
<time>2026-07-10T19:20:58.998Z</time>
</trkpt>
<trkpt lat="38.6865010" lon="22.1108130">
<ele>2064.105713</ele>
<time>2026-07-10T19:20:54.997Z</time>
</trkpt>
</trkseg>
<trkseg>
<trkpt lat="38.6864960" lon="22.1108130">
<ele>2065.324707</ele>
<time>2026-07-10T19:18:46.996Z</time>
</trkpt>
<trkpt lat="38.6864680" lon="22.1107930">
<ele>2066.848877</ele>
<time>2026-07-10T19:18:11.002Z</time>
</trkpt>
<trkpt lat="38.6864430" lon="22.1107910">
<ele>2068.068115</ele>
<time>2026-07-10T19:18:04.997Z</time>
</trkpt>
<trkpt lat="38.6864210" lon="22.1108040">
<ele>2068.068115</ele>
<time>2026-07-10T19:17:59.001Z</time>
</trkpt>
<trkpt lat="38.6863890" lon="22.1108000">
<ele>2066.848877</ele>
<time>2026-07-10T19:17:52.996Z</time>
</trkpt>
<trkpt lat="38.6863710" lon="22.1107800">
<ele>2068.068115</ele>
<time>2026-07-10T19:17:44.002Z</time>
</trkpt>
<trkpt lat="38.6863610" lon="22.1107810">
<ele>2068.068115</ele>
<time>2026-07-10T19:17:42.999Z</time>
</trkpt>
<trkpt lat="38.6863560" lon="22.1107760">
<ele>2068.068115</ele>
<time>2026-07-10T19:17:41.997Z</time>
</trkpt>
<trkpt lat="38.6863560" lon="22.1107680">
<ele>2068.068115</ele>
<time>2026-07-10T19:17:41.004Z</time>
</trkpt>
<trkpt lat="38.6862930" lon="22.1107350">
<ele>2068.372803</ele>
<time>2026-07-10T19:17:34.999Z</time>
</trkpt>
<trkpt lat="38.6863100" lon="22.1107310">
<ele>2068.677490</ele>
<time>2026-07-10T19:17:33.996Z</time>
</trkpt>
<trkpt lat="38.6863260" lon="22.1107500">
<ele>2070.201660</ele>
<time>2026-07-10T19:17:29.996Z</time>
</trkpt>
<trkpt lat="38.6863050" lon="22.1107680">
<ele>2072.030518</ele>
<time>2026-07-10T19:17:25.996Z</time>
</trkpt>
<trkpt lat="38.6862800" lon="22.1107680">
<ele>2073.554443</ele>
<time>2026-07-10T19:17:21.002Z</time>
</trkpt>
<trkpt lat="38.6862760" lon="22.1107700">
<ele>2073.859131</ele>
<time>2026-07-10T19:17:20.000Z</time>
</trkpt>
<trkpt lat="38.6862130" lon="22.1108310">
<ele>2075.687988</ele>
<time>2026-07-10T19:17:10.003Z</time>
</trkpt>
<trkpt lat="38.6861610" lon="22.1108330">
<ele>2077.516846</ele>
<time>2026-07-10T19:16:58.002Z</time>
</trkpt>
<trkpt lat="38.6861110" lon="22.1107950">
<ele>2079.040771</ele>
<time>2026-07-10T19:16:48.999Z</time>
</trkpt>
<trkpt lat="38.6861060" lon="22.1107860">
<ele>2079.650391</ele>
<time>2026-07-10T19:16:47.997Z</time>
</trkpt>
<trkpt lat="38.6860930" lon="22.1106880">
<ele>2079.040771</ele>
<time>2026-07-10T19:16:38.001Z</time>
</trkpt>
<trkpt lat="38.6860930" lon="22.1106390">
<ele>2077.821533</ele>
<time>2026-07-10T19:16:34.000Z</time>
</trkpt>
<trkpt lat="38.6861030" lon="22.1106150">
<ele>2078.736084</ele>
<time>2026-07-10T19:16:31.002Z</time>
</trkpt>
<trkpt lat="38.6860930" lon="22.1105790">
<ele>2079.650391</ele>
<time>2026-07-10T19:16:26.000Z</time>
</trkpt>
<trkpt lat="38.6860910" lon="22.1105730">
<ele>2079.345703</ele>
<time>2026-07-10T19:16:24.997Z</time>
</trkpt>
<trkpt lat="38.6860780" lon="22.1105430">
<ele>2080.260010</ele>
<time>2026-07-10T19:16:20.004Z</time>
</trkpt>
<trkpt lat="38.6860580" lon="22.1105630">
<ele>2084.527100</ele>
<time>2026-07-10T19:16:09.998Z</time>
</trkpt>
<trkpt lat="38.6860330" lon="22.1105360">
<ele>2084.832031</ele>
<time>2026-07-10T19:16:07.000Z</time>
</trkpt>
<trkpt lat="38.6860080" lon="22.1104860">
<ele>2088.184814</ele>
<time>2026-07-10T19:15:54.999Z</time>
</trkpt>
<trkpt lat="38.6860310" lon="22.1104610">
<ele>2090.318359</ele>
<time>2026-07-10T19:15:49.997Z</time>
</trkpt>
<trkpt lat="38.6860200" lon="22.1104730">
<ele>2090.623291</ele>
<time>2026-07-10T19:15:49.003Z</time>
</trkpt>
<trkpt lat="38.6859910" lon="22.1104760">
<ele>2091.842285</ele>
<time>2026-07-10T19:15:45.996Z</time>
</trkpt>
<trkpt lat="38.6859840" lon="22.1104100">
<ele>2093.366455</ele>
<time>2026-07-10T19:15:33.002Z</time>
</trkpt>
<trkpt lat="38.6860200" lon="22.1102900">
<ele>2101.291260</ele>
<time>2026-07-10T19:15:07.004Z</time>
</trkpt>
<trkpt lat="38.6860230" lon="22.1102830">
<ele>2101.291260</ele>
<time>2026-07-10T19:15:06.002Z</time>
</trkpt>
<trkpt lat="38.6860350" lon="22.1102460">
<ele>2102.205566</ele>
<time>2026-07-10T19:14:55.003Z</time>
</trkpt>
<trkpt lat="38.6861030" lon="22.1102150">
<ele>2107.387207</ele>
<time>2026-07-10T19:14:43.996Z</time>
</trkpt>
<trkpt lat="38.6861210" lon="22.1101200">
<ele>2111.349609</ele>
<time>2026-07-10T19:14:27.001Z</time>
</trkpt>
<trkpt lat="38.6861250" lon="22.1101160">
<ele>2111.349609</ele>
<time>2026-07-10T19:14:25.999Z</time>
</trkpt>
<trkpt lat="38.6861160" lon="22.1100830">
<ele>2111.654297</ele>
<time>2026-07-10T19:14:23.001Z</time>
</trkpt>
<trkpt lat="38.6861380" lon="22.1100310">
<ele>2111.654297</ele>
<time>2026-07-10T19:14:16.002Z</time>
</trkpt>
<trkpt lat="38.6861610" lon="22.1100260">
<ele>2111.349609</ele>
<time>2026-07-10T19:14:13.004Z</time>
</trkpt>
<trkpt lat="38.6862050" lon="22.1100530">
<ele>2109.216064</ele>
<time>2026-07-10T19:14:09.997Z</time>
</trkpt>
<trkpt lat="38.6862260" lon="22.1100560">
<ele>2109.216064</ele>
<time>2026-07-10T19:14:09.004Z</time>
</trkpt>
<trkpt lat="38.6862410" lon="22.1100380">
<ele>2110.739990</ele>
<time>2026-07-10T19:14:08.002Z</time>
</trkpt>
<trkpt lat="38.6862150" lon="22.1100360">
<ele>2112.263916</ele>
<time>2026-07-10T19:14:06.999Z</time>
</trkpt>
<trkpt lat="38.6861960" lon="22.1099580">
<ele>2113.788086</ele>
<time>2026-07-10T19:14:04.001Z</time>
</trkpt>
<trkpt lat="38.6861950" lon="22.1098830">
<ele>2115.616699</ele>
<time>2026-07-10T19:13:57.996Z</time>
</trkpt>
<trkpt lat="38.6861780" lon="22.1098310">
<ele>2118.969482</ele>
<time>2026-07-10T19:13:52.000Z</time>
</trkpt>
<trkpt lat="38.6861710" lon="22.1098210">
<ele>2119.274414</ele>
<time>2026-07-10T19:13:50.998Z</time>
</trkpt>
<trkpt lat="38.6861430" lon="22.1097500">
<ele>2123.541504</ele>
<time>2026-07-10T19:13:39.999Z</time>
</trkpt>
<trkpt lat="38.6861150" lon="22.1097430">
<ele>2124.151123</ele>
<time>2026-07-10T19:13:38.004Z</time>
</trkpt>
<trkpt lat="38.6860980" lon="22.1097180">
<ele>2125.065674</ele>
<time>2026-07-10T19:13:33.001Z</time>
</trkpt>
<trkpt lat="38.6860850" lon="22.1096530">
<ele>2125.370361</ele>
<time>2026-07-10T19:13:22.996Z</time>
</trkpt>
<trkpt lat="38.6860830" lon="22.1096500">
<ele>2125.675293</ele>
<time>2026-07-10T19:13:22.002Z</time>
</trkpt>
<trkpt lat="38.6860650" lon="22.1096090">
<ele>2125.675293</ele>
<time>2026-07-10T19:13:18.002Z</time>
</trkpt>
<trkpt lat="38.6860850" lon="22.1095630">
<ele>2126.894287</ele>
<time>2026-07-10T19:13:15.004Z</time>
</trkpt>
<trkpt lat="38.6861130" lon="22.1095300">
<ele>2128.113525</ele>
<time>2026-07-10T19:13:07.997Z</time>
</trkpt>
<trkpt lat="38.6860860" lon="22.1095250">
<ele>2128.723145</ele>
<time>2026-07-10T19:13:03.996Z</time>
</trkpt>
<trkpt lat="38.6860760" lon="22.1094910">
<ele>2129.332764</ele>
<time>2026-07-10T19:12:59.996Z</time>
</trkpt>
<trkpt lat="38.6860740" lon="22.1094880">
<ele>2129.637695</ele>
<time>2026-07-10T19:12:59.003Z</time>
</trkpt>
<trkpt lat="38.6860450" lon="22.1094930">
<ele>2130.552002</ele>
<time>2026-07-10T19:12:54.000Z</time>
</trkpt>
<trkpt lat="38.6860290" lon="22.1095110">
<ele>2131.161621</ele>
<time>2026-07-10T19:12:52.004Z</time>
</trkpt>
<trkpt lat="38.6860030" lon="22.1095080">
<ele>2132.380859</ele>
<time>2026-07-10T19:12:44.004Z</time>
</trkpt>
<trkpt lat="38.6860150" lon="22.1094530">
<ele>2133.904785</ele>
<time>2026-07-10T19:12:32.996Z</time>
</trkpt>
<trkpt lat="38.6860310" lon="22.1094310">
<ele>2134.514404</ele>
<time>2026-07-10T19:12:29.998Z</time>
</trkpt>
<trkpt lat="38.6860250" lon="22.1093910">
<ele>2135.124023</ele>
<time>2026-07-10T19:12:24.002Z</time>
</trkpt>
<trkpt lat="38.6860210" lon="22.1093860">
<ele>2135.124023</ele>
<time>2026-07-10T19:12:23.000Z</time>
</trkpt>
<trkpt lat="38.6859560" lon="22.1093050">
<ele>2136.952881</ele>
<time>2026-07-10T19:12:10.999Z</time>
</trkpt>
<trkpt lat="38.6859580" lon="22.1092750">
<ele>2136.952881</ele>
<time>2026-07-10T19:12:09.003Z</time>
</trkpt>
<trkpt lat="38.6859930" lon="22.1092280">
<ele>2136.647949</ele>
<time>2026-07-10T19:12:02.998Z</time>
</trkpt>
<trkpt lat="38.6859950" lon="22.1092160">
<ele>2136.647949</ele>
<time>2026-07-10T19:12:01.996Z</time>
</trkpt>
<trkpt lat="38.6859600" lon="22.1090860">
<ele>2136.647949</ele>
<time>2026-07-10T19:11:54.997Z</time>
</trkpt>
<trkpt lat="38.6859390" lon="22.1090690">
<ele>2136.038330</ele>
<time>2026-07-10T19:11:23.997Z</time>
</trkpt>
<trkpt lat="38.6859390" lon="22.1090360">
<ele>2136.647949</ele>
<time>2026-07-10T19:11:18.001Z</time>
</trkpt>
<trkpt lat="38.6859300" lon="22.1090240">
<ele>2136.952881</ele>
<time>2026-07-10T19:11:16.999Z</time>
</trkpt>
<trkpt lat="38.6859230" lon="22.1090180">
<ele>2137.257568</ele>
<time>2026-07-10T19:11:15.996Z</time>
</trkpt>
<trkpt lat="38.6858940" lon="22.1090090">
<ele>2138.172119</ele>
<time>2026-07-10T19:11:14.001Z</time>
</trkpt>
<trkpt lat="38.6858660" lon="22.1089730">
<ele>2140.610352</ele>
<time>2026-07-10T19:11:07.996Z</time>
</trkpt>
<trkpt lat="38.6858450" lon="22.1089660">
<ele>2143.048828</ele>
<time>2026-07-10T19:10:59.002Z</time>
</trkpt>
<trkpt lat="38.6858200" lon="22.1089760">
<ele>2148.230469</ele>
<time>2026-07-10T19:10:41.998Z</time>
</trkpt>
<trkpt lat="38.6858360" lon="22.1089510">
<ele>2149.754395</ele>
<time>2026-07-10T19:10:37.998Z</time>
</trkpt>
<trkpt lat="38.6858360" lon="22.1089260">
<ele>2149.754395</ele>
<time>2026-07-10T19:10:37.004Z</time>
</trkpt>
<trkpt lat="38.6858210" lon="22.1089160">
<ele>2149.449707</ele>
<time>2026-07-10T19:10:36.002Z</time>
</trkpt>
<trkpt lat="38.6858010" lon="22.1089090">
<ele>2149.144775</ele>
<time>2026-07-10T19:10:35.000Z</time>
</trkpt>
<trkpt lat="38.6857560" lon="22.1088830">
<ele>2149.449707</ele>
<time>2026-07-10T19:10:29.004Z</time>
</trkpt>
<trkpt lat="38.6857400" lon="22.1088580">
<ele>2149.449707</ele>
<time>2026-07-10T19:10:24.001Z</time>
</trkpt>
<trkpt lat="38.6857300" lon="22.1087710">
<ele>2149.449707</ele>
<time>2026-07-10T19:10:16.000Z</time>
</trkpt>
<trkpt lat="38.6857100" lon="22.1087450">
<ele>2150.973633</ele>
<time>2026-07-10T19:10:12.000Z</time>
</trkpt>
<trkpt lat="38.6857010" lon="22.1087350">
<ele>2151.278320</ele>
<time>2026-07-10T19:10:10.998Z</time>
</trkpt>
<trkpt lat="38.6856680" lon="22.1087180">
<ele>2152.192871</ele>
<time>2026-07-10T19:10:06.004Z</time>
</trkpt>
<trkpt lat="38.6856430" lon="22.1086660">
<ele>2152.802490</ele>
<time>2026-07-10T19:09:59.999Z</time>
</trkpt>
<trkpt lat="38.6856650" lon="22.1086480">
<ele>2153.107178</ele>
<time>2026-07-10T19:09:58.003Z</time>
</trkpt>
<trkpt lat="38.6856930" lon="22.1085630">
<ele>2154.326416</ele>
<time>2026-07-10T19:09:49.000Z</time>
</trkpt>
<trkpt lat="38.6856930" lon="22.1085510">
<ele>2154.631104</ele>
<time>2026-07-10T19:09:47.998Z</time>
</trkpt>
<trkpt lat="38.6856960" lon="22.1085150">
<ele>2154.936035</ele>
<time>2026-07-10T19:09:43.998Z</time>
</trkpt>
<trkpt lat="38.6856780" lon="22.1084960">
<ele>2156.459961</ele>
<time>2026-07-10T19:09:39.997Z</time>
</trkpt>
<trkpt lat="38.6856560" lon="22.1084760">
<ele>2157.069580</ele>
<time>2026-07-10T19:09:35.997Z</time>
</trkpt>
<trkpt lat="38.6856080" lon="22.1084680">
<ele>2160.422363</ele>
<time>2026-07-10T19:09:26.001Z</time>
</trkpt>
<trkpt lat="38.6855880" lon="22.1084500">
<ele>2161.031982</ele>
<time>2026-07-10T19:09:19.002Z</time>
</trkpt>
<trkpt lat="38.6856000" lon="22.1084180">
<ele>2161.641602</ele>
<time>2026-07-10T19:09:12.004Z</time>
</trkpt>
<trkpt lat="38.6856030" lon="22.1084130">
<ele>2161.946289</ele>
<time>2026-07-10T19:09:11.002Z</time>
</trkpt>
<trkpt lat="38.6856280" lon="22.1083510">
<ele>2164.080078</ele>
<time>2026-07-10T19:08:59.001Z</time>
</trkpt>
<trkpt lat="38.6856100" lon="22.1083310">
<ele>2165.908691</ele>
<time>2026-07-10T19:08:49.998Z</time>
</trkpt>
<trkpt lat="38.6855480" lon="22.1083450">
<ele>2168.956787</ele>
<time>2026-07-10T19:08:38.999Z</time>
</trkpt>
<trkpt lat="38.6855280" lon="22.1083600">
<ele>2169.566406</ele>
<time>2026-07-10T19:08:33.996Z</time>
</trkpt>
<trkpt lat="38.6855230" lon="22.1083550">
<ele>2169.871094</ele>
<time>2026-07-10T19:08:33.003Z</time>
</trkpt>
<trkpt lat="38.6855150" lon="22.1083510">
<ele>2170.176025</ele>
<time>2026-07-10T19:08:32.001Z</time>
</trkpt>
<trkpt lat="38.6854650" lon="22.1083380">
<ele>2171.090332</ele>
<time>2026-07-10T19:08:24.000Z</time>
</trkpt>
<trkpt lat="38.6854490" lon="22.1083160">
<ele>2172.309570</ele>
<time>2026-07-10T19:08:18.004Z</time>
</trkpt>
<trkpt lat="38.6854610" lon="22.1082860">
<ele>2174.138428</ele>
<time>2026-07-10T19:08:09.001Z</time>
</trkpt>
<trkpt lat="38.6854860" lon="22.1082760">
<ele>2175.052734</ele>
<time>2026-07-10T19:08:03.998Z</time>
</trkpt>
<trkpt lat="38.6854980" lon="22.1082480">
<ele>2175.967285</ele>
<time>2026-07-10T19:08:01.000Z</time>
</trkpt>
<trkpt lat="38.6854880" lon="22.1082200">
<ele>2176.881592</ele>
<time>2026-07-10T19:07:47.997Z</time>
</trkpt>
<trkpt lat="38.6854910" lon="22.1082150">
<ele>2177.186279</ele>
<time>2026-07-10T19:07:47.004Z</time>
</trkpt>
<trkpt lat="38.6854980" lon="22.1081760">
<ele>2178.405518</ele>
<time>2026-07-10T19:07:42.001Z</time>
</trkpt>
<trkpt lat="38.6854560" lon="22.1081430">
<ele>2180.843994</ele>
<time>2026-07-10T19:07:32.998Z</time>
</trkpt>
<trkpt lat="38.6854360" lon="22.1080810">
<ele>2183.892090</ele>
<time>2026-07-10T19:07:17.999Z</time>
</trkpt>
<trkpt lat="38.6854150" lon="22.1080650">
<ele>2184.806396</ele>
<time>2026-07-10T19:07:13.999Z</time>
</trkpt>
<trkpt lat="38.6853850" lon="22.1080580">
<ele>2186.330322</ele>
<time>2026-07-10T19:07:08.003Z</time>
</trkpt>
<trkpt lat="38.6853800" lon="22.1080560">
<ele>2186.635254</ele>
<time>2026-07-10T19:07:07.000Z</time>
</trkpt>
<trkpt lat="38.6853540" lon="22.1079960">
<ele>2189.988037</ele>
<time>2026-07-10T19:06:46.999Z</time>
</trkpt>
<trkpt lat="38.6852530" lon="22.1079960">
<ele>2196.693604</ele>
<time>2026-07-10T19:06:22.997Z</time>
</trkpt>
<trkpt lat="38.6852280" lon="22.1079880">
<ele>2199.132080</ele>
<time>2026-07-10T19:06:17.001Z</time>
</trkpt>
<trkpt lat="38.6852260" lon="22.1079780">
<ele>2199.436768</ele>
<time>2026-07-10T19:06:15.998Z</time>
</trkpt>
<trkpt lat="38.6852260" lon="22.1079710">
<ele>2200.046387</ele>
<time>2026-07-10T19:06:14.996Z</time>
</trkpt>
<trkpt lat="38.6852190" lon="22.1078660">
<ele>2203.094482</ele>
<time>2026-07-10T19:06:02.002Z</time>
</trkpt>
<trkpt lat="38.6852050" lon="22.1078400">
<ele>2206.751953</ele>
<time>2026-07-10T19:04:35.999Z</time>
</trkpt>
<trkpt lat="38.6852050" lon="22.1077330">
<ele>2209.495117</ele>
<time>2026-07-10T19:04:06.001Z</time>
</trkpt>
<trkpt lat="38.6852080" lon="22.1077230">
<ele>2209.800049</ele>
<time>2026-07-10T19:04:04.999Z</time>
</trkpt>
<trkpt lat="38.6851910" lon="22.1076530">
<ele>2212.543213</ele>
<time>2026-07-10T19:03:48.997Z</time>
</trkpt>
<trkpt lat="38.6852180" lon="22.1075060">
<ele>2214.067139</ele>
<time>2026-07-10T19:03:29.998Z</time>
</trkpt>
<trkpt lat="38.6852180" lon="22.1075030">
<ele>2214.067139</ele>
<time>2026-07-10T19:03:28.996Z</time>
</trkpt>
<trkpt lat="38.6852410" lon="22.1074180">
<ele>2215.286377</ele>
<time>2026-07-10T19:03:12.001Z</time>
</trkpt>
<trkpt lat="38.6852480" lon="22.1073510">
<ele>2217.115234</ele>
<time>2026-07-10T19:03:04.000Z</time>
</trkpt>
<trkpt lat="38.6852810" lon="22.1072930">
<ele>2220.772705</ele>
<time>2026-07-10T19:02:26.002Z</time>
</trkpt>
<trkpt lat="38.6852880" lon="22.1072890">
<ele>2220.772705</ele>
<time>2026-07-10T19:02:24.999Z</time>
</trkpt>
<trkpt lat="38.6853400" lon="22.1072710">
<ele>2223.820801</ele>
<time>2026-07-10T19:02:15.996Z</time>
</trkpt>
<trkpt lat="38.6853590" lon="22.1072530">
<ele>2223.516113</ele>
<time>2026-07-10T19:02:10.000Z</time>
</trkpt>
<trkpt lat="38.6853860" lon="22.1071990">
<ele>2223.516113</ele>
<time>2026-07-10T19:02:02.000Z</time>
</trkpt>
<trkpt lat="38.6854280" lon="22.1071580">
<ele>2222.601563</ele>
<time>2026-07-10T19:01:55.001Z</time>
</trkpt>
<trkpt lat="38.6854330" lon="22.1071560">
<ele>2222.601563</ele>
<time>2026-07-10T19:01:53.999Z</time>
</trkpt>
<trkpt lat="38.6855000" lon="22.1071110">
<ele>2224.430420</ele>
<time>2026-07-10T19:01:28.001Z</time>
</trkpt>
<trkpt lat="38.6855480" lon="22.1070960">
<ele>2224.735107</ele>
<time>2026-07-10T19:01:20.001Z</time>
</trkpt>
<trkpt lat="38.6856000" lon="22.1070640">
<ele>2225.954346</ele>
<time>2026-07-10T19:01:12.000Z</time>
</trkpt>
<trkpt lat="38.6856060" lon="22.1070640">
<ele>2226.259277</ele>
<time>2026-07-10T19:01:10.998Z</time>
</trkpt>
<trkpt lat="38.6856650" lon="22.1069980">
<ele>2229.002441</ele>
<time>2026-07-10T19:00:51.998Z</time>
</trkpt>
<trkpt lat="38.6856690" lon="22.1069730">
<ele>2229.307129</ele>
<time>2026-07-10T19:00:50.003Z</time>
</trkpt>
<trkpt lat="38.6856580" lon="22.1069450">
<ele>2230.526367</ele>
<time>2026-07-10T19:00:45.000Z</time>
</trkpt>
<trkpt lat="38.6856800" lon="22.1069760">
<ele>2233.879150</ele>
<time>2026-07-10T19:00:27.003Z</time>
</trkpt>
</trkseg>
<trkseg>
<trkpt lat="38.6856760" lon="22.1069450">
<ele>2231.440918</ele>
<time>2026-07-10T18:51:55.999Z</time>
</trkpt>
<trkpt lat="38.6856660" lon="22.1069110">
<ele>2231.745605</ele>
<time>2026-07-10T18:51:50.996Z</time>
</trkpt>
<trkpt lat="38.6856480" lon="22.1068980">
<ele>2233.269531</ele>
<time>2026-07-10T18:51:38.002Z</time>
</trkpt>
<trkpt lat="38.6856660" lon="22.1068660">
<ele>2233.574463</ele>
<time>2026-07-10T18:51:31.997Z</time>
</trkpt>
<trkpt lat="38.6856680" lon="22.1068630">
<ele>2233.879150</ele>
<time>2026-07-10T18:51:31.003Z</time>
</trkpt>
<trkpt lat="38.6857140" lon="22.1068250">
<ele>2236.012695</ele>
<time>2026-07-10T18:51:22.000Z</time>
</trkpt>
<trkpt lat="38.6857130" lon="22.1067950">
<ele>2237.536865</ele>
<time>2026-07-10T18:51:16.998Z</time>
</trkpt>
<trkpt lat="38.6856780" lon="22.1067560">
<ele>2239.365479</ele>
<time>2026-07-10T18:51:09.999Z</time>
</trkpt>
<trkpt lat="38.6856710" lon="22.1067000">
<ele>2240.584717</ele>
<time>2026-07-10T18:51:00.996Z</time>
</trkpt>
<trkpt lat="38.6856810" lon="22.1067000">
<ele>2240.889648</ele>
<time>2026-07-10T18:51:00.003Z</time>
</trkpt>
<trkpt lat="38.6856950" lon="22.1066960">
<ele>2241.194336</ele>
<time>2026-07-10T18:50:59.001Z</time>
</trkpt>
<trkpt lat="38.6857060" lon="22.1066900">
<ele>2241.194336</ele>
<time>2026-07-10T18:50:57.998Z</time>
</trkpt>
<trkpt lat="38.6857140" lon="22.1066340">
<ele>2241.499268</ele>
<time>2026-07-10T18:50:52.996Z</time>
</trkpt>
<trkpt lat="38.6857550" lon="22.1066050">
<ele>2242.718506</ele>
<time>2026-07-10T18:50:47.000Z</time>
</trkpt>
<trkpt lat="38.6857910" lon="22.1065230">
<ele>2244.852051</ele>
<time>2026-07-10T18:50:33.996Z</time>
</trkpt>
<trkpt lat="38.6857900" lon="22.1065210">
<ele>2244.852051</ele>
<time>2026-07-10T18:50:33.003Z</time>
</trkpt>
<trkpt lat="38.6858080" lon="22.1064950">
<ele>2244.547119</ele>
<time>2026-07-10T18:50:29.996Z</time>
</trkpt>
<trkpt lat="38.6858430" lon="22.1063950">
<ele>2247.290283</ele>
<time>2026-07-10T18:50:18.004Z</time>
</trkpt>
<trkpt lat="38.6858360" lon="22.1063250">
<ele>2250.033691</ele>
<time>2026-07-10T18:50:06.996Z</time>
</trkpt>
<trkpt lat="38.6858410" lon="22.1063160">
<ele>2250.033691</ele>
<time>2026-07-10T18:50:06.003Z</time>
</trkpt>
<trkpt lat="38.6858860" lon="22.1062200">
<ele>2251.252686</ele>
<time>2026-07-10T18:49:54.002Z</time>
</trkpt>
<trkpt lat="38.6858830" lon="22.1061900">
<ele>2251.862305</ele>
<time>2026-07-10T18:49:53.000Z</time>
</trkpt>
<trkpt lat="38.6859060" lon="22.1061800">
<ele>2251.252686</ele>
<time>2026-07-10T18:49:48.999Z</time>
</trkpt>
<trkpt lat="38.6859150" lon="22.1061560">
<ele>2251.862305</ele>
<time>2026-07-10T18:49:43.997Z</time>
</trkpt>
<trkpt lat="38.6859260" lon="22.1061480">
<ele>2251.862305</ele>
<time>2026-07-10T18:49:43.003Z</time>
</trkpt>
<trkpt lat="38.6859800" lon="22.1060980">
<ele>2253.386475</ele>
<time>2026-07-10T18:49:38.001Z</time>
</trkpt>
<trkpt lat="38.6860600" lon="22.1060460">
<ele>2255.824707</ele>
<time>2026-07-10T18:49:28.004Z</time>
</trkpt>
<trkpt lat="38.6860800" lon="22.1060490">
<ele>2256.434326</ele>
<time>2026-07-10T18:49:21.999Z</time>
</trkpt>
<trkpt lat="38.6860800" lon="22.1060490">
<ele>2256.434326</ele>
<time>2026-07-10T18:49:20.997Z</time>
</trkpt>
<trkpt lat="38.6860800" lon="22.1060490">
<ele>2256.434326</ele>
<time>2026-07-10T18:49:12.003Z</time>
</trkpt>
</trkseg>
<trkseg>
<trkpt lat="38.6860090" lon="22.1060730">
<ele>2243.937500</ele>
<time>2026-08-30T18:03:38.843Z</time>
</trkpt>
<trkpt lat="38.6860490" lon="22.1059930">
<ele>2239.670410</ele>
<time>2026-08-30T18:03:38.843Z</time>
</trkpt>
<trkpt lat="38.6860890" lon="22.1059590">
<ele>2236.622314</ele>
<time>2026-08-30T18:03:38.843Z</time>
</trkpt>
<trkpt lat="38.6861250" lon="22.1059740">
<ele>2236.622314</ele>
<time>2026-08-30T18:03:38.843Z</time>
</trkpt>
<trkpt lat="38.6861650" lon="22.1059910">
<ele>2238.451172</ele>
<time>2026-08-30T18:03:38.843Z</time>
</trkpt>
<trkpt lat="38.6862180" lon="22.1059940">
<ele>2240.584717</ele>
<time>2026-08-30T18:03:38.843Z</time>
</trkpt>
<trkpt lat="38.6862680" lon="22.1059840">
<ele>2241.803955</ele>
<time>2026-08-30T18:03:38.843Z</time>
</trkpt>
<trkpt lat="38.6863070" lon="22.1059600">
<ele>2242.108887</ele>
<time>2026-08-30T18:03:38.843Z</time>
</trkpt>
<trkpt lat="38.6863390" lon="22.1059180">
<ele>2241.499268</ele>
<time>2026-08-30T18:03:38.843Z</time>
</trkpt>
<trkpt lat="38.6863890" lon="22.1059350">
<ele>2243.937500</ele>
<time>2026-08-30T18:03:38.843Z</time>
</trkpt>
<trkpt lat="38.6864210" lon="22.1059530">
<ele>2244.547119</ele>
<time>2026-08-30T18:03:38.843Z</time>
</trkpt>
<trkpt lat="38.6864390" lon="22.1059430">
<ele>2243.937500</ele>
<time>2026-08-30T18:03:38.843Z</time>
</trkpt>
<trkpt lat="38.6864630" lon="22.1058470">
<ele>2240.584717</ele>
<time>2026-08-30T18:03:38.843Z</time>
</trkpt>
<trkpt lat="38.6865090" lon="22.1058270">
<ele>2239.975098</ele>
<time>2026-08-30T18:03:38.843Z</time>
</trkpt>
<trkpt lat="38.6865380" lon="22.1058630">
<ele>2241.194336</ele>
<time>2026-08-30T18:03:38.843Z</time>
</trkpt>
<trkpt lat="38.6865890" lon="22.1058930">
<ele>2241.499268</ele>
<time>2026-08-30T18:03:38.843Z</time>
</trkpt>
<trkpt lat="38.6866490" lon="22.1059010">
<ele>2241.194336</ele>
<time>2026-08-30T18:03:38.843Z</time>
</trkpt>
<trkpt lat="38.6866840" lon="22.1058410">
<ele>2239.975098</ele>
<time>2026-08-30T18:03:38.845Z</time>
</trkpt>
<trkpt lat="38.6866830" lon="22.1057720">
<ele>2234.793701</ele>
<time>2026-08-30T18:03:38.845Z</time>
</trkpt>
<trkpt lat="38.6867370" lon="22.1057570">
<ele>2231.745605</ele>
<time>2026-08-30T18:03:38.845Z</time>
</trkpt>
<trkpt lat="38.6867920" lon="22.1056740">
<ele>2224.735107</ele>
<time>2026-08-30T18:03:38.845Z</time>
</trkpt>
<trkpt lat="38.6868200" lon="22.1056230">
<ele>2221.382324</ele>
<time>2026-08-30T18:03:38.845Z</time>
</trkpt>
<trkpt lat="38.6868700" lon="22.1056080">
<ele>2220.468018</ele>
<time>2026-08-30T18:03:38.845Z</time>
</trkpt>
<trkpt lat="38.6869120" lon="22.1055790">
<ele>2219.553711</ele>
<time>2026-08-30T18:03:38.845Z</time>
</trkpt>
<trkpt lat="38.6869260" lon="22.1055150">
<ele>2214.067139</ele>
<time>2026-08-30T18:03:38.845Z</time>
</trkpt>
<trkpt lat="38.6869210" lon="22.1054650">
<ele>2207.971191</ele>
<time>2026-08-30T18:03:38.845Z</time>
</trkpt>
<trkpt lat="38.6869780" lon="22.1054540">
<ele>2206.751953</ele>
<time>2026-08-30T18:03:38.845Z</time>
</trkpt>
<trkpt lat="38.6870030" lon="22.1054170">
<ele>2202.789551</ele>
<time>2026-08-30T18:03:38.845Z</time>
</trkpt>
<trkpt lat="38.6870020" lon="22.1053620">
<ele>2197.303223</ele>
<time>2026-08-30T18:03:38.845Z</time>
</trkpt>
<trkpt lat="38.6870270" lon="22.1053340">
<ele>2195.474365</ele>
<time>2026-08-30T18:03:38.845Z</time>
</trkpt>
<trkpt lat="38.6870550" lon="22.1053060">
<ele>2194.255127</ele>
<time>2026-08-30T18:03:38.845Z</time>
</trkpt>
<trkpt lat="38.6870500" lon="22.1052520">
<ele>2190.292725</ele>
<time>2026-08-30T18:03:38.845Z</time>
</trkpt>
<trkpt lat="38.6870670" lon="22.1052010">
<ele>2188.159180</ele>
<time>2026-08-30T18:03:38.845Z</time>
</trkpt>
<trkpt lat="38.6871020" lon="22.1051540">
<ele>2187.244873</ele>
<time>2026-08-30T18:03:38.845Z</time>
</trkpt>
<trkpt lat="38.6871010" lon="22.1050910">
<ele>2183.587158</ele>
<time>2026-08-30T18:03:38.845Z</time>
</trkpt>
<trkpt lat="38.6871110" lon="22.1050130">
<ele>2179.624756</ele>
<time>2026-08-30T18:03:38.845Z</time>
</trkpt>
<trkpt lat="38.6871430" lon="22.1049980">
<ele>2180.234375</ele>
<time>2026-08-30T18:03:38.845Z</time>
</trkpt>
<trkpt lat="38.6871710" lon="22.1050070">
<ele>2182.063232</ele>
<time>2026-08-30T18:03:38.845Z</time>
</trkpt>
<trkpt lat="38.6871850" lon="22.1049380">
<ele>2176.881592</ele>
<time>2026-08-30T18:03:38.845Z</time>
</trkpt>
<trkpt lat="38.6871980" lon="22.1048740">
<ele>2171.699951</ele>
<time>2026-08-30T18:03:38.845Z</time>
</trkpt>
<trkpt lat="38.6872370" lon="22.1048680">
<ele>2169.566406</ele>
<time>2026-08-30T18:03:38.845Z</time>
</trkpt>
<trkpt lat="38.6872940" lon="22.1048440">
<ele>2161.946289</ele>
<time>2026-08-30T18:03:38.845Z</time>
</trkpt>
<trkpt lat="38.6873040" lon="22.1047840">
<ele>2155.545654</ele>
<time>2026-08-30T18:03:38.845Z</time>
</trkpt>
<trkpt lat="38.6873020" lon="22.1046880">
<ele>2147.620850</ele>
<time>2026-08-30T18:03:38.845Z</time>
</trkpt>
<trkpt lat="38.6873120" lon="22.1046060">
<ele>2140.915283</ele>
<time>2026-08-30T18:03:38.845Z</time>
</trkpt>
<trkpt lat="38.6873690" lon="22.1045950">
<ele>2135.733643</ele>
<time>2026-08-30T18:03:38.845Z</time>
</trkpt>
<trkpt lat="38.6873820" lon="22.1045400">
<ele>2130.856689</ele>
<time>2026-08-30T18:03:38.845Z</time>
</trkpt>
<trkpt lat="38.6873560" lon="22.1044680">
<ele>2128.113525</ele>
<time>2026-08-30T18:03:38.845Z</time>
</trkpt>
<trkpt lat="38.6873910" lon="22.1044260">
<ele>2123.236816</ele>
<time>2026-08-30T18:03:38.845Z</time>
</trkpt>
<trkpt lat="38.6874080" lon="22.1043840">
<ele>2120.798340</ele>
<time>2026-08-30T18:03:38.845Z</time>
</trkpt>
<trkpt lat="38.6873890" lon="22.1042980">
<ele>2118.969482</ele>
<time>2026-08-30T18:03:38.845Z</time>
</trkpt>
<trkpt lat="38.6874090" lon="22.1042110">
<ele>2115.007080</ele>
<time>2026-08-30T18:03:38.845Z</time>
</trkpt>
<trkpt lat="38.6874180" lon="22.1041330">
<ele>2112.263916</ele>
<time>2026-08-30T18:03:38.845Z</time>
</trkpt>
<trkpt lat="38.6873820" lon="22.1040750">
<ele>2111.654297</ele>
<time>2026-08-30T18:03:38.845Z</time>
</trkpt>
<trkpt lat="38.6873880" lon="22.1040340">
<ele>2110.130371</ele>
<time>2026-08-30T18:03:38.845Z</time>
</trkpt>
<trkpt lat="38.6874160" lon="22.1039830">
<ele>2107.387207</ele>
<time>2026-08-30T18:03:38.845Z</time>
</trkpt>
<trkpt lat="38.6873970" lon="22.1038960">
<ele>2105.253662</ele>
<time>2026-08-30T18:03:38.845Z</time>
</trkpt>
<trkpt lat="38.6873850" lon="22.1038420">
<ele>2104.948730</ele>
<time>2026-08-30T18:03:38.845Z</time>
</trkpt>
<trkpt lat="38.6873950" lon="22.1038100">
<ele>2104.034424</ele>
<time>2026-08-30T18:03:38.845Z</time>
</trkpt>
<trkpt lat="38.6874370" lon="22.1037490">
<ele>2102.510498</ele>
<time>2026-08-30T18:03:38.845Z</time>
</trkpt>
<trkpt lat="38.6874220" lon="22.1036900">
<ele>2102.205566</ele>
<time>2026-08-30T18:03:38.845Z</time>
</trkpt>
<trkpt lat="38.6874110" lon="22.1036680">
<ele>2102.205566</ele>
<time>2026-08-30T18:03:38.845Z</time>
</trkpt>
<trkpt lat="38.6874350" lon="22.1036170">
<ele>2101.291260</ele>
<time>2026-08-30T18:03:38.845Z</time>
</trkpt>
<trkpt lat="38.6874370" lon="22.1035490">
<ele>2097.938477</ele>
<time>2026-08-30T18:03:38.845Z</time>
</trkpt>
<trkpt lat="38.6874470" lon="22.1034660">
<ele>2093.671143</ele>
<time>2026-08-30T18:03:38.845Z</time>
</trkpt>
<trkpt lat="38.6874610" lon="22.1034290">
<ele>2091.232910</ele>
<time>2026-08-30T18:03:38.845Z</time>
</trkpt>
<trkpt lat="38.6875030" lon="22.1034280">
<ele>2090.013672</ele>
<time>2026-08-30T18:03:38.845Z</time>
</trkpt>
<trkpt lat="38.6875430" lon="22.1034230">
<ele>2089.099121</ele>
<time>2026-08-30T18:03:38.845Z</time>
</trkpt>
<trkpt lat="38.6875380" lon="22.1033540">
<ele>2085.441650</ele>
<time>2026-08-30T18:03:38.845Z</time>
</trkpt>
<trkpt lat="38.6875160" lon="22.1032960">
<ele>2083.308105</ele>
<time>2026-08-30T18:03:38.845Z</time>
</trkpt>
<trkpt lat="38.6875430" lon="22.1032400">
<ele>2080.260010</ele>
<time>2026-08-30T18:03:38.845Z</time>
</trkpt>
<trkpt lat="38.6875460" lon="22.1031720">
<ele>2077.516846</ele>
<time>2026-08-30T18:03:38.845Z</time>
</trkpt>
<trkpt lat="38.6875160" lon="22.1031220">
<ele>2076.602295</ele>
<time>2026-08-30T18:03:38.845Z</time>
</trkpt>
<trkpt lat="38.6875300" lon="22.1030580">
<ele>2073.554443</ele>
<time>2026-08-30T18:03:38.845Z</time>
</trkpt>
<trkpt lat="38.6875790" lon="22.1030430">
<ele>2071.115967</ele>
<time>2026-08-30T18:03:38.845Z</time>
</trkpt>
<trkpt lat="38.6875740" lon="22.1029560">
<ele>2070.811279</ele>
<time>2026-08-30T18:03:38.845Z</time>
</trkpt>
<trkpt lat="38.6875660" lon="22.1029060">
<ele>2071.115967</ele>
<time>2026-08-30T18:03:38.845Z</time>
</trkpt>
<trkpt lat="38.6876200" lon="22.1028690">
<ele>2067.458496</ele>
<time>2026-08-30T18:03:38.845Z</time>
</trkpt>
<trkpt lat="38.6876260" lon="22.1028040">
<ele>2066.543945</ele>
<time>2026-08-30T18:03:38.845Z</time>
</trkpt>
<trkpt lat="38.6875890" lon="22.1027510">
<ele>2069.592041</ele>
<time>2026-08-30T18:03:38.845Z</time>
</trkpt>
<trkpt lat="38.6875850" lon="22.1027140">
<ele>2070.811279</ele>
<time>2026-08-30T18:03:38.845Z</time>
</trkpt>
<trkpt lat="38.6876200" lon="22.1026720">
<ele>2069.287109</ele>
<time>2026-08-30T18:03:38.845Z</time>
</trkpt>
<trkpt lat="38.6876410" lon="22.1026490">
<ele>2068.372803</ele>
<time>2026-08-30T18:03:38.845Z</time>
</trkpt>
<trkpt lat="38.6876260" lon="22.1026040">
<ele>2070.506348</ele>
<time>2026-08-30T18:03:38.847Z</time>
</trkpt>
<trkpt lat="38.6876220" lon="22.1025810">
<ele>2071.420898</ele>
<time>2026-08-30T18:03:38.847Z</time>
</trkpt>
<trkpt lat="38.6876530" lon="22.1025210">
<ele>2070.506348</ele>
<time>2026-08-30T18:03:38.847Z</time>
</trkpt>
<trkpt lat="38.6876560" lon="22.1024570">
<ele>2070.506348</ele>
<time>2026-08-30T18:03:38.847Z</time>
</trkpt>
<trkpt lat="38.6876330" lon="22.1024030">
<ele>2071.725586</ele>
<time>2026-08-30T18:03:38.847Z</time>
</trkpt>
<trkpt lat="38.6876400" lon="22.1023430">
<ele>2070.811279</ele>
<time>2026-08-30T18:03:38.847Z</time>
</trkpt>
<trkpt lat="38.6876750" lon="22.1023060">
<ele>2068.372803</ele>
<time>2026-08-30T18:03:38.847Z</time>
</trkpt>
<trkpt lat="38.6876840" lon="22.1022370">
<ele>2067.763184</ele>
<time>2026-08-30T18:03:38.847Z</time>
</trkpt>
<trkpt lat="38.6876690" lon="22.1021830">
<ele>2067.458496</ele>
<time>2026-08-30T18:03:38.847Z</time>
</trkpt>
<trkpt lat="38.6876610" lon="22.1021150">
<ele>2065.934326</ele>
<time>2026-08-30T18:03:38.847Z</time>
</trkpt>
<trkpt lat="38.6876820" lon="22.1020820">
<ele>2063.800781</ele>
<time>2026-08-30T18:03:38.847Z</time>
</trkpt>
<trkpt lat="38.6877020" lon="22.1020090">
<ele>2060.447998</ele>
<time>2026-08-30T18:03:38.847Z</time>
</trkpt>
<trkpt lat="38.6876940" lon="22.1019910">
<ele>2060.447998</ele>
<time>2026-08-30T18:03:38.847Z</time>
</trkpt>
<trkpt lat="38.6877300" lon="22.1018940">
<ele>2054.352051</ele>
<time>2026-08-30T18:03:38.847Z</time>
</trkpt>
<trkpt lat="38.6877720" lon="22.1018330">
<ele>2047.951172</ele>
<time>2026-08-30T18:03:38.847Z</time>
</trkpt>
<trkpt lat="38.6878130" lon="22.1017000">
<ele>2035.149658</ele>
<time>2026-08-30T18:03:38.847Z</time>
</trkpt>
<trkpt lat="38.6878340" lon="22.1014350">
<ele>2022.043213</ele>
<time>2026-08-30T18:03:38.847Z</time>
</trkpt>
<trkpt lat="38.6878420" lon="22.1012570">
<ele>2013.813599</ele>
<time>2026-08-30T18:03:38.847Z</time>
</trkpt>
<trkpt lat="38.6878810" lon="22.1010050">
<ele>2004.669556</ele>
<time>2026-08-30T18:03:38.847Z</time>
</trkpt>
<trkpt lat="38.6879210" lon="22.1008480">
<ele>2000.097656</ele>
<time>2026-08-30T18:03:38.847Z</time>
</trkpt>
<trkpt lat="38.6879290" lon="22.1007160">
<ele>1996.744751</ele>
<time>2026-08-30T18:03:38.847Z</time>
</trkpt>
<trkpt lat="38.6879170" lon="22.1006290">
<ele>1995.220825</ele>
<time>2026-08-30T18:03:38.847Z</time>
</trkpt>
<trkpt lat="38.6879220" lon="22.1004880">
<ele>1990.343994</ele>
<time>2026-08-30T18:03:38.847Z</time>
</trkpt>
<trkpt lat="38.6879450" lon="22.1003500">
<ele>1982.419189</ele>
<time>2026-08-30T18:03:38.847Z</time>
</trkpt>
<trkpt lat="38.6880080" lon="22.1002480">
<ele>1972.970459</ele>
<time>2026-08-30T18:03:38.847Z</time>
</trkpt>
<trkpt lat="38.6880380" lon="22.1001150">
<ele>1969.617554</ele>
<time>2026-08-30T18:03:38.847Z</time>
</trkpt>
<trkpt lat="38.6880330" lon="22.1000150">
<ele>1969.312744</ele>
<time>2026-08-30T18:03:38.847Z</time>
</trkpt>
<trkpt lat="38.6880140" lon="22.0997830">
<ele>1971.751221</ele>
<time>2026-08-30T18:03:38.847Z</time>
</trkpt>
<trkpt lat="38.6880580" lon="22.0996310">
<ele>1968.703247</ele>
<time>2026-08-30T18:03:38.847Z</time>
</trkpt>
<trkpt lat="38.6881330" lon="22.0995740">
<ele>1960.778442</ele>
<time>2026-08-30T18:03:38.847Z</time>
</trkpt>
<trkpt lat="38.6881990" lon="22.0994810">
<ele>1954.682373</ele>
<time>2026-08-30T18:03:38.847Z</time>
</trkpt>
<trkpt lat="38.6882550" lon="22.0993980">
<ele>1949.196045</ele>
<time>2026-08-30T18:03:38.847Z</time>
</trkpt>
<trkpt lat="38.6883220" lon="22.0992800">
<ele>1941.576050</ele>
<time>2026-08-30T18:03:38.847Z</time>
</trkpt>
<trkpt lat="38.6885620" lon="22.0989940">
<ele>1926.640747</ele>
<time>2026-08-30T18:03:38.847Z</time>
</trkpt>
<trkpt lat="38.6886300" lon="22.0989130">
<ele>1926.336060</ele>
<time>2026-08-30T18:03:38.847Z</time>
</trkpt>
<trkpt lat="38.6886640" lon="22.0988360">
<ele>1925.116821</ele>
<time>2026-08-30T18:03:38.847Z</time>
</trkpt>
<trkpt lat="38.6887120" lon="22.0987800">
<ele>1922.678345</ele>
<time>2026-08-30T18:03:38.847Z</time>
</trkpt>
<trkpt lat="38.6887980" lon="22.0987450">
<ele>1919.935181</ele>
<time>2026-08-30T18:03:38.847Z</time>
</trkpt>
<trkpt lat="38.6888510" lon="22.0986850">
<ele>1916.582397</ele>
<time>2026-08-30T18:03:38.847Z</time>
</trkpt>
<trkpt lat="38.6889450" lon="22.0986540">
<ele>1912.619995</ele>
<time>2026-08-30T18:03:38.847Z</time>
</trkpt>
<trkpt lat="38.6890060" lon="22.0986080">
<ele>1908.047974</ele>
<time>2026-08-30T18:03:38.847Z</time>
</trkpt>
<trkpt lat="38.6890320" lon="22.0985550">
<ele>1905.000000</ele>
<time>2026-08-30T18:03:38.847Z</time>
</trkpt>
<trkpt lat="38.6890620" lon="22.0984900">
<ele>1901.342407</ele>
<time>2026-08-30T18:03:38.847Z</time>
</trkpt>
<trkpt lat="38.6891180" lon="22.0984590">
<ele>1897.684814</ele>
<time>2026-08-30T18:03:38.847Z</time>
</trkpt>
<trkpt lat="38.6891750" lon="22.0984240">
<ele>1894.027222</ele>
<time>2026-08-30T18:03:38.847Z</time>
</trkpt>
<trkpt lat="38.6892160" lon="22.0984100">
<ele>1890.979248</ele>
<time>2026-08-30T18:03:38.847Z</time>
</trkpt>
<trkpt lat="38.6892730" lon="22.0983580">
<ele>1886.102417</ele>
<time>2026-08-30T18:03:38.847Z</time>
</trkpt>
<trkpt lat="38.6894270" lon="22.0983060">
<ele>1875.739258</ele>
<time>2026-08-30T18:03:38.847Z</time>
</trkpt>
<trkpt lat="38.6894460" lon="22.0982620">
<ele>1872.691162</ele>
<time>2026-08-30T18:03:38.847Z</time>
</trkpt>
<trkpt lat="38.6895040" lon="22.0981860">
<ele>1865.680786</ele>
<time>2026-08-30T18:03:38.847Z</time>
</trkpt>
<trkpt lat="38.6895550" lon="22.0980930">
<ele>1858.670410</ele>
<time>2026-08-30T18:03:38.847Z</time>
</trkpt>
<trkpt lat="38.6896320" lon="22.0979920">
<ele>1852.269653</ele>
<time>2026-08-30T18:03:38.847Z</time>
</trkpt>
<trkpt lat="38.6897330" lon="22.0979840">
<ele>1846.478394</ele>
<time>2026-08-30T18:03:38.847Z</time>
</trkpt>
<trkpt lat="38.6898130" lon="22.0979260">
<ele>1843.735229</ele>
<time>2026-08-30T18:03:38.847Z</time>
</trkpt>
<trkpt lat="38.6898690" lon="22.0978770">
<ele>1842.515991</ele>
<time>2026-08-30T18:03:38.847Z</time>
</trkpt>
<trkpt lat="38.6899260" lon="22.0977770">
<ele>1841.906372</ele>
<time>2026-08-30T18:03:38.847Z</time>
</trkpt>
<trkpt lat="38.6899750" lon="22.0977650">
<ele>1840.687256</ele>
<time>2026-08-30T18:03:38.847Z</time>
</trkpt>
<trkpt lat="38.6900620" lon="22.0977170">
<ele>1837.334351</ele>
<time>2026-08-30T18:03:38.847Z</time>
</trkpt>
<trkpt lat="38.6901450" lon="22.0976510">
<ele>1833.676758</ele>
<time>2026-08-30T18:03:38.847Z</time>
</trkpt>
<trkpt lat="38.6903110" lon="22.0975550">
<ele>1825.751953</ele>
<time>2026-08-30T18:03:38.847Z</time>
</trkpt>
<trkpt lat="38.6903160" lon="22.0975440">
<ele>1825.447144</ele>
<time>2026-08-30T18:03:38.847Z</time>
</trkpt>
<trkpt lat="38.6903360" lon="22.0974840">
<ele>1823.313599</ele>
<time>2026-08-30T18:03:38.847Z</time>
</trkpt>
<trkpt lat="38.6904000" lon="22.0974640">
<ele>1819.656006</ele>
<time>2026-08-30T18:03:38.847Z</time>
</trkpt>
<trkpt lat="38.6904790" lon="22.0974800">
<ele>1815.693604</ele>
<time>2026-08-30T18:03:38.849Z</time>
</trkpt>
<trkpt lat="38.6905210" lon="22.0974240">
<ele>1812.645630</ele>
<time>2026-08-30T18:03:38.849Z</time>
</trkpt>
<trkpt lat="38.6905890" lon="22.0974230">
<ele>1809.597656</ele>
<time>2026-08-30T18:03:38.849Z</time>
</trkpt>
<trkpt lat="38.6906330" lon="22.0974490">
<ele>1807.768799</ele>
<time>2026-08-30T18:03:38.849Z</time>
</trkpt>
<trkpt lat="38.6906750" lon="22.0973930">
<ele>1805.635254</ele>
<time>2026-08-30T18:03:38.849Z</time>
</trkpt>
<trkpt lat="38.6907090" lon="22.0973100">
<ele>1804.111206</ele>
<time>2026-08-30T18:03:38.849Z</time>
</trkpt>
<trkpt lat="38.6907330" lon="22.0972730">
<ele>1802.891968</ele>
<time>2026-08-30T18:03:38.849Z</time>
</trkpt>
<trkpt lat="38.6907760" lon="22.0972490">
<ele>1801.672852</ele>
<time>2026-08-30T18:03:38.849Z</time>
</trkpt>
<trkpt lat="38.6908120" lon="22.0972430">
<ele>1800.453613</ele>
<time>2026-08-30T18:03:38.849Z</time>
</trkpt>
<trkpt lat="38.6908460" lon="22.0971650">
<ele>1797.710449</ele>
<time>2026-08-30T18:03:38.849Z</time>
</trkpt>
<trkpt lat="38.6908780" lon="22.0971230">
<ele>1794.052856</ele>
<time>2026-08-30T18:03:38.849Z</time>
</trkpt>
<trkpt lat="38.6909380" lon="22.0970610">
<ele>1789.480835</ele>
<time>2026-08-30T18:03:38.849Z</time>
</trkpt>
<trkpt lat="38.6909930" lon="22.0969970">
<ele>1787.042358</ele>
<time>2026-08-30T18:03:38.849Z</time>
</trkpt>
<trkpt lat="38.6912210" lon="22.0969390">
<ele>1780.641602</ele>
<time>2026-08-30T18:03:38.849Z</time>
</trkpt>
<trkpt lat="38.6913090" lon="22.0968900">
<ele>1779.422363</ele>
<time>2026-08-30T18:03:38.849Z</time>
</trkpt>
<trkpt lat="38.6913200" lon="22.0968800">
<ele>1779.117554</ele>
<time>2026-08-30T18:03:38.849Z</time>
</trkpt>
<trkpt lat="38.6913520" lon="22.0968140">
<ele>1779.422363</ele>
<time>2026-08-30T18:03:38.849Z</time>
</trkpt>
<trkpt lat="38.6914010" lon="22.0967710">
<ele>1780.031982</ele>
<time>2026-08-30T18:03:38.849Z</time>
</trkpt>
<trkpt lat="38.6914400" lon="22.0967480">
<ele>1781.556030</ele>
<time>2026-08-30T18:03:38.849Z</time>
</trkpt>
<trkpt lat="38.6915150" lon="22.0967140">
<ele>1783.994385</ele>
<time>2026-08-30T18:03:38.849Z</time>
</trkpt>
<trkpt lat="38.6915420" lon="22.0966630">
<ele>1784.299194</ele>
<time>2026-08-30T18:03:38.849Z</time>
</trkpt>
<trkpt lat="38.6915990" lon="22.0966340">
<ele>1784.604004</ele>
<time>2026-08-30T18:03:38.849Z</time>
</trkpt>
<trkpt lat="38.6916300" lon="22.0965830">
<ele>1783.689575</ele>
<time>2026-08-30T18:03:38.849Z</time>
</trkpt>
<trkpt lat="38.6916770" lon="22.0965540">
<ele>1782.775146</ele>
<time>2026-08-30T18:03:38.849Z</time>
</trkpt>
<trkpt lat="38.6916860" lon="22.0965530">
<ele>1782.165649</ele>
<time>2026-08-30T18:03:38.849Z</time>
</trkpt>
<trkpt lat="38.6918560" lon="22.0963950">
<ele>1762.048828</ele>
<time>2026-08-30T18:03:38.849Z</time>
</trkpt>
<trkpt lat="38.6920330" lon="22.0962390">
<ele>1746.504028</ele>
<time>2026-08-30T18:03:38.849Z</time>
</trkpt>
<trkpt lat="38.6920610" lon="22.0961720">
<ele>1743.760742</ele>
<time>2026-08-30T18:03:38.849Z</time>
</trkpt>
<trkpt lat="38.6920740" lon="22.0961660">
<ele>1743.456055</ele>
<time>2026-08-30T18:03:38.849Z</time>
</trkpt>
<trkpt lat="38.6920920" lon="22.0961390">
<ele>1742.236816</ele>
<time>2026-08-30T18:03:38.849Z</time>
</trkpt>
<trkpt lat="38.6921080" lon="22.0960670">
<ele>1740.712769</ele>
<time>2026-08-30T18:03:38.849Z</time>
</trkpt>
<trkpt lat="38.6920980" lon="22.0959980">
<ele>1740.103149</ele>
<time>2026-08-30T18:03:38.849Z</time>
</trkpt>
<trkpt lat="38.6920730" lon="22.0959310">
<ele>1740.103149</ele>
<time>2026-08-30T18:03:38.849Z</time>
</trkpt>
<trkpt lat="38.6920340" lon="22.0958900">
<ele>1741.322388</ele>
<time>2026-08-30T18:03:38.849Z</time>
</trkpt>
<trkpt lat="38.6920090" lon="22.0958450">
<ele>1742.236816</ele>
<time>2026-08-30T18:03:38.849Z</time>
</trkpt>
<trkpt lat="38.6920380" lon="22.0957950">
<ele>1739.798340</ele>
<time>2026-08-30T18:03:38.849Z</time>
</trkpt>
<trkpt lat="38.6920790" lon="22.0957480">
<ele>1737.359985</ele>
<time>2026-08-30T18:03:38.849Z</time>
</trkpt>
<trkpt lat="38.6920730" lon="22.0957330">
<ele>1737.359985</ele>
<time>2026-08-30T18:03:38.849Z</time>
</trkpt>
<trkpt lat="38.6920120" lon="22.0956590">
<ele>1738.579224</ele>
<time>2026-08-30T18:03:38.849Z</time>
</trkpt>
<trkpt lat="38.6920110" lon="22.0955980">
<ele>1737.359985</ele>
<time>2026-08-30T18:03:38.849Z</time>
</trkpt>
<trkpt lat="38.6920230" lon="22.0955590">
<ele>1736.140747</ele>
<time>2026-08-30T18:03:38.849Z</time>
</trkpt>
<trkpt lat="38.6920070" lon="22.0955330">
<ele>1736.140747</ele>
<time>2026-08-30T18:03:38.849Z</time>
</trkpt>
<trkpt lat="38.6920340" lon="22.0954980">
<ele>1734.007202</ele>
<time>2026-08-30T18:03:38.849Z</time>
</trkpt>
<trkpt lat="38.6920150" lon="22.0954490">
<ele>1732.787964</ele>
<time>2026-08-30T18:03:38.849Z</time>
</trkpt>
<trkpt lat="38.6919620" lon="22.0954810">
<ele>1735.836060</ele>
<time>2026-08-30T18:03:38.849Z</time>
</trkpt>
<trkpt lat="38.6919080" lon="22.0954480">
<ele>1734.616821</ele>
<time>2026-08-30T18:03:38.849Z</time>
</trkpt>
<trkpt lat="38.6919210" lon="22.0953640">
<ele>1731.873657</ele>
<time>2026-08-30T18:03:38.849Z</time>
</trkpt>
<trkpt lat="38.6919170" lon="22.0953000">
<ele>1729.435181</ele>
<time>2026-08-30T18:03:38.849Z</time>
</trkpt>
<trkpt lat="38.6918950" lon="22.0952510">
<ele>1727.606445</ele>
<time>2026-08-30T18:03:38.849Z</time>
</trkpt>
<trkpt lat="38.6919100" lon="22.0952090">
<ele>1726.692017</ele>
<time>2026-08-30T18:03:38.849Z</time>
</trkpt>
<trkpt lat="38.6918680" lon="22.0952020">
<ele>1726.082397</ele>
<time>2026-08-30T18:03:38.849Z</time>
</trkpt>
<trkpt lat="38.6918280" lon="22.0951540">
<ele>1724.863159</ele>
<time>2026-08-30T18:03:38.849Z</time>
</trkpt>
<trkpt lat="38.6918390" lon="22.0950890">
<ele>1723.339233</ele>
<time>2026-08-30T18:03:38.849Z</time>
</trkpt>
<trkpt lat="38.6918650" lon="22.0950160">
<ele>1721.205566</ele>
<time>2026-08-30T18:03:38.849Z</time>
</trkpt>
<trkpt lat="38.6918460" lon="22.0949370">
<ele>1718.767212</ele>
<time>2026-08-30T18:03:38.849Z</time>
</trkpt>
<trkpt lat="38.6918260" lon="22.0948500">
<ele>1715.719238</ele>
<time>2026-08-30T18:03:38.849Z</time>
</trkpt>
<trkpt lat="38.6918530" lon="22.0948110">
<ele>1713.890381</ele>
<time>2026-08-30T18:03:38.849Z</time>
</trkpt>
<trkpt lat="38.6919080" lon="22.0947640">
<ele>1711.756836</ele>
<time>2026-08-30T18:03:38.849Z</time>
</trkpt>
<trkpt lat="38.6919490" lon="22.0947210">
<ele>1709.927979</ele>
<time>2026-08-30T18:03:38.849Z</time>
</trkpt>
<trkpt lat="38.6919750" lon="22.0946560">
<ele>1706.880005</ele>
<time>2026-08-30T18:03:38.849Z</time>
</trkpt>
<trkpt lat="38.6919720" lon="22.0946140">
<ele>1705.051147</ele>
<time>2026-08-30T18:03:38.849Z</time>
</trkpt>
<trkpt lat="38.6919860" lon="22.0945760">
<ele>1703.222412</ele>
<time>2026-08-30T18:03:38.849Z</time>
</trkpt>
<trkpt lat="38.6919760" lon="22.0944960">
<ele>1700.174438</ele>
<time>2026-08-30T18:03:38.849Z</time>
</trkpt>
<trkpt lat="38.6919830" lon="22.0944200">
<ele>1698.040771</ele>
<time>2026-08-30T18:03:38.849Z</time>
</trkpt>
<trkpt lat="38.6920270" lon="22.0943920">
<ele>1697.735962</ele>
<time>2026-08-30T18:03:38.849Z</time>
</trkpt>
<trkpt lat="38.6921650" lon="22.0942950">
<ele>1697.431152</ele>
<time>2026-08-30T18:03:38.849Z</time>
</trkpt>
<trkpt lat="38.6921740" lon="22.0942480">
<ele>1697.431152</ele>
<time>2026-08-30T18:03:38.849Z</time>
</trkpt>
<trkpt lat="38.6923090" lon="22.0941040">
<ele>1693.773560</ele>
<time>2026-08-30T18:03:38.849Z</time>
</trkpt>
<trkpt lat="38.6923640" lon="22.0940460">
<ele>1691.640015</ele>
<time>2026-08-30T18:03:38.849Z</time>
</trkpt>
<trkpt lat="38.6924910" lon="22.0939210">
<ele>1685.543945</ele>
<time>2026-08-30T18:03:38.849Z</time>
</trkpt>
<trkpt lat="38.6926000" lon="22.0938060">
<ele>1682.800781</ele>
<time>2026-08-30T18:03:38.849Z</time>
</trkpt>
<trkpt lat="38.6926320" lon="22.0937560">
<ele>1682.495972</ele>
<time>2026-08-30T18:03:38.851Z</time>
</trkpt>
<trkpt lat="38.6927350" lon="22.0935840">
<ele>1681.886353</ele>
<time>2026-08-30T18:03:38.851Z</time>
</trkpt>
<trkpt lat="38.6928970" lon="22.0932570">
<ele>1682.800781</ele>
<time>2026-08-30T18:03:38.851Z</time>
</trkpt>
<trkpt lat="38.6929410" lon="22.0931490">
<ele>1684.020020</ele>
<time>2026-08-30T18:03:38.851Z</time>
</trkpt>
<trkpt lat="38.6929800" lon="22.0930020">
<ele>1685.239258</ele>
<time>2026-08-30T18:03:38.851Z</time>
</trkpt>
<trkpt lat="38.6928840" lon="22.0928410">
<ele>1686.153564</ele>
<time>2026-08-30T18:03:38.851Z</time>
</trkpt>
<trkpt lat="38.6928970" lon="22.0927610">
<ele>1686.458374</ele>
<time>2026-08-30T18:03:38.851Z</time>
</trkpt>
<trkpt lat="38.6928970" lon="22.0926430">
<ele>1686.153564</ele>
<time>2026-08-30T18:03:38.851Z</time>
</trkpt>
<trkpt lat="38.6928050" lon="22.0925250">
<ele>1685.848755</ele>
<time>2026-08-30T18:03:38.851Z</time>
</trkpt>
<trkpt lat="38.6926830" lon="22.0924440">
<ele>1685.239258</ele>
<time>2026-08-30T18:03:38.851Z</time>
</trkpt>
<trkpt lat="38.6925620" lon="22.0924070">
<ele>1684.934448</ele>
<time>2026-08-30T18:03:38.851Z</time>
</trkpt>
<trkpt lat="38.6924600" lon="22.0924220">
<ele>1684.934448</ele>
<time>2026-08-30T18:03:38.851Z</time>
</trkpt>
<trkpt lat="38.6924150" lon="22.0924280">
<ele>1684.934448</ele>
<time>2026-08-30T18:03:38.851Z</time>
</trkpt>
<trkpt lat="38.6923770" lon="22.0923850">
<ele>1684.934448</ele>
<time>2026-08-30T18:03:38.851Z</time>
</trkpt>
<trkpt lat="38.6924110" lon="22.0923100">
<ele>1684.934448</ele>
<time>2026-08-30T18:03:38.851Z</time>
</trkpt>
<trkpt lat="38.6924910" lon="22.0922190">
<ele>1684.020020</ele>
<time>2026-08-30T18:03:38.851Z</time>
</trkpt>
<trkpt lat="38.6925660" lon="22.0921120">
<ele>1683.715210</ele>
<time>2026-08-30T18:03:38.851Z</time>
</trkpt>
<trkpt lat="38.6925780" lon="22.0920100">
<ele>1683.105591</ele>
<time>2026-08-30T18:03:38.851Z</time>
</trkpt>
<trkpt lat="38.6925370" lon="22.0918860">
<ele>1683.715210</ele>
<time>2026-08-30T18:03:38.851Z</time>
</trkpt>
<trkpt lat="38.6924400" lon="22.0916080">
<ele>1685.543945</ele>
<time>2026-08-30T18:03:38.851Z</time>
</trkpt>
<trkpt lat="38.6923480" lon="22.0913710">
<ele>1686.458374</ele>
<time>2026-08-30T18:03:38.851Z</time>
</trkpt>
<trkpt lat="38.6922020" lon="22.0910980">
<ele>1686.153564</ele>
<time>2026-08-30T18:03:38.851Z</time>
</trkpt>
<trkpt lat="38.6921180" lon="22.0909350">
<ele>1684.934448</ele>
<time>2026-08-30T18:03:38.851Z</time>
</trkpt>
<trkpt lat="38.6920820" lon="22.0908340">
<ele>1684.020020</ele>
<time>2026-08-30T18:03:38.851Z</time>
</trkpt>
<trkpt lat="38.6920300" lon="22.0907400">
<ele>1680.972046</ele>
<time>2026-08-30T18:03:38.851Z</time>
</trkpt>
<trkpt lat="38.6919990" lon="22.0906750">
<ele>1680.362427</ele>
<time>2026-08-30T18:03:38.851Z</time>
</trkpt>
<trkpt lat="38.6919940" lon="22.0906600">
<ele>1680.362427</ele>
<time>2026-08-30T18:03:38.851Z</time>
</trkpt>
<trkpt lat="38.6919470" lon="22.0905820">
<ele>1683.105591</ele>
<time>2026-08-30T18:03:38.851Z</time>
</trkpt>
<trkpt lat="38.6919270" lon="22.0905670">
<ele>1683.410400</ele>
<time>2026-08-30T18:03:38.851Z</time>
</trkpt>
<trkpt lat="38.6919000" lon="22.0905640">
<ele>1683.715210</ele>
<time>2026-08-30T18:03:38.851Z</time>
</trkpt>
<trkpt lat="38.6918600" lon="22.0905130">
<ele>1680.057617</ele>
<time>2026-08-30T18:03:38.851Z</time>
</trkpt>
<trkpt lat="38.6918500" lon="22.0905070">
<ele>1679.752808</ele>
<time>2026-08-30T18:03:38.851Z</time>
</trkpt>
<trkpt lat="38.6918120" lon="22.0904540">
<ele>1677.009644</ele>
<time>2026-08-30T18:03:38.851Z</time>
</trkpt>
<trkpt lat="38.6917520" lon="22.0904200">
<ele>1678.228760</ele>
<time>2026-08-30T18:03:38.851Z</time>
</trkpt>
<trkpt lat="38.6917070" lon="22.0903780">
<ele>1679.752808</ele>
<time>2026-08-30T18:03:38.851Z</time>
</trkpt>
<trkpt lat="38.6916930" lon="22.0903740">
<ele>1680.667236</ele>
<time>2026-08-30T18:03:38.851Z</time>
</trkpt>
<trkpt lat="38.6916170" lon="22.0903090">
<ele>1683.410400</ele>
<time>2026-08-30T18:03:38.851Z</time>
</trkpt>
<trkpt lat="38.6915720" lon="22.0902430">
<ele>1683.410400</ele>
<time>2026-08-30T18:03:38.851Z</time>
</trkpt>
<trkpt lat="38.6915600" lon="22.0902300">
<ele>1683.410400</ele>
<time>2026-08-30T18:03:38.851Z</time>
</trkpt>
<trkpt lat="38.6915340" lon="22.0901740">
<ele>1682.495972</ele>
<time>2026-08-30T18:03:38.851Z</time>
</trkpt>
<trkpt lat="38.6914950" lon="22.0901370">
<ele>1681.886353</ele>
<time>2026-08-30T18:03:38.851Z</time>
</trkpt>
<trkpt lat="38.6914850" lon="22.0901150">
<ele>1681.276855</ele>
<time>2026-08-30T18:03:38.851Z</time>
</trkpt>
<trkpt lat="38.6914770" lon="22.0900480">
<ele>1678.838379</ele>
<time>2026-08-30T18:03:38.851Z</time>
</trkpt>
<trkpt lat="38.6914770" lon="22.0900390">
<ele>1678.533569</ele>
<time>2026-08-30T18:03:38.851Z</time>
</trkpt>
<trkpt lat="38.6914540" lon="22.0898580">
<ele>1675.790405</ele>
<time>2026-08-30T18:03:38.851Z</time>
</trkpt>
<trkpt lat="38.6914370" lon="22.0898270">
<ele>1675.485596</ele>
<time>2026-08-30T18:03:38.851Z</time>
</trkpt>
<trkpt lat="38.6914350" lon="22.0898220">
<ele>1675.485596</ele>
<time>2026-08-30T18:03:38.851Z</time>
</trkpt>
<trkpt lat="38.6913900" lon="22.0896390">
<ele>1675.790405</ele>
<time>2026-08-30T18:03:38.851Z</time>
</trkpt>
<trkpt lat="38.6913870" lon="22.0896300">
<ele>1676.095215</ele>
<time>2026-08-30T18:03:38.851Z</time>
</trkpt>
<trkpt lat="38.6913920" lon="22.0894250">
<ele>1677.619141</ele>
<time>2026-08-30T18:03:38.851Z</time>
</trkpt>
<trkpt lat="38.6913850" lon="22.0894120">
<ele>1677.923950</ele>
<time>2026-08-30T18:03:38.851Z</time>
</trkpt>
<trkpt lat="38.6913840" lon="22.0894000">
<ele>1677.923950</ele>
<time>2026-08-30T18:03:38.851Z</time>
</trkpt>
<trkpt lat="38.6913720" lon="22.0893620">
<ele>1678.228760</ele>
<time>2026-08-30T18:03:38.851Z</time>
</trkpt>
<trkpt lat="38.6913700" lon="22.0891890">
<ele>1675.485596</ele>
<time>2026-08-30T18:03:38.851Z</time>
</trkpt>
<trkpt lat="38.6913690" lon="22.0891790">
<ele>1675.180786</ele>
<time>2026-08-30T18:03:38.851Z</time>
</trkpt>
<trkpt lat="38.6913590" lon="22.0891170">
<ele>1673.961548</ele>
<time>2026-08-30T18:03:38.851Z</time>
</trkpt>
<trkpt lat="38.6913150" lon="22.0890020">
<ele>1671.828003</ele>
<time>2026-08-30T18:03:38.851Z</time>
</trkpt>
<trkpt lat="38.6913070" lon="22.0889900">
<ele>1671.523193</ele>
<time>2026-08-30T18:03:38.851Z</time>
</trkpt>
<trkpt lat="38.6912900" lon="22.0889550">
<ele>1670.608765</ele>
<time>2026-08-30T18:03:38.851Z</time>
</trkpt>
<trkpt lat="38.6912690" lon="22.0889350">
<ele>1669.694458</ele>
<time>2026-08-30T18:03:38.851Z</time>
</trkpt>
<trkpt lat="38.6912200" lon="22.0889120">
<ele>1668.780029</ele>
<time>2026-08-30T18:03:38.851Z</time>
</trkpt>
<trkpt lat="38.6911940" lon="22.0888730">
<ele>1667.560791</ele>
<time>2026-08-30T18:03:38.851Z</time>
</trkpt>
<trkpt lat="38.6911640" lon="22.0888600">
<ele>1666.951172</ele>
<time>2026-08-30T18:03:38.851Z</time>
</trkpt>
<trkpt lat="38.6911570" lon="22.0888570">
<ele>1666.951172</ele>
<time>2026-08-30T18:03:38.851Z</time>
</trkpt>
<trkpt lat="38.6911140" lon="22.0888250">
<ele>1666.036743</ele>
<time>2026-08-30T18:03:38.851Z</time>
</trkpt>
<trkpt lat="38.6909940" lon="22.0887890">
<ele>1663.293579</ele>
<time>2026-08-30T18:03:38.851Z</time>
</trkpt>
<trkpt lat="38.6909850" lon="22.0887820">
<ele>1662.988770</ele>
<time>2026-08-30T18:03:38.851Z</time>
</trkpt>
<trkpt lat="38.6909800" lon="22.0887750">
<ele>1662.988770</ele>
<time>2026-08-30T18:03:38.853Z</time>
</trkpt>
<trkpt lat="38.6909330" lon="22.0887870">
<ele>1662.074341</ele>
<time>2026-08-30T18:03:38.853Z</time>
</trkpt>
<trkpt lat="38.6909140" lon="22.0887670">
<ele>1661.464844</ele>
<time>2026-08-30T18:03:38.853Z</time>
</trkpt>
<trkpt lat="38.6908670" lon="22.0887470">
<ele>1660.550415</ele>
<time>2026-08-30T18:03:38.853Z</time>
</trkpt>
<trkpt lat="38.6908520" lon="22.0887750">
<ele>1660.550415</ele>
<time>2026-08-30T18:03:38.853Z</time>
</trkpt>
<trkpt lat="38.6908220" lon="22.0887780">
<ele>1660.550415</ele>
<time>2026-08-30T18:03:38.853Z</time>
</trkpt>
<trkpt lat="38.6908150" lon="22.0887780">
<ele>1660.550415</ele>
<time>2026-08-30T18:03:38.853Z</time>
</trkpt>
<trkpt lat="38.6906440" lon="22.0888040">
<ele>1663.598389</ele>
<time>2026-08-30T18:03:38.853Z</time>
</trkpt>
<trkpt lat="38.6906400" lon="22.0888090">
<ele>1663.598389</ele>
<time>2026-08-30T18:03:38.853Z</time>
</trkpt>
<trkpt lat="38.6905340" lon="22.0888650">
<ele>1666.036743</ele>
<time>2026-08-30T18:03:38.853Z</time>
</trkpt>
<trkpt lat="38.6904800" lon="22.0888820">
<ele>1666.951172</ele>
<time>2026-08-30T18:03:38.853Z</time>
</trkpt>
<trkpt lat="38.6904720" lon="22.0888870">
<ele>1667.255981</ele>
<time>2026-08-30T18:03:38.853Z</time>
</trkpt>
<trkpt lat="38.6903800" lon="22.0889180">
<ele>1670.913574</ele>
<time>2026-08-30T18:03:38.853Z</time>
</trkpt>
<trkpt lat="38.6903120" lon="22.0889220">
<ele>1671.828003</ele>
<time>2026-08-30T18:03:38.853Z</time>
</trkpt>
<trkpt lat="38.6903090" lon="22.0889200">
<ele>1671.828003</ele>
<time>2026-08-30T18:03:38.853Z</time>
</trkpt>
<trkpt lat="38.6902130" lon="22.0889520">
<ele>1673.352051</ele>
<time>2026-08-30T18:03:38.853Z</time>
</trkpt>
<trkpt lat="38.6901550" lon="22.0889500">
<ele>1671.828003</ele>
<time>2026-08-30T18:03:38.853Z</time>
</trkpt>
<trkpt lat="38.6901470" lon="22.0889470">
<ele>1671.523193</ele>
<time>2026-08-30T18:03:38.853Z</time>
</trkpt>
<trkpt lat="38.6901140" lon="22.0889470">
<ele>1670.913574</ele>
<time>2026-08-30T18:03:38.853Z</time>
</trkpt>
<trkpt lat="38.6900540" lon="22.0889690">
<ele>1671.218384</ele>
<time>2026-08-30T18:03:38.853Z</time>
</trkpt>
<trkpt lat="38.6900090" lon="22.0889620">
<ele>1669.694458</ele>
<time>2026-08-30T18:03:38.853Z</time>
</trkpt>
<trkpt lat="38.6899820" lon="22.0889730">
<ele>1669.999146</ele>
<time>2026-08-30T18:03:38.853Z</time>
</trkpt>
<trkpt lat="38.6899720" lon="22.0889730">
<ele>1669.999146</ele>
<time>2026-08-30T18:03:38.853Z</time>
</trkpt>
<trkpt lat="38.6899190" lon="22.0889870">
<ele>1669.999146</ele>
<time>2026-08-30T18:03:38.853Z</time>
</trkpt>
<trkpt lat="38.6898370" lon="22.0890350">
<ele>1671.523193</ele>
<time>2026-08-30T18:03:38.853Z</time>
</trkpt>
<trkpt lat="38.6898020" lon="22.0890300">
<ele>1670.303955</ele>
<time>2026-08-30T18:03:38.853Z</time>
</trkpt>
<trkpt lat="38.6897920" lon="22.0890300">
<ele>1669.999146</ele>
<time>2026-08-30T18:03:38.853Z</time>
</trkpt>
<trkpt lat="38.6897170" lon="22.0889720">
<ele>1666.341553</ele>
<time>2026-08-30T18:03:38.853Z</time>
</trkpt>
<trkpt lat="38.6896520" lon="22.0889370">
<ele>1665.427246</ele>
<time>2026-08-30T18:03:38.853Z</time>
</trkpt>
<trkpt lat="38.6896440" lon="22.0889300">
<ele>1665.427246</ele>
<time>2026-08-30T18:03:38.853Z</time>
</trkpt>
<trkpt lat="38.6895880" lon="22.0889070">
<ele>1665.122437</ele>
<time>2026-08-30T18:03:38.853Z</time>
</trkpt>
<trkpt lat="38.6895250" lon="22.0888570">
<ele>1664.512817</ele>
<time>2026-08-30T18:03:38.853Z</time>
</trkpt>
<trkpt lat="38.6894840" lon="22.0888070">
<ele>1663.903198</ele>
<time>2026-08-30T18:03:38.853Z</time>
</trkpt>
<trkpt lat="38.6894770" lon="22.0888000">
<ele>1663.598389</ele>
<time>2026-08-30T18:03:38.853Z</time>
</trkpt>
<trkpt lat="38.6893940" lon="22.0886920">
<ele>1662.988770</ele>
<time>2026-08-30T18:03:38.853Z</time>
</trkpt>
<trkpt lat="38.6893670" lon="22.0886320">
<ele>1662.683960</ele>
<time>2026-08-30T18:03:38.853Z</time>
</trkpt>
<trkpt lat="38.6893600" lon="22.0886190">
<ele>1662.683960</ele>
<time>2026-08-30T18:03:38.853Z</time>
</trkpt>
<trkpt lat="38.6893390" lon="22.0885890">
<ele>1662.683960</ele>
<time>2026-08-30T18:03:38.853Z</time>
</trkpt>
<trkpt lat="38.6892150" lon="22.0884850">
<ele>1663.903198</ele>
<time>2026-08-30T18:03:38.853Z</time>
</trkpt>
<trkpt lat="38.6892040" lon="22.0884770">
<ele>1664.208008</ele>
<time>2026-08-30T18:03:38.853Z</time>
</trkpt>
<trkpt lat="38.6891150" lon="22.0884150">
<ele>1663.598389</ele>
<time>2026-08-30T18:03:38.853Z</time>
</trkpt>
<trkpt lat="38.6890670" lon="22.0884150">
<ele>1663.293579</ele>
<time>2026-08-30T18:03:38.853Z</time>
</trkpt>
<trkpt lat="38.6890480" lon="22.0883990">
<ele>1662.988770</ele>
<time>2026-08-30T18:03:38.853Z</time>
</trkpt>
<trkpt lat="38.6890320" lon="22.0884170">
<ele>1663.293579</ele>
<time>2026-08-30T18:03:38.854Z</time>
</trkpt>
<trkpt lat="38.6890300" lon="22.0884150">
<ele>1663.293579</ele>
<time>2026-08-30T18:03:38.854Z</time>
</trkpt>
<trkpt lat="38.6888770" lon="22.0885170">
<ele>1663.598389</ele>
<time>2026-08-30T18:03:38.854Z</time>
</trkpt>
<trkpt lat="38.6888680" lon="22.0885200">
<ele>1663.598389</ele>
<time>2026-08-30T18:03:38.854Z</time>
</trkpt>
<trkpt lat="38.6888570" lon="22.0885220">
<ele>1663.293579</ele>
<time>2026-08-30T18:03:38.854Z</time>
</trkpt>
<trkpt lat="38.6888170" lon="22.0885870">
<ele>1662.988770</ele>
<time>2026-08-30T18:03:38.854Z</time>
</trkpt>
<trkpt lat="38.6887150" lon="22.0886390">
<ele>1661.464844</ele>
<time>2026-08-30T18:03:38.854Z</time>
</trkpt>
<trkpt lat="38.6887050" lon="22.0886430">
<ele>1661.160034</ele>
<time>2026-08-30T18:03:38.854Z</time>
</trkpt>
<trkpt lat="38.6885940" lon="22.0887250">
<ele>1661.464844</ele>
<time>2026-08-30T18:03:38.854Z</time>
</trkpt>
<trkpt lat="38.6885500" lon="22.0887440">
<ele>1662.683960</ele>
<time>2026-08-30T18:03:38.854Z</time>
</trkpt>
<trkpt lat="38.6885420" lon="22.0887480">
<ele>1662.683960</ele>
<time>2026-08-30T18:03:38.854Z</time>
</trkpt>
<trkpt lat="38.6884930" lon="22.0887870">
<ele>1664.817627</ele>
<time>2026-08-30T18:03:38.854Z</time>
</trkpt>
<trkpt lat="38.6884470" lon="22.0887990">
<ele>1665.732056</ele>
<time>2026-08-30T18:03:38.854Z</time>
</trkpt>
<trkpt lat="38.6883820" lon="22.0888400">
<ele>1668.170410</ele>
<time>2026-08-30T18:03:38.854Z</time>
</trkpt>
<trkpt lat="38.6883800" lon="22.0887590">
<ele>1665.427246</ele>
<time>2026-08-30T18:03:38.854Z</time>
</trkpt>
<trkpt lat="38.6883700" lon="22.0887290">
<ele>1664.208008</ele>
<time>2026-08-30T18:03:38.854Z</time>
</trkpt>
<trkpt lat="38.6883900" lon="22.0886390">
<ele>1660.550415</ele>
<time>2026-08-30T18:03:38.854Z</time>
</trkpt>
<trkpt lat="38.6883900" lon="22.0886270">
<ele>1660.245605</ele>
<time>2026-08-30T18:03:38.854Z</time>
</trkpt>
<trkpt lat="38.6883950" lon="22.0885850">
<ele>1659.635986</ele>
<time>2026-08-30T18:03:38.854Z</time>
</trkpt>
<trkpt lat="38.6884350" lon="22.0884720">
<ele>1659.635986</ele>
<time>2026-08-30T18:03:38.854Z</time>
</trkpt>
<trkpt lat="38.6884450" lon="22.0884000">
<ele>1659.635986</ele>
<time>2026-08-30T18:03:38.854Z</time>
</trkpt>
<trkpt lat="38.6884450" lon="22.0883870">
<ele>1659.635986</ele>
<time>2026-08-30T18:03:38.854Z</time>
</trkpt>
<trkpt lat="38.6884390" lon="22.0882520">
<ele>1659.331177</ele>
<time>2026-08-30T18:03:38.854Z</time>
</trkpt>
<trkpt lat="38.6884070" lon="22.0882620">
<ele>1659.635986</ele>
<time>2026-08-30T18:03:38.854Z</time>
</trkpt>
<trkpt lat="38.6884100" lon="22.0882120">
<ele>1659.331177</ele>
<time>2026-08-30T18:03:38.854Z</time>
</trkpt>
<trkpt lat="38.6884090" lon="22.0881970">
<ele>1659.331177</ele>
<time>2026-08-30T18:03:38.854Z</time>
</trkpt>
<trkpt lat="38.6883670" lon="22.0880590">
<ele>1658.721558</ele>
<time>2026-08-30T18:03:38.854Z</time>
</trkpt>
<trkpt lat="38.6883730" lon="22.0879870">
<ele>1659.940796</ele>
<time>2026-08-30T18:03:38.854Z</time>
</trkpt>
<trkpt lat="38.6883730" lon="22.0879750">
<ele>1659.940796</ele>
<time>2026-08-30T18:03:38.854Z</time>
</trkpt>
<trkpt lat="38.6883840" lon="22.0878620">
<ele>1661.769653</ele>
<time>2026-08-30T18:03:38.854Z</time>
</trkpt>
<trkpt lat="38.6883730" lon="22.0877740">
<ele>1663.598389</ele>
<time>2026-08-30T18:03:38.854Z</time>
</trkpt>
<trkpt lat="38.6883700" lon="22.0877630">
<ele>1664.208008</ele>
<time>2026-08-30T18:03:38.854Z</time>
</trkpt>
<trkpt lat="38.6883690" lon="22.0876940">
<ele>1666.036743</ele>
<time>2026-08-30T18:03:38.854Z</time>
</trkpt>
<trkpt lat="38.6884140" lon="22.0875540">
<ele>1667.255981</ele>
<time>2026-08-30T18:03:38.854Z</time>
</trkpt>
<trkpt lat="38.6884180" lon="22.0875470">
<ele>1667.255981</ele>
<time>2026-08-30T18:03:38.854Z</time>
</trkpt>
<trkpt lat="38.6884790" lon="22.0873320">
<ele>1673.656860</ele>
<time>2026-08-30T18:03:38.854Z</time>
</trkpt>
<trkpt lat="38.6884870" lon="22.0873220">
<ele>1673.656860</ele>
<time>2026-08-30T18:03:38.854Z</time>
</trkpt>
<trkpt lat="38.6886350" lon="22.0872190">
<ele>1671.523193</ele>
<time>2026-08-30T18:03:38.854Z</time>
</trkpt>
<trkpt lat="38.6886420" lon="22.0872140">
<ele>1671.523193</ele>
<time>2026-08-30T18:03:38.854Z</time>
</trkpt>
<trkpt lat="38.6887720" lon="22.0870580">
<ele>1675.180786</ele>
<time>2026-08-30T18:03:38.854Z</time>
</trkpt>
<trkpt lat="38.6887780" lon="22.0870470">
<ele>1675.485596</ele>
<time>2026-08-30T18:03:38.854Z</time>
</trkpt>
<trkpt lat="38.6889100" lon="22.0869000">
<ele>1676.400024</ele>
<time>2026-08-30T18:03:38.854Z</time>
</trkpt>
<trkpt lat="38.6889170" lon="22.0868900">
<ele>1676.400024</ele>
<time>2026-08-30T18:03:38.854Z</time>
</trkpt>
<trkpt lat="38.6889720" lon="22.0868200">
<ele>1675.790405</ele>
<time>2026-08-30T18:03:38.854Z</time>
</trkpt>
<trkpt lat="38.6890050" lon="22.0867940">
<ele>1675.180786</ele>
<time>2026-08-30T18:03:38.854Z</time>
</trkpt>
<trkpt lat="38.6890590" lon="22.0867820">
<ele>1673.047241</ele>
<time>2026-08-30T18:03:38.854Z</time>
</trkpt>
<trkpt lat="38.6890650" lon="22.0867750">
<ele>1672.742432</ele>
<time>2026-08-30T18:03:38.854Z</time>
</trkpt>
<trkpt lat="38.6892300" lon="22.0867320">
<ele>1666.036743</ele>
<time>2026-08-30T18:03:38.854Z</time>
</trkpt>
<trkpt lat="38.6892420" lon="22.0867280">
<ele>1665.732056</ele>
<time>2026-08-30T18:03:38.854Z</time>
</trkpt>
<trkpt lat="38.6893040" lon="22.0867070">
<ele>1662.988770</ele>
<time>2026-08-30T18:03:38.854Z</time>
</trkpt>
<trkpt lat="38.6893750" lon="22.0867020">
<ele>1659.940796</ele>
<time>2026-08-30T18:03:38.854Z</time>
</trkpt>
<trkpt lat="38.6894240" lon="22.0866870">
<ele>1657.807251</ele>
<time>2026-08-30T18:03:38.854Z</time>
</trkpt>
<trkpt lat="38.6894370" lon="22.0866840">
<ele>1657.197632</ele>
<time>2026-08-30T18:03:38.854Z</time>
</trkpt>
<trkpt lat="38.6895000" lon="22.0867040">
<ele>1654.454346</ele>
<time>2026-08-30T18:03:38.854Z</time>
</trkpt>
<trkpt lat="38.6895620" lon="22.0867000">
<ele>1651.711182</ele>
<time>2026-08-30T18:03:38.854Z</time>
</trkpt>
<trkpt lat="38.6895900" lon="22.0867100">
<ele>1650.491943</ele>
<time>2026-08-30T18:03:38.854Z</time>
</trkpt>
<trkpt lat="38.6896040" lon="22.0867090">
<ele>1649.882446</ele>
<time>2026-08-30T18:03:38.854Z</time>
</trkpt>
<trkpt lat="38.6897070" lon="22.0867190">
<ele>1645.310425</ele>
<time>2026-08-30T18:03:38.854Z</time>
</trkpt>
<trkpt lat="38.6897290" lon="22.0866990">
<ele>1644.700806</ele>
<time>2026-08-30T18:03:38.854Z</time>
</trkpt>
<trkpt lat="38.6897140" lon="22.0866340">
<ele>1645.615234</ele>
<time>2026-08-30T18:03:38.854Z</time>
</trkpt>
<trkpt lat="38.6897370" lon="22.0866320">
<ele>1645.005615</ele>
<time>2026-08-30T18:03:38.854Z</time>
</trkpt>
<trkpt lat="38.6897540" lon="22.0866170">
<ele>1645.005615</ele>
<time>2026-08-30T18:03:38.854Z</time>
</trkpt>
<trkpt lat="38.6898320" lon="22.0864920">
<ele>1646.529541</ele>
<time>2026-08-30T18:03:38.854Z</time>
</trkpt>
<trkpt lat="38.6898350" lon="22.0864820">
<ele>1646.529541</ele>
<time>2026-08-30T18:03:38.854Z</time>
</trkpt>
<trkpt lat="38.6898670" lon="22.0863650">
<ele>1649.577637</ele>
<time>2026-08-30T18:03:38.854Z</time>
</trkpt>
<trkpt lat="38.6899100" lon="22.0862870">
<ele>1653.235229</ele>
<time>2026-08-30T18:03:38.854Z</time>
</trkpt>
<trkpt lat="38.6899140" lon="22.0862790">
<ele>1653.540039</ele>
<time>2026-08-30T18:03:38.854Z</time>
</trkpt>
<trkpt lat="38.6899650" lon="22.0862080">
<ele>1655.063965</ele>
<time>2026-08-30T18:03:38.854Z</time>
</trkpt>
<trkpt lat="38.6900440" lon="22.0861320">
<ele>1656.283203</ele>
<time>2026-08-30T18:03:38.857Z</time>
</trkpt>
<trkpt lat="38.6900500" lon="22.0861200">
<ele>1656.588013</ele>
<time>2026-08-30T18:03:38.857Z</time>
</trkpt>
<trkpt lat="38.6901850" lon="22.0860000">
<ele>1659.331177</ele>
<time>2026-08-30T18:03:38.857Z</time>
</trkpt>
<trkpt lat="38.6901950" lon="22.0859900">
<ele>1659.331177</ele>
<time>2026-08-30T18:03:38.857Z</time>
</trkpt>
<trkpt lat="38.6902920" lon="22.0858850">
<ele>1659.026367</ele>
<time>2026-08-30T18:03:38.857Z</time>
</trkpt>
<trkpt lat="38.6903270" lon="22.0858320">
<ele>1658.416748</ele>
<time>2026-08-30T18:03:38.857Z</time>
</trkpt>
<trkpt lat="38.6903350" lon="22.0858240">
<ele>1658.112061</ele>
<time>2026-08-30T18:03:38.857Z</time>
</trkpt>
<trkpt lat="38.6903970" lon="22.0857600">
<ele>1656.283203</ele>
<time>2026-08-30T18:03:38.857Z</time>
</trkpt>
<trkpt lat="38.6904590" lon="22.0856670">
<ele>1655.368774</ele>
<time>2026-08-30T18:03:38.857Z</time>
</trkpt>
<trkpt lat="38.6904690" lon="22.0856600">
<ele>1655.063965</ele>
<time>2026-08-30T18:03:38.857Z</time>
</trkpt>
<trkpt lat="38.6905820" lon="22.0854900">
<ele>1652.625610</ele>
<time>2026-08-30T18:03:38.857Z</time>
</trkpt>
<trkpt lat="38.6905920" lon="22.0854840">
<ele>1652.320801</ele>
<time>2026-08-30T18:03:38.857Z</time>
</trkpt>
<trkpt lat="38.6906620" lon="22.0853950">
<ele>1650.187256</ele>
<time>2026-08-30T18:03:38.857Z</time>
</trkpt>
<trkpt lat="38.6907040" lon="22.0853120">
<ele>1649.272827</ele>
<time>2026-08-30T18:03:38.857Z</time>
</trkpt>
<trkpt lat="38.6907040" lon="22.0853020">
<ele>1648.968018</ele>
<time>2026-08-30T18:03:38.857Z</time>
</trkpt>
<trkpt lat="38.6907020" lon="22.0852330">
<ele>1647.443970</ele>
<time>2026-08-30T18:03:38.857Z</time>
</trkpt>
<trkpt lat="38.6906470" lon="22.0851750">
<ele>1644.700806</ele>
<time>2026-08-30T18:03:38.857Z</time>
</trkpt>
<trkpt lat="38.6906270" lon="22.0851670">
<ele>1644.395996</ele>
<time>2026-08-30T18:03:38.857Z</time>
</trkpt>
<trkpt lat="38.6906120" lon="22.0851330">
<ele>1643.176758</ele>
<time>2026-08-30T18:03:38.857Z</time>
</trkpt>
<trkpt lat="38.6906040" lon="22.0851270">
<ele>1642.871948</ele>
<time>2026-08-30T18:03:38.857Z</time>
</trkpt>
<trkpt lat="38.6905250" lon="22.0850500">
<ele>1641.348022</ele>
<time>2026-08-30T18:03:38.857Z</time>
</trkpt>
<trkpt lat="38.6905170" lon="22.0850520">
<ele>1641.348022</ele>
<time>2026-08-30T18:03:38.857Z</time>
</trkpt>
<trkpt lat="38.6905520" lon="22.0850240">
<ele>1640.433594</ele>
<time>2026-08-30T18:03:38.857Z</time>
</trkpt>
<trkpt lat="38.6905270" lon="22.0850000">
<ele>1640.433594</ele>
<time>2026-08-30T18:03:38.857Z</time>
</trkpt>
<trkpt lat="38.6905190" lon="22.0849950">
<ele>1640.738403</ele>
<time>2026-08-30T18:03:38.857Z</time>
</trkpt>
<trkpt lat="38.6903990" lon="22.0849100">
<ele>1642.567261</ele>
<time>2026-08-30T18:03:38.857Z</time>
</trkpt>
<trkpt lat="38.6903790" lon="22.0848850">
<ele>1642.871948</ele>
<time>2026-08-30T18:03:38.857Z</time>
</trkpt>
<trkpt lat="38.6903720" lon="22.0848800">
<ele>1642.871948</ele>
<time>2026-08-30T18:03:38.857Z</time>
</trkpt>
<trkpt lat="38.6902850" lon="22.0847800">
<ele>1644.700806</ele>
<time>2026-08-30T18:03:38.857Z</time>
</trkpt>
<trkpt lat="38.6902340" lon="22.0847640">
<ele>1646.834351</ele>
<time>2026-08-30T18:03:38.857Z</time>
</trkpt>
<trkpt lat="38.6902250" lon="22.0847590">
<ele>1647.139160</ele>
<time>2026-08-30T18:03:38.857Z</time>
</trkpt>
<trkpt lat="38.6902070" lon="22.0847570">
<ele>1647.748779</ele>
<time>2026-08-30T18:03:38.857Z</time>
</trkpt>
<trkpt lat="38.6901950" lon="22.0847270">
<ele>1648.053589</ele>
<time>2026-08-30T18:03:38.857Z</time>
</trkpt>
<trkpt lat="38.6901290" lon="22.0846620">
<ele>1648.358398</ele>
<time>2026-08-30T18:03:38.857Z</time>
</trkpt>
<trkpt lat="38.6901020" lon="22.0846500">
<ele>1648.968018</ele>
<time>2026-08-30T18:03:38.857Z</time>
</trkpt>
<trkpt lat="38.6900970" lon="22.0846500">
<ele>1649.272827</ele>
<time>2026-08-30T18:03:38.857Z</time>
</trkpt>
<trkpt lat="38.6900590" lon="22.0845770">
<ele>1648.358398</ele>
<time>2026-08-30T18:03:38.857Z</time>
</trkpt>
<trkpt lat="38.6900440" lon="22.0845590">
<ele>1648.053589</ele>
<time>2026-08-30T18:03:38.857Z</time>
</trkpt>
<trkpt lat="38.6900220" lon="22.0845590">
<ele>1648.968018</ele>
<time>2026-08-30T18:03:38.857Z</time>
</trkpt>
<trkpt lat="38.6899840" lon="22.0844990">
<ele>1648.053589</ele>
<time>2026-08-30T18:03:38.857Z</time>
</trkpt>
<trkpt lat="38.6899790" lon="22.0844870">
<ele>1647.748779</ele>
<time>2026-08-30T18:03:38.857Z</time>
</trkpt>
<trkpt lat="38.6899650" lon="22.0844570">
<ele>1646.834351</ele>
<time>2026-08-30T18:03:38.857Z</time>
</trkpt>
<trkpt lat="38.6899740" lon="22.0843990">
<ele>1644.091187</ele>
<time>2026-08-30T18:03:38.857Z</time>
</trkpt>
<trkpt lat="38.6900200" lon="22.0843000">
<ele>1638.604858</ele>
<time>2026-08-30T18:03:38.857Z</time>
</trkpt>
<trkpt lat="38.6900250" lon="22.0842900">
<ele>1637.995239</ele>
<time>2026-08-30T18:03:38.857Z</time>
</trkpt>
<trkpt lat="38.6900290" lon="22.0842840">
<ele>1637.690430</ele>
<time>2026-08-30T18:03:38.857Z</time>
</trkpt>
<trkpt lat="38.6900070" lon="22.0842690">
<ele>1637.690430</ele>
<time>2026-08-30T18:03:38.857Z</time>
</trkpt>
<trkpt lat="38.6899690" lon="22.0841020">
<ele>1631.594360</ele>
<time>2026-08-30T18:03:38.857Z</time>
</trkpt>
<trkpt lat="38.6899650" lon="22.0840920">
<ele>1631.289551</ele>
<time>2026-08-30T18:03:38.857Z</time>
</trkpt>
<trkpt lat="38.6899100" lon="22.0840420">
<ele>1630.984741</ele>
<time>2026-08-30T18:03:38.857Z</time>
</trkpt>
<trkpt lat="38.6899000" lon="22.0840100">
<ele>1630.680054</ele>
<time>2026-08-30T18:03:38.857Z</time>
</trkpt>
<trkpt lat="38.6898750" lon="22.0840040">
<ele>1630.984741</ele>
<time>2026-08-30T18:03:38.857Z</time>
</trkpt>
<trkpt lat="38.6898580" lon="22.0839770">
<ele>1631.289551</ele>
<time>2026-08-30T18:03:38.857Z</time>
</trkpt>
<trkpt lat="38.6898550" lon="22.0840080">
<ele>1631.594360</ele>
<time>2026-08-30T18:03:38.857Z</time>
</trkpt>
<trkpt lat="38.6898320" lon="22.0839970">
<ele>1631.899170</ele>
<time>2026-08-30T18:03:38.857Z</time>
</trkpt>
<trkpt lat="38.6898320" lon="22.0839800">
<ele>1631.899170</ele>
<time>2026-08-30T18:03:38.857Z</time>
</trkpt>
<trkpt lat="38.6898050" lon="22.0838800">
<ele>1632.203979</ele>
<time>2026-08-30T18:03:38.857Z</time>
</trkpt>
<trkpt lat="38.6897440" lon="22.0837950">
<ele>1634.947144</ele>
<time>2026-08-30T18:03:38.857Z</time>
</trkpt>
<trkpt lat="38.6897390" lon="22.0837830">
<ele>1635.251953</ele>
<time>2026-08-30T18:03:38.857Z</time>
</trkpt>
<trkpt lat="38.6897270" lon="22.0837470">
<ele>1635.861572</ele>
<time>2026-08-30T18:03:38.857Z</time>
</trkpt>
<trkpt lat="38.6896470" lon="22.0836020">
<ele>1639.214355</ele>
<time>2026-08-30T18:03:38.857Z</time>
</trkpt>
<trkpt lat="38.6896370" lon="22.0836000">
<ele>1639.519165</ele>
<time>2026-08-30T18:03:38.857Z</time>
</trkpt>
<trkpt lat="38.6896520" lon="22.0836000">
<ele>1639.214355</ele>
<time>2026-08-30T18:03:38.857Z</time>
</trkpt>
<trkpt lat="38.6897320" lon="22.0835270">
<ele>1637.690430</ele>
<time>2026-08-30T18:03:38.857Z</time>
</trkpt>
<trkpt lat="38.6897850" lon="22.0835070">
<ele>1635.861572</ele>
<time>2026-08-30T18:03:38.857Z</time>
</trkpt>
<trkpt lat="38.6897900" lon="22.0835020">
<ele>1635.861572</ele>
<time>2026-08-30T18:03:38.857Z</time>
</trkpt>
<trkpt lat="38.6898150" lon="22.0834740">
<ele>1635.251953</ele>
<time>2026-08-30T18:03:38.857Z</time>
</trkpt>
<trkpt lat="38.6899600" lon="22.0834140">
<ele>1630.680054</ele>
<time>2026-08-30T18:03:38.857Z</time>
</trkpt>
<trkpt lat="38.6899700" lon="22.0834090">
<ele>1630.375244</ele>
<time>2026-08-30T18:03:38.857Z</time>
</trkpt>
<trkpt lat="38.6899990" lon="22.0833870">
<ele>1629.765625</ele>
<time>2026-08-30T18:03:38.859Z</time>
</trkpt>
<trkpt lat="38.6900120" lon="22.0833640">
<ele>1629.765625</ele>
<time>2026-08-30T18:03:38.859Z</time>
</trkpt>
<trkpt lat="38.6900290" lon="22.0833000">
<ele>1630.680054</ele>
<time>2026-08-30T18:03:38.859Z</time>
</trkpt>
<trkpt lat="38.6900090" lon="22.0832570">
<ele>1633.728027</ele>
<time>2026-08-30T18:03:38.859Z</time>
</trkpt>
<trkpt lat="38.6900140" lon="22.0832020">
<ele>1635.861572</ele>
<time>2026-08-30T18:03:38.859Z</time>
</trkpt>
<trkpt lat="38.6900220" lon="22.0831850">
<ele>1636.166382</ele>
<time>2026-08-30T18:03:38.859Z</time>
</trkpt>
<trkpt lat="38.6900240" lon="22.0831470">
<ele>1637.690430</ele>
<time>2026-08-30T18:03:38.859Z</time>
</trkpt>
<trkpt lat="38.6900600" lon="22.0831070">
<ele>1637.080811</ele>
<time>2026-08-30T18:03:38.859Z</time>
</trkpt>
<trkpt lat="38.6900890" lon="22.0830040">
<ele>1640.738403</ele>
<time>2026-08-30T18:03:38.859Z</time>
</trkpt>
<trkpt lat="38.6900870" lon="22.0829920">
<ele>1641.348022</ele>
<time>2026-08-30T18:03:38.859Z</time>
</trkpt>
<trkpt lat="38.6900950" lon="22.0828950">
<ele>1646.529541</ele>
<time>2026-08-30T18:03:38.859Z</time>
</trkpt>
<trkpt lat="38.6900620" lon="22.0828580">
<ele>1651.406372</ele>
<time>2026-08-30T18:03:38.859Z</time>
</trkpt>
<trkpt lat="38.6900300" lon="22.0827920">
<ele>1658.416748</ele>
<time>2026-08-30T18:03:38.859Z</time>
</trkpt>
<trkpt lat="38.6900270" lon="22.0827820">
<ele>1659.331177</ele>
<time>2026-08-30T18:03:38.859Z</time>
</trkpt>
<trkpt lat="38.6900200" lon="22.0827630">
<ele>1660.855225</ele>
<time>2026-08-30T18:03:38.859Z</time>
</trkpt>
<trkpt lat="38.6900380" lon="22.0827590">
<ele>1659.331177</ele>
<time>2026-08-30T18:03:38.859Z</time>
</trkpt>
<trkpt lat="38.6900650" lon="22.0827340">
<ele>1658.112061</ele>
<time>2026-08-30T18:03:38.859Z</time>
</trkpt>
<trkpt lat="38.6900720" lon="22.0827230">
<ele>1657.807251</ele>
<time>2026-08-30T18:03:38.859Z</time>
</trkpt>
<trkpt lat="38.6900940" lon="22.0826920">
<ele>1656.892822</ele>
<time>2026-08-30T18:03:38.859Z</time>
</trkpt>
<trkpt lat="38.6901450" lon="22.0826470">
<ele>1654.149658</ele>
<time>2026-08-30T18:03:38.859Z</time>
</trkpt>
<trkpt lat="38.6902150" lon="22.0826070">
<ele>1648.968018</ele>
<time>2026-08-30T18:03:38.859Z</time>
</trkpt>
<trkpt lat="38.6902200" lon="22.0825990">
<ele>1648.968018</ele>
<time>2026-08-30T18:03:38.859Z</time>
</trkpt>
<trkpt lat="38.6902720" lon="22.0825650">
<ele>1645.310425</ele>
<time>2026-08-30T18:03:38.859Z</time>
</trkpt>
<trkpt lat="38.6903370" lon="22.0824790">
<ele>1639.519165</ele>
<time>2026-08-30T18:03:38.859Z</time>
</trkpt>
<trkpt lat="38.6903640" lon="22.0824620">
<ele>1636.166382</ele>
<time>2026-08-30T18:03:38.859Z</time>
</trkpt>
<trkpt lat="38.6903690" lon="22.0824600">
<ele>1635.556763</ele>
<time>2026-08-30T18:03:38.859Z</time>
</trkpt>
<trkpt lat="38.6904070" lon="22.0824070">
<ele>1631.899170</ele>
<time>2026-08-30T18:03:38.859Z</time>
</trkpt>
<trkpt lat="38.6904800" lon="22.0823820">
<ele>1622.450439</ele>
<time>2026-08-30T18:03:38.859Z</time>
</trkpt>
<trkpt lat="38.6905270" lon="22.0823300">
<ele>1617.573608</ele>
<time>2026-08-30T18:03:38.859Z</time>
</trkpt>
<trkpt lat="38.6905340" lon="22.0823180">
<ele>1616.659180</ele>
<time>2026-08-30T18:03:38.859Z</time>
</trkpt>
<trkpt lat="38.6905490" lon="22.0822800">
<ele>1615.744751</ele>
<time>2026-08-30T18:03:38.859Z</time>
</trkpt>
<trkpt lat="38.6905270" lon="22.0823000">
<ele>1618.183228</ele>
<time>2026-08-30T18:03:38.859Z</time>
</trkpt>
<trkpt lat="38.6905200" lon="22.0822940">
<ele>1619.097656</ele>
<time>2026-08-30T18:03:38.859Z</time>
</trkpt>
<trkpt lat="38.6905900" lon="22.0822570">
<ele>1612.087158</ele>
<time>2026-08-30T18:03:38.859Z</time>
</trkpt>
<trkpt lat="38.6906350" lon="22.0822150">
<ele>1609.343994</ele>
<time>2026-08-30T18:03:38.859Z</time>
</trkpt>
<trkpt lat="38.6906390" lon="22.0822070">
<ele>1609.343994</ele>
<time>2026-08-30T18:03:38.859Z</time>
</trkpt>
<trkpt lat="38.6906900" lon="22.0821300">
<ele>1608.124756</ele>
<time>2026-08-30T18:03:38.859Z</time>
</trkpt>
<trkpt lat="38.6907100" lon="22.0820100">
<ele>1612.087158</ele>
<time>2026-08-30T18:03:38.859Z</time>
</trkpt>
<trkpt lat="38.6907140" lon="22.0820020">
<ele>1612.087158</ele>
<time>2026-08-30T18:03:38.859Z</time>
</trkpt>
<trkpt lat="38.6907370" lon="22.0819350">
<ele>1613.306396</ele>
<time>2026-08-30T18:03:38.859Z</time>
</trkpt>
<trkpt lat="38.6908070" lon="22.0818690">
<ele>1611.172852</ele>
<time>2026-08-30T18:03:38.859Z</time>
</trkpt>
<trkpt lat="38.6908240" lon="22.0818400">
<ele>1611.477539</ele>
<time>2026-08-30T18:03:38.859Z</time>
</trkpt>
<trkpt lat="38.6908290" lon="22.0818300">
<ele>1611.782349</ele>
<time>2026-08-30T18:03:38.859Z</time>
</trkpt>
<trkpt lat="38.6908620" lon="22.0817340">
<ele>1614.830444</ele>
<time>2026-08-30T18:03:38.859Z</time>
</trkpt>
<trkpt lat="38.6908940" lon="22.0816920">
<ele>1614.220825</ele>
<time>2026-08-30T18:03:38.859Z</time>
</trkpt>
<trkpt lat="38.6909140" lon="22.0816350">
<ele>1614.830444</ele>
<time>2026-08-30T18:03:38.859Z</time>
</trkpt>
<trkpt lat="38.6909220" lon="22.0816220">
<ele>1614.525635</ele>
<time>2026-08-30T18:03:38.859Z</time>
</trkpt>
<trkpt lat="38.6909300" lon="22.0814900">
<ele>1618.488037</ele>
<time>2026-08-30T18:03:38.859Z</time>
</trkpt>
<trkpt lat="38.6909490" lon="22.0814720">
<ele>1616.659180</ele>
<time>2026-08-30T18:03:38.859Z</time>
</trkpt>
<trkpt lat="38.6909750" lon="22.0814700">
<ele>1613.611206</ele>
<time>2026-08-30T18:03:38.859Z</time>
</trkpt>
<trkpt lat="38.6909940" lon="22.0815000">
<ele>1610.258423</ele>
<time>2026-08-30T18:03:38.859Z</time>
</trkpt>
<trkpt lat="38.6909940" lon="22.0815120">
<ele>1609.648804</ele>
<time>2026-08-30T18:03:38.859Z</time>
</trkpt>
<trkpt lat="38.6909950" lon="22.0815990">
<ele>1607.210449</ele>
<time>2026-08-30T18:03:38.859Z</time>
</trkpt>
<trkpt lat="38.6910100" lon="22.0816590">
<ele>1603.857544</ele>
<time>2026-08-30T18:03:38.859Z</time>
</trkpt>
<trkpt lat="38.6910040" lon="22.0817020">
<ele>1602.638428</ele>
<time>2026-08-30T18:03:38.859Z</time>
</trkpt>
<trkpt lat="38.6910000" lon="22.0817150">
<ele>1602.638428</ele>
<time>2026-08-30T18:03:38.859Z</time>
</trkpt>
<trkpt lat="38.6909870" lon="22.0818240">
<ele>1598.980835</ele>
<time>2026-08-30T18:03:38.859Z</time>
</trkpt>
<trkpt lat="38.6909920" lon="22.0818490">
<ele>1597.456787</ele>
<time>2026-08-30T18:03:38.859Z</time>
</trkpt>
<trkpt lat="38.6909600" lon="22.0819330">
<ele>1595.932739</ele>
<time>2026-08-30T18:03:38.859Z</time>
</trkpt>
<trkpt lat="38.6909640" lon="22.0819370">
<ele>1595.323242</ele>
<time>2026-08-30T18:03:38.859Z</time>
</trkpt>
<trkpt lat="38.6909520" lon="22.0820870">
<ele>1590.141602</ele>
<time>2026-08-30T18:03:38.859Z</time>
</trkpt>
<trkpt lat="38.6909270" lon="22.0821490">
<ele>1588.922363</ele>
<time>2026-08-30T18:03:38.859Z</time>
</trkpt>
<trkpt lat="38.6909200" lon="22.0821620">
<ele>1588.922363</ele>
<time>2026-08-30T18:03:38.861Z</time>
</trkpt>
<trkpt lat="38.6908970" lon="22.0821980">
<ele>1588.617554</ele>
<time>2026-08-30T18:03:38.861Z</time>
</trkpt>
<trkpt lat="38.6908250" lon="22.0822720">
<ele>1590.141602</ele>
<time>2026-08-30T18:03:38.861Z</time>
</trkpt>
<trkpt lat="38.6907760" lon="22.0822870">
<ele>1594.104004</ele>
<time>2026-08-30T18:03:38.861Z</time>
</trkpt>
<trkpt lat="38.6907900" lon="22.0822900">
<ele>1592.884766</ele>
<time>2026-08-30T18:03:38.861Z</time>
</trkpt>
<trkpt lat="38.6908090" lon="22.0823050">
<ele>1590.751221</ele>
<time>2026-08-30T18:03:38.861Z</time>
</trkpt>
<trkpt lat="38.6908200" lon="22.0823330">
<ele>1588.617554</ele>
<time>2026-08-30T18:03:38.861Z</time>
</trkpt>
<trkpt lat="38.6908590" lon="22.0823540">
<ele>1585.264771</ele>
<time>2026-08-30T18:03:38.861Z</time>
</trkpt>
<trkpt lat="38.6909420" lon="22.0823420">
<ele>1581.302368</ele>
<time>2026-08-30T18:03:38.861Z</time>
</trkpt>
<trkpt lat="38.6909520" lon="22.0823330">
<ele>1581.302368</ele>
<time>2026-08-30T18:03:38.861Z</time>
</trkpt>
<trkpt lat="38.6910340" lon="22.0822570">
<ele>1579.168823</ele>
<time>2026-08-30T18:03:38.861Z</time>
</trkpt>
<trkpt lat="38.6910770" lon="22.0821740">
<ele>1579.473633</ele>
<time>2026-08-30T18:03:38.861Z</time>
</trkpt>
<trkpt lat="38.6910820" lon="22.0821640">
<ele>1579.473633</ele>
<time>2026-08-30T18:03:38.861Z</time>
</trkpt>
<trkpt lat="38.6911100" lon="22.0820770">
<ele>1580.692749</ele>
<time>2026-08-30T18:03:38.861Z</time>
</trkpt>
<trkpt lat="38.6911100" lon="22.0820440">
<ele>1581.911987</ele>
<time>2026-08-30T18:03:38.861Z</time>
</trkpt>
<trkpt lat="38.6910940" lon="22.0820200">
<ele>1583.740845</ele>
<time>2026-08-30T18:03:38.861Z</time>
</trkpt>
<trkpt lat="38.6910840" lon="22.0820270">
<ele>1584.045654</ele>
<time>2026-08-30T18:03:38.861Z</time>
</trkpt>
<trkpt lat="38.6911000" lon="22.0819940">
<ele>1584.045654</ele>
<time>2026-08-30T18:03:38.861Z</time>
</trkpt>
<trkpt lat="38.6911070" lon="22.0819820">
<ele>1584.045654</ele>
<time>2026-08-30T18:03:38.861Z</time>
</trkpt>
<trkpt lat="38.6911800" lon="22.0818400">
<ele>1583.436035</ele>
<time>2026-08-30T18:03:38.861Z</time>
</trkpt>
<trkpt lat="38.6912000" lon="22.0817790">
<ele>1583.436035</ele>
<time>2026-08-30T18:03:38.861Z</time>
</trkpt>
<trkpt lat="38.6912040" lon="22.0817670">
<ele>1583.436035</ele>
<time>2026-08-30T18:03:38.861Z</time>
</trkpt>
<trkpt lat="38.6912060" lon="22.0817590">
<ele>1583.436035</ele>
<time>2026-08-30T18:03:38.861Z</time>
</trkpt>
<trkpt lat="38.6911940" lon="22.0814880">
<ele>1587.398438</ele>
<time>2026-08-30T18:03:38.861Z</time>
</trkpt>
<trkpt lat="38.6911720" lon="22.0812760">
<ele>1590.446411</ele>
<time>2026-08-30T18:03:38.861Z</time>
</trkpt>
<trkpt lat="38.6912470" lon="22.0810620">
<ele>1580.083252</ele>
<time>2026-08-30T18:03:38.861Z</time>
</trkpt>
<trkpt lat="38.6912520" lon="22.0809270">
<ele>1577.339966</ele>
<time>2026-08-30T18:03:38.861Z</time>
</trkpt>
<trkpt lat="38.6912060" lon="22.0808360">
<ele>1580.997559</ele>
<time>2026-08-30T18:03:38.861Z</time>
</trkpt>
<trkpt lat="38.6910510" lon="22.0804450">
<ele>1584.350342</ele>
<time>2026-08-30T18:03:38.861Z</time>
</trkpt>
<trkpt lat="38.6909800" lon="22.0801170">
<ele>1580.997559</ele>
<time>2026-08-30T18:03:38.861Z</time>
</trkpt>
<trkpt lat="38.6909710" lon="22.0798870">
<ele>1574.901611</ele>
<time>2026-08-30T18:03:38.861Z</time>
</trkpt>
<trkpt lat="38.6909500" lon="22.0797690">
<ele>1574.901611</ele>
<time>2026-08-30T18:03:38.861Z</time>
</trkpt>
<trkpt lat="38.6907790" lon="22.0796990">
<ele>1592.275146</ele>
<time>2026-08-30T18:03:38.861Z</time>
</trkpt>
<trkpt lat="38.6907660" lon="22.0796020">
<ele>1591.056030</ele>
<time>2026-08-30T18:03:38.861Z</time>
</trkpt>
<trkpt lat="38.6907120" lon="22.0794680">
<ele>1590.751221</ele>
<time>2026-08-30T18:03:38.861Z</time>
</trkpt>
<trkpt lat="38.6906740" lon="22.0793290">
<ele>1585.874390</ele>
<time>2026-08-30T18:03:38.861Z</time>
</trkpt>
<trkpt lat="38.6907160" lon="22.0791360">
<ele>1572.463257</ele>
<time>2026-08-30T18:03:38.861Z</time>
</trkpt>
<trkpt lat="38.6907320" lon="22.0789590">
<ele>1562.404785</ele>
<time>2026-08-30T18:03:38.861Z</time>
</trkpt>
<trkpt lat="38.6906450" lon="22.0788140">
<ele>1563.014404</ele>
<time>2026-08-30T18:03:38.861Z</time>
</trkpt>
<trkpt lat="38.6906360" lon="22.0787170">
<ele>1559.661621</ele>
<time>2026-08-30T18:03:38.861Z</time>
</trkpt>
<trkpt lat="38.6906860" lon="22.0785670">
<ele>1549.907959</ele>
<time>2026-08-30T18:03:38.861Z</time>
</trkpt>
<trkpt lat="38.6907070" lon="22.0784600">
<ele>1544.116821</ele>
<time>2026-08-30T18:03:38.861Z</time>
</trkpt>
<trkpt lat="38.6906740" lon="22.0783040">
<ele>1539.544800</ele>
<time>2026-08-30T18:03:38.861Z</time>
</trkpt>
<trkpt lat="38.6906070" lon="22.0781650">
<ele>1535.277588</ele>
<time>2026-08-30T18:03:38.861Z</time>
</trkpt>
<trkpt lat="38.6905150" lon="22.0781060">
<ele>1536.801636</ele>
<time>2026-08-30T18:03:38.861Z</time>
</trkpt>
<trkpt lat="38.6902970" lon="22.0780150">
<ele>1546.555176</ele>
<time>2026-08-30T18:03:38.861Z</time>
</trkpt>
<trkpt lat="38.6901040" lon="22.0778640">
<ele>1555.394409</ele>
<time>2026-08-30T18:03:38.861Z</time>
</trkpt>
<trkpt lat="38.6899540" lon="22.0777090">
<ele>1563.319214</ele>
<time>2026-08-30T18:03:38.861Z</time>
</trkpt>
<trkpt lat="38.6898530" lon="22.0774730">
<ele>1565.452759</ele>
<time>2026-08-30T18:03:38.861Z</time>
</trkpt>
<trkpt lat="38.6897320" lon="22.0772900">
<ele>1565.147949</ele>
<time>2026-08-30T18:03:38.861Z</time>
</trkpt>
<trkpt lat="38.6896770" lon="22.0771560">
<ele>1564.538452</ele>
<time>2026-08-30T18:03:38.861Z</time>
</trkpt>
<trkpt lat="38.6896690" lon="22.0769040">
<ele>1556.308838</ele>
<time>2026-08-30T18:03:38.861Z</time>
</trkpt>
<trkpt lat="38.6897070" lon="22.0766950">
<ele>1548.993652</ele>
<time>2026-08-30T18:03:38.861Z</time>
</trkpt>
<trkpt lat="38.6896480" lon="22.0763620">
<ele>1555.394409</ele>
<time>2026-08-30T18:03:38.861Z</time>
</trkpt>
<trkpt lat="38.6897110" lon="22.0761800">
<ele>1550.517578</ele>
<time>2026-08-30T18:03:38.861Z</time>
</trkpt>
<trkpt lat="38.6896940" lon="22.0760190">
<ele>1552.041626</ele>
<time>2026-08-30T18:03:38.861Z</time>
</trkpt>
<trkpt lat="38.6896230" lon="22.0756380">
<ele>1552.956055</ele>
<time>2026-08-30T18:03:38.861Z</time>
</trkpt>
<trkpt lat="38.6895520" lon="22.0752840">
<ele>1549.603149</ele>
<time>2026-08-30T18:03:38.861Z</time>
</trkpt>
<trkpt lat="38.6894680" lon="22.0750700">
<ele>1548.079224</ele>
<time>2026-08-30T18:03:38.861Z</time>
</trkpt>
<trkpt lat="38.6894680" lon="22.0749680">
<ele>1546.250366</ele>
<time>2026-08-30T18:03:38.861Z</time>
</trkpt>
<trkpt lat="38.6895390" lon="22.0748280">
<ele>1544.726440</ele>
<time>2026-08-30T18:03:38.861Z</time>
</trkpt>
<trkpt lat="38.6896150" lon="22.0746620">
<ele>1543.202393</ele>
<time>2026-08-30T18:03:38.861Z</time>
</trkpt>
<trkpt lat="38.6896730" lon="22.0744260">
<ele>1544.421631</ele>
<time>2026-08-30T18:03:38.861Z</time>
</trkpt>
<trkpt lat="38.6897820" lon="22.0739910">
<ele>1541.068848</ele>
<time>2026-08-30T18:03:38.861Z</time>
</trkpt>
<trkpt lat="38.6898780" lon="22.0736690">
<ele>1538.630371</ele>
<time>2026-08-30T18:03:38.861Z</time>
</trkpt>
<trkpt lat="38.6899450" lon="22.0734440">
<ele>1536.496826</ele>
<time>2026-08-30T18:03:38.861Z</time>
</trkpt>
<trkpt lat="38.6899450" lon="22.0730690">
<ele>1535.582397</ele>
<time>2026-08-30T18:03:38.861Z</time>
</trkpt>
<trkpt lat="38.6899790" lon="22.0728380">
<ele>1531.924805</ele>
<time>2026-08-30T18:03:38.861Z</time>
</trkpt>
<trkpt lat="38.6901130" lon="22.0725800">
<ele>1526.133545</ele>
<time>2026-08-30T18:03:38.863Z</time>
</trkpt>
<trkpt lat="38.6901800" lon="22.0723340">
<ele>1526.743164</ele>
<time>2026-08-30T18:03:38.863Z</time>
</trkpt>
<trkpt lat="38.6902170" lon="22.0719570">
<ele>1532.839233</ele>
<time>2026-08-30T18:03:38.863Z</time>
</trkpt>
<trkpt lat="38.6902670" lon="22.0719080">
<ele>1531.010376</ele>
<time>2026-08-30T18:03:38.863Z</time>
</trkpt>
<trkpt lat="38.6902780" lon="22.0719070">
<ele>1530.705566</ele>
<time>2026-08-30T18:03:38.863Z</time>
</trkpt>
<trkpt lat="38.6904780" lon="22.0720210">
<ele>1512.722412</ele>
<time>2026-08-30T18:03:38.863Z</time>
</trkpt>
<trkpt lat="38.6905910" lon="22.0720120">
<ele>1504.187988</ele>
<time>2026-08-30T18:03:38.863Z</time>
</trkpt>
<trkpt lat="38.6906710" lon="22.0719660">
<ele>1499.311157</ele>
<time>2026-08-30T18:03:38.863Z</time>
</trkpt>
<trkpt lat="38.6908090" lon="22.0720090">
<ele>1490.776855</ele>
<time>2026-08-30T18:03:38.863Z</time>
</trkpt>
<trkpt lat="38.6909100" lon="22.0720210">
<ele>1486.814453</ele>
<time>2026-08-30T18:03:38.863Z</time>
</trkpt>
<trkpt lat="38.6909740" lon="22.0720040">
<ele>1484.375977</ele>
<time>2026-08-30T18:03:38.863Z</time>
</trkpt>
<trkpt lat="38.6910650" lon="22.0719950">
<ele>1481.023193</ele>
<time>2026-08-30T18:03:38.863Z</time>
</trkpt>
<trkpt lat="38.6911720" lon="22.0721460">
<ele>1476.146362</ele>
<time>2026-08-30T18:03:38.863Z</time>
</trkpt>
<trkpt lat="38.6912310" lon="22.0722130">
<ele>1472.793579</ele>
<time>2026-08-30T18:03:38.863Z</time>
</trkpt>
<trkpt lat="38.6913480" lon="22.0722630">
<ele>1465.173584</ele>
<time>2026-08-30T18:03:38.863Z</time>
</trkpt>
<trkpt lat="38.6913860" lon="22.0720880">
<ele>1463.954346</ele>
<time>2026-08-30T18:03:38.863Z</time>
</trkpt>
<trkpt lat="38.6914120" lon="22.0719570">
<ele>1464.259155</ele>
<time>2026-08-30T18:03:38.863Z</time>
</trkpt>
<trkpt lat="38.6914800" lon="22.0720120">
<ele>1462.430420</ele>
<time>2026-08-30T18:03:38.863Z</time>
</trkpt>
<trkpt lat="38.6915750" lon="22.0720620">
<ele>1459.991943</ele>
<time>2026-08-30T18:03:38.863Z</time>
</trkpt>
<trkpt lat="38.6916420" lon="22.0720660">
<ele>1458.468018</ele>
<time>2026-08-30T18:03:38.863Z</time>
</trkpt>
<trkpt lat="38.6918500" lon="22.0721930">
<ele>1453.895996</ele>
<time>2026-08-30T18:03:38.863Z</time>
</trkpt>
<trkpt lat="38.6919470" lon="22.0721710">
<ele>1451.457642</ele>
<time>2026-08-30T18:03:38.863Z</time>
</trkpt>
<trkpt lat="38.6920430" lon="22.0722430">
<ele>1448.714355</ele>
<time>2026-08-30T18:03:38.863Z</time>
</trkpt>
<trkpt lat="38.6921500" lon="22.0723320">
<ele>1445.666382</ele>
<time>2026-08-30T18:03:38.863Z</time>
</trkpt>
<trkpt lat="38.6922420" lon="22.0723410">
<ele>1442.313599</ele>
<time>2026-08-30T18:03:38.863Z</time>
</trkpt>
<trkpt lat="38.6922720" lon="22.0722650">
<ele>1440.180054</ele>
<time>2026-08-30T18:03:38.863Z</time>
</trkpt>
<trkpt lat="38.6922840" lon="22.0722200">
<ele>1439.265625</ele>
<time>2026-08-30T18:03:38.863Z</time>
</trkpt>
<trkpt lat="38.6923010" lon="22.0721550">
<ele>1438.046387</ele>
<time>2026-08-30T18:03:38.863Z</time>
</trkpt>
<trkpt lat="38.6923000" lon="22.0721210">
<ele>1438.046387</ele>
<time>2026-08-30T18:03:38.863Z</time>
</trkpt>
<trkpt lat="38.6922990" lon="22.0720640">
<ele>1437.436768</ele>
<time>2026-08-30T18:03:38.863Z</time>
</trkpt>
<trkpt lat="38.6923010" lon="22.0720180">
<ele>1437.131958</ele>
<time>2026-08-30T18:03:38.863Z</time>
</trkpt>
<trkpt lat="38.6923090" lon="22.0719570">
<ele>1436.217651</ele>
<time>2026-08-30T18:03:38.863Z</time>
</trkpt>
<trkpt lat="38.6923260" lon="22.0718840">
<ele>1434.998413</ele>
<time>2026-08-30T18:03:38.863Z</time>
</trkpt>
<trkpt lat="38.6923460" lon="22.0718230">
<ele>1433.779175</ele>
<time>2026-08-30T18:03:38.863Z</time>
</trkpt>
<trkpt lat="38.6923510" lon="22.0717580">
<ele>1433.169556</ele>
<time>2026-08-30T18:03:38.863Z</time>
</trkpt>
<trkpt lat="38.6923560" lon="22.0716970">
<ele>1432.255249</ele>
<time>2026-08-30T18:03:38.863Z</time>
</trkpt>
<trkpt lat="38.6923280" lon="22.0716330">
<ele>1433.169556</ele>
<time>2026-08-30T18:03:38.863Z</time>
</trkpt>
<trkpt lat="38.6923440" lon="22.0715570">
<ele>1431.645630</ele>
<time>2026-08-30T18:03:38.863Z</time>
</trkpt>
<trkpt lat="38.6923790" lon="22.0715020">
<ele>1429.816772</ele>
<time>2026-08-30T18:03:38.863Z</time>
</trkpt>
<trkpt lat="38.6923800" lon="22.0713840">
<ele>1428.597656</ele>
<time>2026-08-30T18:03:38.863Z</time>
</trkpt>
<trkpt lat="38.6923580" lon="22.0712980">
<ele>1428.902344</ele>
<time>2026-08-30T18:03:38.863Z</time>
</trkpt>
<trkpt lat="38.6923950" lon="22.0712020">
<ele>1426.768799</ele>
<time>2026-08-30T18:03:38.863Z</time>
</trkpt>
<trkpt lat="38.6924080" lon="22.0710570">
<ele>1425.549561</ele>
<time>2026-08-30T18:03:38.863Z</time>
</trkpt>
<trkpt lat="38.6924450" lon="22.0709640">
<ele>1423.416016</ele>
<time>2026-08-30T18:03:38.863Z</time>
</trkpt>
<trkpt lat="38.6924840" lon="22.0708230">
<ele>1420.672852</ele>
<time>2026-08-30T18:03:38.863Z</time>
</trkpt>
<trkpt lat="38.6924890" lon="22.0707500">
<ele>1419.758423</ele>
<time>2026-08-30T18:03:38.863Z</time>
</trkpt>
<trkpt lat="38.6924880" lon="22.0706860">
<ele>1419.148804</ele>
<time>2026-08-30T18:03:38.863Z</time>
</trkpt>
<trkpt lat="38.6925340" lon="22.0705780">
<ele>1415.796021</ele>
<time>2026-08-30T18:03:38.863Z</time>
</trkpt>
<trkpt lat="38.6925890" lon="22.0704620">
<ele>1412.748047</ele>
<time>2026-08-30T18:03:38.863Z</time>
</trkpt>
<trkpt lat="38.6926250" lon="22.0703210">
<ele>1410.614380</ele>
<time>2026-08-30T18:03:38.863Z</time>
</trkpt>
<trkpt lat="38.6926590" lon="22.0702130">
<ele>1409.395142</ele>
<time>2026-08-30T18:03:38.863Z</time>
</trkpt>
<trkpt lat="38.6927170" lon="22.0701400">
<ele>1406.956787</ele>
<time>2026-08-30T18:03:38.863Z</time>
</trkpt>
<trkpt lat="38.6927970" lon="22.0700990">
<ele>1403.604004</ele>
<time>2026-08-30T18:03:38.863Z</time>
</trkpt>
<trkpt lat="38.6928520" lon="22.0699950">
<ele>1401.470459</ele>
<time>2026-08-30T18:03:38.863Z</time>
</trkpt>
<trkpt lat="38.6928240" lon="22.0699090">
<ele>1403.299194</ele>
<time>2026-08-30T18:03:38.863Z</time>
</trkpt>
<trkpt lat="38.6928170" lon="22.0698560">
<ele>1403.908813</ele>
<time>2026-08-30T18:03:38.863Z</time>
</trkpt>
<trkpt lat="38.6928780" lon="22.0697360">
<ele>1401.775146</ele>
<time>2026-08-30T18:03:38.863Z</time>
</trkpt>
<trkpt lat="38.6929090" lon="22.0696400">
<ele>1400.556030</ele>
<time>2026-08-30T18:03:38.863Z</time>
</trkpt>
<trkpt lat="38.6929570" lon="22.0694830">
<ele>1398.117554</ele>
<time>2026-08-30T18:03:38.863Z</time>
</trkpt>
<trkpt lat="38.6929600" lon="22.0693460">
<ele>1397.508057</ele>
<time>2026-08-30T18:03:38.863Z</time>
</trkpt>
<trkpt lat="38.6929580" lon="22.0692240">
<ele>1397.203247</ele>
<time>2026-08-30T18:03:38.863Z</time>
</trkpt>
<trkpt lat="38.6929330" lon="22.0691260">
<ele>1398.117554</ele>
<time>2026-08-30T18:03:38.863Z</time>
</trkpt>
<trkpt lat="38.6929100" lon="22.0689750">
<ele>1398.727173</ele>
<time>2026-08-30T18:03:38.863Z</time>
</trkpt>
<trkpt lat="38.6929230" lon="22.0688720">
<ele>1398.422363</ele>
<time>2026-08-30T18:03:38.863Z</time>
</trkpt>
<trkpt lat="38.6929420" lon="22.0687800">
<ele>1397.508057</ele>
<time>2026-08-30T18:03:38.863Z</time>
</trkpt>
<trkpt lat="38.6929710" lon="22.0687220">
<ele>1395.984009</ele>
<time>2026-08-30T18:03:38.863Z</time>
</trkpt>
<trkpt lat="38.6930110" lon="22.0686410">
<ele>1394.155151</ele>
<time>2026-08-30T18:03:38.863Z</time>
</trkpt>
<trkpt lat="38.6930960" lon="22.0685210">
<ele>1389.583252</ele>
<time>2026-08-30T18:03:38.863Z</time>
</trkpt>
<trkpt lat="38.6931060" lon="22.0684410">
<ele>1388.973633</ele>
<time>2026-08-30T18:03:38.865Z</time>
</trkpt>
<trkpt lat="38.6931240" lon="22.0683910">
<ele>1387.754395</ele>
<time>2026-08-30T18:03:38.865Z</time>
</trkpt>
<trkpt lat="38.6931610" lon="22.0683250">
<ele>1386.230347</ele>
<time>2026-08-30T18:03:38.865Z</time>
</trkpt>
<trkpt lat="38.6931980" lon="22.0682140">
<ele>1384.706421</ele>
<time>2026-08-30T18:03:38.865Z</time>
</trkpt>
<trkpt lat="38.6932230" lon="22.0681220">
<ele>1383.487183</ele>
<time>2026-08-30T18:03:38.865Z</time>
</trkpt>
<trkpt lat="38.6932670" lon="22.0680410">
<ele>1381.658447</ele>
<time>2026-08-30T18:03:38.865Z</time>
</trkpt>
<trkpt lat="38.6933090" lon="22.0679180">
<ele>1379.524780</ele>
<time>2026-08-30T18:03:38.865Z</time>
</trkpt>
<trkpt lat="38.6933290" lon="22.0678230">
<ele>1378.305542</ele>
<time>2026-08-30T18:03:38.865Z</time>
</trkpt>
<trkpt lat="38.6933600" lon="22.0677340">
<ele>1377.696045</ele>
<time>2026-08-30T18:03:38.865Z</time>
</trkpt>
<trkpt lat="38.6934190" lon="22.0676680">
<ele>1376.476807</ele>
<time>2026-08-30T18:03:38.865Z</time>
</trkpt>
<trkpt lat="38.6934730" lon="22.0675680">
<ele>1375.257568</ele>
<time>2026-08-30T18:03:38.865Z</time>
</trkpt>
<trkpt lat="38.6935160" lon="22.0674600">
<ele>1374.343140</ele>
<time>2026-08-30T18:03:38.865Z</time>
</trkpt>
<trkpt lat="38.6935480" lon="22.0674060">
<ele>1372.819214</ele>
<time>2026-08-30T18:03:38.865Z</time>
</trkpt>
<trkpt lat="38.6935740" lon="22.0673480">
<ele>1371.599976</ele>
<time>2026-08-30T18:03:38.865Z</time>
</trkpt>
<trkpt lat="38.6936230" lon="22.0672440">
<ele>1369.466431</ele>
<time>2026-08-30T18:03:38.865Z</time>
</trkpt>
<trkpt lat="38.6936310" lon="22.0671720">
<ele>1369.466431</ele>
<time>2026-08-30T18:03:38.865Z</time>
</trkpt>
<trkpt lat="38.6936350" lon="22.0670460">
<ele>1369.771240</ele>
<time>2026-08-30T18:03:38.865Z</time>
</trkpt>
<trkpt lat="38.6937070" lon="22.0669000">
<ele>1367.027954</ele>
<time>2026-08-30T18:03:38.865Z</time>
</trkpt>
<trkpt lat="38.6937200" lon="22.0667820">
<ele>1366.418457</ele>
<time>2026-08-30T18:03:38.865Z</time>
</trkpt>
<trkpt lat="38.6937240" lon="22.0666670">
<ele>1366.113647</ele>
<time>2026-08-30T18:03:38.865Z</time>
</trkpt>
<trkpt lat="38.6936720" lon="22.0665850">
<ele>1368.552002</ele>
<time>2026-08-30T18:03:38.865Z</time>
</trkpt>
<trkpt lat="38.6936380" lon="22.0665400">
<ele>1370.076050</ele>
<time>2026-08-30T18:03:38.865Z</time>
</trkpt>
<trkpt lat="38.6936370" lon="22.0664450">
<ele>1370.380859</ele>
<time>2026-08-30T18:03:38.865Z</time>
</trkpt>
<trkpt lat="38.6936840" lon="22.0664140">
<ele>1367.942383</ele>
<time>2026-08-30T18:03:38.865Z</time>
</trkpt>
<trkpt lat="38.6937370" lon="22.0663590">
<ele>1364.894409</ele>
<time>2026-08-30T18:03:38.865Z</time>
</trkpt>
<trkpt lat="38.6937590" lon="22.0662710">
<ele>1362.760742</ele>
<time>2026-08-30T18:03:38.865Z</time>
</trkpt>
<trkpt lat="38.6937780" lon="22.0661720">
<ele>1360.932007</ele>
<time>2026-08-30T18:03:38.865Z</time>
</trkpt>
<trkpt lat="38.6938030" lon="22.0660760">
<ele>1358.493652</ele>
<time>2026-08-30T18:03:38.865Z</time>
</trkpt>
<trkpt lat="38.6937990" lon="22.0660000">
<ele>1357.274414</ele>
<time>2026-08-30T18:03:38.865Z</time>
</trkpt>
<trkpt lat="38.6938280" lon="22.0659270">
<ele>1354.531250</ele>
<time>2026-08-30T18:03:38.865Z</time>
</trkpt>
<trkpt lat="38.6938440" lon="22.0658350">
<ele>1351.787964</ele>
<time>2026-08-30T18:03:38.865Z</time>
</trkpt>
<trkpt lat="38.6938450" lon="22.0657140">
<ele>1351.178345</ele>
<time>2026-08-30T18:03:38.865Z</time>
</trkpt>
<trkpt lat="38.6938400" lon="22.0656110">
<ele>1351.178345</ele>
<time>2026-08-30T18:03:38.865Z</time>
</trkpt>
<trkpt lat="38.6938650" lon="22.0654660">
<ele>1349.349609</ele>
<time>2026-08-30T18:03:38.865Z</time>
</trkpt>
<trkpt lat="38.6938820" lon="22.0654010">
<ele>1348.435181</ele>
<time>2026-08-30T18:03:38.865Z</time>
</trkpt>
<trkpt lat="38.6939160" lon="22.0653390">
<ele>1346.606445</ele>
<time>2026-08-30T18:03:38.865Z</time>
</trkpt>
<trkpt lat="38.6939660" lon="22.0652580">
<ele>1343.863159</ele>
<time>2026-08-30T18:03:38.865Z</time>
</trkpt>
<trkpt lat="38.6940150" lon="22.0651650">
<ele>1341.119995</ele>
<time>2026-08-30T18:03:38.865Z</time>
</trkpt>
<trkpt lat="38.6940600" lon="22.0650310">
<ele>1338.072021</ele>
<time>2026-08-30T18:03:38.865Z</time>
</trkpt>
<trkpt lat="38.6941190" lon="22.0649680">
<ele>1335.024048</ele>
<time>2026-08-30T18:03:38.865Z</time>
</trkpt>
<trkpt lat="38.6941690" lon="22.0649250">
<ele>1332.585571</ele>
<time>2026-08-30T18:03:38.865Z</time>
</trkpt>
<trkpt lat="38.6942410" lon="22.0647940">
<ele>1329.232788</ele>
<time>2026-08-30T18:03:38.865Z</time>
</trkpt>
<trkpt lat="38.6943000" lon="22.0647240">
<ele>1327.099243</ele>
<time>2026-08-30T18:03:38.865Z</time>
</trkpt>
<trkpt lat="38.6943580" lon="22.0646240">
<ele>1325.880005</ele>
<time>2026-08-30T18:03:38.865Z</time>
</trkpt>
<trkpt lat="38.6944090" lon="22.0644740">
<ele>1325.270386</ele>
<time>2026-08-30T18:03:38.865Z</time>
</trkpt>
<trkpt lat="38.6944240" lon="22.0643370">
<ele>1326.489624</ele>
<time>2026-08-30T18:03:38.865Z</time>
</trkpt>
<trkpt lat="38.6944700" lon="22.0642330">
<ele>1325.880005</ele>
<time>2026-08-30T18:03:38.865Z</time>
</trkpt>
<trkpt lat="38.6945080" lon="22.0641560">
<ele>1325.270386</ele>
<time>2026-08-30T18:03:38.865Z</time>
</trkpt>
<trkpt lat="38.6945990" lon="22.0640920">
<ele>1321.612793</ele>
<time>2026-08-30T18:03:38.865Z</time>
</trkpt>
<trkpt lat="38.6946250" lon="22.0640420">
<ele>1321.003174</ele>
<time>2026-08-30T18:03:38.865Z</time>
</trkpt>
<trkpt lat="38.6946750" lon="22.0640260">
<ele>1318.869629</ele>
<time>2026-08-30T18:03:38.865Z</time>
</trkpt>
<trkpt lat="38.6947260" lon="22.0640200">
<ele>1316.431152</ele>
<time>2026-08-30T18:03:38.865Z</time>
</trkpt>
<trkpt lat="38.6947910" lon="22.0639690">
<ele>1314.602417</ele>
<time>2026-08-30T18:03:38.865Z</time>
</trkpt>
<trkpt lat="38.6948410" lon="22.0639180">
<ele>1313.383179</ele>
<time>2026-08-30T18:03:38.865Z</time>
</trkpt>
<trkpt lat="38.6949080" lon="22.0638370">
<ele>1311.859253</ele>
<time>2026-08-30T18:03:38.865Z</time>
</trkpt>
<trkpt lat="38.6949760" lon="22.0637970">
<ele>1310.030396</ele>
<time>2026-08-30T18:03:38.865Z</time>
</trkpt>
<trkpt lat="38.6950230" lon="22.0637730">
<ele>1308.811157</ele>
<time>2026-08-30T18:03:38.865Z</time>
</trkpt>
<trkpt lat="38.6951750" lon="22.0635790">
<ele>1307.896851</ele>
<time>2026-08-30T18:03:38.865Z</time>
</trkpt>
<trkpt lat="38.6952130" lon="22.0635280">
<ele>1306.982422</ele>
<time>2026-08-30T18:03:38.865Z</time>
</trkpt>
<trkpt lat="38.6952530" lon="22.0634700">
<ele>1306.067993</ele>
<time>2026-08-30T18:03:38.865Z</time>
</trkpt>
<trkpt lat="38.6952940" lon="22.0634160">
<ele>1304.848755</ele>
<time>2026-08-30T18:03:38.865Z</time>
</trkpt>
<trkpt lat="38.6953120" lon="22.0633920">
<ele>1304.239258</ele>
<time>2026-08-30T18:03:38.865Z</time>
</trkpt>
<trkpt lat="38.6953260" lon="22.0633460">
<ele>1303.934448</ele>
<time>2026-08-30T18:03:38.865Z</time>
</trkpt>
<trkpt lat="38.6953190" lon="22.0633120">
<ele>1303.934448</ele>
<time>2026-08-30T18:03:38.865Z</time>
</trkpt>
<trkpt lat="38.6952800" lon="22.0632940">
<ele>1304.848755</ele>
<time>2026-08-30T18:03:38.865Z</time>
</trkpt>
<trkpt lat="38.6952450" lon="22.0633220">
<ele>1305.763184</ele>
<time>2026-08-30T18:03:38.865Z</time>
</trkpt>
<trkpt lat="38.6952210" lon="22.0632880">
<ele>1306.067993</ele>
<time>2026-08-30T18:03:38.865Z</time>
</trkpt>
<trkpt lat="38.6951890" lon="22.0632020">
<ele>1306.067993</ele>
<time>2026-08-30T18:03:38.865Z</time>
</trkpt>
<trkpt lat="38.6951790" lon="22.0631110">
<ele>1305.763184</ele>
<time>2026-08-30T18:03:38.865Z</time>
</trkpt>
<trkpt lat="38.6952300" lon="22.0629800">
<ele>1304.239258</ele>
<time>2026-08-30T18:03:38.865Z</time>
</trkpt>
<trkpt lat="38.6952650" lon="22.0629370">
<ele>1303.324829</ele>
<time>2026-08-30T18:03:38.865Z</time>
</trkpt>
<trkpt lat="38.6953030" lon="22.0628680">
<ele>1302.410400</ele>
<time>2026-08-30T18:03:38.865Z</time>
</trkpt>
<trkpt lat="38.6953250" lon="22.0627870">
<ele>1301.800781</ele>
<time>2026-08-30T18:03:38.865Z</time>
</trkpt>
<trkpt lat="38.6953660" lon="22.0627250">
<ele>1301.800781</ele>
<time>2026-08-30T18:03:38.865Z</time>
</trkpt>
<trkpt lat="38.6954220" lon="22.0627010">
<ele>1301.495972</ele>
<time>2026-08-30T18:03:38.865Z</time>
</trkpt>
<trkpt lat="38.6955280" lon="22.0627520">
<ele>1300.276855</ele>
<time>2026-08-30T18:03:38.865Z</time>
</trkpt>
<trkpt lat="38.6955540" lon="22.0627360">
<ele>1300.276855</ele>
<time>2026-08-30T18:03:38.865Z</time>
</trkpt>
<trkpt lat="38.6955890" lon="22.0627080">
<ele>1299.362427</ele>
<time>2026-08-30T18:03:38.865Z</time>
</trkpt>
<trkpt lat="38.6956270" lon="22.0626350">
<ele>1299.057617</ele>
<time>2026-08-30T18:03:38.865Z</time>
</trkpt>
<trkpt lat="38.6956850" lon="22.0625380">
<ele>1298.143188</ele>
<time>2026-08-30T18:03:38.865Z</time>
</trkpt>
<trkpt lat="38.6957310" lon="22.0624460">
<ele>1296.923950</ele>
<time>2026-08-30T18:03:38.865Z</time>
</trkpt>
<trkpt lat="38.6957860" lon="22.0623450">
<ele>1295.400024</ele>
<time>2026-08-30T18:03:38.865Z</time>
</trkpt>
<trkpt lat="38.6958270" lon="22.0622870">
<ele>1294.180786</ele>
<time>2026-08-30T18:03:38.865Z</time>
</trkpt>
<trkpt lat="38.6958800" lon="22.0622670">
<ele>1292.352051</ele>
<time>2026-08-30T18:03:38.865Z</time>
</trkpt>
<trkpt lat="38.6959060" lon="22.0621940">
<ele>1291.132813</ele>
<time>2026-08-30T18:03:38.865Z</time>
</trkpt>
<trkpt lat="38.6959040" lon="22.0620950">
<ele>1290.523193</ele>
<time>2026-08-30T18:03:38.865Z</time>
</trkpt>
<trkpt lat="38.6959150" lon="22.0620070">
<ele>1289.608765</ele>
<time>2026-08-30T18:03:38.865Z</time>
</trkpt>
<trkpt lat="38.6959640" lon="22.0619490">
<ele>1288.084839</ele>
<time>2026-08-30T18:03:38.865Z</time>
</trkpt>
<trkpt lat="38.6960260" lon="22.0619170">
<ele>1286.255981</ele>
<time>2026-08-30T18:03:38.865Z</time>
</trkpt>
<trkpt lat="38.6960400" lon="22.0618250">
<ele>1284.427246</ele>
<time>2026-08-30T18:03:38.865Z</time>
</trkpt>
<trkpt lat="38.6960030" lon="22.0617730">
<ele>1284.122437</ele>
<time>2026-08-30T18:03:38.865Z</time>
</trkpt>
<trkpt lat="38.6959810" lon="22.0616780">
<ele>1282.903198</ele>
<time>2026-08-30T18:03:38.867Z</time>
</trkpt>
<trkpt lat="38.6959790" lon="22.0616100">
<ele>1281.074341</ele>
<time>2026-08-30T18:03:38.867Z</time>
</trkpt>
<trkpt lat="38.6959870" lon="22.0615450">
<ele>1278.940796</ele>
<time>2026-08-30T18:03:38.867Z</time>
</trkpt>
<trkpt lat="38.6959830" lon="22.0614730">
<ele>1276.807251</ele>
<time>2026-08-30T18:03:38.867Z</time>
</trkpt>
<trkpt lat="38.6959460" lon="22.0613640">
<ele>1274.063965</ele>
<time>2026-08-30T18:03:38.867Z</time>
</trkpt>
<trkpt lat="38.6959210" lon="22.0613300">
<ele>1273.454346</ele>
<time>2026-08-30T18:03:38.867Z</time>
</trkpt>
<trkpt lat="38.6959130" lon="22.0611930">
<ele>1268.882446</ele>
<time>2026-08-30T18:03:38.867Z</time>
</trkpt>
<trkpt lat="38.6959460" lon="22.0610520">
<ele>1263.700806</ele>
<time>2026-08-30T18:03:38.867Z</time>
</trkpt>
<trkpt lat="38.6960020" lon="22.0609930">
<ele>1260.957642</ele>
<time>2026-08-30T18:03:38.867Z</time>
</trkpt>
<trkpt lat="38.6960710" lon="22.0610070">
<ele>1260.043213</ele>
<time>2026-08-30T18:03:38.867Z</time>
</trkpt>
<trkpt lat="38.6961100" lon="22.0610630">
<ele>1260.652832</ele>
<time>2026-08-30T18:03:38.867Z</time>
</trkpt>
<trkpt lat="38.6961680" lon="22.0611140">
<ele>1260.348022</ele>
<time>2026-08-30T18:03:38.867Z</time>
</trkpt>
<trkpt lat="38.6962100" lon="22.0611210">
<ele>1259.433594</ele>
<time>2026-08-30T18:03:38.867Z</time>
</trkpt>
<trkpt lat="38.6962920" lon="22.0610620">
<ele>1255.776001</ele>
<time>2026-08-30T18:03:38.867Z</time>
</trkpt>
<trkpt lat="38.6963390" lon="22.0609840">
<ele>1253.337646</ele>
<time>2026-08-30T18:03:38.867Z</time>
</trkpt>
<trkpt lat="38.6963680" lon="22.0609530">
<ele>1252.118408</ele>
<time>2026-08-30T18:03:38.867Z</time>
</trkpt>
<trkpt lat="38.6964490" lon="22.0609700">
<ele>1250.594360</ele>
<time>2026-08-30T18:03:38.867Z</time>
</trkpt>
<trkpt lat="38.6965110" lon="22.0609800">
<ele>1249.070435</ele>
<time>2026-08-30T18:03:38.867Z</time>
</trkpt>
<trkpt lat="38.6965660" lon="22.0608560">
<ele>1246.327148</ele>
<time>2026-08-30T18:03:38.867Z</time>
</trkpt>
<trkpt lat="38.6965870" lon="22.0607040">
<ele>1242.974365</ele>
<time>2026-08-30T18:03:38.867Z</time>
</trkpt>
<trkpt lat="38.6965620" lon="22.0606090">
<ele>1241.450439</ele>
<time>2026-08-30T18:03:38.867Z</time>
</trkpt>
<trkpt lat="38.6965250" lon="22.0605380">
<ele>1239.926392</ele>
<time>2026-08-30T18:03:38.867Z</time>
</trkpt>
<trkpt lat="38.6965300" lon="22.0604660">
<ele>1237.792847</ele>
<time>2026-08-30T18:03:38.867Z</time>
</trkpt>
<trkpt lat="38.6965340" lon="22.0603820">
<ele>1235.354370</ele>
<time>2026-08-30T18:03:38.867Z</time>
</trkpt>
<trkpt lat="38.6964910" lon="22.0603180">
<ele>1234.439941</ele>
<time>2026-08-30T18:03:38.867Z</time>
</trkpt>
<trkpt lat="38.6964510" lon="22.0602430">
<ele>1232.916016</ele>
<time>2026-08-30T18:03:38.867Z</time>
</trkpt>
<trkpt lat="38.6964330" lon="22.0601870">
<ele>1231.391968</ele>
<time>2026-08-30T18:03:38.867Z</time>
</trkpt>
<trkpt lat="38.6964480" lon="22.0600190">
<ele>1225.905640</ele>
<time>2026-08-30T18:03:38.867Z</time>
</trkpt>
<trkpt lat="38.6964670" lon="22.0599120">
<ele>1222.552856</ele>
<time>2026-08-30T18:03:38.867Z</time>
</trkpt>
<trkpt lat="38.6964860" lon="22.0598010">
<ele>1219.504761</ele>
<time>2026-08-30T18:03:38.867Z</time>
</trkpt>
<trkpt lat="38.6965050" lon="22.0597130">
<ele>1216.761597</ele>
<time>2026-08-30T18:03:38.867Z</time>
</trkpt>
<trkpt lat="38.6965120" lon="22.0595800">
<ele>1213.713623</ele>
<time>2026-08-30T18:03:38.867Z</time>
</trkpt>
<trkpt lat="38.6965460" lon="22.0594540">
<ele>1210.665649</ele>
<time>2026-08-30T18:03:38.867Z</time>
</trkpt>
<trkpt lat="38.6965750" lon="22.0594260">
<ele>1210.056030</ele>
<time>2026-08-30T18:03:38.867Z</time>
</trkpt>
<trkpt lat="38.6966300" lon="22.0593370">
<ele>1208.531982</ele>
<time>2026-08-30T18:03:38.867Z</time>
</trkpt>
<trkpt lat="38.6966440" lon="22.0592610">
<ele>1206.703247</ele>
<time>2026-08-30T18:03:38.867Z</time>
</trkpt>
<trkpt lat="38.6966880" lon="22.0592290">
<ele>1206.093628</ele>
<time>2026-08-30T18:03:38.867Z</time>
</trkpt>
<trkpt lat="38.6967350" lon="22.0591860">
<ele>1204.569580</ele>
<time>2026-08-30T18:03:38.867Z</time>
</trkpt>
<trkpt lat="38.6967940" lon="22.0591390">
<ele>1203.045654</ele>
<time>2026-08-30T18:03:38.867Z</time>
</trkpt>
<trkpt lat="38.6968550" lon="22.0590800">
<ele>1201.216797</ele>
<time>2026-08-30T18:03:38.867Z</time>
</trkpt>
<trkpt lat="38.6968980" lon="22.0589760">
<ele>1199.083252</ele>
<time>2026-08-30T18:03:38.867Z</time>
</trkpt>
<trkpt lat="38.6969140" lon="22.0588620">
<ele>1197.254395</ele>
<time>2026-08-30T18:03:38.867Z</time>
</trkpt>
<trkpt lat="38.6969060" lon="22.0587210">
<ele>1193.901611</ele>
<time>2026-08-30T18:03:38.867Z</time>
</trkpt>
<trkpt lat="38.6969340" lon="22.0586220">
<ele>1192.072754</ele>
<time>2026-08-30T18:03:38.867Z</time>
</trkpt>
<trkpt lat="38.6970060" lon="22.0586160">
<ele>1192.377563</ele>
<time>2026-08-30T18:03:38.867Z</time>
</trkpt>
<trkpt lat="38.6970680" lon="22.0585990">
<ele>1192.682373</ele>
<time>2026-08-30T18:03:38.867Z</time>
</trkpt>
<trkpt lat="38.6971140" lon="22.0585100">
<ele>1190.853638</ele>
<time>2026-08-30T18:03:38.867Z</time>
</trkpt>
<trkpt lat="38.6971580" lon="22.0584560">
<ele>1190.244019</ele>
<time>2026-08-30T18:03:38.867Z</time>
</trkpt>
<trkpt lat="38.6972450" lon="22.0583360">
<ele>1187.500854</ele>
<time>2026-08-30T18:03:38.867Z</time>
</trkpt>
<trkpt lat="38.6972950" lon="22.0582660">
<ele>1184.452759</ele>
<time>2026-08-30T18:03:38.867Z</time>
</trkpt>
<trkpt lat="38.6973530" lon="22.0582070">
<ele>1182.014404</ele>
<time>2026-08-30T18:03:38.867Z</time>
</trkpt>
<trkpt lat="38.6973940" lon="22.0581260">
<ele>1178.966431</ele>
<time>2026-08-30T18:03:38.867Z</time>
</trkpt>
<trkpt lat="38.6974390" lon="22.0580000">
<ele>1174.699219</ele>
<time>2026-08-30T18:03:38.867Z</time>
</trkpt>
<trkpt lat="38.6974820" lon="22.0578810">
<ele>1170.432007</ele>
<time>2026-08-30T18:03:38.867Z</time>
</trkpt>
<trkpt lat="38.6975230" lon="22.0578340">
<ele>1168.298340</ele>
<time>2026-08-30T18:03:38.867Z</time>
</trkpt>
<trkpt lat="38.6975620" lon="22.0578250">
<ele>1167.384033</ele>
<time>2026-08-30T18:03:38.867Z</time>
</trkpt>
<trkpt lat="38.6976210" lon="22.0578390">
<ele>1167.079224</ele>
<time>2026-08-30T18:03:38.867Z</time>
</trkpt>
<trkpt lat="38.6976720" lon="22.0578530">
<ele>1166.469604</ele>
<time>2026-08-30T18:03:38.867Z</time>
</trkpt>
<trkpt lat="38.6977340" lon="22.0578130">
<ele>1164.640747</ele>
<time>2026-08-30T18:03:38.867Z</time>
</trkpt>
<trkpt lat="38.6978150" lon="22.0578070">
<ele>1162.812012</ele>
<time>2026-08-30T18:03:38.867Z</time>
</trkpt>
<trkpt lat="38.6978690" lon="22.0578400">
<ele>1162.507202</ele>
<time>2026-08-30T18:03:38.867Z</time>
</trkpt>
<trkpt lat="38.6979380" lon="22.0578650">
<ele>1161.287964</ele>
<time>2026-08-30T18:03:38.867Z</time>
</trkpt>
<trkpt lat="38.6980060" lon="22.0578170">
<ele>1159.154419</ele>
<time>2026-08-30T18:03:38.867Z</time>
</trkpt>
<trkpt lat="38.6980710" lon="22.0578270">
<ele>1157.935181</ele>
<time>2026-08-30T18:03:38.867Z</time>
</trkpt>
<trkpt lat="38.6980890" lon="22.0578450">
<ele>1157.630371</ele>
<time>2026-08-30T18:03:38.867Z</time>
</trkpt>
<trkpt lat="38.6981250" lon="22.0578210">
<ele>1156.411255</ele>
<time>2026-08-30T18:03:38.867Z</time>
</trkpt>
<trkpt lat="38.6981610" lon="22.0578320">
<ele>1155.192017</ele>
<time>2026-08-30T18:03:38.867Z</time>
</trkpt>
<trkpt lat="38.6981680" lon="22.0578850">
<ele>1155.496826</ele>
<time>2026-08-30T18:03:38.867Z</time>
</trkpt>
<trkpt lat="38.6981660" lon="22.0579530">
<ele>1155.801636</ele>
<time>2026-08-30T18:03:38.867Z</time>
</trkpt>
<trkpt lat="38.6982170" lon="22.0580130">
<ele>1154.582397</ele>
<time>2026-08-30T18:03:38.867Z</time>
</trkpt>
<trkpt lat="38.6982620" lon="22.0580270">
<ele>1153.058350</ele>
<time>2026-08-30T18:03:38.867Z</time>
</trkpt>
<trkpt lat="38.6983070" lon="22.0579990">
<ele>1151.534424</ele>
<time>2026-08-30T18:03:38.867Z</time>
</trkpt>
<trkpt lat="38.6983330" lon="22.0579570">
<ele>1150.619995</ele>
<time>2026-08-30T18:03:38.867Z</time>
</trkpt>
<trkpt lat="38.6983750" lon="22.0579710">
<ele>1149.400757</ele>
<time>2026-08-30T18:03:38.867Z</time>
</trkpt>
<trkpt lat="38.6984090" lon="22.0578970">
<ele>1147.876831</ele>
<time>2026-08-30T18:03:38.867Z</time>
</trkpt>
<trkpt lat="38.6984230" lon="22.0578550">
<ele>1147.572021</ele>
<time>2026-08-30T18:03:38.867Z</time>
</trkpt>
<trkpt lat="38.6984890" lon="22.0578530">
<ele>1145.438354</ele>
<time>2026-08-30T18:03:38.867Z</time>
</trkpt>
<trkpt lat="38.6985360" lon="22.0578220">
<ele>1144.219238</ele>
<time>2026-08-30T18:03:38.867Z</time>
</trkpt>
<trkpt lat="38.6985320" lon="22.0577570">
<ele>1143.914429</ele>
<time>2026-08-30T18:03:38.867Z</time>
</trkpt>
<trkpt lat="38.6984780" lon="22.0577210">
<ele>1144.524048</ele>
<time>2026-08-30T18:03:38.867Z</time>
</trkpt>
<trkpt lat="38.6984240" lon="22.0577110">
<ele>1146.047974</ele>
<time>2026-08-30T18:03:38.867Z</time>
</trkpt>
<trkpt lat="38.6983700" lon="22.0576780">
<ele>1146.352783</ele>
<time>2026-08-30T18:03:38.867Z</time>
</trkpt>
<trkpt lat="38.6983300" lon="22.0576220">
<ele>1146.047974</ele>
<time>2026-08-30T18:03:38.867Z</time>
</trkpt>
<trkpt lat="38.6983050" lon="22.0575660">
<ele>1145.438354</ele>
<time>2026-08-30T18:03:38.867Z</time>
</trkpt>
<trkpt lat="38.6982720" lon="22.0575090">
<ele>1145.133545</ele>
<time>2026-08-30T18:03:38.867Z</time>
</trkpt>
<trkpt lat="38.6982320" lon="22.0574570">
<ele>1144.524048</ele>
<time>2026-08-30T18:03:38.867Z</time>
</trkpt>
<trkpt lat="38.6981840" lon="22.0574170">
<ele>1144.219238</ele>
<time>2026-08-30T18:03:38.867Z</time>
</trkpt>
<trkpt lat="38.6981580" lon="22.0573380">
<ele>1141.780762</ele>
<time>2026-08-30T18:03:38.867Z</time>
</trkpt>
<trkpt lat="38.6981240" lon="22.0572590">
<ele>1139.037598</ele>
<time>2026-08-30T18:03:38.867Z</time>
</trkpt>
<trkpt lat="38.6980310" lon="22.0572160">
<ele>1138.123169</ele>
<time>2026-08-30T18:03:38.867Z</time>
</trkpt>
<trkpt lat="38.6979960" lon="22.0572390">
<ele>1139.647217</ele>
<time>2026-08-30T18:03:38.869Z</time>
</trkpt>
<trkpt lat="38.6979670" lon="22.0572780">
<ele>1141.780762</ele>
<time>2026-08-30T18:03:38.869Z</time>
</trkpt>
<trkpt lat="38.6979310" lon="22.0572830">
<ele>1142.695190</ele>
<time>2026-08-30T18:03:38.869Z</time>
</trkpt>
<trkpt lat="38.6978830" lon="22.0572610">
<ele>1142.390381</ele>
<time>2026-08-30T18:03:38.869Z</time>
</trkpt>
<trkpt lat="38.6978380" lon="22.0572470">
<ele>1142.390381</ele>
<time>2026-08-30T18:03:38.869Z</time>
</trkpt>
<trkpt lat="38.6978030" lon="22.0572640">
<ele>1143.609619</ele>
<time>2026-08-30T18:03:38.869Z</time>
</trkpt>
<trkpt lat="38.6977820" lon="22.0572760">
<ele>1144.524048</ele>
<time>2026-08-30T18:03:38.869Z</time>
</trkpt>
<trkpt lat="38.6977610" lon="22.0572690">
<ele>1144.219238</ele>
<time>2026-08-30T18:03:38.869Z</time>
</trkpt>
<trkpt lat="38.6977320" lon="22.0573150">
<ele>1146.657593</ele>
<time>2026-08-30T18:03:38.869Z</time>
</trkpt>
<trkpt lat="38.6977110" lon="22.0573120">
<ele>1146.352783</ele>
<time>2026-08-30T18:03:38.869Z</time>
</trkpt>
<trkpt lat="38.6976780" lon="22.0572780">
<ele>1145.133545</ele>
<time>2026-08-30T18:03:38.869Z</time>
</trkpt>
<trkpt lat="38.6976300" lon="22.0572910">
<ele>1146.047974</ele>
<time>2026-08-30T18:03:38.869Z</time>
</trkpt>
<trkpt lat="38.6975920" lon="22.0573260">
<ele>1147.876831</ele>
<time>2026-08-30T18:03:38.869Z</time>
</trkpt>
<trkpt lat="38.6975470" lon="22.0573240">
<ele>1147.876831</ele>
<time>2026-08-30T18:03:38.869Z</time>
</trkpt>
<trkpt lat="38.6975080" lon="22.0572830">
<ele>1146.047974</ele>
<time>2026-08-30T18:03:38.869Z</time>
</trkpt>
<trkpt lat="38.6974280" lon="22.0573040">
<ele>1147.267212</ele>
<time>2026-08-30T18:03:38.869Z</time>
</trkpt>
<trkpt lat="38.6973730" lon="22.0572600">
<ele>1145.133545</ele>
<time>2026-08-30T18:03:38.869Z</time>
</trkpt>
<trkpt lat="38.6973200" lon="22.0572500">
<ele>1144.828857</ele>
<time>2026-08-30T18:03:38.869Z</time>
</trkpt>
<trkpt lat="38.6972870" lon="22.0572850">
<ele>1146.352783</ele>
<time>2026-08-30T18:03:38.869Z</time>
</trkpt>
<trkpt lat="38.6972520" lon="22.0572940">
<ele>1146.657593</ele>
<time>2026-08-30T18:03:38.869Z</time>
</trkpt>
<trkpt lat="38.6972040" lon="22.0572910">
<ele>1146.657593</ele>
<time>2026-08-30T18:03:38.869Z</time>
</trkpt>
<trkpt lat="38.6971800" lon="22.0572540">
<ele>1145.133545</ele>
<time>2026-08-30T18:03:38.869Z</time>
</trkpt>
<trkpt lat="38.6971520" lon="22.0571980">
<ele>1143.000000</ele>
<time>2026-08-30T18:03:38.869Z</time>
</trkpt>
<trkpt lat="38.6970980" lon="22.0571570">
<ele>1141.780762</ele>
<time>2026-08-30T18:03:38.869Z</time>
</trkpt>
<trkpt lat="38.6970400" lon="22.0571130">
<ele>1140.561646</ele>
<time>2026-08-30T18:03:38.869Z</time>
</trkpt>
<trkpt lat="38.6970210" lon="22.0570490">
<ele>1139.037598</ele>
<time>2026-08-30T18:03:38.869Z</time>
</trkpt>
<trkpt lat="38.6969740" lon="22.0570690">
<ele>1139.647217</ele>
<time>2026-08-30T18:03:38.869Z</time>
</trkpt>
<trkpt lat="38.6969110" lon="22.0570750">
<ele>1140.256836</ele>
<time>2026-08-30T18:03:38.869Z</time>
</trkpt>
<trkpt lat="38.6968700" lon="22.0570870">
<ele>1140.866455</ele>
<time>2026-08-30T18:03:38.869Z</time>
</trkpt>
<trkpt lat="38.6968380" lon="22.0571380">
<ele>1142.695190</ele>
<time>2026-08-30T18:03:38.869Z</time>
</trkpt>
<trkpt lat="38.6968270" lon="22.0572100">
<ele>1144.524048</ele>
<time>2026-08-30T18:03:38.869Z</time>
</trkpt>
<trkpt lat="38.6968340" lon="22.0572820">
<ele>1146.657593</ele>
<time>2026-08-30T18:03:38.869Z</time>
</trkpt>
<trkpt lat="38.6968060" lon="22.0573440">
<ele>1148.791260</ele>
<time>2026-08-30T18:03:38.869Z</time>
</trkpt>
<trkpt lat="38.6967670" lon="22.0573640">
<ele>1150.010376</ele>
<time>2026-08-30T18:03:38.869Z</time>
</trkpt>
<trkpt lat="38.6967460" lon="22.0573640">
<ele>1150.315186</ele>
<time>2026-08-30T18:03:38.869Z</time>
</trkpt>
<trkpt lat="38.6967320" lon="22.0573880">
<ele>1151.229614</ele>
<time>2026-08-30T18:03:38.869Z</time>
</trkpt>
<trkpt lat="38.6967110" lon="22.0573960">
<ele>1151.534424</ele>
<time>2026-08-30T18:03:38.869Z</time>
</trkpt>
<trkpt lat="38.6966870" lon="22.0573580">
<ele>1150.619995</ele>
<time>2026-08-30T18:03:38.869Z</time>
</trkpt>
<trkpt lat="38.6966800" lon="22.0572940">
<ele>1148.791260</ele>
<time>2026-08-30T18:03:38.869Z</time>
</trkpt>
<trkpt lat="38.6966490" lon="22.0572420">
<ele>1147.876831</ele>
<time>2026-08-30T18:03:38.869Z</time>
</trkpt>
<trkpt lat="38.6966450" lon="22.0572000">
<ele>1146.962402</ele>
<time>2026-08-30T18:03:38.869Z</time>
</trkpt>
<trkpt lat="38.6966650" lon="22.0571500">
<ele>1145.133545</ele>
<time>2026-08-30T18:03:38.869Z</time>
</trkpt>
<trkpt lat="38.6966340" lon="22.0570630">
<ele>1143.914429</ele>
<time>2026-08-30T18:03:38.869Z</time>
</trkpt>
<trkpt lat="38.6965970" lon="22.0570110">
<ele>1143.914429</ele>
<time>2026-08-30T18:03:38.869Z</time>
</trkpt>
<trkpt lat="38.6965730" lon="22.0569550">
<ele>1143.609619</ele>
<time>2026-08-30T18:03:38.869Z</time>
</trkpt>
<trkpt lat="38.6965740" lon="22.0568790">
<ele>1142.390381</ele>
<time>2026-08-30T18:03:38.869Z</time>
</trkpt>
<trkpt lat="38.6965850" lon="22.0568210">
<ele>1141.171143</ele>
<time>2026-08-30T18:03:38.869Z</time>
</trkpt>
<trkpt lat="38.6965720" lon="22.0567490">
<ele>1140.866455</ele>
<time>2026-08-30T18:03:38.869Z</time>
</trkpt>
<trkpt lat="38.6965350" lon="22.0566890">
<ele>1141.475952</ele>
<time>2026-08-30T18:03:38.869Z</time>
</trkpt>
<trkpt lat="38.6965080" lon="22.0566520">
<ele>1142.085571</ele>
<time>2026-08-30T18:03:38.869Z</time>
</trkpt>
<trkpt lat="38.6964770" lon="22.0565850">
<ele>1142.085571</ele>
<time>2026-08-30T18:03:38.869Z</time>
</trkpt>
<trkpt lat="38.6964620" lon="22.0565510">
<ele>1141.780762</ele>
<time>2026-08-30T18:03:38.869Z</time>
</trkpt>
<trkpt lat="38.6964380" lon="22.0565320">
<ele>1142.390381</ele>
<time>2026-08-30T18:03:38.869Z</time>
</trkpt>
<trkpt lat="38.6964490" lon="22.0564940">
<ele>1141.171143</ele>
<time>2026-08-30T18:03:38.869Z</time>
</trkpt>
<trkpt lat="38.6964430" lon="22.0564750">
<ele>1141.171143</ele>
<time>2026-08-30T18:03:38.869Z</time>
</trkpt>
<trkpt lat="38.6964130" lon="22.0564650">
<ele>1141.780762</ele>
<time>2026-08-30T18:03:38.869Z</time>
</trkpt>
<trkpt lat="38.6964080" lon="22.0563960">
<ele>1140.561646</ele>
<time>2026-08-30T18:03:38.869Z</time>
</trkpt>
<trkpt lat="38.6963960" lon="22.0563700">
<ele>1140.561646</ele>
<time>2026-08-30T18:03:38.869Z</time>
</trkpt>
<trkpt lat="38.6963830" lon="22.0563280">
<ele>1140.256836</ele>
<time>2026-08-30T18:03:38.869Z</time>
</trkpt>
<trkpt lat="38.6963740" lon="22.0562790">
<ele>1139.952026</ele>
<time>2026-08-30T18:03:38.869Z</time>
</trkpt>
<trkpt lat="38.6963410" lon="22.0562610">
<ele>1140.561646</ele>
<time>2026-08-30T18:03:38.869Z</time>
</trkpt>
<trkpt lat="38.6963050" lon="22.0562580">
<ele>1141.475952</ele>
<time>2026-08-30T18:03:38.869Z</time>
</trkpt>
<trkpt lat="38.6962690" lon="22.0562250">
<ele>1142.085571</ele>
<time>2026-08-30T18:03:38.869Z</time>
</trkpt>
<trkpt lat="38.6962390" lon="22.0562150">
<ele>1142.695190</ele>
<time>2026-08-30T18:03:38.869Z</time>
</trkpt>
<trkpt lat="38.6961990" lon="22.0561970">
<ele>1143.304810</ele>
<time>2026-08-30T18:03:38.869Z</time>
</trkpt>
<trkpt lat="38.6961720" lon="22.0561630">
<ele>1143.609619</ele>
<time>2026-08-30T18:03:38.869Z</time>
</trkpt>
<trkpt lat="38.6961600" lon="22.0561220">
<ele>1143.000000</ele>
<time>2026-08-30T18:03:38.869Z</time>
</trkpt>
<trkpt lat="38.6961520" lon="22.0560500">
<ele>1142.390381</ele>
<time>2026-08-30T18:03:38.869Z</time>
</trkpt>
<trkpt lat="38.6961370" lon="22.0560160">
<ele>1142.695190</ele>
<time>2026-08-30T18:03:38.869Z</time>
</trkpt>
<trkpt lat="38.6960890" lon="22.0559940">
<ele>1143.914429</ele>
<time>2026-08-30T18:03:38.869Z</time>
</trkpt>
<trkpt lat="38.6960470" lon="22.0559880">
<ele>1145.133545</ele>
<time>2026-08-30T18:03:38.869Z</time>
</trkpt>
<trkpt lat="38.6960020" lon="22.0559620">
<ele>1146.352783</ele>
<time>2026-08-30T18:03:38.869Z</time>
</trkpt>
<trkpt lat="38.6959840" lon="22.0559320">
<ele>1146.657593</ele>
<time>2026-08-30T18:03:38.869Z</time>
</trkpt>
<trkpt lat="38.6959410" lon="22.0559070">
<ele>1147.876831</ele>
<time>2026-08-30T18:03:38.869Z</time>
</trkpt>
<trkpt lat="38.6958900" lon="22.0558890">
<ele>1149.705566</ele>
<time>2026-08-30T18:03:38.869Z</time>
</trkpt>
<trkpt lat="38.6958630" lon="22.0558250">
<ele>1150.010376</ele>
<time>2026-08-30T18:03:38.869Z</time>
</trkpt>
<trkpt lat="38.6958620" lon="22.0557950">
<ele>1150.315186</ele>
<time>2026-08-30T18:03:38.869Z</time>
</trkpt>
<trkpt lat="38.6958700" lon="22.0557260">
<ele>1150.619995</ele>
<time>2026-08-30T18:03:38.869Z</time>
</trkpt>
<trkpt lat="38.6958970" lon="22.0557640">
<ele>1149.400757</ele>
<time>2026-08-30T18:03:38.869Z</time>
</trkpt>
<trkpt lat="38.6959330" lon="22.0557700">
<ele>1148.181641</ele>
<time>2026-08-30T18:03:38.869Z</time>
</trkpt>
<trkpt lat="38.6959860" lon="22.0557540">
<ele>1146.352783</ele>
<time>2026-08-30T18:03:38.869Z</time>
</trkpt>
<trkpt lat="38.6960190" lon="22.0557220">
<ele>1145.438354</ele>
<time>2026-08-30T18:03:38.869Z</time>
</trkpt>
<trkpt lat="38.6960480" lon="22.0556950">
<ele>1144.219238</ele>
<time>2026-08-30T18:03:38.869Z</time>
</trkpt>
<trkpt lat="38.6960920" lon="22.0556630">
<ele>1142.695190</ele>
<time>2026-08-30T18:03:38.869Z</time>
</trkpt>
<trkpt lat="38.6961490" lon="22.0556770">
<ele>1140.866455</ele>
<time>2026-08-30T18:03:38.869Z</time>
</trkpt>
<trkpt lat="38.6961910" lon="22.0556610">
<ele>1139.952026</ele>
<time>2026-08-30T18:03:38.869Z</time>
</trkpt>
<trkpt lat="38.6962400" lon="22.0555980">
<ele>1138.732788</ele>
<time>2026-08-30T18:03:38.871Z</time>
</trkpt>
<trkpt lat="38.6962910" lon="22.0555970">
<ele>1137.513550</ele>
<time>2026-08-30T18:03:38.871Z</time>
</trkpt>
<trkpt lat="38.6963170" lon="22.0555550">
<ele>1136.904053</ele>
<time>2026-08-30T18:03:38.871Z</time>
</trkpt>
<trkpt lat="38.6963280" lon="22.0554820">
<ele>1136.599243</ele>
<time>2026-08-30T18:03:38.871Z</time>
</trkpt>
<trkpt lat="38.6963570" lon="22.0554470">
<ele>1135.684814</ele>
<time>2026-08-30T18:03:38.871Z</time>
</trkpt>
<trkpt lat="38.6963830" lon="22.0553930">
<ele>1134.465576</ele>
<time>2026-08-30T18:03:38.871Z</time>
</trkpt>
<trkpt lat="38.6963730" lon="22.0553130">
<ele>1134.770386</ele>
<time>2026-08-30T18:03:38.871Z</time>
</trkpt>
<trkpt lat="38.6963210" lon="22.0552580">
<ele>1136.599243</ele>
<time>2026-08-30T18:03:38.871Z</time>
</trkpt>
<trkpt lat="38.6962990" lon="22.0551980">
<ele>1137.818359</ele>
<time>2026-08-30T18:03:38.871Z</time>
</trkpt>
<trkpt lat="38.6962860" lon="22.0551180">
<ele>1138.732788</ele>
<time>2026-08-30T18:03:38.871Z</time>
</trkpt>
<trkpt lat="38.6963080" lon="22.0550380">
<ele>1138.123169</ele>
<time>2026-08-30T18:03:38.871Z</time>
</trkpt>
<trkpt lat="38.6963100" lon="22.0549840">
<ele>1138.123169</ele>
<time>2026-08-30T18:03:38.871Z</time>
</trkpt>
<trkpt lat="38.6962950" lon="22.0549310">
<ele>1139.037598</ele>
<time>2026-08-30T18:03:38.871Z</time>
</trkpt>
<trkpt lat="38.6962850" lon="22.0548710">
<ele>1139.647217</ele>
<time>2026-08-30T18:03:38.871Z</time>
</trkpt>
<trkpt lat="38.6962800" lon="22.0547840">
<ele>1139.952026</ele>
<time>2026-08-30T18:03:38.871Z</time>
</trkpt>
<trkpt lat="38.6963120" lon="22.0547140">
<ele>1139.037598</ele>
<time>2026-08-30T18:03:38.871Z</time>
</trkpt>
<trkpt lat="38.6963320" lon="22.0546450">
<ele>1138.123169</ele>
<time>2026-08-30T18:03:38.871Z</time>
</trkpt>
<trkpt lat="38.6963300" lon="22.0545460">
<ele>1137.818359</ele>
<time>2026-08-30T18:03:38.871Z</time>
</trkpt>
<trkpt lat="38.6963290" lon="22.0545080">
<ele>1137.818359</ele>
<time>2026-08-30T18:03:38.871Z</time>
</trkpt>
<trkpt lat="38.6963490" lon="22.0544390">
<ele>1137.208740</ele>
<time>2026-08-30T18:03:38.871Z</time>
</trkpt>
<trkpt lat="38.6963930" lon="22.0543700">
<ele>1135.684814</ele>
<time>2026-08-30T18:03:38.871Z</time>
</trkpt>
<trkpt lat="38.6964120" lon="22.0542550">
<ele>1135.075195</ele>
<time>2026-08-30T18:03:38.871Z</time>
</trkpt>
<trkpt lat="38.6964010" lon="22.0541830">
<ele>1135.380005</ele>
<time>2026-08-30T18:03:38.871Z</time>
</trkpt>
<trkpt lat="38.6963830" lon="22.0541340">
<ele>1135.684814</ele>
<time>2026-08-30T18:03:38.871Z</time>
</trkpt>
<trkpt lat="38.6963550" lon="22.0540740">
<ele>1135.684814</ele>
<time>2026-08-30T18:03:38.871Z</time>
</trkpt>
<trkpt lat="38.6963210" lon="22.0540260">
<ele>1136.294434</ele>
<time>2026-08-30T18:03:38.871Z</time>
</trkpt>
<trkpt lat="38.6962720" lon="22.0539360">
<ele>1137.513550</ele>
<time>2026-08-30T18:03:38.871Z</time>
</trkpt>
<trkpt lat="38.6962210" lon="22.0539030">
<ele>1139.037598</ele>
<time>2026-08-30T18:03:38.871Z</time>
</trkpt>
<trkpt lat="38.6962350" lon="22.0538380">
<ele>1138.427979</ele>
<time>2026-08-30T18:03:38.871Z</time>
</trkpt>
<trkpt lat="38.6962900" lon="22.0537830">
<ele>1136.294434</ele>
<time>2026-08-30T18:03:38.871Z</time>
</trkpt>
<trkpt lat="38.6963090" lon="22.0536720">
<ele>1135.075195</ele>
<time>2026-08-30T18:03:38.871Z</time>
</trkpt>
<trkpt lat="38.6963710" lon="22.0535980">
<ele>1132.636841</ele>
<time>2026-08-30T18:03:38.871Z</time>
</trkpt>
<trkpt lat="38.6963780" lon="22.0535180">
<ele>1131.722412</ele>
<time>2026-08-30T18:03:38.871Z</time>
</trkpt>
<trkpt lat="38.6963510" lon="22.0534550">
<ele>1132.027222</ele>
<time>2026-08-30T18:03:38.871Z</time>
</trkpt>
<trkpt lat="38.6963050" lon="22.0534030">
<ele>1132.941650</ele>
<time>2026-08-30T18:03:38.871Z</time>
</trkpt>
<trkpt lat="38.6962650" lon="22.0533280">
<ele>1132.941650</ele>
<time>2026-08-30T18:03:38.871Z</time>
</trkpt>
<trkpt lat="38.6962340" lon="22.0532560">
<ele>1132.027222</ele>
<time>2026-08-30T18:03:38.871Z</time>
</trkpt>
<trkpt lat="38.6961970" lon="22.0531850">
<ele>1131.417603</ele>
<time>2026-08-30T18:03:38.871Z</time>
</trkpt>
<trkpt lat="38.6961780" lon="22.0531130">
<ele>1129.893555</ele>
<time>2026-08-30T18:03:38.871Z</time>
</trkpt>
<trkpt lat="38.6961650" lon="22.0530340">
<ele>1128.369629</ele>
<time>2026-08-30T18:03:38.871Z</time>
</trkpt>
<trkpt lat="38.6961250" lon="22.0530010">
<ele>1128.369629</ele>
<time>2026-08-30T18:03:38.871Z</time>
</trkpt>
<trkpt lat="38.6960950" lon="22.0529370">
<ele>1127.150391</ele>
<time>2026-08-30T18:03:38.871Z</time>
</trkpt>
<trkpt lat="38.6961160" lon="22.0528840">
<ele>1125.626343</ele>
<time>2026-08-30T18:03:38.871Z</time>
</trkpt>
<trkpt lat="38.6961440" lon="22.0528620">
<ele>1124.407227</ele>
<time>2026-08-30T18:03:38.871Z</time>
</trkpt>
<trkpt lat="38.6961910" lon="22.0528210">
<ele>1121.968750</ele>
<time>2026-08-30T18:03:38.871Z</time>
</trkpt>
<trkpt lat="38.6962140" lon="22.0527410">
<ele>1119.835205</ele>
<time>2026-08-30T18:03:38.871Z</time>
</trkpt>
<trkpt lat="38.6962010" lon="22.0526810">
<ele>1119.530396</ele>
<time>2026-08-30T18:03:38.871Z</time>
</trkpt>
<trkpt lat="38.6961990" lon="22.0526140">
<ele>1118.615967</ele>
<time>2026-08-30T18:03:38.871Z</time>
</trkpt>
<trkpt lat="38.6962390" lon="22.0525520">
<ele>1116.177612</ele>
<time>2026-08-30T18:03:38.871Z</time>
</trkpt>
<trkpt lat="38.6962540" lon="22.0524510">
<ele>1114.043945</ele>
<time>2026-08-30T18:03:38.871Z</time>
</trkpt>
<trkpt lat="38.6962360" lon="22.0523660">
<ele>1113.129639</ele>
<time>2026-08-30T18:03:38.871Z</time>
</trkpt>
<trkpt lat="38.6961880" lon="22.0523400">
<ele>1114.043945</ele>
<time>2026-08-30T18:03:38.871Z</time>
</trkpt>
<trkpt lat="38.6961610" lon="22.0522950">
<ele>1114.043945</ele>
<time>2026-08-30T18:03:38.871Z</time>
</trkpt>
<trkpt lat="38.6961450" lon="22.0522230">
<ele>1113.129639</ele>
<time>2026-08-30T18:03:38.871Z</time>
</trkpt>
<trkpt lat="38.6961110" lon="22.0521690">
<ele>1113.129639</ele>
<time>2026-08-30T18:03:38.871Z</time>
</trkpt>
<trkpt lat="38.6960800" lon="22.0521390">
<ele>1113.129639</ele>
<time>2026-08-30T18:03:38.871Z</time>
</trkpt>
<trkpt lat="38.6960690" lon="22.0520670">
<ele>1111.910400</ele>
<time>2026-08-30T18:03:38.871Z</time>
</trkpt>
<trkpt lat="38.6960630" lon="22.0519790">
<ele>1110.386353</ele>
<time>2026-08-30T18:03:38.871Z</time>
</trkpt>
<trkpt lat="38.6960140" lon="22.0519490">
<ele>1110.691162</ele>
<time>2026-08-30T18:03:38.871Z</time>
</trkpt>
<trkpt lat="38.6959740" lon="22.0519600">
<ele>1111.910400</ele>
<time>2026-08-30T18:03:38.871Z</time>
</trkpt>
<trkpt lat="38.6959400" lon="22.0519480">
<ele>1112.215210</ele>
<time>2026-08-30T18:03:38.871Z</time>
</trkpt>
<trkpt lat="38.6959400" lon="22.0519180">
<ele>1111.605591</ele>
<time>2026-08-30T18:03:38.871Z</time>
</trkpt>
<trkpt lat="38.6959090" lon="22.0518980">
<ele>1111.605591</ele>
<time>2026-08-30T18:03:38.871Z</time>
</trkpt>
<trkpt lat="38.6958770" lon="22.0518470">
<ele>1111.300781</ele>
<time>2026-08-30T18:03:38.871Z</time>
</trkpt>
<trkpt lat="38.6958590" lon="22.0517620">
<ele>1109.776855</ele>
<time>2026-08-30T18:03:38.871Z</time>
</trkpt>
<trkpt lat="38.6958130" lon="22.0517150">
<ele>1109.472046</ele>
<time>2026-08-30T18:03:38.871Z</time>
</trkpt>
<trkpt lat="38.6957670" lon="22.0517010">
<ele>1109.776855</ele>
<time>2026-08-30T18:03:38.871Z</time>
</trkpt>
<trkpt lat="38.6957300" lon="22.0516530">
<ele>1109.472046</ele>
<time>2026-08-30T18:03:38.871Z</time>
</trkpt>
<trkpt lat="38.6957010" lon="22.0515870">
<ele>1108.557617</ele>
<time>2026-08-30T18:03:38.871Z</time>
</trkpt>
<trkpt lat="38.6956780" lon="22.0515330">
<ele>1107.643188</ele>
<time>2026-08-30T18:03:38.871Z</time>
</trkpt>
<trkpt lat="38.6956800" lon="22.0514600">
<ele>1105.814453</ele>
<time>2026-08-30T18:03:38.871Z</time>
</trkpt>
<trkpt lat="38.6957150" lon="22.0514340">
<ele>1104.595215</ele>
<time>2026-08-30T18:03:38.871Z</time>
</trkpt>
<trkpt lat="38.6957690" lon="22.0513930">
<ele>1103.071167</ele>
<time>2026-08-30T18:03:38.871Z</time>
</trkpt>
<trkpt lat="38.6957920" lon="22.0513380">
<ele>1101.852051</ele>
<time>2026-08-30T18:03:38.871Z</time>
</trkpt>
<trkpt lat="38.6958080" lon="22.0512740">
<ele>1100.632813</ele>
<time>2026-08-30T18:03:38.871Z</time>
</trkpt>
<trkpt lat="38.6958450" lon="22.0512300">
<ele>1099.718384</ele>
<time>2026-08-30T18:03:38.871Z</time>
</trkpt>
<trkpt lat="38.6958680" lon="22.0511690">
<ele>1098.499146</ele>
<time>2026-08-30T18:03:38.871Z</time>
</trkpt>
<trkpt lat="38.6959290" lon="22.0511090">
<ele>1096.975220</ele>
<time>2026-08-30T18:03:38.871Z</time>
</trkpt>
<trkpt lat="38.6959910" lon="22.0511070">
<ele>1096.060791</ele>
<time>2026-08-30T18:03:38.871Z</time>
</trkpt>
<trkpt lat="38.6960310" lon="22.0511090">
<ele>1095.755981</ele>
<time>2026-08-30T18:03:38.871Z</time>
</trkpt>
<trkpt lat="38.6960570" lon="22.0510630">
<ele>1094.536743</ele>
<time>2026-08-30T18:03:38.871Z</time>
</trkpt>
<trkpt lat="38.6960920" lon="22.0510410">
<ele>1093.622437</ele>
<time>2026-08-30T18:03:38.871Z</time>
</trkpt>
<trkpt lat="38.6961550" lon="22.0510690">
<ele>1092.403198</ele>
<time>2026-08-30T18:03:38.871Z</time>
</trkpt>
<trkpt lat="38.6962140" lon="22.0510620">
<ele>1089.964844</ele>
<time>2026-08-30T18:03:38.871Z</time>
</trkpt>
<trkpt lat="38.6962590" lon="22.0510150">
<ele>1087.526367</ele>
<time>2026-08-30T18:03:38.871Z</time>
</trkpt>
<trkpt lat="38.6962900" lon="22.0510410">
<ele>1086.916748</ele>
<time>2026-08-30T18:03:38.871Z</time>
</trkpt>
<trkpt lat="38.6963360" lon="22.0510680">
<ele>1085.392822</ele>
<time>2026-08-30T18:03:38.871Z</time>
</trkpt>
<trkpt lat="38.6963880" lon="22.0510630">
<ele>1083.563965</ele>
<time>2026-08-30T18:03:38.871Z</time>
</trkpt>
<trkpt lat="38.6964210" lon="22.0510230">
<ele>1082.344849</ele>
<time>2026-08-30T18:03:38.871Z</time>
</trkpt>
<trkpt lat="38.6964510" lon="22.0509790">
<ele>1081.125610</ele>
<time>2026-08-30T18:03:38.871Z</time>
</trkpt>
<trkpt lat="38.6964770" lon="22.0509570">
<ele>1080.211182</ele>
<time>2026-08-30T18:03:38.871Z</time>
</trkpt>
<trkpt lat="38.6965280" lon="22.0508920">
<ele>1078.077637</ele>
<time>2026-08-30T18:03:38.873Z</time>
</trkpt>
<trkpt lat="38.6965640" lon="22.0508610">
<ele>1076.858398</ele>
<time>2026-08-30T18:03:38.873Z</time>
</trkpt>
<trkpt lat="38.6965950" lon="22.0508600">
<ele>1076.248779</ele>
<time>2026-08-30T18:03:38.873Z</time>
</trkpt>
<trkpt lat="38.6966250" lon="22.0508130">
<ele>1074.724854</ele>
<time>2026-08-30T18:03:38.873Z</time>
</trkpt>
<trkpt lat="38.6966480" lon="22.0507580">
<ele>1073.505615</ele>
<time>2026-08-30T18:03:38.873Z</time>
</trkpt>
<trkpt lat="38.6966540" lon="22.0506790">
<ele>1072.591187</ele>
<time>2026-08-30T18:03:38.873Z</time>
</trkpt>
<trkpt lat="38.6966820" lon="22.0506410">
<ele>1071.676758</ele>
<time>2026-08-30T18:03:38.873Z</time>
</trkpt>
<trkpt lat="38.6967120" lon="22.0506310">
<ele>1071.067261</ele>
<time>2026-08-30T18:03:38.873Z</time>
</trkpt>
<trkpt lat="38.6967280" lon="22.0505820">
<ele>1070.152832</ele>
<time>2026-08-30T18:03:38.873Z</time>
</trkpt>
<trkpt lat="38.6967450" lon="22.0506090">
<ele>1070.152832</ele>
<time>2026-08-30T18:03:38.873Z</time>
</trkpt>
<trkpt lat="38.6967460" lon="22.0506340">
<ele>1070.457642</ele>
<time>2026-08-30T18:03:38.873Z</time>
</trkpt>
<trkpt lat="38.6967700" lon="22.0506420">
<ele>1070.152832</ele>
<time>2026-08-30T18:03:38.873Z</time>
</trkpt>
<trkpt lat="38.6967910" lon="22.0506110">
<ele>1069.543213</ele>
<time>2026-08-30T18:03:38.873Z</time>
</trkpt>
<trkpt lat="38.6968090" lon="22.0505560">
<ele>1068.323975</ele>
<time>2026-08-30T18:03:38.873Z</time>
</trkpt>
<trkpt lat="38.6968420" lon="22.0505340">
<ele>1067.714355</ele>
<time>2026-08-30T18:03:38.873Z</time>
</trkpt>
<trkpt lat="38.6968560" lon="22.0505090">
<ele>1067.104858</ele>
<time>2026-08-30T18:03:38.873Z</time>
</trkpt>
<trkpt lat="38.6968790" lon="22.0504990">
<ele>1066.495239</ele>
<time>2026-08-30T18:03:38.873Z</time>
</trkpt>
<trkpt lat="38.6969000" lon="22.0504680">
<ele>1065.580811</ele>
<time>2026-08-30T18:03:38.873Z</time>
</trkpt>
<trkpt lat="38.6968830" lon="22.0504470">
<ele>1065.580811</ele>
<time>2026-08-30T18:03:38.873Z</time>
</trkpt>
<trkpt lat="38.6968640" lon="22.0504200">
<ele>1065.580811</ele>
<time>2026-08-30T18:03:38.873Z</time>
</trkpt>
<trkpt lat="38.6968780" lon="22.0503900">
<ele>1064.971191</ele>
<time>2026-08-30T18:03:38.873Z</time>
</trkpt>
<trkpt lat="38.6969060" lon="22.0503860">
<ele>1064.361572</ele>
<time>2026-08-30T18:03:38.873Z</time>
</trkpt>
<trkpt lat="38.6969370" lon="22.0503790">
<ele>1063.751953</ele>
<time>2026-08-30T18:03:38.873Z</time>
</trkpt>
<trkpt lat="38.6969650" lon="22.0503600">
<ele>1062.837646</ele>
<time>2026-08-30T18:03:38.873Z</time>
</trkpt>
<trkpt lat="38.6970020" lon="22.0503010">
<ele>1061.008789</ele>
<time>2026-08-30T18:03:38.873Z</time>
</trkpt>
<trkpt lat="38.6970450" lon="22.0502790">
<ele>1059.789551</ele>
<time>2026-08-30T18:03:38.873Z</time>
</trkpt>
<trkpt lat="38.6970760" lon="22.0502690">
<ele>1058.875244</ele>
<time>2026-08-30T18:03:38.873Z</time>
</trkpt>
<trkpt lat="38.6970990" lon="22.0502250">
<ele>1057.351196</ele>
<time>2026-08-30T18:03:38.873Z</time>
</trkpt>
<trkpt lat="38.6971410" lon="22.0501910">
<ele>1055.827148</ele>
<time>2026-08-30T18:03:38.873Z</time>
</trkpt>
<trkpt lat="38.6971720" lon="22.0501570">
<ele>1054.608032</ele>
<time>2026-08-30T18:03:38.873Z</time>
</trkpt>
<trkpt lat="38.6971870" lon="22.0500980">
<ele>1052.779175</ele>
<time>2026-08-30T18:03:38.873Z</time>
</trkpt>
<trkpt lat="38.6972100" lon="22.0500400">
<ele>1050.950439</ele>
<time>2026-08-30T18:03:38.873Z</time>
</trkpt>
<trkpt lat="38.6972140" lon="22.0499820">
<ele>1050.036011</ele>
<time>2026-08-30T18:03:38.873Z</time>
</trkpt>
<trkpt lat="38.6971870" lon="22.0499460">
<ele>1050.340820</ele>
<time>2026-08-30T18:03:38.873Z</time>
</trkpt>
<trkpt lat="38.6971400" lon="22.0499510">
<ele>1051.255249</ele>
<time>2026-08-30T18:03:38.873Z</time>
</trkpt>
<trkpt lat="38.6971190" lon="22.0499690">
<ele>1051.864746</ele>
<time>2026-08-30T18:03:38.873Z</time>
</trkpt>
<trkpt lat="38.6970870" lon="22.0499490">
<ele>1052.169556</ele>
<time>2026-08-30T18:03:38.873Z</time>
</trkpt>
<trkpt lat="38.6970650" lon="22.0499280">
<ele>1052.474365</ele>
<time>2026-08-30T18:03:38.873Z</time>
</trkpt>
<trkpt lat="38.6970350" lon="22.0499380">
<ele>1053.083984</ele>
<time>2026-08-30T18:03:38.873Z</time>
</trkpt>
<trkpt lat="38.6970270" lon="22.0499230">
<ele>1053.083984</ele>
<time>2026-08-30T18:03:38.873Z</time>
</trkpt>
<trkpt lat="38.6970310" lon="22.0498870">
<ele>1052.474365</ele>
<time>2026-08-30T18:03:38.873Z</time>
</trkpt>
<trkpt lat="38.6970190" lon="22.0498600">
<ele>1052.474365</ele>
<time>2026-08-30T18:03:38.873Z</time>
</trkpt>
<trkpt lat="38.6969930" lon="22.0498480">
<ele>1052.779175</ele>
<time>2026-08-30T18:03:38.873Z</time>
</trkpt>
<trkpt lat="38.6969560" lon="22.0497970">
<ele>1052.779175</ele>
<time>2026-08-30T18:03:38.873Z</time>
</trkpt>
<trkpt lat="38.6969480" lon="22.0497520">
<ele>1052.474365</ele>
<time>2026-08-30T18:03:38.873Z</time>
</trkpt>
<trkpt lat="38.6969430" lon="22.0497370">
<ele>1052.169556</ele>
<time>2026-08-30T18:03:38.873Z</time>
</trkpt>
<trkpt lat="38.6969380" lon="22.0496970">
<ele>1051.864746</ele>
<time>2026-08-30T18:03:38.873Z</time>
</trkpt>
<trkpt lat="38.6969590" lon="22.0496880">
<ele>1051.560059</ele>
<time>2026-08-30T18:03:38.873Z</time>
</trkpt>
<trkpt lat="38.6969730" lon="22.0496570">
<ele>1050.950439</ele>
<time>2026-08-30T18:03:38.873Z</time>
</trkpt>
<trkpt lat="38.6969840" lon="22.0496230">
<ele>1050.645630</ele>
<time>2026-08-30T18:03:38.873Z</time>
</trkpt>
<trkpt lat="38.6969980" lon="22.0495980">
<ele>1050.036011</ele>
<time>2026-08-30T18:03:38.873Z</time>
</trkpt>
<trkpt lat="38.6970170" lon="22.0495740">
<ele>1049.731201</ele>
<time>2026-08-30T18:03:38.873Z</time>
</trkpt>
<trkpt lat="38.6970470" lon="22.0495520">
<ele>1048.816772</ele>
<time>2026-08-30T18:03:38.873Z</time>
</trkpt>
<trkpt lat="38.6970700" lon="22.0494870">
<ele>1047.902344</ele>
<time>2026-08-30T18:03:38.873Z</time>
</trkpt>
<trkpt lat="38.6970930" lon="22.0494680">
<ele>1047.597656</ele>
<time>2026-08-30T18:03:38.873Z</time>
</trkpt>
<trkpt lat="38.6971240" lon="22.0494640">
<ele>1046.988037</ele>
<time>2026-08-30T18:03:38.873Z</time>
</trkpt>
<trkpt lat="38.6971530" lon="22.0494390">
<ele>1046.073608</ele>
<time>2026-08-30T18:03:38.873Z</time>
</trkpt>
<trkpt lat="38.6971660" lon="22.0493930">
<ele>1045.463989</ele>
<time>2026-08-30T18:03:38.873Z</time>
</trkpt>
<trkpt lat="38.6971820" lon="22.0493560">
<ele>1044.854370</ele>
<time>2026-08-30T18:03:38.873Z</time>
</trkpt>
<trkpt lat="38.6972050" lon="22.0493130">
<ele>1043.939941</ele>
<time>2026-08-30T18:03:38.873Z</time>
</trkpt>
<trkpt lat="38.6972480" lon="22.0492840">
<ele>1042.416016</ele>
<time>2026-08-30T18:03:38.873Z</time>
</trkpt>
<trkpt lat="38.6972790" lon="22.0492930">
<ele>1041.196777</ele>
<time>2026-08-30T18:03:38.873Z</time>
</trkpt>
<trkpt lat="38.6973030" lon="22.0492980">
<ele>1040.587158</ele>
<time>2026-08-30T18:03:38.873Z</time>
</trkpt>
<trkpt lat="38.6973190" lon="22.0492640">
<ele>1039.672852</ele>
<time>2026-08-30T18:03:38.873Z</time>
</trkpt>
<trkpt lat="38.6973380" lon="22.0492790">
<ele>1039.063232</ele>
<time>2026-08-30T18:03:38.873Z</time>
</trkpt>
<trkpt lat="38.6973670" lon="22.0493090">
<ele>1038.148804</ele>
<time>2026-08-30T18:03:38.873Z</time>
</trkpt>
<trkpt lat="38.6974100" lon="22.0493170">
<ele>1036.929565</ele>
<time>2026-08-30T18:03:38.873Z</time>
</trkpt>
<trkpt lat="38.6974480" lon="22.0492910">
<ele>1035.100830</ele>
<time>2026-08-30T18:03:38.873Z</time>
</trkpt>
<trkpt lat="38.6974740" lon="22.0492690">
<ele>1033.881592</ele>
<time>2026-08-30T18:03:38.873Z</time>
</trkpt>
<trkpt lat="38.6975120" lon="22.0492770">
<ele>1032.662354</ele>
<time>2026-08-30T18:03:38.873Z</time>
</trkpt>
<trkpt lat="38.6975460" lon="22.0492820">
<ele>1031.443237</ele>
<time>2026-08-30T18:03:38.873Z</time>
</trkpt>
<trkpt lat="38.6975740" lon="22.0492690">
<ele>1030.223999</ele>
<time>2026-08-30T18:03:38.873Z</time>
</trkpt>
<trkpt lat="38.6976050" lon="22.0492350">
<ele>1029.004761</ele>
<time>2026-08-30T18:03:38.873Z</time>
</trkpt>
<trkpt lat="38.6976350" lon="22.0492070">
<ele>1027.480835</ele>
<time>2026-08-30T18:03:38.873Z</time>
</trkpt>
<trkpt lat="38.6976790" lon="22.0491990">
<ele>1025.651978</ele>
<time>2026-08-30T18:03:38.873Z</time>
</trkpt>
<trkpt lat="38.6976970" lon="22.0491840">
<ele>1025.042358</ele>
<time>2026-08-30T18:03:38.873Z</time>
</trkpt>
<trkpt lat="38.6977150" lon="22.0491540">
<ele>1024.128052</ele>
<time>2026-08-30T18:03:38.873Z</time>
</trkpt>
<trkpt lat="38.6977290" lon="22.0491280">
<ele>1023.213623</ele>
<time>2026-08-30T18:03:38.873Z</time>
</trkpt>
<trkpt lat="38.6977470" lon="22.0491020">
<ele>1022.299194</ele>
<time>2026-08-30T18:03:38.873Z</time>
</trkpt>
<trkpt lat="38.6977830" lon="22.0490760">
<ele>1020.775208</ele>
<time>2026-08-30T18:03:38.873Z</time>
</trkpt>
<trkpt lat="38.6978140" lon="22.0490770">
<ele>1019.860779</ele>
<time>2026-08-30T18:03:38.873Z</time>
</trkpt>
<trkpt lat="38.6978430" lon="22.0490850">
<ele>1019.251221</ele>
<time>2026-08-30T18:03:38.873Z</time>
</trkpt>
<trkpt lat="38.6978640" lon="22.0490500">
<ele>1018.336792</ele>
<time>2026-08-30T18:03:38.873Z</time>
</trkpt>
<trkpt lat="38.6978840" lon="22.0490370">
<ele>1017.422424</ele>
<time>2026-08-30T18:03:38.873Z</time>
</trkpt>
<trkpt lat="38.6979090" lon="22.0490340">
<ele>1016.507996</ele>
<time>2026-08-30T18:03:38.873Z</time>
</trkpt>
<trkpt lat="38.6979310" lon="22.0490570">
<ele>1016.203186</ele>
<time>2026-08-30T18:03:38.873Z</time>
</trkpt>
<trkpt lat="38.6979600" lon="22.0490870">
<ele>1015.898376</ele>
<time>2026-08-30T18:03:38.873Z</time>
</trkpt>
<trkpt lat="38.6979920" lon="22.0490880">
<ele>1014.984009</ele>
<time>2026-08-30T18:03:38.873Z</time>
</trkpt>
<trkpt lat="38.6980100" lon="22.0490880">
<ele>1014.679199</ele>
<time>2026-08-30T18:03:38.873Z</time>
</trkpt>
<trkpt lat="38.6980370" lon="22.0490710">
<ele>1013.460022</ele>
<time>2026-08-30T18:03:38.873Z</time>
</trkpt>
<trkpt lat="38.6980700" lon="22.0490550">
<ele>1012.545593</ele>
<time>2026-08-30T18:03:38.873Z</time>
</trkpt>
<trkpt lat="38.6980950" lon="22.0490380">
<ele>1011.631226</ele>
<time>2026-08-30T18:03:38.873Z</time>
</trkpt>
<trkpt lat="38.6981240" lon="22.0490430">
<ele>1011.326416</ele>
<time>2026-08-30T18:03:38.875Z</time>
</trkpt>
<trkpt lat="38.6981400" lon="22.0490530">
<ele>1011.326416</ele>
<time>2026-08-30T18:03:38.875Z</time>
</trkpt>
<trkpt lat="38.6981640" lon="22.0490690">
<ele>1011.326416</ele>
<time>2026-08-30T18:03:38.875Z</time>
</trkpt>
<trkpt lat="38.6982000" lon="22.0490540">
<ele>1010.411987</ele>
<time>2026-08-30T18:03:38.875Z</time>
</trkpt>
<trkpt lat="38.6982050" lon="22.0490170">
<ele>1009.802429</ele>
<time>2026-08-30T18:03:38.875Z</time>
</trkpt>
<trkpt lat="38.6981720" lon="22.0489850">
<ele>1009.497620</ele>
<time>2026-08-30T18:03:38.875Z</time>
</trkpt>
<trkpt lat="38.6981540" lon="22.0489580">
<ele>1009.192810</ele>
<time>2026-08-30T18:03:38.875Z</time>
</trkpt>
<trkpt lat="38.6981410" lon="22.0489290">
<ele>1008.888000</ele>
<time>2026-08-30T18:03:38.875Z</time>
</trkpt>
<trkpt lat="38.6981280" lon="22.0488710">
<ele>1007.973572</ele>
<time>2026-08-30T18:03:38.875Z</time>
</trkpt>
<trkpt lat="38.6981160" lon="22.0488440">
<ele>1007.364014</ele>
<time>2026-08-30T18:03:38.875Z</time>
</trkpt>
<trkpt lat="38.6980830" lon="22.0488120">
<ele>1007.059204</ele>
<time>2026-08-30T18:03:38.875Z</time>
</trkpt>
<trkpt lat="38.6980450" lon="22.0487730">
<ele>1006.754395</ele>
<time>2026-08-30T18:03:38.875Z</time>
</trkpt>
<trkpt lat="38.6980160" lon="22.0487300">
<ele>1007.059204</ele>
<time>2026-08-30T18:03:38.875Z</time>
</trkpt>
<trkpt lat="38.6979940" lon="22.0486890">
<ele>1006.754395</ele>
<time>2026-08-30T18:03:38.875Z</time>
</trkpt>
<trkpt lat="38.6979780" lon="22.0486690">
<ele>1007.059204</ele>
<time>2026-08-30T18:03:38.875Z</time>
</trkpt>
<trkpt lat="38.6979540" lon="22.0486510">
<ele>1007.364014</ele>
<time>2026-08-30T18:03:38.875Z</time>
</trkpt>
<trkpt lat="38.6979210" lon="22.0486380">
<ele>1008.278381</ele>
<time>2026-08-30T18:03:38.875Z</time>
</trkpt>
<trkpt lat="38.6978920" lon="22.0486270">
<ele>1009.192810</ele>
<time>2026-08-30T18:03:38.875Z</time>
</trkpt>
<trkpt lat="38.6978530" lon="22.0486030">
<ele>1010.107178</ele>
<time>2026-08-30T18:03:38.875Z</time>
</trkpt>
<trkpt lat="38.6978340" lon="22.0485720">
<ele>1010.411987</ele>
<time>2026-08-30T18:03:38.875Z</time>
</trkpt>
<trkpt lat="38.6978170" lon="22.0485460">
<ele>1010.411987</ele>
<time>2026-08-30T18:03:38.875Z</time>
</trkpt>
<trkpt lat="38.6977980" lon="22.0485210">
<ele>1010.716797</ele>
<time>2026-08-30T18:03:38.875Z</time>
</trkpt>
<trkpt lat="38.6977860" lon="22.0484820">
<ele>1010.411987</ele>
<time>2026-08-30T18:03:38.875Z</time>
</trkpt>
<trkpt lat="38.6977710" lon="22.0484590">
<ele>1010.716797</ele>
<time>2026-08-30T18:03:38.875Z</time>
</trkpt>
<trkpt lat="38.6977550" lon="22.0484450">
<ele>1011.021606</ele>
<time>2026-08-30T18:03:38.875Z</time>
</trkpt>
<trkpt lat="38.6977360" lon="22.0484180">
<ele>1011.326416</ele>
<time>2026-08-30T18:03:38.875Z</time>
</trkpt>
<trkpt lat="38.6977260" lon="22.0483670">
<ele>1011.021606</ele>
<time>2026-08-30T18:03:38.875Z</time>
</trkpt>
<trkpt lat="38.6977160" lon="22.0483160">
<ele>1010.716797</ele>
<time>2026-08-30T18:03:38.875Z</time>
</trkpt>
<trkpt lat="38.6977210" lon="22.0482730">
<ele>1009.802429</ele>
<time>2026-08-30T18:03:38.875Z</time>
</trkpt>
<trkpt lat="38.6977390" lon="22.0482360">
<ele>1008.583191</ele>
<time>2026-08-30T18:03:38.875Z</time>
</trkpt>
<trkpt lat="38.6977560" lon="22.0482300">
<ele>1007.668823</ele>
<time>2026-08-30T18:03:38.875Z</time>
</trkpt>
<trkpt lat="38.6977710" lon="22.0482310">
<ele>1007.059204</ele>
<time>2026-08-30T18:03:38.875Z</time>
</trkpt>
<trkpt lat="38.6977870" lon="22.0482070">
<ele>1006.449585</ele>
<time>2026-08-30T18:03:38.875Z</time>
</trkpt>
<trkpt lat="38.6977920" lon="22.0481830">
<ele>1006.144775</ele>
<time>2026-08-30T18:03:38.875Z</time>
</trkpt>
<trkpt lat="38.6978110" lon="22.0481770">
<ele>1005.535217</ele>
<time>2026-08-30T18:03:38.875Z</time>
</trkpt>
<trkpt lat="38.6978250" lon="22.0481600">
<ele>1005.230408</ele>
<time>2026-08-30T18:03:38.875Z</time>
</trkpt>
<trkpt lat="38.6978380" lon="22.0481200">
<ele>1004.620789</ele>
<time>2026-08-30T18:03:38.875Z</time>
</trkpt>
<trkpt lat="38.6978580" lon="22.0480940">
<ele>1004.011230</ele>
<time>2026-08-30T18:03:38.875Z</time>
</trkpt>
<trkpt lat="38.6978920" lon="22.0480800">
<ele>1003.096802</ele>
<time>2026-08-30T18:03:38.875Z</time>
</trkpt>
<trkpt lat="38.6979290" lon="22.0480860">
<ele>1002.487183</ele>
<time>2026-08-30T18:03:38.875Z</time>
</trkpt>
<trkpt lat="38.6979630" lon="22.0481160">
<ele>1001.877625</ele>
<time>2026-08-30T18:03:38.875Z</time>
</trkpt>
<trkpt lat="38.6979900" lon="22.0481410">
<ele>1001.572815</ele>
<time>2026-08-30T18:03:38.875Z</time>
</trkpt>
<trkpt lat="38.6980670" lon="22.0481690">
<ele>1000.353577</ele>
<time>2026-08-30T18:03:38.875Z</time>
</trkpt>
<trkpt lat="38.6981100" lon="22.0481840">
<ele>1000.963196</ele>
<time>2026-08-30T18:03:38.875Z</time>
</trkpt>
<trkpt lat="38.6981170" lon="22.0481790">
<ele>1000.963196</ele>
<time>2026-08-30T18:03:38.875Z</time>
</trkpt>
<trkpt lat="38.6981100" lon="22.0481500">
<ele>1000.658386</ele>
<time>2026-08-30T18:03:38.875Z</time>
</trkpt>
<trkpt lat="38.6980900" lon="22.0481170">
<ele>1000.353577</ele>
<time>2026-08-30T18:03:38.875Z</time>
</trkpt>
<trkpt lat="38.6980760" lon="22.0480870">
<ele>1000.353577</ele>
<time>2026-08-30T18:03:38.875Z</time>
</trkpt>
<trkpt lat="38.6980510" lon="22.0480650">
<ele>1000.048828</ele>
<time>2026-08-30T18:03:38.875Z</time>
</trkpt>
<trkpt lat="38.6980130" lon="22.0480240">
<ele>1000.353577</ele>
<time>2026-08-30T18:03:38.875Z</time>
</trkpt>
<trkpt lat="38.6979740" lon="22.0479910">
<ele>1000.658386</ele>
<time>2026-08-30T18:03:38.875Z</time>
</trkpt>
<trkpt lat="38.6979490" lon="22.0479370">
<ele>1000.658386</ele>
<time>2026-08-30T18:03:38.875Z</time>
</trkpt>
<trkpt lat="38.6979110" lon="22.0478830">
<ele>1000.353577</ele>
<time>2026-08-30T18:03:38.875Z</time>
</trkpt>
<trkpt lat="38.6978830" lon="22.0478650">
<ele>1000.353577</ele>
<time>2026-08-30T18:03:38.875Z</time>
</trkpt>
<trkpt lat="38.6978490" lon="22.0478610">
<ele>1000.658386</ele>
<time>2026-08-30T18:03:38.875Z</time>
</trkpt>
<trkpt lat="38.6978160" lon="22.0477960">
<ele>1000.048828</ele>
<time>2026-08-30T18:03:38.875Z</time>
</trkpt>
<trkpt lat="38.6977960" lon="22.0477730">
<ele>999.744019</ele>
<time>2026-08-30T18:03:38.875Z</time>
</trkpt>
<trkpt lat="38.6977730" lon="22.0477280">
<ele>999.744019</ele>
<time>2026-08-30T18:03:38.875Z</time>
</trkpt>
<trkpt lat="38.6977640" lon="22.0476610">
<ele>999.439209</ele>
<time>2026-08-30T18:03:38.875Z</time>
</trkpt>
<trkpt lat="38.6977620" lon="22.0475770">
<ele>998.524780</ele>
<time>2026-08-30T18:03:38.875Z</time>
</trkpt>
<trkpt lat="38.6977680" lon="22.0474940">
<ele>997.305603</ele>
<time>2026-08-30T18:03:38.875Z</time>
</trkpt>
<trkpt lat="38.6977620" lon="22.0474050">
<ele>996.391174</ele>
<time>2026-08-30T18:03:38.875Z</time>
</trkpt>
<trkpt lat="38.6977520" lon="22.0472980">
<ele>995.171997</ele>
<time>2026-08-30T18:03:38.875Z</time>
</trkpt>
<trkpt lat="38.6977580" lon="22.0472410">
<ele>994.257629</ele>
<time>2026-08-30T18:03:38.875Z</time>
</trkpt>
<trkpt lat="38.6977970" lon="22.0471560">
<ele>992.733582</ele>
<time>2026-08-30T18:03:38.875Z</time>
</trkpt>
<trkpt lat="38.6978250" lon="22.0471110">
<ele>992.428772</ele>
<time>2026-08-30T18:03:38.875Z</time>
</trkpt>
<trkpt lat="38.6978320" lon="22.0470490">
<ele>992.124023</ele>
<time>2026-08-30T18:03:38.875Z</time>
</trkpt>
<trkpt lat="38.6978250" lon="22.0469890">
<ele>991.514404</ele>
<time>2026-08-30T18:03:38.875Z</time>
</trkpt>
<trkpt lat="38.6978040" lon="22.0469640">
<ele>991.209595</ele>
<time>2026-08-30T18:03:38.875Z</time>
</trkpt>
<trkpt lat="38.6977660" lon="22.0469340">
<ele>991.514404</ele>
<time>2026-08-30T18:03:38.875Z</time>
</trkpt>
<trkpt lat="38.6977330" lon="22.0469090">
<ele>992.733582</ele>
<time>2026-08-30T18:03:38.875Z</time>
</trkpt>
<trkpt lat="38.6976950" lon="22.0468720">
<ele>993.952820</ele>
<time>2026-08-30T18:03:38.875Z</time>
</trkpt>
<trkpt lat="38.6976780" lon="22.0468310">
<ele>994.257629</ele>
<time>2026-08-30T18:03:38.875Z</time>
</trkpt>
<trkpt lat="38.6976660" lon="22.0467820">
<ele>994.257629</ele>
<time>2026-08-30T18:03:38.875Z</time>
</trkpt>
<trkpt lat="38.6976720" lon="22.0466980">
<ele>993.038391</ele>
<time>2026-08-30T18:03:38.875Z</time>
</trkpt>
<trkpt lat="38.6976770" lon="22.0466540">
<ele>992.733582</ele>
<time>2026-08-30T18:03:38.875Z</time>
</trkpt>
<trkpt lat="38.6976690" lon="22.0466010">
<ele>992.733582</ele>
<time>2026-08-30T18:03:38.875Z</time>
</trkpt>
<trkpt lat="38.6976680" lon="22.0465530">
<ele>992.428772</ele>
<time>2026-08-30T18:03:38.875Z</time>
</trkpt>
<trkpt lat="38.6976530" lon="22.0464950">
<ele>992.733582</ele>
<time>2026-08-30T18:03:38.875Z</time>
</trkpt>
<trkpt lat="38.6976390" lon="22.0464570">
<ele>993.343201</ele>
<time>2026-08-30T18:03:38.875Z</time>
</trkpt>
<trkpt lat="38.6976310" lon="22.0464160">
<ele>993.343201</ele>
<time>2026-08-30T18:03:38.875Z</time>
</trkpt>
<trkpt lat="38.6976290" lon="22.0463700">
<ele>993.648010</ele>
<time>2026-08-30T18:03:38.875Z</time>
</trkpt>
<trkpt lat="38.6976320" lon="22.0463030">
<ele>993.648010</ele>
<time>2026-08-30T18:03:38.875Z</time>
</trkpt>
<trkpt lat="38.6976260" lon="22.0462770">
<ele>993.648010</ele>
<time>2026-08-30T18:03:38.877Z</time>
</trkpt>
<trkpt lat="38.6975960" lon="22.0462030">
<ele>995.476807</ele>
<time>2026-08-30T18:03:38.877Z</time>
</trkpt>
<trkpt lat="38.6975940" lon="22.0461370">
<ele>995.781616</ele>
<time>2026-08-30T18:03:38.877Z</time>
</trkpt>
<trkpt lat="38.6975980" lon="22.0460440">
<ele>995.171997</ele>
<time>2026-08-30T18:03:38.877Z</time>
</trkpt>
<trkpt lat="38.6975970" lon="22.0459820">
<ele>994.867188</ele>
<time>2026-08-30T18:03:38.877Z</time>
</trkpt>
<trkpt lat="38.6975990" lon="22.0459180">
<ele>994.257629</ele>
<time>2026-08-30T18:03:38.877Z</time>
</trkpt>
<trkpt lat="38.6976020" lon="22.0458510">
<ele>993.648010</ele>
<time>2026-08-30T18:03:38.877Z</time>
</trkpt>
<trkpt lat="38.6975960" lon="22.0458120">
<ele>993.648010</ele>
<time>2026-08-30T18:03:38.877Z</time>
</trkpt>
<trkpt lat="38.6975900" lon="22.0457540">
<ele>993.038391</ele>
<time>2026-08-30T18:03:38.877Z</time>
</trkpt>
<trkpt lat="38.6975880" lon="22.0457180">
<ele>992.428772</ele>
<time>2026-08-30T18:03:38.877Z</time>
</trkpt>
<trkpt lat="38.6975880" lon="22.0456740">
<ele>991.819214</ele>
<time>2026-08-30T18:03:38.877Z</time>
</trkpt>
<trkpt lat="38.6975680" lon="22.0456160">
<ele>991.819214</ele>
<time>2026-08-30T18:03:38.877Z</time>
</trkpt>
<trkpt lat="38.6975630" lon="22.0455610">
<ele>991.514404</ele>
<time>2026-08-30T18:03:38.877Z</time>
</trkpt>
<trkpt lat="38.6975610" lon="22.0455230">
<ele>990.599976</ele>
<time>2026-08-30T18:03:38.877Z</time>
</trkpt>
<trkpt lat="38.6975600" lon="22.0454720">
<ele>989.685608</ele>
<time>2026-08-30T18:03:38.877Z</time>
</trkpt>
<trkpt lat="38.6975660" lon="22.0454370">
<ele>988.466370</ele>
<time>2026-08-30T18:03:38.877Z</time>
</trkpt>
<trkpt lat="38.6975720" lon="22.0453710">
<ele>986.942383</ele>
<time>2026-08-30T18:03:38.877Z</time>
</trkpt>
<trkpt lat="38.6975680" lon="22.0453330">
<ele>986.332825</ele>
<time>2026-08-30T18:03:38.877Z</time>
</trkpt>
<trkpt lat="38.6975640" lon="22.0453000">
<ele>985.723206</ele>
<time>2026-08-30T18:03:38.877Z</time>
</trkpt>
<trkpt lat="38.6975780" lon="22.0452530">
<ele>984.199219</ele>
<time>2026-08-30T18:03:38.877Z</time>
</trkpt>
<trkpt lat="38.6975760" lon="22.0452140">
<ele>983.589600</ele>
<time>2026-08-30T18:03:38.877Z</time>
</trkpt>
<trkpt lat="38.6975890" lon="22.0451870">
<ele>982.979980</ele>
<time>2026-08-30T18:03:38.877Z</time>
</trkpt>
<trkpt lat="38.6976250" lon="22.0451660">
<ele>981.760803</ele>
<time>2026-08-30T18:03:38.877Z</time>
</trkpt>
<trkpt lat="38.6976650" lon="22.0451660">
<ele>980.846375</ele>
<time>2026-08-30T18:03:38.877Z</time>
</trkpt>
<trkpt lat="38.6977010" lon="22.0451690">
<ele>979.932007</ele>
<time>2026-08-30T18:03:38.877Z</time>
</trkpt>
<trkpt lat="38.6977290" lon="22.0451770">
<ele>979.322388</ele>
<time>2026-08-30T18:03:38.877Z</time>
</trkpt>
<trkpt lat="38.6977630" lon="22.0451960">
<ele>978.712830</ele>
<time>2026-08-30T18:03:38.877Z</time>
</trkpt>
<trkpt lat="38.6977900" lon="22.0452070">
<ele>978.408020</ele>
<time>2026-08-30T18:03:38.877Z</time>
</trkpt>
<trkpt lat="38.6978060" lon="22.0452210">
<ele>978.408020</ele>
<time>2026-08-30T18:03:38.877Z</time>
</trkpt>
<trkpt lat="38.6978120" lon="22.0452410">
<ele>978.408020</ele>
<time>2026-08-30T18:03:38.877Z</time>
</trkpt>
<trkpt lat="38.6978200" lon="22.0452680">
<ele>978.408020</ele>
<time>2026-08-30T18:03:38.877Z</time>
</trkpt>
<trkpt lat="38.6978410" lon="22.0452600">
<ele>978.103210</ele>
<time>2026-08-30T18:03:38.877Z</time>
</trkpt>
<trkpt lat="38.6978630" lon="22.0452390">
<ele>977.798401</ele>
<time>2026-08-30T18:03:38.877Z</time>
</trkpt>
<trkpt lat="38.6978880" lon="22.0452420">
<ele>977.493591</ele>
<time>2026-08-30T18:03:38.877Z</time>
</trkpt>
<trkpt lat="38.6979090" lon="22.0452510">
<ele>977.493591</ele>
<time>2026-08-30T18:03:38.877Z</time>
</trkpt>
<trkpt lat="38.6979430" lon="22.0452230">
<ele>976.883972</ele>
<time>2026-08-30T18:03:38.877Z</time>
</trkpt>
<trkpt lat="38.6979590" lon="22.0451980">
<ele>976.579224</ele>
<time>2026-08-30T18:03:38.877Z</time>
</trkpt>
<trkpt lat="38.6979790" lon="22.0451980">
<ele>976.579224</ele>
<time>2026-08-30T18:03:38.877Z</time>
</trkpt>
<trkpt lat="38.6979970" lon="22.0451700">
<ele>976.274414</ele>
<time>2026-08-30T18:03:38.877Z</time>
</trkpt>
<trkpt lat="38.6980060" lon="22.0451370">
<ele>975.969604</ele>
<time>2026-08-30T18:03:38.877Z</time>
</trkpt>
<trkpt lat="38.6980160" lon="22.0451090">
<ele>975.664795</ele>
<time>2026-08-30T18:03:38.877Z</time>
</trkpt>
<trkpt lat="38.6980350" lon="22.0450890">
<ele>975.359985</ele>
<time>2026-08-30T18:03:38.877Z</time>
</trkpt>
<trkpt lat="38.6980480" lon="22.0450650">
<ele>975.359985</ele>
<time>2026-08-30T18:03:38.877Z</time>
</trkpt>
<trkpt lat="38.6980580" lon="22.0450390">
<ele>975.055176</ele>
<time>2026-08-30T18:03:38.877Z</time>
</trkpt>
<trkpt lat="38.6980630" lon="22.0450190">
<ele>975.055176</ele>
<time>2026-08-30T18:03:38.877Z</time>
</trkpt>
<trkpt lat="38.6980800" lon="22.0449290">
<ele>975.055176</ele>
<time>2026-08-30T18:03:38.877Z</time>
</trkpt>
<trkpt lat="38.6980690" lon="22.0449020">
<ele>975.359985</ele>
<time>2026-08-30T18:03:38.877Z</time>
</trkpt>
<trkpt lat="38.6980380" lon="22.0448400">
<ele>975.664795</ele>
<time>2026-08-30T18:03:38.877Z</time>
</trkpt>
<trkpt lat="38.6978670" lon="22.0446150">
<ele>976.274414</ele>
<time>2026-08-30T18:03:38.877Z</time>
</trkpt>
<trkpt lat="38.6978580" lon="22.0445350">
<ele>976.274414</ele>
<time>2026-08-30T18:03:38.877Z</time>
</trkpt>
<trkpt lat="38.6978300" lon="22.0444980">
<ele>976.274414</ele>
<time>2026-08-30T18:03:38.877Z</time>
</trkpt>
<trkpt lat="38.6977460" lon="22.0444940">
<ele>975.969604</ele>
<time>2026-08-30T18:03:38.877Z</time>
</trkpt>
<trkpt lat="38.6971070" lon="22.0445920">
<ele>982.065613</ele>
<time>2026-08-30T18:03:38.877Z</time>
</trkpt>
<trkpt lat="38.6968000" lon="22.0446370">
<ele>984.199219</ele>
<time>2026-08-30T18:03:38.877Z</time>
</trkpt>
<trkpt lat="38.6966920" lon="22.0445670">
<ele>985.113586</ele>
<time>2026-08-30T18:03:38.877Z</time>
</trkpt>
<trkpt lat="38.6964390" lon="22.0442200">
<ele>983.284790</ele>
<time>2026-08-30T18:03:38.877Z</time>
</trkpt>
<trkpt lat="38.6961120" lon="22.0439070">
<ele>986.028015</ele>
<time>2026-08-30T18:03:38.877Z</time>
</trkpt>
<trkpt lat="38.6960430" lon="22.0438040">
<ele>987.247192</ele>
<time>2026-08-30T18:03:38.877Z</time>
</trkpt>
<trkpt lat="38.6960340" lon="22.0437130">
<ele>987.856812</ele>
<time>2026-08-30T18:03:38.877Z</time>
</trkpt>
<trkpt lat="38.6959980" lon="22.0434250">
<ele>990.904785</ele>
<time>2026-08-30T18:03:38.877Z</time>
</trkpt>
<trkpt lat="38.6961180" lon="22.0434810">
<ele>990.904785</ele>
<time>2026-08-30T18:03:38.877Z</time>
</trkpt>
<trkpt lat="38.6961770" lon="22.0433990">
<ele>993.038391</ele>
<time>2026-08-30T18:03:38.877Z</time>
</trkpt>
<trkpt lat="38.6962530" lon="22.0433270">
<ele>995.781616</ele>
<time>2026-08-30T18:03:38.877Z</time>
</trkpt>
<trkpt lat="38.6963110" lon="22.0433410">
<ele>996.391174</ele>
<time>2026-08-30T18:03:38.877Z</time>
</trkpt>
<trkpt lat="38.6963400" lon="22.0433360">
<ele>997.000793</ele>
<time>2026-08-30T18:03:38.877Z</time>
</trkpt>
<trkpt lat="38.6964240" lon="22.0432620">
<ele>1000.048828</ele>
<time>2026-08-30T18:03:38.877Z</time>
</trkpt>
<trkpt lat="38.6964730" lon="22.0431850">
<ele>1002.791992</ele>
<time>2026-08-30T18:03:38.877Z</time>
</trkpt>
<trkpt lat="38.6965030" lon="22.0430840">
<ele>1005.840027</ele>
<time>2026-08-30T18:03:38.877Z</time>
</trkpt>
<trkpt lat="38.6965870" lon="22.0428970">
<ele>1011.326416</ele>
<time>2026-08-30T18:03:38.877Z</time>
</trkpt>
<trkpt lat="38.6967280" lon="22.0427720">
<ele>1017.422424</ele>
<time>2026-08-30T18:03:38.877Z</time>
</trkpt>
<trkpt lat="38.6968640" lon="22.0427380">
<ele>1020.470398</ele>
<time>2026-08-30T18:03:38.877Z</time>
</trkpt>
<trkpt lat="38.6969480" lon="22.0427280">
<ele>1021.994385</ele>
<time>2026-08-30T18:03:38.877Z</time>
</trkpt>
<trkpt lat="38.6970020" lon="22.0427570">
<ele>1022.299194</ele>
<time>2026-08-30T18:03:38.877Z</time>
</trkpt>
<trkpt lat="38.6970510" lon="22.0428240">
<ele>1021.994385</ele>
<time>2026-08-30T18:03:38.877Z</time>
</trkpt>
<trkpt lat="38.6970930" lon="22.0428760">
<ele>1021.994385</ele>
<time>2026-08-30T18:03:38.877Z</time>
</trkpt>
<trkpt lat="38.6971320" lon="22.0428630">
<ele>1022.604004</ele>
<time>2026-08-30T18:03:38.877Z</time>
</trkpt>
<trkpt lat="38.6971800" lon="22.0428810">
<ele>1022.908813</ele>
<time>2026-08-30T18:03:38.877Z</time>
</trkpt>
<trkpt lat="38.6972160" lon="22.0429260">
<ele>1022.908813</ele>
<time>2026-08-30T18:03:38.877Z</time>
</trkpt>
<trkpt lat="38.6972500" lon="22.0428300">
<ele>1024.432739</ele>
<time>2026-08-30T18:03:38.877Z</time>
</trkpt>
<trkpt lat="38.6972920" lon="22.0428210">
<ele>1024.737549</ele>
<time>2026-08-30T18:03:38.877Z</time>
</trkpt>
<trkpt lat="38.6973400" lon="22.0428580">
<ele>1024.737549</ele>
<time>2026-08-30T18:03:38.877Z</time>
</trkpt>
<trkpt lat="38.6973840" lon="22.0428150">
<ele>1025.651978</ele>
<time>2026-08-30T18:03:38.877Z</time>
</trkpt>
<trkpt lat="38.6974180" lon="22.0427070">
<ele>1027.480835</ele>
<time>2026-08-30T18:03:38.877Z</time>
</trkpt>
<trkpt lat="38.6974620" lon="22.0426220">
<ele>1029.309570</ele>
<time>2026-08-30T18:03:38.877Z</time>
</trkpt>
<trkpt lat="38.6975160" lon="22.0425110">
<ele>1032.052856</ele>
<time>2026-08-30T18:03:38.877Z</time>
</trkpt>
<trkpt lat="38.6975820" lon="22.0423220">
<ele>1036.929565</ele>
<time>2026-08-30T18:03:38.877Z</time>
</trkpt>
<trkpt lat="38.6976240" lon="22.0421650">
<ele>1041.196777</ele>
<time>2026-08-30T18:03:38.877Z</time>
</trkpt>
<trkpt lat="38.6976570" lon="22.0420350">
<ele>1044.549561</ele>
<time>2026-08-30T18:03:38.877Z</time>
</trkpt>
<trkpt lat="38.6977550" lon="22.0418420">
<ele>1049.426392</ele>
<time>2026-08-30T18:03:38.877Z</time>
</trkpt>
<trkpt lat="38.6978430" lon="22.0417340">
<ele>1051.864746</ele>
<time>2026-08-30T18:03:38.877Z</time>
</trkpt>
<trkpt lat="38.6979220" lon="22.0416210">
<ele>1054.608032</ele>
<time>2026-08-30T18:03:38.877Z</time>
</trkpt>
<trkpt lat="38.6978970" lon="22.0415500">
<ele>1056.741577</ele>
<time>2026-08-30T18:03:38.877Z</time>
</trkpt>
<trkpt lat="38.6978930" lon="22.0415000">
<ele>1057.960815</ele>
<time>2026-08-30T18:03:38.879Z</time>
</trkpt>
<trkpt lat="38.6979060" lon="22.0413740">
<ele>1061.313599</ele>
<time>2026-08-30T18:03:38.879Z</time>
</trkpt>
<trkpt lat="38.6979300" lon="22.0412060">
<ele>1064.361572</ele>
<time>2026-08-30T18:03:38.879Z</time>
</trkpt>
<trkpt lat="38.6979550" lon="22.0411330">
<ele>1065.580811</ele>
<time>2026-08-30T18:03:38.879Z</time>
</trkpt>
<trkpt lat="38.6979980" lon="22.0410520">
<ele>1066.190430</ele>
<time>2026-08-30T18:03:38.879Z</time>
</trkpt>
<trkpt lat="38.6980450" lon="22.0409790">
<ele>1066.495239</ele>
<time>2026-08-30T18:03:38.879Z</time>
</trkpt>
<trkpt lat="38.6980650" lon="22.0409210">
<ele>1066.800049</ele>
<time>2026-08-30T18:03:38.879Z</time>
</trkpt>
<trkpt lat="38.6980850" lon="22.0408670">
<ele>1067.104858</ele>
<time>2026-08-30T18:03:38.879Z</time>
</trkpt>
<trkpt lat="38.6981560" lon="22.0406560">
<ele>1068.323975</ele>
<time>2026-08-30T18:03:38.879Z</time>
</trkpt>
<trkpt lat="38.6981990" lon="22.0405530">
<ele>1068.933594</ele>
<time>2026-08-30T18:03:38.879Z</time>
</trkpt>
<trkpt lat="38.6982540" lon="22.0404940">
<ele>1069.543213</ele>
<time>2026-08-30T18:03:38.879Z</time>
</trkpt>
<trkpt lat="38.6982830" lon="22.0404550">
<ele>1069.848022</ele>
<time>2026-08-30T18:03:38.879Z</time>
</trkpt>
<trkpt lat="38.6983540" lon="22.0403890">
<ele>1071.067261</ele>
<time>2026-08-30T18:03:38.879Z</time>
</trkpt>
<trkpt lat="38.6983930" lon="22.0403880">
<ele>1071.371948</ele>
<time>2026-08-30T18:03:38.879Z</time>
</trkpt>
<trkpt lat="38.6984460" lon="22.0403780">
<ele>1071.981567</ele>
<time>2026-08-30T18:03:38.879Z</time>
</trkpt>
<trkpt lat="38.6984480" lon="22.0403140">
<ele>1073.200806</ele>
<time>2026-08-30T18:03:38.879Z</time>
</trkpt>
<trkpt lat="38.6984320" lon="22.0402760">
<ele>1073.810425</ele>
<time>2026-08-30T18:03:38.879Z</time>
</trkpt>
<trkpt lat="38.6984170" lon="22.0402230">
<ele>1075.029541</ele>
<time>2026-08-30T18:03:38.879Z</time>
</trkpt>
<trkpt lat="38.6984090" lon="22.0401470">
<ele>1076.553589</ele>
<time>2026-08-30T18:03:38.879Z</time>
</trkpt>
<trkpt lat="38.6984000" lon="22.0400870">
<ele>1077.772827</ele>
<time>2026-08-30T18:03:38.879Z</time>
</trkpt>
<trkpt lat="38.6983920" lon="22.0400070">
<ele>1079.601563</ele>
<time>2026-08-30T18:03:38.879Z</time>
</trkpt>
<trkpt lat="38.6983850" lon="22.0399160">
<ele>1082.344849</ele>
<time>2026-08-30T18:03:38.879Z</time>
</trkpt>
<trkpt lat="38.6983740" lon="22.0398330">
<ele>1084.478394</ele>
<time>2026-08-30T18:03:38.879Z</time>
</trkpt>
<trkpt lat="38.6983580" lon="22.0397190">
<ele>1088.135986</ele>
<time>2026-08-30T18:03:38.879Z</time>
</trkpt>
<trkpt lat="38.6983420" lon="22.0396630">
<ele>1089.050415</ele>
<time>2026-08-30T18:03:38.879Z</time>
</trkpt>
<trkpt lat="38.6983170" lon="22.0395990">
<ele>1090.574341</ele>
<time>2026-08-30T18:03:38.879Z</time>
</trkpt>
<trkpt lat="38.6982950" lon="22.0395270">
<ele>1092.403198</ele>
<time>2026-08-30T18:03:38.879Z</time>
</trkpt>
<trkpt lat="38.6982550" lon="22.0394410">
<ele>1094.536743</ele>
<time>2026-08-30T18:03:38.879Z</time>
</trkpt>
<trkpt lat="38.6982170" lon="22.0393540">
<ele>1096.975220</ele>
<time>2026-08-30T18:03:38.879Z</time>
</trkpt>
<trkpt lat="38.6982520" lon="22.0392920">
<ele>1097.889648</ele>
<time>2026-08-30T18:03:38.879Z</time>
</trkpt>
<trkpt lat="38.6983650" lon="22.0391030">
<ele>1101.547241</ele>
<time>2026-08-30T18:03:38.879Z</time>
</trkpt>
<trkpt lat="38.6985630" lon="22.0388160">
<ele>1105.814453</ele>
<time>2026-08-30T18:03:38.879Z</time>
</trkpt>
<trkpt lat="38.6985620" lon="22.0387440">
<ele>1107.033569</ele>
<time>2026-08-30T18:03:38.879Z</time>
</trkpt>
<trkpt lat="38.6985400" lon="22.0386760">
<ele>1108.557617</ele>
<time>2026-08-30T18:03:38.879Z</time>
</trkpt>
<trkpt lat="38.6985440" lon="22.0385960">
<ele>1110.081543</ele>
<time>2026-08-30T18:03:38.879Z</time>
</trkpt>
<trkpt lat="38.6985170" lon="22.0385360">
<ele>1111.300781</ele>
<time>2026-08-30T18:03:38.879Z</time>
</trkpt>
<trkpt lat="38.6984800" lon="22.0384720">
<ele>1112.824829</ele>
<time>2026-08-30T18:03:38.879Z</time>
</trkpt>
<trkpt lat="38.6984670" lon="22.0384430">
<ele>1113.129639</ele>
<time>2026-08-30T18:03:38.879Z</time>
</trkpt>
<trkpt lat="38.6983250" lon="22.0381560">
<ele>1116.177612</ele>
<time>2026-08-30T18:03:38.879Z</time>
</trkpt>
<trkpt lat="38.6982860" lon="22.0380450">
<ele>1117.701660</ele>
<time>2026-08-30T18:03:38.879Z</time>
</trkpt>
<trkpt lat="38.6982860" lon="22.0380450">
<ele>1117.701660</ele>
<time>2026-08-30T18:03:38.879Z</time>
</trkpt>
<trkpt lat="38.6982920" lon="22.0380130">
<ele>1118.006348</ele>
<time>2026-08-30T18:03:38.879Z</time>
</trkpt>
<trkpt lat="38.6983070" lon="22.0379870">
<ele>1118.006348</ele>
<time>2026-08-30T18:03:38.879Z</time>
</trkpt>
<trkpt lat="38.6983720" lon="22.0377400">
<ele>1120.444824</ele>
<time>2026-08-30T18:03:38.879Z</time>
</trkpt>
<trkpt lat="38.6983890" lon="22.0376970">
<ele>1120.749634</ele>
<time>2026-08-30T18:03:38.879Z</time>
</trkpt>
<trkpt lat="38.6984300" lon="22.0376250">
<ele>1121.663940</ele>
<time>2026-08-30T18:03:38.879Z</time>
</trkpt>
<trkpt lat="38.6984970" lon="22.0375690">
<ele>1122.578369</ele>
<time>2026-08-30T18:03:38.879Z</time>
</trkpt>
<trkpt lat="38.6985270" lon="22.0375570">
<ele>1122.883179</ele>
<time>2026-08-30T18:03:38.879Z</time>
</trkpt>
<trkpt lat="38.6986640" lon="22.0375670">
<ele>1123.187988</ele>
<time>2026-08-30T18:03:38.879Z</time>
</trkpt>
<trkpt lat="38.6987200" lon="22.0375700">
<ele>1123.797607</ele>
<time>2026-08-30T18:03:38.879Z</time>
</trkpt>
<trkpt lat="38.6989400" lon="22.0375620">
<ele>1126.235962</ele>
<time>2026-08-30T18:03:38.879Z</time>
</trkpt>
<trkpt lat="38.6991040" lon="22.0375970">
<ele>1128.369629</ele>
<time>2026-08-30T18:03:38.879Z</time>
</trkpt>
<trkpt lat="38.6991550" lon="22.0375950">
<ele>1128.979248</ele>
<time>2026-08-30T18:03:38.879Z</time>
</trkpt>
<trkpt lat="38.6992090" lon="22.0375790">
<ele>1128.979248</ele>
<time>2026-08-30T18:03:38.879Z</time>
</trkpt>
<trkpt lat="38.6992620" lon="22.0375570">
<ele>1128.369629</ele>
<time>2026-08-30T18:03:38.879Z</time>
</trkpt>
<trkpt lat="38.6994740" lon="22.0374350">
<ele>1128.369629</ele>
<time>2026-08-30T18:03:38.879Z</time>
</trkpt>
<trkpt lat="38.6996890" lon="22.0372970">
<ele>1125.931152</ele>
<time>2026-08-30T18:03:38.879Z</time>
</trkpt>
<trkpt lat="38.6997270" lon="22.0372760">
<ele>1125.626343</ele>
<time>2026-08-30T18:03:38.879Z</time>
</trkpt>
<trkpt lat="38.6997730" lon="22.0372210">
<ele>1125.626343</ele>
<time>2026-08-30T18:03:38.879Z</time>
</trkpt>
<trkpt lat="38.6998200" lon="22.0370160">
<ele>1127.455200</ele>
<time>2026-08-30T18:03:38.879Z</time>
</trkpt>
<trkpt lat="38.6998570" lon="22.0368910">
<ele>1127.760010</ele>
<time>2026-08-30T18:03:38.879Z</time>
</trkpt>
</trkseg>
</trk>
</gpx>
